<?xml version="1.0" encoding="UTF-8" standalone="no" ?>
<gpx xmlns="http://www.topografix.com/GPX/1/1" xmlns:xsi="http://www.w3.org/2001/XMLSchema-instance" xsi:schemaLocation="http://www.topografix.com/GPX/1/1 http://www.topografix.com/GPX/1/1/gpx.xsd" version="1.1" creator="VisuGPX - https://www.visugpx.com">
  <metadata>
    <name>VOIE d'ARLES GR653 : Etape de REVEL aux CASSES</name>
    <desc><![CDATA[5 Juin 2023 : Etape n°14  du Chemin de Compostelle dit Voie d'Arles ou VIA TOLOSANA.
Parcours quasiment horizontal , tout au long de la RIGOLE a RIQUET , sur un large chemin ombragé. Hormis l'aspect bucolique des méandres , et avec beaucoup de chances voir quelques canards , et écureuils , , le seul point d'intérêt notable est , un peu avant la fin de l'étape , le LAC DE LENCLAS (ou vous pourrez manger si la guinguette est ouverte). 
On termine par une bonne remontée sur le village de LES CASSES , ou votre hebergeur vous attend. Ruines d'une ancienne abbaye , église et croix celtiques pour une petite visite le soir. 
Notre récit complet avec photos : [url]http://www.chabant.fr[/url] 
]]></desc>
  </metadata>
  <trk>
    <name><![CDATA[Revel Course à pied]]></name>
    <extensions>
      <line xmlns="http://www.topografix.com/GPX/gpx_style/0/2">
        <color>0000FF</color>
        <width>4</width>
      </line>
    </extensions>
    <trkseg>
      <trkpt lat="43.45701" lon="2.0028">
        <ele>216</ele>
        <time>2023-06-05T05:59:32.000Z</time>
      </trkpt>
      <trkpt lat="43.45698" lon="2.00278">
        <ele>216.60000610352</ele>
        <time>2023-06-05T05:59:35.000Z</time>
      </trkpt>
      <trkpt lat="43.45695" lon="2.00278">
        <ele>216.60000610352</ele>
        <time>2023-06-05T05:59:38.000Z</time>
      </trkpt>
      <trkpt lat="43.45694" lon="2.00278">
        <ele>216.60000610352</ele>
        <time>2023-06-05T05:59:39.000Z</time>
      </trkpt>
      <trkpt lat="43.45693" lon="2.00279">
        <ele>216.60000610352</ele>
        <time>2023-06-05T05:59:43.000Z</time>
      </trkpt>
      <trkpt lat="43.45693" lon="2.00281">
        <ele>216.60000610352</ele>
        <time>2023-06-05T05:59:49.000Z</time>
      </trkpt>
      <trkpt lat="43.4569" lon="2.0028">
        <ele>216.60000610352</ele>
        <time>2023-06-05T05:59:54.000Z</time>
      </trkpt>
      <trkpt lat="43.45685" lon="2.00281">
        <ele>216.39999389648</ele>
        <time>2023-06-05T06:00:00.000Z</time>
      </trkpt>
      <trkpt lat="43.45681" lon="2.00284">
        <ele>216.39999389648</ele>
        <time>2023-06-05T06:00:06.000Z</time>
      </trkpt>
      <trkpt lat="43.45674" lon="2.00291">
        <ele>216.39999389648</ele>
        <time>2023-06-05T06:00:17.000Z</time>
      </trkpt>
      <trkpt lat="43.45672" lon="2.00292">
        <ele>216.39999389648</ele>
        <time>2023-06-05T06:00:24.000Z</time>
      </trkpt>
      <trkpt lat="43.4567" lon="2.00294">
        <ele>216.39999389648</ele>
        <time>2023-06-05T06:00:32.000Z</time>
      </trkpt>
      <trkpt lat="43.45665" lon="2.003">
        <ele>216.39999389648</ele>
        <time>2023-06-05T06:00:36.000Z</time>
      </trkpt>
      <trkpt lat="43.45664" lon="2.00299">
        <ele>216.39999389648</ele>
        <time>2023-06-05T06:00:38.000Z</time>
      </trkpt>
      <trkpt lat="43.45663" lon="2.00298">
        <ele>216.39999389648</ele>
        <time>2023-06-05T06:00:39.000Z</time>
      </trkpt>
      <trkpt lat="43.45655" lon="2.00293">
        <ele>216.39999389648</ele>
        <time>2023-06-05T06:00:46.000Z</time>
      </trkpt>
      <trkpt lat="43.4565" lon="2.00285">
        <ele>216.39999389648</ele>
        <time>2023-06-05T06:00:53.000Z</time>
      </trkpt>
      <trkpt lat="43.45648" lon="2.00283">
        <ele>216.60000610352</ele>
        <time>2023-06-05T06:00:55.000Z</time>
      </trkpt>
      <trkpt lat="43.45645" lon="2.0028">
        <ele>216.80000305176</ele>
        <time>2023-06-05T06:00:59.000Z</time>
      </trkpt>
      <trkpt lat="43.45646" lon="2.00274">
        <ele>216.80000305176</ele>
        <time>2023-06-05T06:01:03.000Z</time>
      </trkpt>
      <trkpt lat="43.45649" lon="2.00269">
        <ele>216.80000305176</ele>
        <time>2023-06-05T06:01:04.000Z</time>
      </trkpt>
      <trkpt lat="43.45651" lon="2.00265">
        <ele>216.80000305176</ele>
        <time>2023-06-05T06:01:06.000Z</time>
      </trkpt>
      <trkpt lat="43.45652" lon="2.00259">
        <ele>216.80000305176</ele>
        <time>2023-06-05T06:01:09.000Z</time>
      </trkpt>
      <trkpt lat="43.45652" lon="2.00257">
        <ele>216.60000610352</ele>
        <time>2023-06-05T06:01:11.000Z</time>
      </trkpt>
      <trkpt lat="43.45651" lon="2.00256">
        <ele>216.60000610352</ele>
        <time>2023-06-05T06:01:12.000Z</time>
      </trkpt>
      <trkpt lat="43.4565" lon="2.00256">
        <ele>216.80000305176</ele>
        <time>2023-06-05T06:01:13.000Z</time>
      </trkpt>
      <trkpt lat="43.45645" lon="2.00256">
        <ele>216.80000305176</ele>
        <time>2023-06-05T06:01:16.000Z</time>
      </trkpt>
      <trkpt lat="43.45641" lon="2.0025">
        <ele>216.80000305176</ele>
        <time>2023-06-05T06:01:22.000Z</time>
      </trkpt>
      <trkpt lat="43.4564" lon="2.00248">
        <ele>216.80000305176</ele>
        <time>2023-06-05T06:01:23.000Z</time>
      </trkpt>
      <trkpt lat="43.45639" lon="2.00244">
        <ele>217</ele>
        <time>2023-06-05T06:01:27.000Z</time>
      </trkpt>
      <trkpt lat="43.45637" lon="2.00242">
        <ele>217</ele>
        <time>2023-06-05T06:01:29.000Z</time>
      </trkpt>
      <trkpt lat="43.45632" lon="2.00241">
        <ele>217</ele>
        <time>2023-06-05T06:01:35.000Z</time>
      </trkpt>
      <trkpt lat="43.45628" lon="2.00245">
        <ele>217</ele>
        <time>2023-06-05T06:01:40.000Z</time>
      </trkpt>
      <trkpt lat="43.45625" lon="2.00244">
        <ele>217</ele>
        <time>2023-06-05T06:01:43.000Z</time>
      </trkpt>
      <trkpt lat="43.45623" lon="2.00243">
        <ele>217.19999694824</ele>
        <time>2023-06-05T06:01:45.000Z</time>
      </trkpt>
      <trkpt lat="43.45614" lon="2.00239">
        <ele>217.19999694824</ele>
        <time>2023-06-05T06:01:52.000Z</time>
      </trkpt>
      <trkpt lat="43.45604" lon="2.00234">
        <ele>217.39999389648</ele>
        <time>2023-06-05T06:02:01.000Z</time>
      </trkpt>
      <trkpt lat="43.45601" lon="2.00233">
        <ele>217.39999389648</ele>
        <time>2023-06-05T06:02:04.000Z</time>
      </trkpt>
      <trkpt lat="43.45598" lon="2.00232">
        <ele>217.60000610352</ele>
        <time>2023-06-05T06:02:07.000Z</time>
      </trkpt>
      <trkpt lat="43.4559" lon="2.00227">
        <ele>217.60000610352</ele>
        <time>2023-06-05T06:02:15.000Z</time>
      </trkpt>
      <trkpt lat="43.45589" lon="2.00226">
        <ele>217.60000610352</ele>
        <time>2023-06-05T06:02:16.000Z</time>
      </trkpt>
      <trkpt lat="43.45588" lon="2.00225">
        <ele>217.80000305176</ele>
        <time>2023-06-05T06:02:21.000Z</time>
      </trkpt>
      <trkpt lat="43.45586" lon="2.00221">
        <ele>217.80000305176</ele>
        <time>2023-06-05T06:02:27.000Z</time>
      </trkpt>
      <trkpt lat="43.45581" lon="2.00218">
        <ele>217.80000305176</ele>
        <time>2023-06-05T06:02:32.000Z</time>
      </trkpt>
      <trkpt lat="43.45576" lon="2.00217">
        <ele>218</ele>
        <time>2023-06-05T06:02:36.000Z</time>
      </trkpt>
      <trkpt lat="43.45575" lon="2.00217">
        <ele>218</ele>
        <time>2023-06-05T06:02:37.000Z</time>
      </trkpt>
      <trkpt lat="43.45571" lon="2.00215">
        <ele>218</ele>
        <time>2023-06-05T06:02:41.000Z</time>
      </trkpt>
      <trkpt lat="43.45569" lon="2.00214">
        <ele>218</ele>
        <time>2023-06-05T06:02:43.000Z</time>
      </trkpt>
      <trkpt lat="43.45565" lon="2.00211">
        <ele>218.19999694824</ele>
        <time>2023-06-05T06:02:48.000Z</time>
      </trkpt>
      <trkpt lat="43.45564" lon="2.00208">
        <ele>218.19999694824</ele>
        <time>2023-06-05T06:02:51.000Z</time>
      </trkpt>
      <trkpt lat="43.45562" lon="2.00206">
        <ele>218.19999694824</ele>
        <time>2023-06-05T06:02:53.000Z</time>
      </trkpt>
      <trkpt lat="43.45561" lon="2.00204">
        <ele>218.19999694824</ele>
        <time>2023-06-05T06:02:57.000Z</time>
      </trkpt>
      <trkpt lat="43.45557" lon="2.00198">
        <ele>218.39999389648</ele>
        <time>2023-06-05T06:03:02.000Z</time>
      </trkpt>
      <trkpt lat="43.45553" lon="2.00194">
        <ele>218.80000305176</ele>
        <time>2023-06-05T06:03:06.000Z</time>
      </trkpt>
      <trkpt lat="43.45548" lon="2.00191">
        <ele>218.80000305176</ele>
        <time>2023-06-05T06:03:10.000Z</time>
      </trkpt>
      <trkpt lat="43.45547" lon="2.0019">
        <ele>218.80000305176</ele>
        <time>2023-06-05T06:03:11.000Z</time>
      </trkpt>
      <trkpt lat="43.45545" lon="2.00188">
        <ele>219</ele>
        <time>2023-06-05T06:03:14.000Z</time>
      </trkpt>
      <trkpt lat="43.45546" lon="2.00188">
        <ele>219</ele>
        <time>2023-06-05T06:03:15.000Z</time>
      </trkpt>
      <trkpt lat="43.45545" lon="2.00187">
        <ele>219</ele>
        <time>2023-06-05T06:03:16.000Z</time>
      </trkpt>
      <trkpt lat="43.45542" lon="2.00182">
        <ele>219.19999694824</ele>
        <time>2023-06-05T06:03:23.000Z</time>
      </trkpt>
      <trkpt lat="43.45536" lon="2.00178">
        <ele>219.19999694824</ele>
        <time>2023-06-05T06:03:29.000Z</time>
      </trkpt>
      <trkpt lat="43.45529" lon="2.00173">
        <ele>219.39999389648</ele>
        <time>2023-06-05T06:03:36.000Z</time>
      </trkpt>
      <trkpt lat="43.45521" lon="2.00167">
        <ele>219.60000610352</ele>
        <time>2023-06-05T06:03:44.000Z</time>
      </trkpt>
      <trkpt lat="43.45513" lon="2.00161">
        <ele>219.80000305176</ele>
        <time>2023-06-05T06:03:52.000Z</time>
      </trkpt>
      <trkpt lat="43.45509" lon="2.00157">
        <ele>219.80000305176</ele>
        <time>2023-06-05T06:03:57.000Z</time>
      </trkpt>
      <trkpt lat="43.45507" lon="2.00157">
        <ele>219.80000305176</ele>
        <time>2023-06-05T06:03:58.000Z</time>
      </trkpt>
      <trkpt lat="43.45502" lon="2.00153">
        <ele>220</ele>
        <time>2023-06-05T06:04:03.000Z</time>
      </trkpt>
      <trkpt lat="43.455" lon="2.00152">
        <ele>220</ele>
        <time>2023-06-05T06:04:05.000Z</time>
      </trkpt>
      <trkpt lat="43.45498" lon="2.00151">
        <ele>220</ele>
        <time>2023-06-05T06:04:07.000Z</time>
      </trkpt>
      <trkpt lat="43.45496" lon="2.00149">
        <ele>220.19999694824</ele>
        <time>2023-06-05T06:04:09.000Z</time>
      </trkpt>
      <trkpt lat="43.45493" lon="2.00148">
        <ele>220.19999694824</ele>
        <time>2023-06-05T06:04:12.000Z</time>
      </trkpt>
      <trkpt lat="43.45491" lon="2.00147">
        <ele>220.19999694824</ele>
        <time>2023-06-05T06:04:14.000Z</time>
      </trkpt>
      <trkpt lat="43.45485" lon="2.00142">
        <ele>220.60000610352</ele>
        <time>2023-06-05T06:04:21.000Z</time>
      </trkpt>
      <trkpt lat="43.45478" lon="2.00137">
        <ele>220.60000610352</ele>
        <time>2023-06-05T06:04:28.000Z</time>
      </trkpt>
      <trkpt lat="43.45477" lon="2.00136">
        <ele>220.80000305176</ele>
        <time>2023-06-05T06:04:29.000Z</time>
      </trkpt>
      <trkpt lat="43.45471" lon="2.00133">
        <ele>221</ele>
        <time>2023-06-05T06:04:35.000Z</time>
      </trkpt>
      <trkpt lat="43.45462" lon="2.00131">
        <ele>221.19999694824</ele>
        <time>2023-06-05T06:04:42.000Z</time>
      </trkpt>
      <trkpt lat="43.45455" lon="2.00129">
        <ele>221.39999389648</ele>
        <time>2023-06-05T06:04:48.000Z</time>
      </trkpt>
      <trkpt lat="43.45452" lon="2.00128">
        <ele>221.60000610352</ele>
        <time>2023-06-05T06:04:51.000Z</time>
      </trkpt>
      <trkpt lat="43.45448" lon="2.00128">
        <ele>221.60000610352</ele>
        <time>2023-06-05T06:04:54.000Z</time>
      </trkpt>
      <trkpt lat="43.45442" lon="2.00124">
        <ele>221.80000305176</ele>
        <time>2023-06-05T06:05:00.000Z</time>
      </trkpt>
      <trkpt lat="43.45435" lon="2.0012">
        <ele>222</ele>
        <time>2023-06-05T06:05:07.000Z</time>
      </trkpt>
      <trkpt lat="43.45431" lon="2.00119">
        <ele>222</ele>
        <time>2023-06-05T06:05:10.000Z</time>
      </trkpt>
      <trkpt lat="43.45426" lon="2.00117">
        <ele>222.19999694824</ele>
        <time>2023-06-05T06:05:15.000Z</time>
      </trkpt>
      <trkpt lat="43.45425" lon="2.00117">
        <ele>222.19999694824</ele>
        <time>2023-06-05T06:05:16.000Z</time>
      </trkpt>
      <trkpt lat="43.45424" lon="2.00116">
        <ele>222.19999694824</ele>
        <time>2023-06-05T06:05:17.000Z</time>
      </trkpt>
      <trkpt lat="43.45418" lon="2.00114">
        <ele>222.39999389648</ele>
        <time>2023-06-05T06:05:22.000Z</time>
      </trkpt>
      <trkpt lat="43.45412" lon="2.00112">
        <ele>222.60000610352</ele>
        <time>2023-06-05T06:05:28.000Z</time>
      </trkpt>
      <trkpt lat="43.45405" lon="2.0011">
        <ele>223</ele>
        <time>2023-06-05T06:05:35.000Z</time>
      </trkpt>
      <trkpt lat="43.45404" lon="2.0011">
        <ele>223</ele>
        <time>2023-06-05T06:05:36.000Z</time>
      </trkpt>
      <trkpt lat="43.45395" lon="2.0011">
        <ele>223.19999694824</ele>
        <time>2023-06-05T06:05:42.000Z</time>
      </trkpt>
      <trkpt lat="43.45394" lon="2.0011">
        <ele>223.19999694824</ele>
        <time>2023-06-05T06:05:43.000Z</time>
      </trkpt>
      <trkpt lat="43.45391" lon="2.0011">
        <ele>223.19999694824</ele>
        <time>2023-06-05T06:05:46.000Z</time>
      </trkpt>
      <trkpt lat="43.45387" lon="2.00111">
        <ele>223.19999694824</ele>
        <time>2023-06-05T06:05:49.000Z</time>
      </trkpt>
      <trkpt lat="43.45382" lon="2.00109">
        <ele>223.39999389648</ele>
        <time>2023-06-05T06:05:55.000Z</time>
      </trkpt>
      <trkpt lat="43.4538" lon="2.00109">
        <ele>223.60000610352</ele>
        <time>2023-06-05T06:05:57.000Z</time>
      </trkpt>
      <trkpt lat="43.45374" lon="2.00108">
        <ele>223.60000610352</ele>
        <time>2023-06-05T06:06:02.000Z</time>
      </trkpt>
      <trkpt lat="43.45372" lon="2.00108">
        <ele>223.80000305176</ele>
        <time>2023-06-05T06:06:03.000Z</time>
      </trkpt>
      <trkpt lat="43.45367" lon="2.00107">
        <ele>223.80000305176</ele>
        <time>2023-06-05T06:06:08.000Z</time>
      </trkpt>
      <trkpt lat="43.4536" lon="2.00106">
        <ele>224.19999694824</ele>
        <time>2023-06-05T06:06:15.000Z</time>
      </trkpt>
      <trkpt lat="43.45357" lon="2.00106">
        <ele>224.39999389648</ele>
        <time>2023-06-05T06:06:17.000Z</time>
      </trkpt>
      <trkpt lat="43.45351" lon="2.00108">
        <ele>224.39999389648</ele>
        <time>2023-06-05T06:06:24.000Z</time>
      </trkpt>
      <trkpt lat="43.4535" lon="2.00107">
        <ele>224.39999389648</ele>
        <time>2023-06-05T06:06:25.000Z</time>
      </trkpt>
      <trkpt lat="43.45347" lon="2.00105">
        <ele>224.39999389648</ele>
        <time>2023-06-05T06:06:28.000Z</time>
      </trkpt>
      <trkpt lat="43.45346" lon="2.00106">
        <ele>224.39999389648</ele>
        <time>2023-06-05T06:06:30.000Z</time>
      </trkpt>
      <trkpt lat="43.45341" lon="2.00108">
        <ele>224.39999389648</ele>
        <time>2023-06-05T06:06:38.000Z</time>
      </trkpt>
      <trkpt lat="43.4534" lon="2.00111">
        <ele>224.60000610352</ele>
        <time>2023-06-05T06:06:46.000Z</time>
      </trkpt>
      <trkpt lat="43.45334" lon="2.00108">
        <ele>224.60000610352</ele>
        <time>2023-06-05T06:06:53.000Z</time>
      </trkpt>
      <trkpt lat="43.45328" lon="2.001">
        <ele>224.60000610352</ele>
        <time>2023-06-05T06:07:01.000Z</time>
      </trkpt>
      <trkpt lat="43.45326" lon="2.00098">
        <ele>224.60000610352</ele>
        <time>2023-06-05T06:07:03.000Z</time>
      </trkpt>
      <trkpt lat="43.45323" lon="2.00095">
        <ele>224.80000305176</ele>
        <time>2023-06-05T06:07:06.000Z</time>
      </trkpt>
      <trkpt lat="43.45317" lon="2.00092">
        <ele>224.80000305176</ele>
        <time>2023-06-05T06:07:11.000Z</time>
      </trkpt>
      <trkpt lat="43.45312" lon="2.00089">
        <ele>224.80000305176</ele>
        <time>2023-06-05T06:07:16.000Z</time>
      </trkpt>
      <trkpt lat="43.45311" lon="2.00088">
        <ele>225</ele>
        <time>2023-06-05T06:07:17.000Z</time>
      </trkpt>
      <trkpt lat="43.45309" lon="2.00087">
        <ele>225</ele>
        <time>2023-06-05T06:07:19.000Z</time>
      </trkpt>
      <trkpt lat="43.45307" lon="2.00086">
        <ele>225</ele>
        <time>2023-06-05T06:07:22.000Z</time>
      </trkpt>
      <trkpt lat="43.45304" lon="2.00083">
        <ele>225</ele>
        <time>2023-06-05T06:07:25.000Z</time>
      </trkpt>
      <trkpt lat="43.45302" lon="2.0008">
        <ele>225.19999694824</ele>
        <time>2023-06-05T06:07:28.000Z</time>
      </trkpt>
      <trkpt lat="43.45301" lon="2.0008">
        <ele>225.19999694824</ele>
        <time>2023-06-05T06:07:29.000Z</time>
      </trkpt>
      <trkpt lat="43.45298" lon="2.00075">
        <ele>225.19999694824</ele>
        <time>2023-06-05T06:07:33.000Z</time>
      </trkpt>
      <trkpt lat="43.45296" lon="2.00073">
        <ele>225.19999694824</ele>
        <time>2023-06-05T06:07:35.000Z</time>
      </trkpt>
      <trkpt lat="43.45292" lon="2.00069">
        <ele>225.19999694824</ele>
        <time>2023-06-05T06:07:39.000Z</time>
      </trkpt>
      <trkpt lat="43.45289" lon="2.00067">
        <ele>225.39999389648</ele>
        <time>2023-06-05T06:07:42.000Z</time>
      </trkpt>
      <trkpt lat="43.45288" lon="2.00066">
        <ele>225.39999389648</ele>
        <time>2023-06-05T06:07:43.000Z</time>
      </trkpt>
      <trkpt lat="43.45285" lon="2.00063">
        <ele>225.39999389648</ele>
        <time>2023-06-05T06:07:46.000Z</time>
      </trkpt>
      <trkpt lat="43.45282" lon="2.0006">
        <ele>225.39999389648</ele>
        <time>2023-06-05T06:07:50.000Z</time>
      </trkpt>
      <trkpt lat="43.45276" lon="2.00057">
        <ele>225.60000610352</ele>
        <time>2023-06-05T06:07:56.000Z</time>
      </trkpt>
      <trkpt lat="43.45269" lon="2.0005">
        <ele>225.60000610352</ele>
        <time>2023-06-05T06:08:04.000Z</time>
      </trkpt>
      <trkpt lat="43.45262" lon="2.00043">
        <ele>225.80000305176</ele>
        <time>2023-06-05T06:08:11.000Z</time>
      </trkpt>
      <trkpt lat="43.45261" lon="2.00043">
        <ele>225.80000305176</ele>
        <time>2023-06-05T06:08:12.000Z</time>
      </trkpt>
      <trkpt lat="43.45252" lon="2.00037">
        <ele>225.80000305176</ele>
        <time>2023-06-05T06:08:20.000Z</time>
      </trkpt>
      <trkpt lat="43.4525" lon="2.00035">
        <ele>225.80000305176</ele>
        <time>2023-06-05T06:08:22.000Z</time>
      </trkpt>
      <trkpt lat="43.45245" lon="2.00033">
        <ele>226</ele>
        <time>2023-06-05T06:08:26.000Z</time>
      </trkpt>
      <trkpt lat="43.45235" lon="2.00025">
        <ele>226.19999694824</ele>
        <time>2023-06-05T06:08:35.000Z</time>
      </trkpt>
      <trkpt lat="43.4523" lon="2.00022">
        <ele>226.39999389648</ele>
        <time>2023-06-05T06:08:40.000Z</time>
      </trkpt>
      <trkpt lat="43.45227" lon="2.00018">
        <ele>226.39999389648</ele>
        <time>2023-06-05T06:08:44.000Z</time>
      </trkpt>
      <trkpt lat="43.45223" lon="2.00014">
        <ele>226.60000610352</ele>
        <time>2023-06-05T06:08:49.000Z</time>
      </trkpt>
      <trkpt lat="43.45221" lon="2.00013">
        <ele>226.60000610352</ele>
        <time>2023-06-05T06:08:51.000Z</time>
      </trkpt>
      <trkpt lat="43.45219" lon="2.00011">
        <ele>226.60000610352</ele>
        <time>2023-06-05T06:08:58.000Z</time>
      </trkpt>
      <trkpt lat="43.45213" lon="2.0001">
        <ele>226.19999694824</ele>
        <time>2023-06-05T06:09:06.000Z</time>
      </trkpt>
      <trkpt lat="43.45207" lon="2.00007">
        <ele>226.60000610352</ele>
        <time>2023-06-05T06:09:12.000Z</time>
      </trkpt>
      <trkpt lat="43.45205" lon="2.00005">
        <ele>226.80000305176</ele>
        <time>2023-06-05T06:09:14.000Z</time>
      </trkpt>
      <trkpt lat="43.452" lon="2.00002">
        <ele>226.80000305176</ele>
        <time>2023-06-05T06:09:18.000Z</time>
      </trkpt>
      <trkpt lat="43.45199" lon="2">
        <ele>227</ele>
        <time>2023-06-05T06:09:20.000Z</time>
      </trkpt>
      <trkpt lat="43.45197" lon="1.99998">
        <ele>227.19999694824</ele>
        <time>2023-06-05T06:09:22.000Z</time>
      </trkpt>
      <trkpt lat="43.45195" lon="1.99997">
        <ele>227.39999389648</ele>
        <time>2023-06-05T06:09:23.000Z</time>
      </trkpt>
      <trkpt lat="43.45193" lon="1.99994">
        <ele>227.80000305176</ele>
        <time>2023-06-05T06:09:26.000Z</time>
      </trkpt>
      <trkpt lat="43.4519" lon="1.99991">
        <ele>228</ele>
        <time>2023-06-05T06:09:30.000Z</time>
      </trkpt>
      <trkpt lat="43.45185" lon="1.99987">
        <ele>228.19999694824</ele>
        <time>2023-06-05T06:09:34.000Z</time>
      </trkpt>
      <trkpt lat="43.45182" lon="1.99984">
        <ele>228.19999694824</ele>
        <time>2023-06-05T06:09:37.000Z</time>
      </trkpt>
      <trkpt lat="43.4518" lon="1.99983">
        <ele>228.39999389648</ele>
        <time>2023-06-05T06:09:39.000Z</time>
      </trkpt>
      <trkpt lat="43.45176" lon="1.99979">
        <ele>228.39999389648</ele>
        <time>2023-06-05T06:09:44.000Z</time>
      </trkpt>
      <trkpt lat="43.45173" lon="1.99977">
        <ele>228.39999389648</ele>
        <time>2023-06-05T06:09:47.000Z</time>
      </trkpt>
      <trkpt lat="43.45166" lon="1.99973">
        <ele>228.80000305176</ele>
        <time>2023-06-05T06:09:53.000Z</time>
      </trkpt>
      <trkpt lat="43.45164" lon="1.99971">
        <ele>229</ele>
        <time>2023-06-05T06:09:56.000Z</time>
      </trkpt>
      <trkpt lat="43.45162" lon="1.99969">
        <ele>229</ele>
        <time>2023-06-05T06:09:59.000Z</time>
      </trkpt>
      <trkpt lat="43.4516" lon="1.99969">
        <ele>229.19999694824</ele>
        <time>2023-06-05T06:10:02.000Z</time>
      </trkpt>
      <trkpt lat="43.45158" lon="1.99968">
        <ele>229.19999694824</ele>
        <time>2023-06-05T06:10:04.000Z</time>
      </trkpt>
      <trkpt lat="43.45156" lon="1.99966">
        <ele>229.19999694824</ele>
        <time>2023-06-05T06:10:06.000Z</time>
      </trkpt>
      <trkpt lat="43.45151" lon="1.99963">
        <ele>229.60000610352</ele>
        <time>2023-06-05T06:10:11.000Z</time>
      </trkpt>
      <trkpt lat="43.45144" lon="1.9996">
        <ele>230</ele>
        <time>2023-06-05T06:10:17.000Z</time>
      </trkpt>
      <trkpt lat="43.45143" lon="1.99959">
        <ele>230</ele>
        <time>2023-06-05T06:10:18.000Z</time>
      </trkpt>
      <trkpt lat="43.45142" lon="1.99958">
        <ele>230</ele>
        <time>2023-06-05T06:10:19.000Z</time>
      </trkpt>
      <trkpt lat="43.4514" lon="1.99957">
        <ele>230.19999694824</ele>
        <time>2023-06-05T06:10:22.000Z</time>
      </trkpt>
      <trkpt lat="43.45138" lon="1.99955">
        <ele>230.39999389648</ele>
        <time>2023-06-05T06:10:24.000Z</time>
      </trkpt>
      <trkpt lat="43.45136" lon="1.99954">
        <ele>230.60000610352</ele>
        <time>2023-06-05T06:10:29.000Z</time>
      </trkpt>
      <trkpt lat="43.45134" lon="1.99951">
        <ele>230.60000610352</ele>
        <time>2023-06-05T06:10:36.000Z</time>
      </trkpt>
      <trkpt lat="43.45133" lon="1.99945">
        <ele>231</ele>
        <time>2023-06-05T06:10:41.000Z</time>
      </trkpt>
      <trkpt lat="43.45135" lon="1.99936">
        <ele>231</ele>
        <time>2023-06-05T06:10:49.000Z</time>
      </trkpt>
      <trkpt lat="43.45137" lon="1.99933">
        <ele>231</ele>
        <time>2023-06-05T06:10:52.000Z</time>
      </trkpt>
      <trkpt lat="43.45138" lon="1.99929">
        <ele>231</ele>
        <time>2023-06-05T06:10:56.000Z</time>
      </trkpt>
      <trkpt lat="43.4514" lon="1.99922">
        <ele>231</ele>
        <time>2023-06-05T06:11:03.000Z</time>
      </trkpt>
      <trkpt lat="43.45139" lon="1.99914">
        <ele>231</ele>
        <time>2023-06-05T06:11:09.000Z</time>
      </trkpt>
      <trkpt lat="43.45138" lon="1.99907">
        <ele>230.80000305176</ele>
        <time>2023-06-05T06:11:16.000Z</time>
      </trkpt>
      <trkpt lat="43.45138" lon="1.99906">
        <ele>231</ele>
        <time>2023-06-05T06:11:17.000Z</time>
      </trkpt>
      <trkpt lat="43.45138" lon="1.99902">
        <ele>230.80000305176</ele>
        <time>2023-06-05T06:11:21.000Z</time>
      </trkpt>
      <trkpt lat="43.45138" lon="1.99903">
        <ele>230.80000305176</ele>
        <time>2023-06-05T06:11:22.000Z</time>
      </trkpt>
      <trkpt lat="43.45137" lon="1.99903">
        <ele>230.60000610352</ele>
        <time>2023-06-05T06:11:32.000Z</time>
      </trkpt>
      <trkpt lat="43.45139" lon="1.99888">
        <ele>230.60000610352</ele>
        <time>2023-06-05T06:11:39.000Z</time>
      </trkpt>
      <trkpt lat="43.45137" lon="1.99881">
        <ele>230.60000610352</ele>
        <time>2023-06-05T06:11:47.000Z</time>
      </trkpt>
      <trkpt lat="43.45136" lon="1.99876">
        <ele>230.60000610352</ele>
        <time>2023-06-05T06:11:51.000Z</time>
      </trkpt>
      <trkpt lat="43.45137" lon="1.99873">
        <ele>230.60000610352</ele>
        <time>2023-06-05T06:11:54.000Z</time>
      </trkpt>
      <trkpt lat="43.45136" lon="1.9987">
        <ele>230.60000610352</ele>
        <time>2023-06-05T06:11:56.000Z</time>
      </trkpt>
      <trkpt lat="43.45135" lon="1.99867">
        <ele>230.60000610352</ele>
        <time>2023-06-05T06:11:58.000Z</time>
      </trkpt>
      <trkpt lat="43.45135" lon="1.99862">
        <ele>230.60000610352</ele>
        <time>2023-06-05T06:12:01.000Z</time>
      </trkpt>
      <trkpt lat="43.45134" lon="1.99861">
        <ele>230.60000610352</ele>
        <time>2023-06-05T06:12:02.000Z</time>
      </trkpt>
      <trkpt lat="43.45133" lon="1.99851">
        <ele>230.19999694824</ele>
        <time>2023-06-05T06:12:08.000Z</time>
      </trkpt>
      <trkpt lat="43.45133" lon="1.99849">
        <ele>230.19999694824</ele>
        <time>2023-06-05T06:12:09.000Z</time>
      </trkpt>
      <trkpt lat="43.45134" lon="1.99841">
        <ele>230.19999694824</ele>
        <time>2023-06-05T06:12:14.000Z</time>
      </trkpt>
      <trkpt lat="43.45136" lon="1.99831">
        <ele>230.19999694824</ele>
        <time>2023-06-05T06:12:20.000Z</time>
      </trkpt>
      <trkpt lat="43.45137" lon="1.99824">
        <ele>230.19999694824</ele>
        <time>2023-06-05T06:12:26.000Z</time>
      </trkpt>
      <trkpt lat="43.45139" lon="1.99818">
        <ele>230.19999694824</ele>
        <time>2023-06-05T06:12:31.000Z</time>
      </trkpt>
      <trkpt lat="43.45139" lon="1.99817">
        <ele>230.19999694824</ele>
        <time>2023-06-05T06:12:32.000Z</time>
      </trkpt>
      <trkpt lat="43.45139" lon="1.99816">
        <ele>230.19999694824</ele>
        <time>2023-06-05T06:12:33.000Z</time>
      </trkpt>
      <trkpt lat="43.45142" lon="1.99809">
        <ele>230</ele>
        <time>2023-06-05T06:12:40.000Z</time>
      </trkpt>
      <trkpt lat="43.45143" lon="1.99806">
        <ele>230</ele>
        <time>2023-06-05T06:12:42.000Z</time>
      </trkpt>
      <trkpt lat="43.45146" lon="1.99801">
        <ele>229.80000305176</ele>
        <time>2023-06-05T06:12:47.000Z</time>
      </trkpt>
      <trkpt lat="43.45149" lon="1.9979">
        <ele>229.80000305176</ele>
        <time>2023-06-05T06:12:54.000Z</time>
      </trkpt>
      <trkpt lat="43.45149" lon="1.99788">
        <ele>229.60000610352</ele>
        <time>2023-06-05T06:12:55.000Z</time>
      </trkpt>
      <trkpt lat="43.45151" lon="1.99785">
        <ele>229.60000610352</ele>
        <time>2023-06-05T06:12:58.000Z</time>
      </trkpt>
      <trkpt lat="43.45151" lon="1.99783">
        <ele>229.60000610352</ele>
        <time>2023-06-05T06:12:59.000Z</time>
      </trkpt>
      <trkpt lat="43.45153" lon="1.99778">
        <ele>229.39999389648</ele>
        <time>2023-06-05T06:13:03.000Z</time>
      </trkpt>
      <trkpt lat="43.45154" lon="1.99772">
        <ele>229.39999389648</ele>
        <time>2023-06-05T06:13:06.000Z</time>
      </trkpt>
      <trkpt lat="43.45154" lon="1.99771">
        <ele>229.39999389648</ele>
        <time>2023-06-05T06:13:07.000Z</time>
      </trkpt>
      <trkpt lat="43.45156" lon="1.99768">
        <ele>229.19999694824</ele>
        <time>2023-06-05T06:13:09.000Z</time>
      </trkpt>
      <trkpt lat="43.45157" lon="1.99764">
        <ele>229.19999694824</ele>
        <time>2023-06-05T06:13:11.000Z</time>
      </trkpt>
      <trkpt lat="43.45159" lon="1.99756">
        <ele>229</ele>
        <time>2023-06-05T06:13:16.000Z</time>
      </trkpt>
      <trkpt lat="43.45159" lon="1.99752">
        <ele>229.19999694824</ele>
        <time>2023-06-05T06:13:19.000Z</time>
      </trkpt>
      <trkpt lat="43.45159" lon="1.99751">
        <ele>229.19999694824</ele>
        <time>2023-06-05T06:13:22.000Z</time>
      </trkpt>
      <trkpt lat="43.4516" lon="1.99748">
        <ele>229.60000610352</ele>
        <time>2023-06-05T06:13:26.000Z</time>
      </trkpt>
      <trkpt lat="43.45162" lon="1.99747">
        <ele>229.60000610352</ele>
        <time>2023-06-05T06:13:29.000Z</time>
      </trkpt>
      <trkpt lat="43.45165" lon="1.99738">
        <ele>229.39999389648</ele>
        <time>2023-06-05T06:13:36.000Z</time>
      </trkpt>
      <trkpt lat="43.45166" lon="1.99726">
        <ele>229.80000305176</ele>
        <time>2023-06-05T06:13:44.000Z</time>
      </trkpt>
      <trkpt lat="43.45167" lon="1.99711">
        <ele>229.80000305176</ele>
        <time>2023-06-05T06:13:54.000Z</time>
      </trkpt>
      <trkpt lat="43.45168" lon="1.99696">
        <ele>229.80000305176</ele>
        <time>2023-06-05T06:14:03.000Z</time>
      </trkpt>
      <trkpt lat="43.45166" lon="1.99684">
        <ele>229.80000305176</ele>
        <time>2023-06-05T06:14:10.000Z</time>
      </trkpt>
      <trkpt lat="43.45165" lon="1.9968">
        <ele>229.80000305176</ele>
        <time>2023-06-05T06:14:13.000Z</time>
      </trkpt>
      <trkpt lat="43.45165" lon="1.99681">
        <ele>229.80000305176</ele>
        <time>2023-06-05T06:14:15.000Z</time>
      </trkpt>
      <trkpt lat="43.45164" lon="1.99675">
        <ele>229.80000305176</ele>
        <time>2023-06-05T06:14:20.000Z</time>
      </trkpt>
      <trkpt lat="43.45164" lon="1.99673">
        <ele>229.80000305176</ele>
        <time>2023-06-05T06:14:21.000Z</time>
      </trkpt>
      <trkpt lat="43.45164" lon="1.99666">
        <ele>230</ele>
        <time>2023-06-05T06:14:25.000Z</time>
      </trkpt>
      <trkpt lat="43.45163" lon="1.99656">
        <ele>229.60000610352</ele>
        <time>2023-06-05T06:14:32.000Z</time>
      </trkpt>
      <trkpt lat="43.45163" lon="1.99654">
        <ele>229.60000610352</ele>
        <time>2023-06-05T06:14:34.000Z</time>
      </trkpt>
      <trkpt lat="43.45161" lon="1.9965">
        <ele>230</ele>
        <time>2023-06-05T06:14:37.000Z</time>
      </trkpt>
      <trkpt lat="43.4516" lon="1.99645">
        <ele>230</ele>
        <time>2023-06-05T06:14:42.000Z</time>
      </trkpt>
      <trkpt lat="43.4516" lon="1.99644">
        <ele>229.80000305176</ele>
        <time>2023-06-05T06:14:43.000Z</time>
      </trkpt>
      <trkpt lat="43.45158" lon="1.99635">
        <ele>229.60000610352</ele>
        <time>2023-06-05T06:14:48.000Z</time>
      </trkpt>
      <trkpt lat="43.45158" lon="1.99633">
        <ele>229.60000610352</ele>
        <time>2023-06-05T06:14:49.000Z</time>
      </trkpt>
      <trkpt lat="43.45157" lon="1.99626">
        <ele>229.60000610352</ele>
        <time>2023-06-05T06:14:54.000Z</time>
      </trkpt>
      <trkpt lat="43.45156" lon="1.99624">
        <ele>229.60000610352</ele>
        <time>2023-06-05T06:14:56.000Z</time>
      </trkpt>
      <trkpt lat="43.45157" lon="1.99622">
        <ele>229.60000610352</ele>
        <time>2023-06-05T06:14:57.000Z</time>
      </trkpt>
      <trkpt lat="43.45156" lon="1.99618">
        <ele>229.60000610352</ele>
        <time>2023-06-05T06:15:00.000Z</time>
      </trkpt>
      <trkpt lat="43.45156" lon="1.99615">
        <ele>229.60000610352</ele>
        <time>2023-06-05T06:15:02.000Z</time>
      </trkpt>
      <trkpt lat="43.45155" lon="1.99609">
        <ele>229.39999389648</ele>
        <time>2023-06-05T06:15:07.000Z</time>
      </trkpt>
      <trkpt lat="43.45152" lon="1.99602">
        <ele>229.39999389648</ele>
        <time>2023-06-05T06:15:12.000Z</time>
      </trkpt>
      <trkpt lat="43.45147" lon="1.99595">
        <ele>229.39999389648</ele>
        <time>2023-06-05T06:15:18.000Z</time>
      </trkpt>
      <trkpt lat="43.45146" lon="1.99594">
        <ele>229.39999389648</ele>
        <time>2023-06-05T06:15:19.000Z</time>
      </trkpt>
      <trkpt lat="43.45144" lon="1.99592">
        <ele>229.39999389648</ele>
        <time>2023-06-05T06:15:21.000Z</time>
      </trkpt>
      <trkpt lat="43.45141" lon="1.99589">
        <ele>229.19999694824</ele>
        <time>2023-06-05T06:15:24.000Z</time>
      </trkpt>
      <trkpt lat="43.45137" lon="1.99587">
        <ele>229.19999694824</ele>
        <time>2023-06-05T06:15:27.000Z</time>
      </trkpt>
      <trkpt lat="43.45133" lon="1.99583">
        <ele>229.39999389648</ele>
        <time>2023-06-05T06:15:31.000Z</time>
      </trkpt>
      <trkpt lat="43.45131" lon="1.99581">
        <ele>229.39999389648</ele>
        <time>2023-06-05T06:15:33.000Z</time>
      </trkpt>
      <trkpt lat="43.45128" lon="1.99578">
        <ele>229.39999389648</ele>
        <time>2023-06-05T06:15:36.000Z</time>
      </trkpt>
      <trkpt lat="43.45127" lon="1.99577">
        <ele>229.39999389648</ele>
        <time>2023-06-05T06:15:37.000Z</time>
      </trkpt>
      <trkpt lat="43.45123" lon="1.99574">
        <ele>229.39999389648</ele>
        <time>2023-06-05T06:15:41.000Z</time>
      </trkpt>
      <trkpt lat="43.45122" lon="1.99573">
        <ele>229.39999389648</ele>
        <time>2023-06-05T06:15:43.000Z</time>
      </trkpt>
      <trkpt lat="43.45116" lon="1.99566">
        <ele>229.80000305176</ele>
        <time>2023-06-05T06:15:51.000Z</time>
      </trkpt>
      <trkpt lat="43.45115" lon="1.99565">
        <ele>229.80000305176</ele>
        <time>2023-06-05T06:15:52.000Z</time>
      </trkpt>
      <trkpt lat="43.4511" lon="1.9956">
        <ele>229.60000610352</ele>
        <time>2023-06-05T06:15:57.000Z</time>
      </trkpt>
      <trkpt lat="43.45103" lon="1.99554">
        <ele>229.39999389648</ele>
        <time>2023-06-05T06:16:04.000Z</time>
      </trkpt>
      <trkpt lat="43.45101" lon="1.99548">
        <ele>229.60000610352</ele>
        <time>2023-06-05T06:16:08.000Z</time>
      </trkpt>
      <trkpt lat="43.45101" lon="1.99549">
        <ele>229.60000610352</ele>
        <time>2023-06-05T06:16:09.000Z</time>
      </trkpt>
      <trkpt lat="43.45101" lon="1.99548">
        <ele>229.60000610352</ele>
        <time>2023-06-05T06:16:10.000Z</time>
      </trkpt>
      <trkpt lat="43.45101" lon="1.99547">
        <ele>230.19999694824</ele>
        <time>2023-06-05T06:16:15.000Z</time>
      </trkpt>
      <trkpt lat="43.45099" lon="1.99542">
        <ele>229.80000305176</ele>
        <time>2023-06-05T06:16:21.000Z</time>
      </trkpt>
      <trkpt lat="43.45098" lon="1.99536">
        <ele>229.80000305176</ele>
        <time>2023-06-05T06:16:27.000Z</time>
      </trkpt>
      <trkpt lat="43.45097" lon="1.99532">
        <ele>229.80000305176</ele>
        <time>2023-06-05T06:16:30.000Z</time>
      </trkpt>
      <trkpt lat="43.45097" lon="1.99526">
        <ele>229.60000610352</ele>
        <time>2023-06-05T06:16:34.000Z</time>
      </trkpt>
      <trkpt lat="43.45097" lon="1.99516">
        <ele>229.39999389648</ele>
        <time>2023-06-05T06:16:40.000Z</time>
      </trkpt>
      <trkpt lat="43.45097" lon="1.99514">
        <ele>229.39999389648</ele>
        <time>2023-06-05T06:16:41.000Z</time>
      </trkpt>
      <trkpt lat="43.45097" lon="1.99512">
        <ele>229.39999389648</ele>
        <time>2023-06-05T06:16:42.000Z</time>
      </trkpt>
      <trkpt lat="43.45097" lon="1.99503">
        <ele>229.39999389648</ele>
        <time>2023-06-05T06:16:47.000Z</time>
      </trkpt>
      <trkpt lat="43.45096" lon="1.99501">
        <ele>229.39999389648</ele>
        <time>2023-06-05T06:16:48.000Z</time>
      </trkpt>
      <trkpt lat="43.45095" lon="1.99494">
        <ele>229.39999389648</ele>
        <time>2023-06-05T06:16:53.000Z</time>
      </trkpt>
      <trkpt lat="43.45094" lon="1.99492">
        <ele>229.39999389648</ele>
        <time>2023-06-05T06:16:55.000Z</time>
      </trkpt>
      <trkpt lat="43.45094" lon="1.9949">
        <ele>229.39999389648</ele>
        <time>2023-06-05T06:16:56.000Z</time>
      </trkpt>
      <trkpt lat="43.45092" lon="1.99485">
        <ele>229.19999694824</ele>
        <time>2023-06-05T06:17:00.000Z</time>
      </trkpt>
      <trkpt lat="43.4509" lon="1.99478">
        <ele>229.19999694824</ele>
        <time>2023-06-05T06:17:05.000Z</time>
      </trkpt>
      <trkpt lat="43.45089" lon="1.99477">
        <ele>229</ele>
        <time>2023-06-05T06:17:06.000Z</time>
      </trkpt>
      <trkpt lat="43.45086" lon="1.99466">
        <ele>229</ele>
        <time>2023-06-05T06:17:14.000Z</time>
      </trkpt>
      <trkpt lat="43.45082" lon="1.99458">
        <ele>229.19999694824</ele>
        <time>2023-06-05T06:17:21.000Z</time>
      </trkpt>
      <trkpt lat="43.45082" lon="1.99456">
        <ele>229.19999694824</ele>
        <time>2023-06-05T06:17:22.000Z</time>
      </trkpt>
      <trkpt lat="43.45081" lon="1.9945">
        <ele>229</ele>
        <time>2023-06-05T06:17:26.000Z</time>
      </trkpt>
      <trkpt lat="43.45079" lon="1.99445">
        <ele>229</ele>
        <time>2023-06-05T06:17:29.000Z</time>
      </trkpt>
      <trkpt lat="43.45079" lon="1.99444">
        <ele>229</ele>
        <time>2023-06-05T06:17:32.000Z</time>
      </trkpt>
      <trkpt lat="43.45077" lon="1.99439">
        <ele>229.39999389648</ele>
        <time>2023-06-05T06:17:38.000Z</time>
      </trkpt>
      <trkpt lat="43.45075" lon="1.99428">
        <ele>229</ele>
        <time>2023-06-05T06:17:45.000Z</time>
      </trkpt>
      <trkpt lat="43.45072" lon="1.99416">
        <ele>228.80000305176</ele>
        <time>2023-06-05T06:17:52.000Z</time>
      </trkpt>
      <trkpt lat="43.45071" lon="1.99415">
        <ele>228.80000305176</ele>
        <time>2023-06-05T06:17:53.000Z</time>
      </trkpt>
      <trkpt lat="43.45068" lon="1.99405">
        <ele>229</ele>
        <time>2023-06-05T06:18:00.000Z</time>
      </trkpt>
      <trkpt lat="43.45065" lon="1.99396">
        <ele>229</ele>
        <time>2023-06-05T06:18:06.000Z</time>
      </trkpt>
      <trkpt lat="43.45064" lon="1.99388">
        <ele>228.80000305176</ele>
        <time>2023-06-05T06:18:11.000Z</time>
      </trkpt>
      <trkpt lat="43.45064" lon="1.99385">
        <ele>229</ele>
        <time>2023-06-05T06:18:13.000Z</time>
      </trkpt>
      <trkpt lat="43.45061" lon="1.99374">
        <ele>229.39999389648</ele>
        <time>2023-06-05T06:18:21.000Z</time>
      </trkpt>
      <trkpt lat="43.45058" lon="1.99366">
        <ele>228.80000305176</ele>
        <time>2023-06-05T06:18:27.000Z</time>
      </trkpt>
      <trkpt lat="43.45058" lon="1.99364">
        <ele>229</ele>
        <time>2023-06-05T06:18:29.000Z</time>
      </trkpt>
      <trkpt lat="43.45056" lon="1.9936">
        <ele>229.39999389648</ele>
        <time>2023-06-05T06:18:32.000Z</time>
      </trkpt>
      <trkpt lat="43.45054" lon="1.99356">
        <ele>229.39999389648</ele>
        <time>2023-06-05T06:18:35.000Z</time>
      </trkpt>
      <trkpt lat="43.45053" lon="1.99352">
        <ele>229.39999389648</ele>
        <time>2023-06-05T06:18:38.000Z</time>
      </trkpt>
      <trkpt lat="43.45053" lon="1.99349">
        <ele>229.39999389648</ele>
        <time>2023-06-05T06:18:40.000Z</time>
      </trkpt>
      <trkpt lat="43.45051" lon="1.99343">
        <ele>229.39999389648</ele>
        <time>2023-06-05T06:18:44.000Z</time>
      </trkpt>
      <trkpt lat="43.45049" lon="1.99332">
        <ele>229.60000610352</ele>
        <time>2023-06-05T06:18:50.000Z</time>
      </trkpt>
      <trkpt lat="43.45049" lon="1.99331">
        <ele>229.60000610352</ele>
        <time>2023-06-05T06:18:51.000Z</time>
      </trkpt>
      <trkpt lat="43.45046" lon="1.99322">
        <ele>229.60000610352</ele>
        <time>2023-06-05T06:18:57.000Z</time>
      </trkpt>
      <trkpt lat="43.45045" lon="1.99316">
        <ele>229.39999389648</ele>
        <time>2023-06-05T06:19:01.000Z</time>
      </trkpt>
      <trkpt lat="43.45044" lon="1.99314">
        <ele>229.39999389648</ele>
        <time>2023-06-05T06:19:03.000Z</time>
      </trkpt>
      <trkpt lat="43.45042" lon="1.99306">
        <ele>229.39999389648</ele>
        <time>2023-06-05T06:19:08.000Z</time>
      </trkpt>
      <trkpt lat="43.45041" lon="1.99304">
        <ele>229.39999389648</ele>
        <time>2023-06-05T06:19:10.000Z</time>
      </trkpt>
      <trkpt lat="43.4504" lon="1.99301">
        <ele>229.39999389648</ele>
        <time>2023-06-05T06:19:13.000Z</time>
      </trkpt>
      <trkpt lat="43.45039" lon="1.99297">
        <ele>229.39999389648</ele>
        <time>2023-06-05T06:19:17.000Z</time>
      </trkpt>
      <trkpt lat="43.45038" lon="1.99296">
        <ele>229.39999389648</ele>
        <time>2023-06-05T06:19:18.000Z</time>
      </trkpt>
      <trkpt lat="43.45036" lon="1.99292">
        <ele>229.39999389648</ele>
        <time>2023-06-05T06:19:22.000Z</time>
      </trkpt>
      <trkpt lat="43.45036" lon="1.99291">
        <ele>229.39999389648</ele>
        <time>2023-06-05T06:19:23.000Z</time>
      </trkpt>
      <trkpt lat="43.45034" lon="1.99281">
        <ele>229.39999389648</ele>
        <time>2023-06-05T06:19:31.000Z</time>
      </trkpt>
      <trkpt lat="43.45033" lon="1.99278">
        <ele>229.39999389648</ele>
        <time>2023-06-05T06:19:34.000Z</time>
      </trkpt>
      <trkpt lat="43.45032" lon="1.99274">
        <ele>229.39999389648</ele>
        <time>2023-06-05T06:19:37.000Z</time>
      </trkpt>
      <trkpt lat="43.45031" lon="1.9927">
        <ele>229.39999389648</ele>
        <time>2023-06-05T06:19:40.000Z</time>
      </trkpt>
      <trkpt lat="43.4503" lon="1.99269">
        <ele>229.39999389648</ele>
        <time>2023-06-05T06:19:42.000Z</time>
      </trkpt>
      <trkpt lat="43.4503" lon="1.99267">
        <ele>229.39999389648</ele>
        <time>2023-06-05T06:19:43.000Z</time>
      </trkpt>
      <trkpt lat="43.45028" lon="1.99258">
        <ele>229.60000610352</ele>
        <time>2023-06-05T06:19:49.000Z</time>
      </trkpt>
      <trkpt lat="43.45025" lon="1.99249">
        <ele>229.39999389648</ele>
        <time>2023-06-05T06:19:56.000Z</time>
      </trkpt>
      <trkpt lat="43.45025" lon="1.99242">
        <ele>229.39999389648</ele>
        <time>2023-06-05T06:20:01.000Z</time>
      </trkpt>
      <trkpt lat="43.45026" lon="1.99241">
        <ele>229.39999389648</ele>
        <time>2023-06-05T06:20:02.000Z</time>
      </trkpt>
      <trkpt lat="43.45027" lon="1.99234">
        <ele>229.39999389648</ele>
        <time>2023-06-05T06:20:08.000Z</time>
      </trkpt>
      <trkpt lat="43.45028" lon="1.99227">
        <ele>229.39999389648</ele>
        <time>2023-06-05T06:20:14.000Z</time>
      </trkpt>
      <trkpt lat="43.45027" lon="1.99214">
        <ele>229.19999694824</ele>
        <time>2023-06-05T06:20:22.000Z</time>
      </trkpt>
      <trkpt lat="43.45026" lon="1.99206">
        <ele>229.19999694824</ele>
        <time>2023-06-05T06:20:28.000Z</time>
      </trkpt>
      <trkpt lat="43.45026" lon="1.99204">
        <ele>229.39999389648</ele>
        <time>2023-06-05T06:20:29.000Z</time>
      </trkpt>
      <trkpt lat="43.45026" lon="1.99197">
        <ele>229.19999694824</ele>
        <time>2023-06-05T06:20:33.000Z</time>
      </trkpt>
      <trkpt lat="43.45026" lon="1.99188">
        <ele>229</ele>
        <time>2023-06-05T06:20:38.000Z</time>
      </trkpt>
      <trkpt lat="43.45026" lon="1.99183">
        <ele>229</ele>
        <time>2023-06-05T06:20:41.000Z</time>
      </trkpt>
      <trkpt lat="43.45027" lon="1.99173">
        <ele>229.19999694824</ele>
        <time>2023-06-05T06:20:47.000Z</time>
      </trkpt>
      <trkpt lat="43.45028" lon="1.99165">
        <ele>229.19999694824</ele>
        <time>2023-06-05T06:20:51.000Z</time>
      </trkpt>
      <trkpt lat="43.45028" lon="1.99159">
        <ele>229.19999694824</ele>
        <time>2023-06-05T06:20:54.000Z</time>
      </trkpt>
      <trkpt lat="43.45028" lon="1.99148">
        <ele>229.19999694824</ele>
        <time>2023-06-05T06:21:01.000Z</time>
      </trkpt>
      <trkpt lat="43.45029" lon="1.99138">
        <ele>229.19999694824</ele>
        <time>2023-06-05T06:21:07.000Z</time>
      </trkpt>
      <trkpt lat="43.45029" lon="1.99128">
        <ele>229.19999694824</ele>
        <time>2023-06-05T06:21:14.000Z</time>
      </trkpt>
      <trkpt lat="43.45029" lon="1.9912">
        <ele>229.19999694824</ele>
        <time>2023-06-05T06:21:20.000Z</time>
      </trkpt>
      <trkpt lat="43.45029" lon="1.99113">
        <ele>229.19999694824</ele>
        <time>2023-06-05T06:21:24.000Z</time>
      </trkpt>
      <trkpt lat="43.45029" lon="1.99103">
        <ele>229.19999694824</ele>
        <time>2023-06-05T06:21:30.000Z</time>
      </trkpt>
      <trkpt lat="43.45029" lon="1.99101">
        <ele>229.19999694824</ele>
        <time>2023-06-05T06:21:31.000Z</time>
      </trkpt>
      <trkpt lat="43.45029" lon="1.99099">
        <ele>229.19999694824</ele>
        <time>2023-06-05T06:21:33.000Z</time>
      </trkpt>
      <trkpt lat="43.45029" lon="1.99093">
        <ele>229.19999694824</ele>
        <time>2023-06-05T06:21:37.000Z</time>
      </trkpt>
      <trkpt lat="43.4503" lon="1.99089">
        <ele>229.19999694824</ele>
        <time>2023-06-05T06:21:40.000Z</time>
      </trkpt>
      <trkpt lat="43.4503" lon="1.99084">
        <ele>229.19999694824</ele>
        <time>2023-06-05T06:21:43.000Z</time>
      </trkpt>
      <trkpt lat="43.4503" lon="1.99076">
        <ele>229.19999694824</ele>
        <time>2023-06-05T06:21:48.000Z</time>
      </trkpt>
      <trkpt lat="43.4503" lon="1.99072">
        <ele>229.19999694824</ele>
        <time>2023-06-05T06:21:51.000Z</time>
      </trkpt>
      <trkpt lat="43.4503" lon="1.99064">
        <ele>229.19999694824</ele>
        <time>2023-06-05T06:21:57.000Z</time>
      </trkpt>
      <trkpt lat="43.4503" lon="1.99061">
        <ele>229.19999694824</ele>
        <time>2023-06-05T06:21:59.000Z</time>
      </trkpt>
      <trkpt lat="43.4503" lon="1.99056">
        <ele>229.19999694824</ele>
        <time>2023-06-05T06:22:03.000Z</time>
      </trkpt>
      <trkpt lat="43.4503" lon="1.99049">
        <ele>229.19999694824</ele>
        <time>2023-06-05T06:22:09.000Z</time>
      </trkpt>
      <trkpt lat="43.4503" lon="1.99048">
        <ele>229.19999694824</ele>
        <time>2023-06-05T06:22:10.000Z</time>
      </trkpt>
      <trkpt lat="43.45029" lon="1.99042">
        <ele>229.19999694824</ele>
        <time>2023-06-05T06:22:16.000Z</time>
      </trkpt>
      <trkpt lat="43.4503" lon="1.99039">
        <ele>229.19999694824</ele>
        <time>2023-06-05T06:22:18.000Z</time>
      </trkpt>
      <trkpt lat="43.45029" lon="1.99031">
        <ele>229</ele>
        <time>2023-06-05T06:22:23.000Z</time>
      </trkpt>
      <trkpt lat="43.4503" lon="1.99021">
        <ele>229</ele>
        <time>2023-06-05T06:22:29.000Z</time>
      </trkpt>
      <trkpt lat="43.4503" lon="1.99017">
        <ele>229</ele>
        <time>2023-06-05T06:22:31.000Z</time>
      </trkpt>
      <trkpt lat="43.4503" lon="1.99016">
        <ele>229</ele>
        <time>2023-06-05T06:22:32.000Z</time>
      </trkpt>
      <trkpt lat="43.45029" lon="1.99007">
        <ele>229</ele>
        <time>2023-06-05T06:22:37.000Z</time>
      </trkpt>
      <trkpt lat="43.45029" lon="1.98993">
        <ele>229</ele>
        <time>2023-06-05T06:22:46.000Z</time>
      </trkpt>
      <trkpt lat="43.45029" lon="1.98992">
        <ele>229</ele>
        <time>2023-06-05T06:22:47.000Z</time>
      </trkpt>
      <trkpt lat="43.45028" lon="1.98988">
        <ele>228.80000305176</ele>
        <time>2023-06-05T06:22:50.000Z</time>
      </trkpt>
      <trkpt lat="43.45028" lon="1.98983">
        <ele>228.80000305176</ele>
        <time>2023-06-05T06:22:54.000Z</time>
      </trkpt>
      <trkpt lat="43.45027" lon="1.9898">
        <ele>228.80000305176</ele>
        <time>2023-06-05T06:22:56.000Z</time>
      </trkpt>
      <trkpt lat="43.45027" lon="1.98975">
        <ele>228.80000305176</ele>
        <time>2023-06-05T06:23:01.000Z</time>
      </trkpt>
      <trkpt lat="43.45026" lon="1.98961">
        <ele>228.80000305176</ele>
        <time>2023-06-05T06:23:10.000Z</time>
      </trkpt>
      <trkpt lat="43.45026" lon="1.98953">
        <ele>228.80000305176</ele>
        <time>2023-06-05T06:23:16.000Z</time>
      </trkpt>
      <trkpt lat="43.45026" lon="1.98943">
        <ele>228.80000305176</ele>
        <time>2023-06-05T06:23:23.000Z</time>
      </trkpt>
      <trkpt lat="43.45025" lon="1.98934">
        <ele>228.80000305176</ele>
        <time>2023-06-05T06:23:29.000Z</time>
      </trkpt>
      <trkpt lat="43.45024" lon="1.98923">
        <ele>228.60000610352</ele>
        <time>2023-06-05T06:23:37.000Z</time>
      </trkpt>
      <trkpt lat="43.45023" lon="1.98916">
        <ele>228.80000305176</ele>
        <time>2023-06-05T06:23:42.000Z</time>
      </trkpt>
      <trkpt lat="43.45022" lon="1.98915">
        <ele>228.80000305176</ele>
        <time>2023-06-05T06:23:43.000Z</time>
      </trkpt>
      <trkpt lat="43.4502" lon="1.98907">
        <ele>228.80000305176</ele>
        <time>2023-06-05T06:23:49.000Z</time>
      </trkpt>
      <trkpt lat="43.4502" lon="1.98906">
        <ele>228.80000305176</ele>
        <time>2023-06-05T06:23:50.000Z</time>
      </trkpt>
      <trkpt lat="43.45019" lon="1.98903">
        <ele>228.60000610352</ele>
        <time>2023-06-05T06:23:55.000Z</time>
      </trkpt>
      <trkpt lat="43.45015" lon="1.98897">
        <ele>228.80000305176</ele>
        <time>2023-06-05T06:24:05.000Z</time>
      </trkpt>
      <trkpt lat="43.45014" lon="1.9889">
        <ele>228.60000610352</ele>
        <time>2023-06-05T06:24:10.000Z</time>
      </trkpt>
      <trkpt lat="43.45011" lon="1.98883">
        <ele>228.39999389648</ele>
        <time>2023-06-05T06:24:16.000Z</time>
      </trkpt>
      <trkpt lat="43.4501" lon="1.9888">
        <ele>228.19999694824</ele>
        <time>2023-06-05T06:24:18.000Z</time>
      </trkpt>
      <trkpt lat="43.45007" lon="1.98873">
        <ele>228</ele>
        <time>2023-06-05T06:24:23.000Z</time>
      </trkpt>
      <trkpt lat="43.45007" lon="1.98872">
        <ele>227.80000305176</ele>
        <time>2023-06-05T06:24:24.000Z</time>
      </trkpt>
      <trkpt lat="43.45004" lon="1.98866">
        <ele>227.80000305176</ele>
        <time>2023-06-05T06:24:28.000Z</time>
      </trkpt>
      <trkpt lat="43.45003" lon="1.98864">
        <ele>227.80000305176</ele>
        <time>2023-06-05T06:24:29.000Z</time>
      </trkpt>
      <trkpt lat="43.45001" lon="1.98862">
        <ele>227.80000305176</ele>
        <time>2023-06-05T06:24:31.000Z</time>
      </trkpt>
      <trkpt lat="43.44999" lon="1.98857">
        <ele>228</ele>
        <time>2023-06-05T06:24:35.000Z</time>
      </trkpt>
      <trkpt lat="43.44998" lon="1.98856">
        <ele>228.19999694824</ele>
        <time>2023-06-05T06:24:36.000Z</time>
      </trkpt>
      <trkpt lat="43.44995" lon="1.98849">
        <ele>228.39999389648</ele>
        <time>2023-06-05T06:24:42.000Z</time>
      </trkpt>
      <trkpt lat="43.44994" lon="1.98848">
        <ele>228.60000610352</ele>
        <time>2023-06-05T06:24:43.000Z</time>
      </trkpt>
      <trkpt lat="43.44987" lon="1.98836">
        <ele>228.60000610352</ele>
        <time>2023-06-05T06:24:54.000Z</time>
      </trkpt>
      <trkpt lat="43.44982" lon="1.98825">
        <ele>228.60000610352</ele>
        <time>2023-06-05T06:25:02.000Z</time>
      </trkpt>
      <trkpt lat="43.44976" lon="1.98814">
        <ele>228.60000610352</ele>
        <time>2023-06-05T06:25:11.000Z</time>
      </trkpt>
      <trkpt lat="43.44971" lon="1.98805">
        <ele>228.19999694824</ele>
        <time>2023-06-05T06:25:18.000Z</time>
      </trkpt>
      <trkpt lat="43.44967" lon="1.98795">
        <ele>228.19999694824</ele>
        <time>2023-06-05T06:25:25.000Z</time>
      </trkpt>
      <trkpt lat="43.44967" lon="1.98794">
        <ele>228.19999694824</ele>
        <time>2023-06-05T06:25:26.000Z</time>
      </trkpt>
      <trkpt lat="43.44963" lon="1.98786">
        <ele>228.60000610352</ele>
        <time>2023-06-05T06:25:33.000Z</time>
      </trkpt>
      <trkpt lat="43.44962" lon="1.98781">
        <ele>228.60000610352</ele>
        <time>2023-06-05T06:25:37.000Z</time>
      </trkpt>
      <trkpt lat="43.4496" lon="1.98778">
        <ele>228.60000610352</ele>
        <time>2023-06-05T06:25:39.000Z</time>
      </trkpt>
      <trkpt lat="43.44957" lon="1.98771">
        <ele>228.60000610352</ele>
        <time>2023-06-05T06:25:45.000Z</time>
      </trkpt>
      <trkpt lat="43.44953" lon="1.98762">
        <ele>228.60000610352</ele>
        <time>2023-06-05T06:25:52.000Z</time>
      </trkpt>
      <trkpt lat="43.44947" lon="1.98751">
        <ele>228.80000305176</ele>
        <time>2023-06-05T06:25:59.000Z</time>
      </trkpt>
      <trkpt lat="43.44944" lon="1.9874">
        <ele>228.80000305176</ele>
        <time>2023-06-05T06:26:07.000Z</time>
      </trkpt>
      <trkpt lat="43.44942" lon="1.98732">
        <ele>228.60000610352</ele>
        <time>2023-06-05T06:26:13.000Z</time>
      </trkpt>
      <trkpt lat="43.44942" lon="1.98731">
        <ele>228.60000610352</ele>
        <time>2023-06-05T06:26:14.000Z</time>
      </trkpt>
      <trkpt lat="43.44941" lon="1.98728">
        <ele>228.60000610352</ele>
        <time>2023-06-05T06:26:17.000Z</time>
      </trkpt>
      <trkpt lat="43.4494" lon="1.98725">
        <ele>228.60000610352</ele>
        <time>2023-06-05T06:26:19.000Z</time>
      </trkpt>
      <trkpt lat="43.44939" lon="1.98714">
        <ele>228.39999389648</ele>
        <time>2023-06-05T06:26:26.000Z</time>
      </trkpt>
      <trkpt lat="43.44939" lon="1.98712">
        <ele>228.39999389648</ele>
        <time>2023-06-05T06:26:27.000Z</time>
      </trkpt>
      <trkpt lat="43.44939" lon="1.987">
        <ele>228.39999389648</ele>
        <time>2023-06-05T06:26:35.000Z</time>
      </trkpt>
      <trkpt lat="43.44938" lon="1.98688">
        <ele>228.39999389648</ele>
        <time>2023-06-05T06:26:44.000Z</time>
      </trkpt>
      <trkpt lat="43.44938" lon="1.9868">
        <ele>228.60000610352</ele>
        <time>2023-06-05T06:26:51.000Z</time>
      </trkpt>
      <trkpt lat="43.44937" lon="1.98669">
        <ele>228.39999389648</ele>
        <time>2023-06-05T06:26:59.000Z</time>
      </trkpt>
      <trkpt lat="43.44935" lon="1.98655">
        <ele>228.39999389648</ele>
        <time>2023-06-05T06:27:08.000Z</time>
      </trkpt>
      <trkpt lat="43.44935" lon="1.98649">
        <ele>228.60000610352</ele>
        <time>2023-06-05T06:27:12.000Z</time>
      </trkpt>
      <trkpt lat="43.44934" lon="1.98644">
        <ele>228.60000610352</ele>
        <time>2023-06-05T06:27:15.000Z</time>
      </trkpt>
      <trkpt lat="43.44932" lon="1.98635">
        <ele>228.60000610352</ele>
        <time>2023-06-05T06:27:23.000Z</time>
      </trkpt>
      <trkpt lat="43.44933" lon="1.98629">
        <ele>228.39999389648</ele>
        <time>2023-06-05T06:27:29.000Z</time>
      </trkpt>
      <trkpt lat="43.44933" lon="1.98629">
        <ele>227.60000610352</ele>
        <time>2023-06-05T06:27:36.000Z</time>
      </trkpt>
      <trkpt lat="43.44934" lon="1.98626">
        <ele>227.39999389648</ele>
        <time>2023-06-05T06:27:46.000Z</time>
      </trkpt>
      <trkpt lat="43.44933" lon="1.9862">
        <ele>227.80000305176</ele>
        <time>2023-06-05T06:27:50.000Z</time>
      </trkpt>
      <trkpt lat="43.44931" lon="1.98606">
        <ele>228</ele>
        <time>2023-06-05T06:27:59.000Z</time>
      </trkpt>
      <trkpt lat="43.4493" lon="1.98591">
        <ele>228</ele>
        <time>2023-06-05T06:28:08.000Z</time>
      </trkpt>
      <trkpt lat="43.44928" lon="1.9858">
        <ele>228.19999694824</ele>
        <time>2023-06-05T06:28:15.000Z</time>
      </trkpt>
      <trkpt lat="43.44926" lon="1.98572">
        <ele>228.19999694824</ele>
        <time>2023-06-05T06:28:19.000Z</time>
      </trkpt>
      <trkpt lat="43.44925" lon="1.98571">
        <ele>228</ele>
        <time>2023-06-05T06:28:20.000Z</time>
      </trkpt>
      <trkpt lat="43.44923" lon="1.98561">
        <ele>228.19999694824</ele>
        <time>2023-06-05T06:28:26.000Z</time>
      </trkpt>
      <trkpt lat="43.44924" lon="1.98558">
        <ele>228</ele>
        <time>2023-06-05T06:28:28.000Z</time>
      </trkpt>
      <trkpt lat="43.44923" lon="1.98544">
        <ele>228</ele>
        <time>2023-06-05T06:28:36.000Z</time>
      </trkpt>
      <trkpt lat="43.44922" lon="1.98535">
        <ele>228</ele>
        <time>2023-06-05T06:28:42.000Z</time>
      </trkpt>
      <trkpt lat="43.44919" lon="1.98521">
        <ele>227.80000305176</ele>
        <time>2023-06-05T06:28:49.000Z</time>
      </trkpt>
      <trkpt lat="43.44917" lon="1.98506">
        <ele>227.80000305176</ele>
        <time>2023-06-05T06:28:58.000Z</time>
      </trkpt>
      <trkpt lat="43.44915" lon="1.98495">
        <ele>228</ele>
        <time>2023-06-05T06:29:05.000Z</time>
      </trkpt>
      <trkpt lat="43.44914" lon="1.98488">
        <ele>228.19999694824</ele>
        <time>2023-06-05T06:29:10.000Z</time>
      </trkpt>
      <trkpt lat="43.44913" lon="1.98485">
        <ele>228.19999694824</ele>
        <time>2023-06-05T06:29:12.000Z</time>
      </trkpt>
      <trkpt lat="43.44912" lon="1.98479">
        <ele>228.19999694824</ele>
        <time>2023-06-05T06:29:16.000Z</time>
      </trkpt>
      <trkpt lat="43.44912" lon="1.98476">
        <ele>228.19999694824</ele>
        <time>2023-06-05T06:29:18.000Z</time>
      </trkpt>
      <trkpt lat="43.4491" lon="1.98463">
        <ele>227.80000305176</ele>
        <time>2023-06-05T06:29:26.000Z</time>
      </trkpt>
      <trkpt lat="43.44908" lon="1.98449">
        <ele>227.80000305176</ele>
        <time>2023-06-05T06:29:35.000Z</time>
      </trkpt>
      <trkpt lat="43.44906" lon="1.98442">
        <ele>227.60000610352</ele>
        <time>2023-06-05T06:29:40.000Z</time>
      </trkpt>
      <trkpt lat="43.44904" lon="1.98433">
        <ele>227.60000610352</ele>
        <time>2023-06-05T06:29:46.000Z</time>
      </trkpt>
      <trkpt lat="43.44904" lon="1.98431">
        <ele>227.60000610352</ele>
        <time>2023-06-05T06:29:48.000Z</time>
      </trkpt>
      <trkpt lat="43.44903" lon="1.9842">
        <ele>227.60000610352</ele>
        <time>2023-06-05T06:29:55.000Z</time>
      </trkpt>
      <trkpt lat="43.44903" lon="1.98419">
        <ele>227.60000610352</ele>
        <time>2023-06-05T06:29:56.000Z</time>
      </trkpt>
      <trkpt lat="43.44904" lon="1.98418">
        <ele>228</ele>
        <time>2023-06-05T06:30:01.000Z</time>
      </trkpt>
      <trkpt lat="43.44902" lon="1.98414">
        <ele>228.19999694824</ele>
        <time>2023-06-05T06:30:08.000Z</time>
      </trkpt>
      <trkpt lat="43.44899" lon="1.98408">
        <ele>227.60000610352</ele>
        <time>2023-06-05T06:30:13.000Z</time>
      </trkpt>
      <trkpt lat="43.44896" lon="1.98402">
        <ele>227.60000610352</ele>
        <time>2023-06-05T06:30:18.000Z</time>
      </trkpt>
      <trkpt lat="43.44895" lon="1.98401">
        <ele>227.60000610352</ele>
        <time>2023-06-05T06:30:19.000Z</time>
      </trkpt>
      <trkpt lat="43.44891" lon="1.98396">
        <ele>227.80000305176</ele>
        <time>2023-06-05T06:30:26.000Z</time>
      </trkpt>
      <trkpt lat="43.44888" lon="1.98392">
        <ele>228</ele>
        <time>2023-06-05T06:30:31.000Z</time>
      </trkpt>
      <trkpt lat="43.44888" lon="1.98392">
        <ele>228</ele>
        <time>2023-06-05T06:30:32.000Z</time>
      </trkpt>
      <trkpt lat="43.44888" lon="1.98392">
        <ele>228</ele>
        <time>2023-06-05T06:30:33.000Z</time>
      </trkpt>
      <trkpt lat="43.44885" lon="1.9839">
        <ele>228</ele>
        <time>2023-06-05T06:30:36.000Z</time>
      </trkpt>
      <trkpt lat="43.44884" lon="1.98389">
        <ele>228.19999694824</ele>
        <time>2023-06-05T06:30:37.000Z</time>
      </trkpt>
      <trkpt lat="43.44876" lon="1.98387">
        <ele>228</ele>
        <time>2023-06-05T06:30:44.000Z</time>
      </trkpt>
      <trkpt lat="43.44875" lon="1.98386">
        <ele>228</ele>
        <time>2023-06-05T06:30:45.000Z</time>
      </trkpt>
      <trkpt lat="43.44869" lon="1.98385">
        <ele>228</ele>
        <time>2023-06-05T06:30:52.000Z</time>
      </trkpt>
      <trkpt lat="43.44869" lon="1.98384">
        <ele>228</ele>
        <time>2023-06-05T06:30:53.000Z</time>
      </trkpt>
      <trkpt lat="43.44863" lon="1.98386">
        <ele>228.19999694824</ele>
        <time>2023-06-05T06:31:00.000Z</time>
      </trkpt>
      <trkpt lat="43.44856" lon="1.98391">
        <ele>228.39999389648</ele>
        <time>2023-06-05T06:31:09.000Z</time>
      </trkpt>
      <trkpt lat="43.44851" lon="1.98394">
        <ele>228.60000610352</ele>
        <time>2023-06-05T06:31:16.000Z</time>
      </trkpt>
      <trkpt lat="43.44849" lon="1.98395">
        <ele>228.60000610352</ele>
        <time>2023-06-05T06:31:17.000Z</time>
      </trkpt>
      <trkpt lat="43.44845" lon="1.98398">
        <ele>228.60000610352</ele>
        <time>2023-06-05T06:31:22.000Z</time>
      </trkpt>
      <trkpt lat="43.4484" lon="1.98399">
        <ele>228.80000305176</ele>
        <time>2023-06-05T06:31:27.000Z</time>
      </trkpt>
      <trkpt lat="43.44839" lon="1.98398">
        <ele>228.80000305176</ele>
        <time>2023-06-05T06:31:28.000Z</time>
      </trkpt>
      <trkpt lat="43.44834" lon="1.9839">
        <ele>229</ele>
        <time>2023-06-05T06:31:37.000Z</time>
      </trkpt>
      <trkpt lat="43.44833" lon="1.98386">
        <ele>229</ele>
        <time>2023-06-05T06:31:40.000Z</time>
      </trkpt>
      <trkpt lat="43.44833" lon="1.98381">
        <ele>229</ele>
        <time>2023-06-05T06:31:43.000Z</time>
      </trkpt>
      <trkpt lat="43.4483" lon="1.98373">
        <ele>228.80000305176</ele>
        <time>2023-06-05T06:31:50.000Z</time>
      </trkpt>
      <trkpt lat="43.44831" lon="1.98371">
        <ele>228.60000610352</ele>
        <time>2023-06-05T06:31:57.000Z</time>
      </trkpt>
      <trkpt lat="43.4483" lon="1.98371">
        <ele>228.60000610352</ele>
        <time>2023-06-05T06:32:04.000Z</time>
      </trkpt>
      <trkpt lat="43.4483" lon="1.9837">
        <ele>228.39999389648</ele>
        <time>2023-06-05T06:32:12.000Z</time>
      </trkpt>
      <trkpt lat="43.44832" lon="1.98373">
        <ele>228.39999389648</ele>
        <time>2023-06-05T06:32:28.000Z</time>
      </trkpt>
      <trkpt lat="43.44827" lon="1.98364">
        <ele>228.39999389648</ele>
        <time>2023-06-05T06:32:40.000Z</time>
      </trkpt>
      <trkpt lat="43.44828" lon="1.98363">
        <ele>228.39999389648</ele>
        <time>2023-06-05T06:32:50.000Z</time>
      </trkpt>
      <trkpt lat="43.44827" lon="1.98361">
        <ele>228.19999694824</ele>
        <time>2023-06-05T06:32:56.000Z</time>
      </trkpt>
      <trkpt lat="43.44826" lon="1.98361">
        <ele>228</ele>
        <time>2023-06-05T06:33:04.000Z</time>
      </trkpt>
      <trkpt lat="43.44825" lon="1.9836">
        <ele>228.19999694824</ele>
        <time>2023-06-05T06:33:14.000Z</time>
      </trkpt>
      <trkpt lat="43.44825" lon="1.9836">
        <ele>228.60000610352</ele>
        <time>2023-06-05T06:33:22.000Z</time>
      </trkpt>
      <trkpt lat="43.44824" lon="1.98361">
        <ele>228.39999389648</ele>
        <time>2023-06-05T06:33:29.000Z</time>
      </trkpt>
      <trkpt lat="43.44825" lon="1.98362">
        <ele>228.19999694824</ele>
        <time>2023-06-05T06:33:36.000Z</time>
      </trkpt>
      <trkpt lat="43.44825" lon="1.98362">
        <ele>228.19999694824</ele>
        <time>2023-06-05T06:33:45.000Z</time>
      </trkpt>
      <trkpt lat="43.44824" lon="1.98361">
        <ele>228</ele>
        <time>2023-06-05T06:33:54.000Z</time>
      </trkpt>
      <trkpt lat="43.44823" lon="1.98362">
        <ele>228.39999389648</ele>
        <time>2023-06-05T06:34:03.000Z</time>
      </trkpt>
      <trkpt lat="43.44822" lon="1.98359">
        <ele>228.39999389648</ele>
        <time>2023-06-05T06:34:12.000Z</time>
      </trkpt>
      <trkpt lat="43.44821" lon="1.98358">
        <ele>228.39999389648</ele>
        <time>2023-06-05T06:34:21.000Z</time>
      </trkpt>
      <trkpt lat="43.44822" lon="1.98358">
        <ele>228.39999389648</ele>
        <time>2023-06-05T06:34:32.000Z</time>
      </trkpt>
      <trkpt lat="43.44822" lon="1.98357">
        <ele>228.39999389648</ele>
        <time>2023-06-05T06:34:41.000Z</time>
      </trkpt>
      <trkpt lat="43.44822" lon="1.98358">
        <ele>228.39999389648</ele>
        <time>2023-06-05T06:34:49.000Z</time>
      </trkpt>
      <trkpt lat="43.44822" lon="1.98358">
        <ele>228.39999389648</ele>
        <time>2023-06-05T06:34:59.000Z</time>
      </trkpt>
      <trkpt lat="43.44822" lon="1.98357">
        <ele>228.19999694824</ele>
        <time>2023-06-05T06:35:06.000Z</time>
      </trkpt>
      <trkpt lat="43.44822" lon="1.98358">
        <ele>228.60000610352</ele>
        <time>2023-06-05T06:35:14.000Z</time>
      </trkpt>
      <trkpt lat="43.44821" lon="1.98357">
        <ele>228.39999389648</ele>
        <time>2023-06-05T06:35:23.000Z</time>
      </trkpt>
      <trkpt lat="43.44823" lon="1.9836">
        <ele>229</ele>
        <time>2023-06-05T06:35:31.000Z</time>
      </trkpt>
      <trkpt lat="43.44823" lon="1.98359">
        <ele>228.39999389648</ele>
        <time>2023-06-05T06:35:41.000Z</time>
      </trkpt>
      <trkpt lat="43.44823" lon="1.9836">
        <ele>228.39999389648</ele>
        <time>2023-06-05T06:35:49.000Z</time>
      </trkpt>
      <trkpt lat="43.44823" lon="1.9836">
        <ele>228.39999389648</ele>
        <time>2023-06-05T06:35:57.000Z</time>
      </trkpt>
      <trkpt lat="43.44823" lon="1.98359">
        <ele>228.60000610352</ele>
        <time>2023-06-05T06:36:04.000Z</time>
      </trkpt>
      <trkpt lat="43.44823" lon="1.98359">
        <ele>228.19999694824</ele>
        <time>2023-06-05T06:36:11.000Z</time>
      </trkpt>
      <trkpt lat="43.44823" lon="1.98359">
        <ele>228.39999389648</ele>
        <time>2023-06-05T06:36:19.000Z</time>
      </trkpt>
      <trkpt lat="43.44823" lon="1.98358">
        <ele>228.39999389648</ele>
        <time>2023-06-05T06:36:27.000Z</time>
      </trkpt>
      <trkpt lat="43.44825" lon="1.98362">
        <ele>228.39999389648</ele>
        <time>2023-06-05T06:36:34.000Z</time>
      </trkpt>
      <trkpt lat="43.44825" lon="1.98362">
        <ele>228.39999389648</ele>
        <time>2023-06-05T06:36:43.000Z</time>
      </trkpt>
      <trkpt lat="43.44825" lon="1.9836">
        <ele>228.39999389648</ele>
        <time>2023-06-05T06:36:57.000Z</time>
      </trkpt>
      <trkpt lat="43.44823" lon="1.98362">
        <ele>228</ele>
        <time>2023-06-05T06:37:07.000Z</time>
      </trkpt>
      <trkpt lat="43.44823" lon="1.98361">
        <ele>228.39999389648</ele>
        <time>2023-06-05T06:37:14.000Z</time>
      </trkpt>
      <trkpt lat="43.44823" lon="1.98362">
        <ele>228.80000305176</ele>
        <time>2023-06-05T06:37:21.000Z</time>
      </trkpt>
      <trkpt lat="43.44824" lon="1.98362">
        <ele>228.39999389648</ele>
        <time>2023-06-05T06:37:28.000Z</time>
      </trkpt>
      <trkpt lat="43.44824" lon="1.98362">
        <ele>228.39999389648</ele>
        <time>2023-06-05T06:37:34.000Z</time>
      </trkpt>
      <trkpt lat="43.44823" lon="1.98361">
        <ele>228.60000610352</ele>
        <time>2023-06-05T06:37:42.000Z</time>
      </trkpt>
      <trkpt lat="43.44823" lon="1.98361">
        <ele>228.39999389648</ele>
        <time>2023-06-05T06:37:48.000Z</time>
      </trkpt>
      <trkpt lat="43.44823" lon="1.98362">
        <ele>228.60000610352</ele>
        <time>2023-06-05T06:37:54.000Z</time>
      </trkpt>
      <trkpt lat="43.44824" lon="1.98357">
        <ele>228.60000610352</ele>
        <time>2023-06-05T06:38:02.000Z</time>
      </trkpt>
      <trkpt lat="43.44823" lon="1.98361">
        <ele>228.39999389648</ele>
        <time>2023-06-05T06:38:10.000Z</time>
      </trkpt>
      <trkpt lat="43.44822" lon="1.98363">
        <ele>228.60000610352</ele>
        <time>2023-06-05T06:38:17.000Z</time>
      </trkpt>
      <trkpt lat="43.44821" lon="1.98357">
        <ele>228.39999389648</ele>
        <time>2023-06-05T06:38:24.000Z</time>
      </trkpt>
      <trkpt lat="43.44819" lon="1.98353">
        <ele>228.60000610352</ele>
        <time>2023-06-05T06:38:29.000Z</time>
      </trkpt>
      <trkpt lat="43.44818" lon="1.98346">
        <ele>228.60000610352</ele>
        <time>2023-06-05T06:38:34.000Z</time>
      </trkpt>
      <trkpt lat="43.44818" lon="1.98344">
        <ele>228.39999389648</ele>
        <time>2023-06-05T06:38:36.000Z</time>
      </trkpt>
      <trkpt lat="43.44818" lon="1.98339">
        <ele>228.60000610352</ele>
        <time>2023-06-05T06:38:39.000Z</time>
      </trkpt>
      <trkpt lat="43.44818" lon="1.98334">
        <ele>228.80000305176</ele>
        <time>2023-06-05T06:38:43.000Z</time>
      </trkpt>
      <trkpt lat="43.44819" lon="1.98331">
        <ele>228.80000305176</ele>
        <time>2023-06-05T06:38:50.000Z</time>
      </trkpt>
      <trkpt lat="43.4482" lon="1.98324">
        <ele>228.60000610352</ele>
        <time>2023-06-05T06:39:00.000Z</time>
      </trkpt>
      <trkpt lat="43.44823" lon="1.98314">
        <ele>228.39999389648</ele>
        <time>2023-06-05T06:39:08.000Z</time>
      </trkpt>
      <trkpt lat="43.44824" lon="1.98311">
        <ele>228.19999694824</ele>
        <time>2023-06-05T06:39:10.000Z</time>
      </trkpt>
      <trkpt lat="43.44827" lon="1.98302">
        <ele>227.80000305176</ele>
        <time>2023-06-05T06:39:17.000Z</time>
      </trkpt>
      <trkpt lat="43.44829" lon="1.9829">
        <ele>228</ele>
        <time>2023-06-05T06:39:24.000Z</time>
      </trkpt>
      <trkpt lat="43.44829" lon="1.98281">
        <ele>227.80000305176</ele>
        <time>2023-06-05T06:39:29.000Z</time>
      </trkpt>
      <trkpt lat="43.4483" lon="1.98275">
        <ele>227.80000305176</ele>
        <time>2023-06-05T06:39:34.000Z</time>
      </trkpt>
      <trkpt lat="43.4483" lon="1.98273">
        <ele>227.80000305176</ele>
        <time>2023-06-05T06:39:35.000Z</time>
      </trkpt>
      <trkpt lat="43.4483" lon="1.98266">
        <ele>227.80000305176</ele>
        <time>2023-06-05T06:39:40.000Z</time>
      </trkpt>
      <trkpt lat="43.4483" lon="1.98264">
        <ele>227.80000305176</ele>
        <time>2023-06-05T06:39:41.000Z</time>
      </trkpt>
      <trkpt lat="43.44827" lon="1.98252">
        <ele>227.80000305176</ele>
        <time>2023-06-05T06:39:49.000Z</time>
      </trkpt>
      <trkpt lat="43.44823" lon="1.9824">
        <ele>227.80000305176</ele>
        <time>2023-06-05T06:39:57.000Z</time>
      </trkpt>
      <trkpt lat="43.44822" lon="1.98239">
        <ele>227.80000305176</ele>
        <time>2023-06-05T06:39:58.000Z</time>
      </trkpt>
      <trkpt lat="43.4482" lon="1.98231">
        <ele>228.19999694824</ele>
        <time>2023-06-05T06:40:04.000Z</time>
      </trkpt>
      <trkpt lat="43.4482" lon="1.9823">
        <ele>228.19999694824</ele>
        <time>2023-06-05T06:40:05.000Z</time>
      </trkpt>
      <trkpt lat="43.44818" lon="1.98222">
        <ele>228.19999694824</ele>
        <time>2023-06-05T06:40:11.000Z</time>
      </trkpt>
      <trkpt lat="43.44819" lon="1.98217">
        <ele>228.19999694824</ele>
        <time>2023-06-05T06:40:15.000Z</time>
      </trkpt>
      <trkpt lat="43.44819" lon="1.98215">
        <ele>228.19999694824</ele>
        <time>2023-06-05T06:40:16.000Z</time>
      </trkpt>
      <trkpt lat="43.4482" lon="1.98213">
        <ele>228.19999694824</ele>
        <time>2023-06-05T06:40:18.000Z</time>
      </trkpt>
      <trkpt lat="43.4482" lon="1.98211">
        <ele>228</ele>
        <time>2023-06-05T06:40:23.000Z</time>
      </trkpt>
      <trkpt lat="43.44821" lon="1.98201">
        <ele>227.80000305176</ele>
        <time>2023-06-05T06:40:30.000Z</time>
      </trkpt>
      <trkpt lat="43.44821" lon="1.98197">
        <ele>227.80000305176</ele>
        <time>2023-06-05T06:40:36.000Z</time>
      </trkpt>
      <trkpt lat="43.44824" lon="1.98192">
        <ele>227.60000610352</ele>
        <time>2023-06-05T06:40:42.000Z</time>
      </trkpt>
      <trkpt lat="43.44823" lon="1.98193">
        <ele>227.60000610352</ele>
        <time>2023-06-05T06:40:50.000Z</time>
      </trkpt>
      <trkpt lat="43.44823" lon="1.9818">
        <ele>227.39999389648</ele>
        <time>2023-06-05T06:41:05.000Z</time>
      </trkpt>
      <trkpt lat="43.44824" lon="1.98177">
        <ele>227.60000610352</ele>
        <time>2023-06-05T06:41:13.000Z</time>
      </trkpt>
      <trkpt lat="43.44825" lon="1.98179">
        <ele>227.39999389648</ele>
        <time>2023-06-05T06:41:26.000Z</time>
      </trkpt>
      <trkpt lat="43.44826" lon="1.98169">
        <ele>227.39999389648</ele>
        <time>2023-06-05T06:41:39.000Z</time>
      </trkpt>
      <trkpt lat="43.44826" lon="1.98166">
        <ele>227.39999389648</ele>
        <time>2023-06-05T06:41:47.000Z</time>
      </trkpt>
      <trkpt lat="43.44828" lon="1.98164">
        <ele>227.19999694824</ele>
        <time>2023-06-05T06:41:50.000Z</time>
      </trkpt>
      <trkpt lat="43.44828" lon="1.98163">
        <ele>227.19999694824</ele>
        <time>2023-06-05T06:41:53.000Z</time>
      </trkpt>
      <trkpt lat="43.44829" lon="1.98164">
        <ele>227.19999694824</ele>
        <time>2023-06-05T06:42:08.000Z</time>
      </trkpt>
      <trkpt lat="43.44829" lon="1.98166">
        <ele>227.19999694824</ele>
        <time>2023-06-05T06:42:22.000Z</time>
      </trkpt>
      <trkpt lat="43.44828" lon="1.98164">
        <ele>227</ele>
        <time>2023-06-05T06:42:34.000Z</time>
      </trkpt>
      <trkpt lat="43.44831" lon="1.98157">
        <ele>227.19999694824</ele>
        <time>2023-06-05T06:42:46.000Z</time>
      </trkpt>
      <trkpt lat="43.44838" lon="1.98151">
        <ele>227</ele>
        <time>2023-06-05T06:42:54.000Z</time>
      </trkpt>
      <trkpt lat="43.44843" lon="1.98145">
        <ele>226.80000305176</ele>
        <time>2023-06-05T06:43:01.000Z</time>
      </trkpt>
      <trkpt lat="43.44848" lon="1.98139">
        <ele>227.19999694824</ele>
        <time>2023-06-05T06:43:07.000Z</time>
      </trkpt>
      <trkpt lat="43.44849" lon="1.98136">
        <ele>227.19999694824</ele>
        <time>2023-06-05T06:43:09.000Z</time>
      </trkpt>
      <trkpt lat="43.44855" lon="1.98127">
        <ele>227</ele>
        <time>2023-06-05T06:43:17.000Z</time>
      </trkpt>
      <trkpt lat="43.44859" lon="1.98118">
        <ele>227.19999694824</ele>
        <time>2023-06-05T06:43:24.000Z</time>
      </trkpt>
      <trkpt lat="43.44861" lon="1.98115">
        <ele>227.19999694824</ele>
        <time>2023-06-05T06:43:27.000Z</time>
      </trkpt>
      <trkpt lat="43.44864" lon="1.98109">
        <ele>227.19999694824</ele>
        <time>2023-06-05T06:43:31.000Z</time>
      </trkpt>
      <trkpt lat="43.44866" lon="1.98102">
        <ele>227.19999694824</ele>
        <time>2023-06-05T06:43:36.000Z</time>
      </trkpt>
      <trkpt lat="43.44868" lon="1.981">
        <ele>227.19999694824</ele>
        <time>2023-06-05T06:43:39.000Z</time>
      </trkpt>
      <trkpt lat="43.44868" lon="1.98091">
        <ele>227.19999694824</ele>
        <time>2023-06-05T06:43:45.000Z</time>
      </trkpt>
      <trkpt lat="43.44867" lon="1.98086">
        <ele>227.19999694824</ele>
        <time>2023-06-05T06:43:48.000Z</time>
      </trkpt>
      <trkpt lat="43.44865" lon="1.98081">
        <ele>227.39999389648</ele>
        <time>2023-06-05T06:43:51.000Z</time>
      </trkpt>
      <trkpt lat="43.44861" lon="1.98068">
        <ele>227.39999389648</ele>
        <time>2023-06-05T06:43:59.000Z</time>
      </trkpt>
      <trkpt lat="43.44856" lon="1.98057">
        <ele>227.39999389648</ele>
        <time>2023-06-05T06:44:07.000Z</time>
      </trkpt>
      <trkpt lat="43.44851" lon="1.98048">
        <ele>227.19999694824</ele>
        <time>2023-06-05T06:44:14.000Z</time>
      </trkpt>
      <trkpt lat="43.4485" lon="1.98047">
        <ele>227.19999694824</ele>
        <time>2023-06-05T06:44:15.000Z</time>
      </trkpt>
      <trkpt lat="43.44847" lon="1.98043">
        <ele>227.19999694824</ele>
        <time>2023-06-05T06:44:20.000Z</time>
      </trkpt>
      <trkpt lat="43.44842" lon="1.9804">
        <ele>227.19999694824</ele>
        <time>2023-06-05T06:44:24.000Z</time>
      </trkpt>
      <trkpt lat="43.44841" lon="1.98039">
        <ele>227.19999694824</ele>
        <time>2023-06-05T06:44:25.000Z</time>
      </trkpt>
      <trkpt lat="43.44836" lon="1.98037">
        <ele>227.39999389648</ele>
        <time>2023-06-05T06:44:30.000Z</time>
      </trkpt>
      <trkpt lat="43.44835" lon="1.98036">
        <ele>227.39999389648</ele>
        <time>2023-06-05T06:44:31.000Z</time>
      </trkpt>
      <trkpt lat="43.44826" lon="1.98032">
        <ele>227.39999389648</ele>
        <time>2023-06-05T06:44:38.000Z</time>
      </trkpt>
      <trkpt lat="43.44822" lon="1.98031">
        <ele>227.39999389648</ele>
        <time>2023-06-05T06:44:41.000Z</time>
      </trkpt>
      <trkpt lat="43.44818" lon="1.98029">
        <ele>227.39999389648</ele>
        <time>2023-06-05T06:44:44.000Z</time>
      </trkpt>
      <trkpt lat="43.44809" lon="1.98024">
        <ele>227.39999389648</ele>
        <time>2023-06-05T06:44:51.000Z</time>
      </trkpt>
      <trkpt lat="43.44805" lon="1.98023">
        <ele>227.39999389648</ele>
        <time>2023-06-05T06:44:54.000Z</time>
      </trkpt>
      <trkpt lat="43.44801" lon="1.98021">
        <ele>227.19999694824</ele>
        <time>2023-06-05T06:44:57.000Z</time>
      </trkpt>
      <trkpt lat="43.44791" lon="1.98011">
        <ele>227.19999694824</ele>
        <time>2023-06-05T06:45:06.000Z</time>
      </trkpt>
      <trkpt lat="43.44781" lon="1.98">
        <ele>227</ele>
        <time>2023-06-05T06:45:15.000Z</time>
      </trkpt>
      <trkpt lat="43.4478" lon="1.97999">
        <ele>227</ele>
        <time>2023-06-05T06:45:16.000Z</time>
      </trkpt>
      <trkpt lat="43.44774" lon="1.97994">
        <ele>227</ele>
        <time>2023-06-05T06:45:21.000Z</time>
      </trkpt>
      <trkpt lat="43.44772" lon="1.97992">
        <ele>227</ele>
        <time>2023-06-05T06:45:23.000Z</time>
      </trkpt>
      <trkpt lat="43.4477" lon="1.97991">
        <ele>227</ele>
        <time>2023-06-05T06:45:24.000Z</time>
      </trkpt>
      <trkpt lat="43.44768" lon="1.9799">
        <ele>227</ele>
        <time>2023-06-05T06:45:26.000Z</time>
      </trkpt>
      <trkpt lat="43.44759" lon="1.97986">
        <ele>226.80000305176</ele>
        <time>2023-06-05T06:45:34.000Z</time>
      </trkpt>
      <trkpt lat="43.44758" lon="1.97985">
        <ele>226.80000305176</ele>
        <time>2023-06-05T06:45:35.000Z</time>
      </trkpt>
      <trkpt lat="43.44755" lon="1.97981">
        <ele>226.80000305176</ele>
        <time>2023-06-05T06:45:40.000Z</time>
      </trkpt>
      <trkpt lat="43.44754" lon="1.97981">
        <ele>226.80000305176</ele>
        <time>2023-06-05T06:45:41.000Z</time>
      </trkpt>
      <trkpt lat="43.44748" lon="1.97976">
        <ele>226.80000305176</ele>
        <time>2023-06-05T06:45:48.000Z</time>
      </trkpt>
      <trkpt lat="43.4474" lon="1.97969">
        <ele>227</ele>
        <time>2023-06-05T06:45:57.000Z</time>
      </trkpt>
      <trkpt lat="43.44737" lon="1.97965">
        <ele>227</ele>
        <time>2023-06-05T06:46:01.000Z</time>
      </trkpt>
      <trkpt lat="43.44736" lon="1.97962">
        <ele>227.19999694824</ele>
        <time>2023-06-05T06:46:04.000Z</time>
      </trkpt>
      <trkpt lat="43.44734" lon="1.97959">
        <ele>227.19999694824</ele>
        <time>2023-06-05T06:46:06.000Z</time>
      </trkpt>
      <trkpt lat="43.44731" lon="1.97955">
        <ele>227.19999694824</ele>
        <time>2023-06-05T06:46:10.000Z</time>
      </trkpt>
      <trkpt lat="43.44731" lon="1.97953">
        <ele>227.19999694824</ele>
        <time>2023-06-05T06:46:11.000Z</time>
      </trkpt>
      <trkpt lat="43.44726" lon="1.97945">
        <ele>227</ele>
        <time>2023-06-05T06:46:18.000Z</time>
      </trkpt>
      <trkpt lat="43.44719" lon="1.97935">
        <ele>227</ele>
        <time>2023-06-05T06:46:26.000Z</time>
      </trkpt>
      <trkpt lat="43.44713" lon="1.97928">
        <ele>227.19999694824</ele>
        <time>2023-06-05T06:46:34.000Z</time>
      </trkpt>
      <trkpt lat="43.44707" lon="1.97917">
        <ele>227.39999389648</ele>
        <time>2023-06-05T06:46:43.000Z</time>
      </trkpt>
      <trkpt lat="43.44705" lon="1.97907">
        <ele>227.39999389648</ele>
        <time>2023-06-05T06:46:50.000Z</time>
      </trkpt>
      <trkpt lat="43.44703" lon="1.97898">
        <ele>227</ele>
        <time>2023-06-05T06:46:57.000Z</time>
      </trkpt>
      <trkpt lat="43.44703" lon="1.97897">
        <ele>227</ele>
        <time>2023-06-05T06:46:58.000Z</time>
      </trkpt>
      <trkpt lat="43.44701" lon="1.97885">
        <ele>227</ele>
        <time>2023-06-05T06:47:07.000Z</time>
      </trkpt>
      <trkpt lat="43.447" lon="1.97877">
        <ele>226.80000305176</ele>
        <time>2023-06-05T06:47:13.000Z</time>
      </trkpt>
      <trkpt lat="43.447" lon="1.97876">
        <ele>226.80000305176</ele>
        <time>2023-06-05T06:47:14.000Z</time>
      </trkpt>
      <trkpt lat="43.44698" lon="1.9787">
        <ele>227.19999694824</ele>
        <time>2023-06-05T06:47:19.000Z</time>
      </trkpt>
      <trkpt lat="43.44695" lon="1.97862">
        <ele>227.39999389648</ele>
        <time>2023-06-05T06:47:27.000Z</time>
      </trkpt>
      <trkpt lat="43.44691" lon="1.97852">
        <ele>227.39999389648</ele>
        <time>2023-06-05T06:47:35.000Z</time>
      </trkpt>
      <trkpt lat="43.44689" lon="1.97844">
        <ele>227.39999389648</ele>
        <time>2023-06-05T06:47:41.000Z</time>
      </trkpt>
      <trkpt lat="43.44687" lon="1.9784">
        <ele>227.39999389648</ele>
        <time>2023-06-05T06:47:44.000Z</time>
      </trkpt>
      <trkpt lat="43.44685" lon="1.97833">
        <ele>227.39999389648</ele>
        <time>2023-06-05T06:47:48.000Z</time>
      </trkpt>
      <trkpt lat="43.44683" lon="1.97827">
        <ele>227.39999389648</ele>
        <time>2023-06-05T06:47:53.000Z</time>
      </trkpt>
      <trkpt lat="43.44681" lon="1.9782">
        <ele>227.39999389648</ele>
        <time>2023-06-05T06:47:58.000Z</time>
      </trkpt>
      <trkpt lat="43.44677" lon="1.97809">
        <ele>227.39999389648</ele>
        <time>2023-06-05T06:48:04.000Z</time>
      </trkpt>
      <trkpt lat="43.44673" lon="1.978">
        <ele>227</ele>
        <time>2023-06-05T06:48:10.000Z</time>
      </trkpt>
      <trkpt lat="43.4467" lon="1.97792">
        <ele>227.19999694824</ele>
        <time>2023-06-05T06:48:15.000Z</time>
      </trkpt>
      <trkpt lat="43.44669" lon="1.97789">
        <ele>227.19999694824</ele>
        <time>2023-06-05T06:48:17.000Z</time>
      </trkpt>
      <trkpt lat="43.44667" lon="1.97783">
        <ele>227.19999694824</ele>
        <time>2023-06-05T06:48:21.000Z</time>
      </trkpt>
      <trkpt lat="43.44666" lon="1.9778">
        <ele>227.19999694824</ele>
        <time>2023-06-05T06:48:23.000Z</time>
      </trkpt>
      <trkpt lat="43.44664" lon="1.97776">
        <ele>227.19999694824</ele>
        <time>2023-06-05T06:48:26.000Z</time>
      </trkpt>
      <trkpt lat="43.44664" lon="1.97773">
        <ele>227.19999694824</ele>
        <time>2023-06-05T06:48:29.000Z</time>
      </trkpt>
      <trkpt lat="43.44662" lon="1.97767">
        <ele>227.19999694824</ele>
        <time>2023-06-05T06:48:34.000Z</time>
      </trkpt>
      <trkpt lat="43.44661" lon="1.97764">
        <ele>227.19999694824</ele>
        <time>2023-06-05T06:48:36.000Z</time>
      </trkpt>
      <trkpt lat="43.44661" lon="1.97763">
        <ele>227</ele>
        <time>2023-06-05T06:48:43.000Z</time>
      </trkpt>
      <trkpt lat="43.44656" lon="1.97754">
        <ele>227</ele>
        <time>2023-06-05T06:48:49.000Z</time>
      </trkpt>
      <trkpt lat="43.44651" lon="1.97745">
        <ele>227.19999694824</ele>
        <time>2023-06-05T06:48:57.000Z</time>
      </trkpt>
      <trkpt lat="43.44646" lon="1.97737">
        <ele>227</ele>
        <time>2023-06-05T06:49:04.000Z</time>
      </trkpt>
      <trkpt lat="43.44643" lon="1.9773">
        <ele>227</ele>
        <time>2023-06-05T06:49:12.000Z</time>
      </trkpt>
      <trkpt lat="43.44638" lon="1.9772">
        <ele>227</ele>
        <time>2023-06-05T06:49:20.000Z</time>
      </trkpt>
      <trkpt lat="43.44634" lon="1.97711">
        <ele>227</ele>
        <time>2023-06-05T06:49:28.000Z</time>
      </trkpt>
      <trkpt lat="43.44633" lon="1.97711">
        <ele>227</ele>
        <time>2023-06-05T06:49:29.000Z</time>
      </trkpt>
      <trkpt lat="43.44632" lon="1.97708">
        <ele>227.19999694824</ele>
        <time>2023-06-05T06:49:32.000Z</time>
      </trkpt>
      <trkpt lat="43.4463" lon="1.97703">
        <ele>227.19999694824</ele>
        <time>2023-06-05T06:49:36.000Z</time>
      </trkpt>
      <trkpt lat="43.44627" lon="1.97696">
        <ele>227.19999694824</ele>
        <time>2023-06-05T06:49:43.000Z</time>
      </trkpt>
      <trkpt lat="43.44626" lon="1.97691">
        <ele>227.19999694824</ele>
        <time>2023-06-05T06:49:47.000Z</time>
      </trkpt>
      <trkpt lat="43.44624" lon="1.97686">
        <ele>227.19999694824</ele>
        <time>2023-06-05T06:49:51.000Z</time>
      </trkpt>
      <trkpt lat="43.44623" lon="1.9768">
        <ele>227.19999694824</ele>
        <time>2023-06-05T06:49:57.000Z</time>
      </trkpt>
      <trkpt lat="43.44623" lon="1.97673">
        <ele>227.19999694824</ele>
        <time>2023-06-05T06:50:01.000Z</time>
      </trkpt>
      <trkpt lat="43.44622" lon="1.9767">
        <ele>227.19999694824</ele>
        <time>2023-06-05T06:50:04.000Z</time>
      </trkpt>
      <trkpt lat="43.44622" lon="1.97665">
        <ele>227</ele>
        <time>2023-06-05T06:50:08.000Z</time>
      </trkpt>
      <trkpt lat="43.44622" lon="1.97663">
        <ele>227</ele>
        <time>2023-06-05T06:50:09.000Z</time>
      </trkpt>
      <trkpt lat="43.4462" lon="1.97652">
        <ele>227.19999694824</ele>
        <time>2023-06-05T06:50:17.000Z</time>
      </trkpt>
      <trkpt lat="43.44618" lon="1.97645">
        <ele>226.80000305176</ele>
        <time>2023-06-05T06:50:24.000Z</time>
      </trkpt>
      <trkpt lat="43.44618" lon="1.97644">
        <ele>227.19999694824</ele>
        <time>2023-06-05T06:50:32.000Z</time>
      </trkpt>
      <trkpt lat="43.44617" lon="1.97638">
        <ele>226.80000305176</ele>
        <time>2023-06-05T06:50:40.000Z</time>
      </trkpt>
      <trkpt lat="43.44613" lon="1.97624">
        <ele>226.80000305176</ele>
        <time>2023-06-05T06:50:49.000Z</time>
      </trkpt>
      <trkpt lat="43.44611" lon="1.97622">
        <ele>226.80000305176</ele>
        <time>2023-06-05T06:50:51.000Z</time>
      </trkpt>
      <trkpt lat="43.44611" lon="1.97621">
        <ele>226.80000305176</ele>
        <time>2023-06-05T06:50:53.000Z</time>
      </trkpt>
      <trkpt lat="43.4461" lon="1.9762">
        <ele>226.80000305176</ele>
        <time>2023-06-05T06:50:54.000Z</time>
      </trkpt>
      <trkpt lat="43.44605" lon="1.97611">
        <ele>226.60000610352</ele>
        <time>2023-06-05T06:51:01.000Z</time>
      </trkpt>
      <trkpt lat="43.44604" lon="1.9761">
        <ele>226.60000610352</ele>
        <time>2023-06-05T06:51:02.000Z</time>
      </trkpt>
      <trkpt lat="43.44599" lon="1.97605">
        <ele>226.80000305176</ele>
        <time>2023-06-05T06:51:07.000Z</time>
      </trkpt>
      <trkpt lat="43.44593" lon="1.97601">
        <ele>226.80000305176</ele>
        <time>2023-06-05T06:51:13.000Z</time>
      </trkpt>
      <trkpt lat="43.44592" lon="1.976">
        <ele>226.80000305176</ele>
        <time>2023-06-05T06:51:14.000Z</time>
      </trkpt>
      <trkpt lat="43.44584" lon="1.97596">
        <ele>226.80000305176</ele>
        <time>2023-06-05T06:51:22.000Z</time>
      </trkpt>
      <trkpt lat="43.44578" lon="1.97589">
        <ele>226.80000305176</ele>
        <time>2023-06-05T06:51:29.000Z</time>
      </trkpt>
      <trkpt lat="43.44572" lon="1.9758">
        <ele>226.80000305176</ele>
        <time>2023-06-05T06:51:37.000Z</time>
      </trkpt>
      <trkpt lat="43.44569" lon="1.97575">
        <ele>226.80000305176</ele>
        <time>2023-06-05T06:51:42.000Z</time>
      </trkpt>
      <trkpt lat="43.44568" lon="1.97574">
        <ele>226.80000305176</ele>
        <time>2023-06-05T06:51:43.000Z</time>
      </trkpt>
      <trkpt lat="43.44564" lon="1.97565">
        <ele>226.80000305176</ele>
        <time>2023-06-05T06:51:50.000Z</time>
      </trkpt>
      <trkpt lat="43.44558" lon="1.97554">
        <ele>227</ele>
        <time>2023-06-05T06:51:59.000Z</time>
      </trkpt>
      <trkpt lat="43.44556" lon="1.97551">
        <ele>227</ele>
        <time>2023-06-05T06:52:02.000Z</time>
      </trkpt>
      <trkpt lat="43.44556" lon="1.97549">
        <ele>227</ele>
        <time>2023-06-05T06:52:05.000Z</time>
      </trkpt>
      <trkpt lat="43.44551" lon="1.97541">
        <ele>227</ele>
        <time>2023-06-05T06:52:12.000Z</time>
      </trkpt>
      <trkpt lat="43.44549" lon="1.97536">
        <ele>227</ele>
        <time>2023-06-05T06:52:16.000Z</time>
      </trkpt>
      <trkpt lat="43.44548" lon="1.97534">
        <ele>227</ele>
        <time>2023-06-05T06:52:18.000Z</time>
      </trkpt>
      <trkpt lat="43.44546" lon="1.97526">
        <ele>227.60000610352</ele>
        <time>2023-06-05T06:52:24.000Z</time>
      </trkpt>
      <trkpt lat="43.44546" lon="1.97525">
        <ele>227.60000610352</ele>
        <time>2023-06-05T06:52:25.000Z</time>
      </trkpt>
      <trkpt lat="43.44544" lon="1.97518">
        <ele>227.80000305176</ele>
        <time>2023-06-05T06:52:30.000Z</time>
      </trkpt>
      <trkpt lat="43.44543" lon="1.97516">
        <ele>227.80000305176</ele>
        <time>2023-06-05T06:52:32.000Z</time>
      </trkpt>
      <trkpt lat="43.44543" lon="1.97513">
        <ele>227.80000305176</ele>
        <time>2023-06-05T06:52:34.000Z</time>
      </trkpt>
      <trkpt lat="43.44544" lon="1.97506">
        <ele>227.80000305176</ele>
        <time>2023-06-05T06:52:38.000Z</time>
      </trkpt>
      <trkpt lat="43.44544" lon="1.97502">
        <ele>227.80000305176</ele>
        <time>2023-06-05T06:52:40.000Z</time>
      </trkpt>
      <trkpt lat="43.44545" lon="1.97499">
        <ele>227.39999389648</ele>
        <time>2023-06-05T06:52:42.000Z</time>
      </trkpt>
      <trkpt lat="43.44547" lon="1.97493">
        <ele>227.19999694824</ele>
        <time>2023-06-05T06:52:46.000Z</time>
      </trkpt>
      <trkpt lat="43.44547" lon="1.97492">
        <ele>227.19999694824</ele>
        <time>2023-06-05T06:52:47.000Z</time>
      </trkpt>
      <trkpt lat="43.44551" lon="1.97482">
        <ele>227</ele>
        <time>2023-06-05T06:52:54.000Z</time>
      </trkpt>
      <trkpt lat="43.44553" lon="1.97474">
        <ele>226.80000305176</ele>
        <time>2023-06-05T06:52:59.000Z</time>
      </trkpt>
      <trkpt lat="43.44553" lon="1.97472">
        <ele>226.80000305176</ele>
        <time>2023-06-05T06:53:02.000Z</time>
      </trkpt>
      <trkpt lat="43.44553" lon="1.97471">
        <ele>226.80000305176</ele>
        <time>2023-06-05T06:53:03.000Z</time>
      </trkpt>
      <trkpt lat="43.44554" lon="1.97465">
        <ele>226.80000305176</ele>
        <time>2023-06-05T06:53:08.000Z</time>
      </trkpt>
      <trkpt lat="43.44554" lon="1.97464">
        <ele>226.80000305176</ele>
        <time>2023-06-05T06:53:09.000Z</time>
      </trkpt>
      <trkpt lat="43.44556" lon="1.97456">
        <ele>227</ele>
        <time>2023-06-05T06:53:15.000Z</time>
      </trkpt>
      <trkpt lat="43.4456" lon="1.97446">
        <ele>227</ele>
        <time>2023-06-05T06:53:23.000Z</time>
      </trkpt>
      <trkpt lat="43.44561" lon="1.97441">
        <ele>227.19999694824</ele>
        <time>2023-06-05T06:53:27.000Z</time>
      </trkpt>
      <trkpt lat="43.44562" lon="1.97438">
        <ele>227.19999694824</ele>
        <time>2023-06-05T06:53:30.000Z</time>
      </trkpt>
      <trkpt lat="43.44564" lon="1.97435">
        <ele>227.19999694824</ele>
        <time>2023-06-05T06:53:34.000Z</time>
      </trkpt>
      <trkpt lat="43.44565" lon="1.97432">
        <ele>227.19999694824</ele>
        <time>2023-06-05T06:53:36.000Z</time>
      </trkpt>
      <trkpt lat="43.44568" lon="1.97423">
        <ele>227</ele>
        <time>2023-06-05T06:53:42.000Z</time>
      </trkpt>
      <trkpt lat="43.44569" lon="1.9742">
        <ele>227</ele>
        <time>2023-06-05T06:53:44.000Z</time>
      </trkpt>
      <trkpt lat="43.44571" lon="1.9741">
        <ele>226.80000305176</ele>
        <time>2023-06-05T06:53:51.000Z</time>
      </trkpt>
      <trkpt lat="43.44575" lon="1.974">
        <ele>227</ele>
        <time>2023-06-05T06:53:58.000Z</time>
      </trkpt>
      <trkpt lat="43.44581" lon="1.97389">
        <ele>227</ele>
        <time>2023-06-05T06:54:06.000Z</time>
      </trkpt>
      <trkpt lat="43.44588" lon="1.97378">
        <ele>227</ele>
        <time>2023-06-05T06:54:15.000Z</time>
      </trkpt>
      <trkpt lat="43.44589" lon="1.97376">
        <ele>227</ele>
        <time>2023-06-05T06:54:17.000Z</time>
      </trkpt>
      <trkpt lat="43.44593" lon="1.9737">
        <ele>227</ele>
        <time>2023-06-05T06:54:22.000Z</time>
      </trkpt>
      <trkpt lat="43.44598" lon="1.97363">
        <ele>227.19999694824</ele>
        <time>2023-06-05T06:54:28.000Z</time>
      </trkpt>
      <trkpt lat="43.44599" lon="1.9736">
        <ele>227.19999694824</ele>
        <time>2023-06-05T06:54:30.000Z</time>
      </trkpt>
      <trkpt lat="43.44605" lon="1.97352">
        <ele>227.19999694824</ele>
        <time>2023-06-05T06:54:37.000Z</time>
      </trkpt>
      <trkpt lat="43.44609" lon="1.97343">
        <ele>227.39999389648</ele>
        <time>2023-06-05T06:54:44.000Z</time>
      </trkpt>
      <trkpt lat="43.44609" lon="1.97342">
        <ele>227.39999389648</ele>
        <time>2023-06-05T06:54:45.000Z</time>
      </trkpt>
      <trkpt lat="43.44611" lon="1.97337">
        <ele>227.80000305176</ele>
        <time>2023-06-05T06:54:49.000Z</time>
      </trkpt>
      <trkpt lat="43.44616" lon="1.97326">
        <ele>227.80000305176</ele>
        <time>2023-06-05T06:54:58.000Z</time>
      </trkpt>
      <trkpt lat="43.4462" lon="1.97313">
        <ele>227.80000305176</ele>
        <time>2023-06-05T06:55:06.000Z</time>
      </trkpt>
      <trkpt lat="43.44622" lon="1.97304">
        <ele>228</ele>
        <time>2023-06-05T06:55:13.000Z</time>
      </trkpt>
      <trkpt lat="43.44624" lon="1.97297">
        <ele>228</ele>
        <time>2023-06-05T06:55:18.000Z</time>
      </trkpt>
      <trkpt lat="43.44625" lon="1.97292">
        <ele>228</ele>
        <time>2023-06-05T06:55:22.000Z</time>
      </trkpt>
      <trkpt lat="43.44627" lon="1.97286">
        <ele>228</ele>
        <time>2023-06-05T06:55:27.000Z</time>
      </trkpt>
      <trkpt lat="43.44628" lon="1.97284">
        <ele>227.80000305176</ele>
        <time>2023-06-05T06:55:29.000Z</time>
      </trkpt>
      <trkpt lat="43.4463" lon="1.97277">
        <ele>227.60000610352</ele>
        <time>2023-06-05T06:55:34.000Z</time>
      </trkpt>
      <trkpt lat="43.4463" lon="1.97273">
        <ele>227.60000610352</ele>
        <time>2023-06-05T06:55:36.000Z</time>
      </trkpt>
      <trkpt lat="43.4463" lon="1.97272">
        <ele>227.60000610352</ele>
        <time>2023-06-05T06:55:37.000Z</time>
      </trkpt>
      <trkpt lat="43.44629" lon="1.97263">
        <ele>227.60000610352</ele>
        <time>2023-06-05T06:55:42.000Z</time>
      </trkpt>
      <trkpt lat="43.44625" lon="1.9725">
        <ele>227.39999389648</ele>
        <time>2023-06-05T06:55:50.000Z</time>
      </trkpt>
      <trkpt lat="43.44622" lon="1.97244">
        <ele>227.39999389648</ele>
        <time>2023-06-05T06:55:54.000Z</time>
      </trkpt>
      <trkpt lat="43.44619" lon="1.97239">
        <ele>227.60000610352</ele>
        <time>2023-06-05T06:55:58.000Z</time>
      </trkpt>
      <trkpt lat="43.44614" lon="1.97231">
        <ele>227.60000610352</ele>
        <time>2023-06-05T06:56:06.000Z</time>
      </trkpt>
      <trkpt lat="43.4461" lon="1.97226">
        <ele>227.60000610352</ele>
        <time>2023-06-05T06:56:11.000Z</time>
      </trkpt>
      <trkpt lat="43.44609" lon="1.97223">
        <ele>227.60000610352</ele>
        <time>2023-06-05T06:56:14.000Z</time>
      </trkpt>
      <trkpt lat="43.44606" lon="1.97219">
        <ele>227.80000305176</ele>
        <time>2023-06-05T06:56:18.000Z</time>
      </trkpt>
      <trkpt lat="43.446" lon="1.97213">
        <ele>227.60000610352</ele>
        <time>2023-06-05T06:56:24.000Z</time>
      </trkpt>
      <trkpt lat="43.44598" lon="1.9721">
        <ele>227.39999389648</ele>
        <time>2023-06-05T06:56:27.000Z</time>
      </trkpt>
      <trkpt lat="43.44589" lon="1.97201">
        <ele>227.39999389648</ele>
        <time>2023-06-05T06:56:36.000Z</time>
      </trkpt>
      <trkpt lat="43.44581" lon="1.97193">
        <ele>227.19999694824</ele>
        <time>2023-06-05T06:56:45.000Z</time>
      </trkpt>
      <trkpt lat="43.44574" lon="1.97182">
        <ele>227.19999694824</ele>
        <time>2023-06-05T06:56:54.000Z</time>
      </trkpt>
      <trkpt lat="43.44569" lon="1.97167">
        <ele>227.19999694824</ele>
        <time>2023-06-05T06:57:04.000Z</time>
      </trkpt>
      <trkpt lat="43.44569" lon="1.97163">
        <ele>227.19999694824</ele>
        <time>2023-06-05T06:57:07.000Z</time>
      </trkpt>
      <trkpt lat="43.44569" lon="1.97159">
        <ele>227.39999389648</ele>
        <time>2023-06-05T06:57:09.000Z</time>
      </trkpt>
      <trkpt lat="43.44568" lon="1.97146">
        <ele>227</ele>
        <time>2023-06-05T06:57:17.000Z</time>
      </trkpt>
      <trkpt lat="43.4457" lon="1.9713">
        <ele>226.60000610352</ele>
        <time>2023-06-05T06:57:27.000Z</time>
      </trkpt>
      <trkpt lat="43.44571" lon="1.97124">
        <ele>226.60000610352</ele>
        <time>2023-06-05T06:57:31.000Z</time>
      </trkpt>
      <trkpt lat="43.44571" lon="1.97118">
        <ele>226.60000610352</ele>
        <time>2023-06-05T06:57:35.000Z</time>
      </trkpt>
      <trkpt lat="43.44572" lon="1.9711">
        <ele>226.60000610352</ele>
        <time>2023-06-05T06:57:40.000Z</time>
      </trkpt>
      <trkpt lat="43.44572" lon="1.97106">
        <ele>226.60000610352</ele>
        <time>2023-06-05T06:57:43.000Z</time>
      </trkpt>
      <trkpt lat="43.44572" lon="1.97093">
        <ele>226.60000610352</ele>
        <time>2023-06-05T06:57:51.000Z</time>
      </trkpt>
      <trkpt lat="43.44571" lon="1.97077">
        <ele>226.60000610352</ele>
        <time>2023-06-05T06:58:01.000Z</time>
      </trkpt>
      <trkpt lat="43.4457" lon="1.97074">
        <ele>226.80000305176</ele>
        <time>2023-06-05T06:58:04.000Z</time>
      </trkpt>
      <trkpt lat="43.4457" lon="1.97073">
        <ele>227</ele>
        <time>2023-06-05T06:58:08.000Z</time>
      </trkpt>
      <trkpt lat="43.44569" lon="1.97067">
        <ele>226.80000305176</ele>
        <time>2023-06-05T06:58:16.000Z</time>
      </trkpt>
      <trkpt lat="43.44565" lon="1.97055">
        <ele>226.80000305176</ele>
        <time>2023-06-05T06:58:24.000Z</time>
      </trkpt>
      <trkpt lat="43.44561" lon="1.97044">
        <ele>227</ele>
        <time>2023-06-05T06:58:32.000Z</time>
      </trkpt>
      <trkpt lat="43.44555" lon="1.9703">
        <ele>227</ele>
        <time>2023-06-05T06:58:42.000Z</time>
      </trkpt>
      <trkpt lat="43.44551" lon="1.9702">
        <ele>227.19999694824</ele>
        <time>2023-06-05T06:58:52.000Z</time>
      </trkpt>
      <trkpt lat="43.4455" lon="1.97019">
        <ele>227.39999389648</ele>
        <time>2023-06-05T06:58:58.000Z</time>
      </trkpt>
      <trkpt lat="43.4455" lon="1.97016">
        <ele>227.39999389648</ele>
        <time>2023-06-05T06:59:05.000Z</time>
      </trkpt>
      <trkpt lat="43.44547" lon="1.97008">
        <ele>227.19999694824</ele>
        <time>2023-06-05T06:59:12.000Z</time>
      </trkpt>
      <trkpt lat="43.44541" lon="1.96994">
        <ele>227.39999389648</ele>
        <time>2023-06-05T06:59:21.000Z</time>
      </trkpt>
      <trkpt lat="43.44535" lon="1.9698">
        <ele>227.19999694824</ele>
        <time>2023-06-05T06:59:31.000Z</time>
      </trkpt>
      <trkpt lat="43.44531" lon="1.96969">
        <ele>227.19999694824</ele>
        <time>2023-06-05T06:59:38.000Z</time>
      </trkpt>
      <trkpt lat="43.44527" lon="1.96961">
        <ele>227</ele>
        <time>2023-06-05T06:59:44.000Z</time>
      </trkpt>
      <trkpt lat="43.44527" lon="1.9696">
        <ele>227</ele>
        <time>2023-06-05T06:59:45.000Z</time>
      </trkpt>
      <trkpt lat="43.44526" lon="1.96956">
        <ele>227</ele>
        <time>2023-06-05T06:59:47.000Z</time>
      </trkpt>
      <trkpt lat="43.44524" lon="1.96952">
        <ele>227.19999694824</ele>
        <time>2023-06-05T06:59:50.000Z</time>
      </trkpt>
      <trkpt lat="43.44521" lon="1.96945">
        <ele>227.19999694824</ele>
        <time>2023-06-05T06:59:55.000Z</time>
      </trkpt>
      <trkpt lat="43.44516" lon="1.96935">
        <ele>227</ele>
        <time>2023-06-05T07:00:02.000Z</time>
      </trkpt>
      <trkpt lat="43.44511" lon="1.96922">
        <ele>227</ele>
        <time>2023-06-05T07:00:10.000Z</time>
      </trkpt>
      <trkpt lat="43.44506" lon="1.9691">
        <ele>227</ele>
        <time>2023-06-05T07:00:18.000Z</time>
      </trkpt>
      <trkpt lat="43.445" lon="1.96896">
        <ele>226.80000305176</ele>
        <time>2023-06-05T07:00:27.000Z</time>
      </trkpt>
      <trkpt lat="43.44491" lon="1.9688">
        <ele>226.80000305176</ele>
        <time>2023-06-05T07:00:38.000Z</time>
      </trkpt>
      <trkpt lat="43.44487" lon="1.96873">
        <ele>226.80000305176</ele>
        <time>2023-06-05T07:00:43.000Z</time>
      </trkpt>
      <trkpt lat="43.44484" lon="1.96868">
        <ele>226.80000305176</ele>
        <time>2023-06-05T07:00:47.000Z</time>
      </trkpt>
      <trkpt lat="43.44483" lon="1.96864">
        <ele>227</ele>
        <time>2023-06-05T07:00:50.000Z</time>
      </trkpt>
      <trkpt lat="43.44482" lon="1.96854">
        <ele>227.19999694824</ele>
        <time>2023-06-05T07:00:56.000Z</time>
      </trkpt>
      <trkpt lat="43.44483" lon="1.96853">
        <ele>227.19999694824</ele>
        <time>2023-06-05T07:00:57.000Z</time>
      </trkpt>
      <trkpt lat="43.44484" lon="1.96848">
        <ele>227.39999389648</ele>
        <time>2023-06-05T07:01:00.000Z</time>
      </trkpt>
      <trkpt lat="43.44485" lon="1.96847">
        <ele>227.39999389648</ele>
        <time>2023-06-05T07:01:01.000Z</time>
      </trkpt>
      <trkpt lat="43.44488" lon="1.96844">
        <ele>227.39999389648</ele>
        <time>2023-06-05T07:01:04.000Z</time>
      </trkpt>
      <trkpt lat="43.44491" lon="1.96838">
        <ele>227.39999389648</ele>
        <time>2023-06-05T07:01:09.000Z</time>
      </trkpt>
      <trkpt lat="43.44493" lon="1.96836">
        <ele>227.39999389648</ele>
        <time>2023-06-05T07:01:11.000Z</time>
      </trkpt>
      <trkpt lat="43.44496" lon="1.96831">
        <ele>227.19999694824</ele>
        <time>2023-06-05T07:01:15.000Z</time>
      </trkpt>
      <trkpt lat="43.44499" lon="1.96827">
        <ele>227.19999694824</ele>
        <time>2023-06-05T07:01:19.000Z</time>
      </trkpt>
      <trkpt lat="43.44504" lon="1.96817">
        <ele>227</ele>
        <time>2023-06-05T07:01:28.000Z</time>
      </trkpt>
      <trkpt lat="43.44508" lon="1.96809">
        <ele>226.80000305176</ele>
        <time>2023-06-05T07:01:35.000Z</time>
      </trkpt>
      <trkpt lat="43.44509" lon="1.96806">
        <ele>227</ele>
        <time>2023-06-05T07:01:38.000Z</time>
      </trkpt>
      <trkpt lat="43.4451" lon="1.968">
        <ele>226.80000305176</ele>
        <time>2023-06-05T07:01:42.000Z</time>
      </trkpt>
      <trkpt lat="43.4451" lon="1.96799">
        <ele>226.80000305176</ele>
        <time>2023-06-05T07:01:43.000Z</time>
      </trkpt>
      <trkpt lat="43.44512" lon="1.96793">
        <ele>226.60000610352</ele>
        <time>2023-06-05T07:01:47.000Z</time>
      </trkpt>
      <trkpt lat="43.44512" lon="1.96791">
        <ele>226.60000610352</ele>
        <time>2023-06-05T07:01:49.000Z</time>
      </trkpt>
      <trkpt lat="43.44515" lon="1.96784">
        <ele>226.80000305176</ele>
        <time>2023-06-05T07:01:54.000Z</time>
      </trkpt>
      <trkpt lat="43.44516" lon="1.96775">
        <ele>226.80000305176</ele>
        <time>2023-06-05T07:01:59.000Z</time>
      </trkpt>
      <trkpt lat="43.44517" lon="1.96774">
        <ele>226.80000305176</ele>
        <time>2023-06-05T07:02:00.000Z</time>
      </trkpt>
      <trkpt lat="43.44518" lon="1.96769">
        <ele>226.80000305176</ele>
        <time>2023-06-05T07:02:03.000Z</time>
      </trkpt>
      <trkpt lat="43.44521" lon="1.96761">
        <ele>226.80000305176</ele>
        <time>2023-06-05T07:02:08.000Z</time>
      </trkpt>
      <trkpt lat="43.44523" lon="1.96754">
        <ele>226.80000305176</ele>
        <time>2023-06-05T07:02:13.000Z</time>
      </trkpt>
      <trkpt lat="43.44524" lon="1.96751">
        <ele>226.60000610352</ele>
        <time>2023-06-05T07:02:15.000Z</time>
      </trkpt>
      <trkpt lat="43.44526" lon="1.96744">
        <ele>226.60000610352</ele>
        <time>2023-06-05T07:02:21.000Z</time>
      </trkpt>
      <trkpt lat="43.44528" lon="1.96736">
        <ele>226.60000610352</ele>
        <time>2023-06-05T07:02:27.000Z</time>
      </trkpt>
      <trkpt lat="43.44529" lon="1.96732">
        <ele>226.60000610352</ele>
        <time>2023-06-05T07:02:29.000Z</time>
      </trkpt>
      <trkpt lat="43.44531" lon="1.96726">
        <ele>226.60000610352</ele>
        <time>2023-06-05T07:02:34.000Z</time>
      </trkpt>
      <trkpt lat="43.44531" lon="1.96724">
        <ele>226.60000610352</ele>
        <time>2023-06-05T07:02:35.000Z</time>
      </trkpt>
      <trkpt lat="43.44532" lon="1.96716">
        <ele>226.39999389648</ele>
        <time>2023-06-05T07:02:41.000Z</time>
      </trkpt>
      <trkpt lat="43.44535" lon="1.96707">
        <ele>226.60000610352</ele>
        <time>2023-06-05T07:02:48.000Z</time>
      </trkpt>
      <trkpt lat="43.44537" lon="1.96703">
        <ele>226.60000610352</ele>
        <time>2023-06-05T07:02:51.000Z</time>
      </trkpt>
      <trkpt lat="43.44538" lon="1.96698">
        <ele>226.60000610352</ele>
        <time>2023-06-05T07:02:54.000Z</time>
      </trkpt>
      <trkpt lat="43.4454" lon="1.96688">
        <ele>227</ele>
        <time>2023-06-05T07:03:00.000Z</time>
      </trkpt>
      <trkpt lat="43.44543" lon="1.9668">
        <ele>226.60000610352</ele>
        <time>2023-06-05T07:03:06.000Z</time>
      </trkpt>
      <trkpt lat="43.44544" lon="1.96675">
        <ele>226.80000305176</ele>
        <time>2023-06-05T07:03:09.000Z</time>
      </trkpt>
      <trkpt lat="43.44545" lon="1.9667">
        <ele>226.60000610352</ele>
        <time>2023-06-05T07:03:12.000Z</time>
      </trkpt>
      <trkpt lat="43.44546" lon="1.96664">
        <ele>226.60000610352</ele>
        <time>2023-06-05T07:03:16.000Z</time>
      </trkpt>
      <trkpt lat="43.44548" lon="1.96657">
        <ele>226.60000610352</ele>
        <time>2023-06-05T07:03:21.000Z</time>
      </trkpt>
      <trkpt lat="43.44549" lon="1.96651">
        <ele>226.60000610352</ele>
        <time>2023-06-05T07:03:25.000Z</time>
      </trkpt>
      <trkpt lat="43.4455" lon="1.96649">
        <ele>226.60000610352</ele>
        <time>2023-06-05T07:03:27.000Z</time>
      </trkpt>
      <trkpt lat="43.4455" lon="1.96645">
        <ele>226.60000610352</ele>
        <time>2023-06-05T07:03:29.000Z</time>
      </trkpt>
      <trkpt lat="43.44549" lon="1.96642">
        <ele>226.39999389648</ele>
        <time>2023-06-05T07:03:32.000Z</time>
      </trkpt>
      <trkpt lat="43.44549" lon="1.9664">
        <ele>226.39999389648</ele>
        <time>2023-06-05T07:03:33.000Z</time>
      </trkpt>
      <trkpt lat="43.44548" lon="1.96635">
        <ele>226.19999694824</ele>
        <time>2023-06-05T07:03:36.000Z</time>
      </trkpt>
      <trkpt lat="43.44547" lon="1.96633">
        <ele>226.19999694824</ele>
        <time>2023-06-05T07:03:38.000Z</time>
      </trkpt>
      <trkpt lat="43.44547" lon="1.9663">
        <ele>226.19999694824</ele>
        <time>2023-06-05T07:03:40.000Z</time>
      </trkpt>
      <trkpt lat="43.44546" lon="1.96627">
        <ele>226.39999389648</ele>
        <time>2023-06-05T07:03:42.000Z</time>
      </trkpt>
      <trkpt lat="43.44546" lon="1.96625">
        <ele>226.19999694824</ele>
        <time>2023-06-05T07:03:43.000Z</time>
      </trkpt>
      <trkpt lat="43.44545" lon="1.96621">
        <ele>226</ele>
        <time>2023-06-05T07:03:46.000Z</time>
      </trkpt>
      <trkpt lat="43.44544" lon="1.96616">
        <ele>226</ele>
        <time>2023-06-05T07:03:49.000Z</time>
      </trkpt>
      <trkpt lat="43.44543" lon="1.96614">
        <ele>226</ele>
        <time>2023-06-05T07:03:51.000Z</time>
      </trkpt>
      <trkpt lat="43.44542" lon="1.96609">
        <ele>226</ele>
        <time>2023-06-05T07:03:55.000Z</time>
      </trkpt>
      <trkpt lat="43.44541" lon="1.96606">
        <ele>226.19999694824</ele>
        <time>2023-06-05T07:03:58.000Z</time>
      </trkpt>
      <trkpt lat="43.4454" lon="1.96601">
        <ele>226.19999694824</ele>
        <time>2023-06-05T07:04:01.000Z</time>
      </trkpt>
      <trkpt lat="43.44538" lon="1.96592">
        <ele>226.60000610352</ele>
        <time>2023-06-05T07:04:07.000Z</time>
      </trkpt>
      <trkpt lat="43.44538" lon="1.96578">
        <ele>226.60000610352</ele>
        <time>2023-06-05T07:04:16.000Z</time>
      </trkpt>
      <trkpt lat="43.44537" lon="1.96567">
        <ele>226.39999389648</ele>
        <time>2023-06-05T07:04:24.000Z</time>
      </trkpt>
      <trkpt lat="43.44537" lon="1.96565">
        <ele>226.39999389648</ele>
        <time>2023-06-05T07:04:25.000Z</time>
      </trkpt>
      <trkpt lat="43.44538" lon="1.9656">
        <ele>226</ele>
        <time>2023-06-05T07:04:29.000Z</time>
      </trkpt>
      <trkpt lat="43.44538" lon="1.96557">
        <ele>226</ele>
        <time>2023-06-05T07:04:31.000Z</time>
      </trkpt>
      <trkpt lat="43.44538" lon="1.9655">
        <ele>225.80000305176</ele>
        <time>2023-06-05T07:04:36.000Z</time>
      </trkpt>
      <trkpt lat="43.44538" lon="1.96544">
        <ele>225.80000305176</ele>
        <time>2023-06-05T07:04:39.000Z</time>
      </trkpt>
      <trkpt lat="43.44537" lon="1.96541">
        <ele>225.80000305176</ele>
        <time>2023-06-05T07:04:41.000Z</time>
      </trkpt>
      <trkpt lat="43.44537" lon="1.96538">
        <ele>225.80000305176</ele>
        <time>2023-06-05T07:04:43.000Z</time>
      </trkpt>
      <trkpt lat="43.44537" lon="1.96537">
        <ele>225.80000305176</ele>
        <time>2023-06-05T07:04:44.000Z</time>
      </trkpt>
      <trkpt lat="43.44536" lon="1.96533">
        <ele>225.80000305176</ele>
        <time>2023-06-05T07:04:47.000Z</time>
      </trkpt>
      <trkpt lat="43.44533" lon="1.9652">
        <ele>225.80000305176</ele>
        <time>2023-06-05T07:04:56.000Z</time>
      </trkpt>
      <trkpt lat="43.44532" lon="1.96516">
        <ele>225.60000610352</ele>
        <time>2023-06-05T07:05:03.000Z</time>
      </trkpt>
      <trkpt lat="43.44531" lon="1.9651">
        <ele>225.60000610352</ele>
        <time>2023-06-05T07:05:09.000Z</time>
      </trkpt>
      <trkpt lat="43.44527" lon="1.96503">
        <ele>225.60000610352</ele>
        <time>2023-06-05T07:05:15.000Z</time>
      </trkpt>
      <trkpt lat="43.44523" lon="1.96494">
        <ele>225.80000305176</ele>
        <time>2023-06-05T07:05:22.000Z</time>
      </trkpt>
      <trkpt lat="43.44515" lon="1.96481">
        <ele>225.80000305176</ele>
        <time>2023-06-05T07:05:32.000Z</time>
      </trkpt>
      <trkpt lat="43.44509" lon="1.9647">
        <ele>225.80000305176</ele>
        <time>2023-06-05T07:05:40.000Z</time>
      </trkpt>
      <trkpt lat="43.44507" lon="1.96466">
        <ele>225.80000305176</ele>
        <time>2023-06-05T07:05:43.000Z</time>
      </trkpt>
      <trkpt lat="43.44504" lon="1.96461">
        <ele>225.80000305176</ele>
        <time>2023-06-05T07:05:47.000Z</time>
      </trkpt>
      <trkpt lat="43.44497" lon="1.96452">
        <ele>225.80000305176</ele>
        <time>2023-06-05T07:05:55.000Z</time>
      </trkpt>
      <trkpt lat="43.44488" lon="1.96449">
        <ele>225.80000305176</ele>
        <time>2023-06-05T07:06:04.000Z</time>
      </trkpt>
      <trkpt lat="43.44484" lon="1.96448">
        <ele>225.80000305176</ele>
        <time>2023-06-05T07:06:07.000Z</time>
      </trkpt>
      <trkpt lat="43.44481" lon="1.96449">
        <ele>225.80000305176</ele>
        <time>2023-06-05T07:06:10.000Z</time>
      </trkpt>
      <trkpt lat="43.44473" lon="1.96451">
        <ele>225.60000610352</ele>
        <time>2023-06-05T07:06:18.000Z</time>
      </trkpt>
      <trkpt lat="43.44467" lon="1.96452">
        <ele>225.39999389648</ele>
        <time>2023-06-05T07:06:25.000Z</time>
      </trkpt>
      <trkpt lat="43.44466" lon="1.96452">
        <ele>225.60000610352</ele>
        <time>2023-06-05T07:06:26.000Z</time>
      </trkpt>
      <trkpt lat="43.44465" lon="1.96451">
        <ele>225.60000610352</ele>
        <time>2023-06-05T07:06:27.000Z</time>
      </trkpt>
      <trkpt lat="43.44462" lon="1.96451">
        <ele>226.19999694824</ele>
        <time>2023-06-05T07:06:30.000Z</time>
      </trkpt>
      <trkpt lat="43.44461" lon="1.96451">
        <ele>226.19999694824</ele>
        <time>2023-06-05T07:06:31.000Z</time>
      </trkpt>
      <trkpt lat="43.44456" lon="1.96451">
        <ele>226.19999694824</ele>
        <time>2023-06-05T07:06:37.000Z</time>
      </trkpt>
      <trkpt lat="43.44447" lon="1.9645">
        <ele>226</ele>
        <time>2023-06-05T07:06:45.000Z</time>
      </trkpt>
      <trkpt lat="43.44446" lon="1.96451">
        <ele>226</ele>
        <time>2023-06-05T07:06:46.000Z</time>
      </trkpt>
      <trkpt lat="43.44439" lon="1.96451">
        <ele>226.19999694824</ele>
        <time>2023-06-05T07:06:53.000Z</time>
      </trkpt>
      <trkpt lat="43.4443" lon="1.96453">
        <ele>226</ele>
        <time>2023-06-05T07:07:01.000Z</time>
      </trkpt>
      <trkpt lat="43.44419" lon="1.9645">
        <ele>226.19999694824</ele>
        <time>2023-06-05T07:07:11.000Z</time>
      </trkpt>
      <trkpt lat="43.44412" lon="1.96444">
        <ele>226.60000610352</ele>
        <time>2023-06-05T07:07:18.000Z</time>
      </trkpt>
      <trkpt lat="43.44406" lon="1.96433">
        <ele>226.19999694824</ele>
        <time>2023-06-05T07:07:27.000Z</time>
      </trkpt>
      <trkpt lat="43.44404" lon="1.96425">
        <ele>226</ele>
        <time>2023-06-05T07:07:34.000Z</time>
      </trkpt>
      <trkpt lat="43.44402" lon="1.96413">
        <ele>226</ele>
        <time>2023-06-05T07:07:42.000Z</time>
      </trkpt>
      <trkpt lat="43.44402" lon="1.96402">
        <ele>226</ele>
        <time>2023-06-05T07:07:49.000Z</time>
      </trkpt>
      <trkpt lat="43.44401" lon="1.96397">
        <ele>226</ele>
        <time>2023-06-05T07:07:53.000Z</time>
      </trkpt>
      <trkpt lat="43.44401" lon="1.96395">
        <ele>225.80000305176</ele>
        <time>2023-06-05T07:07:55.000Z</time>
      </trkpt>
      <trkpt lat="43.44401" lon="1.96385">
        <ele>225.60000610352</ele>
        <time>2023-06-05T07:08:02.000Z</time>
      </trkpt>
      <trkpt lat="43.444" lon="1.96382">
        <ele>225.60000610352</ele>
        <time>2023-06-05T07:08:04.000Z</time>
      </trkpt>
      <trkpt lat="43.444" lon="1.96378">
        <ele>225.60000610352</ele>
        <time>2023-06-05T07:08:06.000Z</time>
      </trkpt>
      <trkpt lat="43.444" lon="1.96371">
        <ele>225.39999389648</ele>
        <time>2023-06-05T07:08:11.000Z</time>
      </trkpt>
      <trkpt lat="43.444" lon="1.96357">
        <ele>225.39999389648</ele>
        <time>2023-06-05T07:08:20.000Z</time>
      </trkpt>
      <trkpt lat="43.44401" lon="1.96348">
        <ele>225.39999389648</ele>
        <time>2023-06-05T07:08:25.000Z</time>
      </trkpt>
      <trkpt lat="43.44403" lon="1.96338">
        <ele>225.39999389648</ele>
        <time>2023-06-05T07:08:33.000Z</time>
      </trkpt>
      <trkpt lat="43.44404" lon="1.96335">
        <ele>225.39999389648</ele>
        <time>2023-06-05T07:08:35.000Z</time>
      </trkpt>
      <trkpt lat="43.44405" lon="1.96332">
        <ele>225.60000610352</ele>
        <time>2023-06-05T07:08:39.000Z</time>
      </trkpt>
      <trkpt lat="43.44406" lon="1.96329">
        <ele>225.60000610352</ele>
        <time>2023-06-05T07:08:41.000Z</time>
      </trkpt>
      <trkpt lat="43.44408" lon="1.96326">
        <ele>225.60000610352</ele>
        <time>2023-06-05T07:08:44.000Z</time>
      </trkpt>
      <trkpt lat="43.44409" lon="1.96322">
        <ele>225.39999389648</ele>
        <time>2023-06-05T07:08:47.000Z</time>
      </trkpt>
      <trkpt lat="43.44412" lon="1.96318">
        <ele>225.19999694824</ele>
        <time>2023-06-05T07:08:51.000Z</time>
      </trkpt>
      <trkpt lat="43.44413" lon="1.96317">
        <ele>225.19999694824</ele>
        <time>2023-06-05T07:08:52.000Z</time>
      </trkpt>
      <trkpt lat="43.44413" lon="1.96316">
        <ele>225.19999694824</ele>
        <time>2023-06-05T07:08:53.000Z</time>
      </trkpt>
      <trkpt lat="43.44418" lon="1.9631">
        <ele>225.19999694824</ele>
        <time>2023-06-05T07:08:59.000Z</time>
      </trkpt>
      <trkpt lat="43.44422" lon="1.96302">
        <ele>225.19999694824</ele>
        <time>2023-06-05T07:09:06.000Z</time>
      </trkpt>
      <trkpt lat="43.44426" lon="1.96294">
        <ele>225</ele>
        <time>2023-06-05T07:09:13.000Z</time>
      </trkpt>
      <trkpt lat="43.44427" lon="1.96293">
        <ele>225</ele>
        <time>2023-06-05T07:09:14.000Z</time>
      </trkpt>
      <trkpt lat="43.44431" lon="1.96286">
        <ele>225</ele>
        <time>2023-06-05T07:09:20.000Z</time>
      </trkpt>
      <trkpt lat="43.44432" lon="1.96284">
        <ele>225</ele>
        <time>2023-06-05T07:09:22.000Z</time>
      </trkpt>
      <trkpt lat="43.44436" lon="1.96277">
        <ele>225</ele>
        <time>2023-06-05T07:09:27.000Z</time>
      </trkpt>
      <trkpt lat="43.44442" lon="1.96268">
        <ele>225</ele>
        <time>2023-06-05T07:09:35.000Z</time>
      </trkpt>
      <trkpt lat="43.44446" lon="1.96262">
        <ele>225</ele>
        <time>2023-06-05T07:09:40.000Z</time>
      </trkpt>
      <trkpt lat="43.44447" lon="1.96261">
        <ele>225</ele>
        <time>2023-06-05T07:09:42.000Z</time>
      </trkpt>
      <trkpt lat="43.4445" lon="1.96257">
        <ele>225</ele>
        <time>2023-06-05T07:09:45.000Z</time>
      </trkpt>
      <trkpt lat="43.44452" lon="1.96253">
        <ele>225</ele>
        <time>2023-06-05T07:09:49.000Z</time>
      </trkpt>
      <trkpt lat="43.44453" lon="1.9625">
        <ele>225.19999694824</ele>
        <time>2023-06-05T07:09:54.000Z</time>
      </trkpt>
      <trkpt lat="43.44454" lon="1.96246">
        <ele>225.19999694824</ele>
        <time>2023-06-05T07:10:03.000Z</time>
      </trkpt>
      <trkpt lat="43.44459" lon="1.96237">
        <ele>225.19999694824</ele>
        <time>2023-06-05T07:10:10.000Z</time>
      </trkpt>
      <trkpt lat="43.4446" lon="1.96231">
        <ele>225</ele>
        <time>2023-06-05T07:10:14.000Z</time>
      </trkpt>
      <trkpt lat="43.4446" lon="1.96227">
        <ele>225</ele>
        <time>2023-06-05T07:10:17.000Z</time>
      </trkpt>
      <trkpt lat="43.44462" lon="1.96219">
        <ele>225</ele>
        <time>2023-06-05T07:10:22.000Z</time>
      </trkpt>
      <trkpt lat="43.44462" lon="1.96217">
        <ele>225</ele>
        <time>2023-06-05T07:10:23.000Z</time>
      </trkpt>
      <trkpt lat="43.44464" lon="1.96205">
        <ele>225</ele>
        <time>2023-06-05T07:10:31.000Z</time>
      </trkpt>
      <trkpt lat="43.44466" lon="1.96191">
        <ele>225</ele>
        <time>2023-06-05T07:10:39.000Z</time>
      </trkpt>
      <trkpt lat="43.4447" lon="1.96178">
        <ele>225</ele>
        <time>2023-06-05T07:10:47.000Z</time>
      </trkpt>
      <trkpt lat="43.44474" lon="1.96167">
        <ele>225</ele>
        <time>2023-06-05T07:10:54.000Z</time>
      </trkpt>
      <trkpt lat="43.44477" lon="1.96156">
        <ele>224.80000305176</ele>
        <time>2023-06-05T07:11:01.000Z</time>
      </trkpt>
      <trkpt lat="43.44481" lon="1.96146">
        <ele>224.80000305176</ele>
        <time>2023-06-05T07:11:08.000Z</time>
      </trkpt>
      <trkpt lat="43.44483" lon="1.96135">
        <ele>224.80000305176</ele>
        <time>2023-06-05T07:11:15.000Z</time>
      </trkpt>
      <trkpt lat="43.44485" lon="1.96124">
        <ele>224.80000305176</ele>
        <time>2023-06-05T07:11:23.000Z</time>
      </trkpt>
      <trkpt lat="43.44485" lon="1.96117">
        <ele>224.80000305176</ele>
        <time>2023-06-05T07:11:28.000Z</time>
      </trkpt>
      <trkpt lat="43.44485" lon="1.96116">
        <ele>224.80000305176</ele>
        <time>2023-06-05T07:11:29.000Z</time>
      </trkpt>
      <trkpt lat="43.44485" lon="1.96111">
        <ele>224.80000305176</ele>
        <time>2023-06-05T07:11:32.000Z</time>
      </trkpt>
      <trkpt lat="43.44485" lon="1.96107">
        <ele>224.80000305176</ele>
        <time>2023-06-05T07:11:35.000Z</time>
      </trkpt>
      <trkpt lat="43.44485" lon="1.96105">
        <ele>224.80000305176</ele>
        <time>2023-06-05T07:11:36.000Z</time>
      </trkpt>
      <trkpt lat="43.44485" lon="1.961">
        <ele>224.80000305176</ele>
        <time>2023-06-05T07:11:40.000Z</time>
      </trkpt>
      <trkpt lat="43.44485" lon="1.96098">
        <ele>224.80000305176</ele>
        <time>2023-06-05T07:11:42.000Z</time>
      </trkpt>
      <trkpt lat="43.44484" lon="1.96091">
        <ele>224.80000305176</ele>
        <time>2023-06-05T07:11:46.000Z</time>
      </trkpt>
      <trkpt lat="43.44483" lon="1.96085">
        <ele>225</ele>
        <time>2023-06-05T07:11:51.000Z</time>
      </trkpt>
      <trkpt lat="43.4448" lon="1.96073">
        <ele>225</ele>
        <time>2023-06-05T07:12:00.000Z</time>
      </trkpt>
      <trkpt lat="43.44477" lon="1.96063">
        <ele>224.80000305176</ele>
        <time>2023-06-05T07:12:08.000Z</time>
      </trkpt>
      <trkpt lat="43.44476" lon="1.9606">
        <ele>224.80000305176</ele>
        <time>2023-06-05T07:12:10.000Z</time>
      </trkpt>
      <trkpt lat="43.44474" lon="1.96055">
        <ele>225</ele>
        <time>2023-06-05T07:12:14.000Z</time>
      </trkpt>
      <trkpt lat="43.44474" lon="1.96054">
        <ele>225</ele>
        <time>2023-06-05T07:12:15.000Z</time>
      </trkpt>
      <trkpt lat="43.44471" lon="1.96047">
        <ele>225</ele>
        <time>2023-06-05T07:12:20.000Z</time>
      </trkpt>
      <trkpt lat="43.44471" lon="1.96046">
        <ele>225</ele>
        <time>2023-06-05T07:12:21.000Z</time>
      </trkpt>
      <trkpt lat="43.44467" lon="1.96038">
        <ele>224.60000610352</ele>
        <time>2023-06-05T07:12:28.000Z</time>
      </trkpt>
      <trkpt lat="43.44459" lon="1.96029">
        <ele>224.60000610352</ele>
        <time>2023-06-05T07:12:38.000Z</time>
      </trkpt>
      <trkpt lat="43.44453" lon="1.96023">
        <ele>224.60000610352</ele>
        <time>2023-06-05T07:12:46.000Z</time>
      </trkpt>
      <trkpt lat="43.44447" lon="1.96019">
        <ele>224.80000305176</ele>
        <time>2023-06-05T07:12:52.000Z</time>
      </trkpt>
      <trkpt lat="43.44446" lon="1.96018">
        <ele>224.80000305176</ele>
        <time>2023-06-05T07:12:53.000Z</time>
      </trkpt>
      <trkpt lat="43.44442" lon="1.96014">
        <ele>224.60000610352</ele>
        <time>2023-06-05T07:12:58.000Z</time>
      </trkpt>
      <trkpt lat="43.44441" lon="1.96013">
        <ele>224.60000610352</ele>
        <time>2023-06-05T07:13:00.000Z</time>
      </trkpt>
      <trkpt lat="43.4444" lon="1.9601">
        <ele>224.60000610352</ele>
        <time>2023-06-05T07:13:03.000Z</time>
      </trkpt>
      <trkpt lat="43.44437" lon="1.96007">
        <ele>224.60000610352</ele>
        <time>2023-06-05T07:13:06.000Z</time>
      </trkpt>
      <trkpt lat="43.44436" lon="1.96005">
        <ele>224.60000610352</ele>
        <time>2023-06-05T07:13:08.000Z</time>
      </trkpt>
      <trkpt lat="43.44434" lon="1.96002">
        <ele>224.60000610352</ele>
        <time>2023-06-05T07:13:11.000Z</time>
      </trkpt>
      <trkpt lat="43.4443" lon="1.95997">
        <ele>224.60000610352</ele>
        <time>2023-06-05T07:13:15.000Z</time>
      </trkpt>
      <trkpt lat="43.44426" lon="1.95993">
        <ele>224.60000610352</ele>
        <time>2023-06-05T07:13:19.000Z</time>
      </trkpt>
      <trkpt lat="43.44424" lon="1.9599">
        <ele>224.60000610352</ele>
        <time>2023-06-05T07:13:22.000Z</time>
      </trkpt>
      <trkpt lat="43.44419" lon="1.95983">
        <ele>224.60000610352</ele>
        <time>2023-06-05T07:13:28.000Z</time>
      </trkpt>
      <trkpt lat="43.44413" lon="1.95973">
        <ele>224.80000305176</ele>
        <time>2023-06-05T07:13:36.000Z</time>
      </trkpt>
      <trkpt lat="43.44408" lon="1.95961">
        <ele>224.80000305176</ele>
        <time>2023-06-05T07:13:44.000Z</time>
      </trkpt>
      <trkpt lat="43.44406" lon="1.95954">
        <ele>224.60000610352</ele>
        <time>2023-06-05T07:13:49.000Z</time>
      </trkpt>
      <trkpt lat="43.44404" lon="1.95952">
        <ele>224.60000610352</ele>
        <time>2023-06-05T07:13:51.000Z</time>
      </trkpt>
      <trkpt lat="43.444" lon="1.95945">
        <ele>224.60000610352</ele>
        <time>2023-06-05T07:13:57.000Z</time>
      </trkpt>
      <trkpt lat="43.44399" lon="1.95942">
        <ele>224.60000610352</ele>
        <time>2023-06-05T07:13:59.000Z</time>
      </trkpt>
      <trkpt lat="43.44398" lon="1.95939">
        <ele>224.60000610352</ele>
        <time>2023-06-05T07:14:01.000Z</time>
      </trkpt>
      <trkpt lat="43.44396" lon="1.95934">
        <ele>224.60000610352</ele>
        <time>2023-06-05T07:14:05.000Z</time>
      </trkpt>
      <trkpt lat="43.4439" lon="1.95926">
        <ele>224.60000610352</ele>
        <time>2023-06-05T07:14:12.000Z</time>
      </trkpt>
      <trkpt lat="43.44387" lon="1.95919">
        <ele>224.80000305176</ele>
        <time>2023-06-05T07:14:17.000Z</time>
      </trkpt>
      <trkpt lat="43.44384" lon="1.95916">
        <ele>224.80000305176</ele>
        <time>2023-06-05T07:14:20.000Z</time>
      </trkpt>
      <trkpt lat="43.44381" lon="1.9591">
        <ele>225</ele>
        <time>2023-06-05T07:14:25.000Z</time>
      </trkpt>
      <trkpt lat="43.44377" lon="1.95901">
        <ele>225</ele>
        <time>2023-06-05T07:14:33.000Z</time>
      </trkpt>
      <trkpt lat="43.44374" lon="1.95888">
        <ele>225.19999694824</ele>
        <time>2023-06-05T07:14:41.000Z</time>
      </trkpt>
      <trkpt lat="43.44371" lon="1.95876">
        <ele>225.19999694824</ele>
        <time>2023-06-05T07:14:49.000Z</time>
      </trkpt>
      <trkpt lat="43.44368" lon="1.95865">
        <ele>225</ele>
        <time>2023-06-05T07:14:57.000Z</time>
      </trkpt>
      <trkpt lat="43.44368" lon="1.95862">
        <ele>225.19999694824</ele>
        <time>2023-06-05T07:14:59.000Z</time>
      </trkpt>
      <trkpt lat="43.44366" lon="1.95856">
        <ele>225.19999694824</ele>
        <time>2023-06-05T07:15:03.000Z</time>
      </trkpt>
      <trkpt lat="43.44366" lon="1.95852">
        <ele>225</ele>
        <time>2023-06-05T07:15:06.000Z</time>
      </trkpt>
      <trkpt lat="43.44364" lon="1.95846">
        <ele>225</ele>
        <time>2023-06-05T07:15:10.000Z</time>
      </trkpt>
      <trkpt lat="43.44363" lon="1.95837">
        <ele>225</ele>
        <time>2023-06-05T07:15:16.000Z</time>
      </trkpt>
      <trkpt lat="43.44362" lon="1.95821">
        <ele>224.60000610352</ele>
        <time>2023-06-05T07:15:26.000Z</time>
      </trkpt>
      <trkpt lat="43.4436" lon="1.95811">
        <ele>224.60000610352</ele>
        <time>2023-06-05T07:15:32.000Z</time>
      </trkpt>
      <trkpt lat="43.4436" lon="1.95809">
        <ele>224.60000610352</ele>
        <time>2023-06-05T07:15:34.000Z</time>
      </trkpt>
      <trkpt lat="43.4436" lon="1.95805">
        <ele>224.60000610352</ele>
        <time>2023-06-05T07:15:37.000Z</time>
      </trkpt>
      <trkpt lat="43.4436" lon="1.95801">
        <ele>224.80000305176</ele>
        <time>2023-06-05T07:15:39.000Z</time>
      </trkpt>
      <trkpt lat="43.4436" lon="1.95799">
        <ele>224.80000305176</ele>
        <time>2023-06-05T07:15:40.000Z</time>
      </trkpt>
      <trkpt lat="43.44358" lon="1.95785">
        <ele>224.60000610352</ele>
        <time>2023-06-05T07:15:49.000Z</time>
      </trkpt>
      <trkpt lat="43.44358" lon="1.95778">
        <ele>224.60000610352</ele>
        <time>2023-06-05T07:15:54.000Z</time>
      </trkpt>
      <trkpt lat="43.44357" lon="1.95775">
        <ele>224.80000305176</ele>
        <time>2023-06-05T07:15:56.000Z</time>
      </trkpt>
      <trkpt lat="43.44355" lon="1.9576">
        <ele>224.60000610352</ele>
        <time>2023-06-05T07:16:05.000Z</time>
      </trkpt>
      <trkpt lat="43.44353" lon="1.95749">
        <ele>224.80000305176</ele>
        <time>2023-06-05T07:16:12.000Z</time>
      </trkpt>
      <trkpt lat="43.44354" lon="1.95747">
        <ele>224.80000305176</ele>
        <time>2023-06-05T07:16:15.000Z</time>
      </trkpt>
      <trkpt lat="43.44354" lon="1.95742">
        <ele>224.80000305176</ele>
        <time>2023-06-05T07:16:18.000Z</time>
      </trkpt>
      <trkpt lat="43.44354" lon="1.95741">
        <ele>224.80000305176</ele>
        <time>2023-06-05T07:16:19.000Z</time>
      </trkpt>
      <trkpt lat="43.44352" lon="1.95728">
        <ele>224.80000305176</ele>
        <time>2023-06-05T07:16:27.000Z</time>
      </trkpt>
      <trkpt lat="43.44351" lon="1.95716">
        <ele>224.80000305176</ele>
        <time>2023-06-05T07:16:35.000Z</time>
      </trkpt>
      <trkpt lat="43.44351" lon="1.95711">
        <ele>224.80000305176</ele>
        <time>2023-06-05T07:16:39.000Z</time>
      </trkpt>
      <trkpt lat="43.44349" lon="1.95698">
        <ele>224.39999389648</ele>
        <time>2023-06-05T07:16:47.000Z</time>
      </trkpt>
      <trkpt lat="43.44348" lon="1.95688">
        <ele>224.39999389648</ele>
        <time>2023-06-05T07:16:54.000Z</time>
      </trkpt>
      <trkpt lat="43.44348" lon="1.95683">
        <ele>224.19999694824</ele>
        <time>2023-06-05T07:16:58.000Z</time>
      </trkpt>
      <trkpt lat="43.44347" lon="1.95678">
        <ele>224.39999389648</ele>
        <time>2023-06-05T07:17:01.000Z</time>
      </trkpt>
      <trkpt lat="43.44347" lon="1.95669">
        <ele>224.39999389648</ele>
        <time>2023-06-05T07:17:08.000Z</time>
      </trkpt>
      <trkpt lat="43.44347" lon="1.95665">
        <ele>224.39999389648</ele>
        <time>2023-06-05T07:17:11.000Z</time>
      </trkpt>
      <trkpt lat="43.44347" lon="1.95661">
        <ele>224.39999389648</ele>
        <time>2023-06-05T07:17:14.000Z</time>
      </trkpt>
      <trkpt lat="43.44348" lon="1.95656">
        <ele>224.39999389648</ele>
        <time>2023-06-05T07:17:18.000Z</time>
      </trkpt>
      <trkpt lat="43.4435" lon="1.95652">
        <ele>224.39999389648</ele>
        <time>2023-06-05T07:17:22.000Z</time>
      </trkpt>
      <trkpt lat="43.44351" lon="1.95649">
        <ele>224.39999389648</ele>
        <time>2023-06-05T07:17:25.000Z</time>
      </trkpt>
      <trkpt lat="43.44352" lon="1.95644">
        <ele>224.60000610352</ele>
        <time>2023-06-05T07:17:29.000Z</time>
      </trkpt>
      <trkpt lat="43.44357" lon="1.95633">
        <ele>224.80000305176</ele>
        <time>2023-06-05T07:17:37.000Z</time>
      </trkpt>
      <trkpt lat="43.44361" lon="1.95628">
        <ele>225</ele>
        <time>2023-06-05T07:17:42.000Z</time>
      </trkpt>
      <trkpt lat="43.44362" lon="1.95624">
        <ele>224.80000305176</ele>
        <time>2023-06-05T07:17:45.000Z</time>
      </trkpt>
      <trkpt lat="43.44366" lon="1.95619">
        <ele>225</ele>
        <time>2023-06-05T07:17:50.000Z</time>
      </trkpt>
      <trkpt lat="43.44367" lon="1.95616">
        <ele>225</ele>
        <time>2023-06-05T07:17:52.000Z</time>
      </trkpt>
      <trkpt lat="43.44372" lon="1.95604">
        <ele>224.60000610352</ele>
        <time>2023-06-05T07:18:00.000Z</time>
      </trkpt>
      <trkpt lat="43.44376" lon="1.95596">
        <ele>224.39999389648</ele>
        <time>2023-06-05T07:18:07.000Z</time>
      </trkpt>
      <trkpt lat="43.44381" lon="1.95586">
        <ele>224.60000610352</ele>
        <time>2023-06-05T07:18:16.000Z</time>
      </trkpt>
      <trkpt lat="43.44387" lon="1.95577">
        <ele>224.60000610352</ele>
        <time>2023-06-05T07:18:23.000Z</time>
      </trkpt>
      <trkpt lat="43.44394" lon="1.95565">
        <ele>224.80000305176</ele>
        <time>2023-06-05T07:18:33.000Z</time>
      </trkpt>
      <trkpt lat="43.44396" lon="1.95562">
        <ele>224.60000610352</ele>
        <time>2023-06-05T07:18:37.000Z</time>
      </trkpt>
      <trkpt lat="43.44399" lon="1.95559">
        <ele>224.60000610352</ele>
        <time>2023-06-05T07:18:40.000Z</time>
      </trkpt>
      <trkpt lat="43.44403" lon="1.9555">
        <ele>224.39999389648</ele>
        <time>2023-06-05T07:18:47.000Z</time>
      </trkpt>
      <trkpt lat="43.44406" lon="1.95543">
        <ele>224.39999389648</ele>
        <time>2023-06-05T07:18:53.000Z</time>
      </trkpt>
      <trkpt lat="43.44406" lon="1.95542">
        <ele>224.39999389648</ele>
        <time>2023-06-05T07:18:54.000Z</time>
      </trkpt>
      <trkpt lat="43.4441" lon="1.95536">
        <ele>224.19999694824</ele>
        <time>2023-06-05T07:18:59.000Z</time>
      </trkpt>
      <trkpt lat="43.44412" lon="1.95531">
        <ele>224.19999694824</ele>
        <time>2023-06-05T07:19:03.000Z</time>
      </trkpt>
      <trkpt lat="43.44417" lon="1.95522">
        <ele>224.19999694824</ele>
        <time>2023-06-05T07:19:10.000Z</time>
      </trkpt>
      <trkpt lat="43.44418" lon="1.95521">
        <ele>224.19999694824</ele>
        <time>2023-06-05T07:19:11.000Z</time>
      </trkpt>
      <trkpt lat="43.44421" lon="1.95515">
        <ele>224.19999694824</ele>
        <time>2023-06-05T07:19:16.000Z</time>
      </trkpt>
      <trkpt lat="43.44423" lon="1.95508">
        <ele>224.39999389648</ele>
        <time>2023-06-05T07:19:21.000Z</time>
      </trkpt>
      <trkpt lat="43.44424" lon="1.95507">
        <ele>224.39999389648</ele>
        <time>2023-06-05T07:19:22.000Z</time>
      </trkpt>
      <trkpt lat="43.44428" lon="1.95499">
        <ele>224.39999389648</ele>
        <time>2023-06-05T07:19:29.000Z</time>
      </trkpt>
      <trkpt lat="43.44432" lon="1.95495">
        <ele>224.39999389648</ele>
        <time>2023-06-05T07:19:34.000Z</time>
      </trkpt>
      <trkpt lat="43.44435" lon="1.9549">
        <ele>224.19999694824</ele>
        <time>2023-06-05T07:19:38.000Z</time>
      </trkpt>
      <trkpt lat="43.44435" lon="1.95489">
        <ele>224.19999694824</ele>
        <time>2023-06-05T07:19:39.000Z</time>
      </trkpt>
      <trkpt lat="43.44439" lon="1.95484">
        <ele>224.39999389648</ele>
        <time>2023-06-05T07:19:45.000Z</time>
      </trkpt>
      <trkpt lat="43.4444" lon="1.95482">
        <ele>224.39999389648</ele>
        <time>2023-06-05T07:19:47.000Z</time>
      </trkpt>
      <trkpt lat="43.4444" lon="1.95483">
        <ele>224.39999389648</ele>
        <time>2023-06-05T07:19:51.000Z</time>
      </trkpt>
      <trkpt lat="43.44444" lon="1.95472">
        <ele>224.39999389648</ele>
        <time>2023-06-05T07:19:59.000Z</time>
      </trkpt>
      <trkpt lat="43.44449" lon="1.95465">
        <ele>224.19999694824</ele>
        <time>2023-06-05T07:20:05.000Z</time>
      </trkpt>
      <trkpt lat="43.44455" lon="1.95455">
        <ele>224</ele>
        <time>2023-06-05T07:20:13.000Z</time>
      </trkpt>
      <trkpt lat="43.44458" lon="1.9545">
        <ele>224</ele>
        <time>2023-06-05T07:20:17.000Z</time>
      </trkpt>
      <trkpt lat="43.4446" lon="1.95447">
        <ele>224</ele>
        <time>2023-06-05T07:20:19.000Z</time>
      </trkpt>
      <trkpt lat="43.44465" lon="1.95437">
        <ele>224</ele>
        <time>2023-06-05T07:20:26.000Z</time>
      </trkpt>
      <trkpt lat="43.44467" lon="1.9543">
        <ele>224</ele>
        <time>2023-06-05T07:20:31.000Z</time>
      </trkpt>
      <trkpt lat="43.44468" lon="1.95427">
        <ele>224</ele>
        <time>2023-06-05T07:20:33.000Z</time>
      </trkpt>
      <trkpt lat="43.4447" lon="1.95418">
        <ele>224</ele>
        <time>2023-06-05T07:20:39.000Z</time>
      </trkpt>
      <trkpt lat="43.44474" lon="1.95409">
        <ele>224</ele>
        <time>2023-06-05T07:20:46.000Z</time>
      </trkpt>
      <trkpt lat="43.44476" lon="1.95401">
        <ele>224</ele>
        <time>2023-06-05T07:20:52.000Z</time>
      </trkpt>
      <trkpt lat="43.44477" lon="1.95399">
        <ele>224</ele>
        <time>2023-06-05T07:20:53.000Z</time>
      </trkpt>
      <trkpt lat="43.44478" lon="1.95396">
        <ele>224</ele>
        <time>2023-06-05T07:20:56.000Z</time>
      </trkpt>
      <trkpt lat="43.44479" lon="1.95394">
        <ele>224</ele>
        <time>2023-06-05T07:20:58.000Z</time>
      </trkpt>
      <trkpt lat="43.44482" lon="1.95385">
        <ele>224</ele>
        <time>2023-06-05T07:21:04.000Z</time>
      </trkpt>
      <trkpt lat="43.44483" lon="1.95382">
        <ele>224</ele>
        <time>2023-06-05T07:21:06.000Z</time>
      </trkpt>
      <trkpt lat="43.44485" lon="1.95378">
        <ele>224</ele>
        <time>2023-06-05T07:21:09.000Z</time>
      </trkpt>
      <trkpt lat="43.44486" lon="1.95373">
        <ele>224.19999694824</ele>
        <time>2023-06-05T07:21:12.000Z</time>
      </trkpt>
      <trkpt lat="43.44489" lon="1.95365">
        <ele>224.19999694824</ele>
        <time>2023-06-05T07:21:18.000Z</time>
      </trkpt>
      <trkpt lat="43.4449" lon="1.95359">
        <ele>224.19999694824</ele>
        <time>2023-06-05T07:21:23.000Z</time>
      </trkpt>
      <trkpt lat="43.4449" lon="1.95357">
        <ele>224.19999694824</ele>
        <time>2023-06-05T07:21:24.000Z</time>
      </trkpt>
      <trkpt lat="43.4449" lon="1.95346">
        <ele>224.19999694824</ele>
        <time>2023-06-05T07:21:32.000Z</time>
      </trkpt>
      <trkpt lat="43.44489" lon="1.95337">
        <ele>224.39999389648</ele>
        <time>2023-06-05T07:21:39.000Z</time>
      </trkpt>
      <trkpt lat="43.44489" lon="1.95337">
        <ele>224.80000305176</ele>
        <time>2023-06-05T07:21:44.000Z</time>
      </trkpt>
      <trkpt lat="43.44489" lon="1.95331">
        <ele>225.19999694824</ele>
        <time>2023-06-05T07:21:54.000Z</time>
      </trkpt>
      <trkpt lat="43.44485" lon="1.95324">
        <ele>225</ele>
        <time>2023-06-05T07:22:00.000Z</time>
      </trkpt>
      <trkpt lat="43.44481" lon="1.95317">
        <ele>225</ele>
        <time>2023-06-05T07:22:06.000Z</time>
      </trkpt>
      <trkpt lat="43.44473" lon="1.95312">
        <ele>224.60000610352</ele>
        <time>2023-06-05T07:22:15.000Z</time>
      </trkpt>
      <trkpt lat="43.44469" lon="1.9531">
        <ele>224.60000610352</ele>
        <time>2023-06-05T07:22:20.000Z</time>
      </trkpt>
      <trkpt lat="43.44468" lon="1.9531">
        <ele>224.60000610352</ele>
        <time>2023-06-05T07:22:22.000Z</time>
      </trkpt>
      <trkpt lat="43.44462" lon="1.9531">
        <ele>224.60000610352</ele>
        <time>2023-06-05T07:22:29.000Z</time>
      </trkpt>
      <trkpt lat="43.44455" lon="1.95312">
        <ele>224.39999389648</ele>
        <time>2023-06-05T07:22:37.000Z</time>
      </trkpt>
      <trkpt lat="43.44448" lon="1.95317">
        <ele>224.19999694824</ele>
        <time>2023-06-05T07:22:46.000Z</time>
      </trkpt>
      <trkpt lat="43.44444" lon="1.95321">
        <ele>224.19999694824</ele>
        <time>2023-06-05T07:22:52.000Z</time>
      </trkpt>
      <trkpt lat="43.44439" lon="1.95325">
        <ele>224.39999389648</ele>
        <time>2023-06-05T07:22:59.000Z</time>
      </trkpt>
      <trkpt lat="43.44436" lon="1.95327">
        <ele>224.60000610352</ele>
        <time>2023-06-05T07:23:02.000Z</time>
      </trkpt>
      <trkpt lat="43.44433" lon="1.95329">
        <ele>224.39999389648</ele>
        <time>2023-06-05T07:23:05.000Z</time>
      </trkpt>
      <trkpt lat="43.44424" lon="1.95332">
        <ele>224.39999389648</ele>
        <time>2023-06-05T07:23:12.000Z</time>
      </trkpt>
      <trkpt lat="43.44417" lon="1.9533">
        <ele>224.39999389648</ele>
        <time>2023-06-05T07:23:17.000Z</time>
      </trkpt>
      <trkpt lat="43.44408" lon="1.95326">
        <ele>224.39999389648</ele>
        <time>2023-06-05T07:23:24.000Z</time>
      </trkpt>
      <trkpt lat="43.444" lon="1.95322">
        <ele>224.19999694824</ele>
        <time>2023-06-05T07:23:31.000Z</time>
      </trkpt>
      <trkpt lat="43.44399" lon="1.95322">
        <ele>224.39999389648</ele>
        <time>2023-06-05T07:23:32.000Z</time>
      </trkpt>
      <trkpt lat="43.44391" lon="1.95316">
        <ele>224.19999694824</ele>
        <time>2023-06-05T07:23:40.000Z</time>
      </trkpt>
      <trkpt lat="43.44385" lon="1.95312">
        <ele>224.39999389648</ele>
        <time>2023-06-05T07:23:46.000Z</time>
      </trkpt>
      <trkpt lat="43.44384" lon="1.95312">
        <ele>224.39999389648</ele>
        <time>2023-06-05T07:23:47.000Z</time>
      </trkpt>
      <trkpt lat="43.44377" lon="1.95309">
        <ele>224.19999694824</ele>
        <time>2023-06-05T07:23:53.000Z</time>
      </trkpt>
      <trkpt lat="43.44376" lon="1.95309">
        <ele>224.19999694824</ele>
        <time>2023-06-05T07:23:54.000Z</time>
      </trkpt>
      <trkpt lat="43.44373" lon="1.95309">
        <ele>224.19999694824</ele>
        <time>2023-06-05T07:23:56.000Z</time>
      </trkpt>
      <trkpt lat="43.44369" lon="1.95308">
        <ele>224.39999389648</ele>
        <time>2023-06-05T07:24:00.000Z</time>
      </trkpt>
      <trkpt lat="43.44366" lon="1.95308">
        <ele>224.19999694824</ele>
        <time>2023-06-05T07:24:02.000Z</time>
      </trkpt>
      <trkpt lat="43.44361" lon="1.95306">
        <ele>224.19999694824</ele>
        <time>2023-06-05T07:24:07.000Z</time>
      </trkpt>
      <trkpt lat="43.44351" lon="1.95303">
        <ele>224.19999694824</ele>
        <time>2023-06-05T07:24:15.000Z</time>
      </trkpt>
      <trkpt lat="43.4435" lon="1.95302">
        <ele>224.19999694824</ele>
        <time>2023-06-05T07:24:16.000Z</time>
      </trkpt>
      <trkpt lat="43.44348" lon="1.95301">
        <ele>224</ele>
        <time>2023-06-05T07:24:18.000Z</time>
      </trkpt>
      <trkpt lat="43.44344" lon="1.95301">
        <ele>224</ele>
        <time>2023-06-05T07:24:21.000Z</time>
      </trkpt>
      <trkpt lat="43.44339" lon="1.95301">
        <ele>224.19999694824</ele>
        <time>2023-06-05T07:24:25.000Z</time>
      </trkpt>
      <trkpt lat="43.44336" lon="1.953">
        <ele>224.19999694824</ele>
        <time>2023-06-05T07:24:28.000Z</time>
      </trkpt>
      <trkpt lat="43.44331" lon="1.95299">
        <ele>224.19999694824</ele>
        <time>2023-06-05T07:24:32.000Z</time>
      </trkpt>
      <trkpt lat="43.44328" lon="1.95299">
        <ele>224.19999694824</ele>
        <time>2023-06-05T07:24:34.000Z</time>
      </trkpt>
      <trkpt lat="43.44322" lon="1.95298">
        <ele>224.19999694824</ele>
        <time>2023-06-05T07:24:39.000Z</time>
      </trkpt>
      <trkpt lat="43.4432" lon="1.95297">
        <ele>224.19999694824</ele>
        <time>2023-06-05T07:24:41.000Z</time>
      </trkpt>
      <trkpt lat="43.44312" lon="1.95294">
        <ele>224.39999389648</ele>
        <time>2023-06-05T07:24:49.000Z</time>
      </trkpt>
      <trkpt lat="43.4431" lon="1.95295">
        <ele>224.39999389648</ele>
        <time>2023-06-05T07:24:57.000Z</time>
      </trkpt>
      <trkpt lat="43.44309" lon="1.95294">
        <ele>224.39999389648</ele>
        <time>2023-06-05T07:25:06.000Z</time>
      </trkpt>
      <trkpt lat="43.44309" lon="1.95294">
        <ele>224.39999389648</ele>
        <time>2023-06-05T07:25:23.000Z</time>
      </trkpt>
      <trkpt lat="43.44301" lon="1.95286">
        <ele>224.39999389648</ele>
        <time>2023-06-05T07:25:29.000Z</time>
      </trkpt>
      <trkpt lat="43.44298" lon="1.95285">
        <ele>224.39999389648</ele>
        <time>2023-06-05T07:25:36.000Z</time>
      </trkpt>
      <trkpt lat="43.44293" lon="1.95284">
        <ele>224.60000610352</ele>
        <time>2023-06-05T07:25:48.000Z</time>
      </trkpt>
      <trkpt lat="43.44286" lon="1.95284">
        <ele>224.19999694824</ele>
        <time>2023-06-05T07:25:57.000Z</time>
      </trkpt>
      <trkpt lat="43.4428" lon="1.95286">
        <ele>224.19999694824</ele>
        <time>2023-06-05T07:26:04.000Z</time>
      </trkpt>
      <trkpt lat="43.44279" lon="1.95286">
        <ele>224.19999694824</ele>
        <time>2023-06-05T07:26:05.000Z</time>
      </trkpt>
      <trkpt lat="43.44277" lon="1.95287">
        <ele>224.19999694824</ele>
        <time>2023-06-05T07:26:07.000Z</time>
      </trkpt>
      <trkpt lat="43.44274" lon="1.95289">
        <ele>224.19999694824</ele>
        <time>2023-06-05T07:26:11.000Z</time>
      </trkpt>
      <trkpt lat="43.44273" lon="1.9529">
        <ele>224.19999694824</ele>
        <time>2023-06-05T07:26:12.000Z</time>
      </trkpt>
      <trkpt lat="43.44269" lon="1.95295">
        <ele>224.39999389648</ele>
        <time>2023-06-05T07:26:18.000Z</time>
      </trkpt>
      <trkpt lat="43.44265" lon="1.95304">
        <ele>224.39999389648</ele>
        <time>2023-06-05T07:26:25.000Z</time>
      </trkpt>
      <trkpt lat="43.44264" lon="1.95306">
        <ele>224.39999389648</ele>
        <time>2023-06-05T07:26:26.000Z</time>
      </trkpt>
      <trkpt lat="43.44262" lon="1.95315">
        <ele>224.39999389648</ele>
        <time>2023-06-05T07:26:32.000Z</time>
      </trkpt>
      <trkpt lat="43.44261" lon="1.95318">
        <ele>224.39999389648</ele>
        <time>2023-06-05T07:26:34.000Z</time>
      </trkpt>
      <trkpt lat="43.4426" lon="1.95328">
        <ele>224.39999389648</ele>
        <time>2023-06-05T07:26:41.000Z</time>
      </trkpt>
      <trkpt lat="43.4426" lon="1.95333">
        <ele>224.39999389648</ele>
        <time>2023-06-05T07:26:47.000Z</time>
      </trkpt>
      <trkpt lat="43.4426" lon="1.95341">
        <ele>224.19999694824</ele>
        <time>2023-06-05T07:26:53.000Z</time>
      </trkpt>
      <trkpt lat="43.44261" lon="1.9535">
        <ele>224.19999694824</ele>
        <time>2023-06-05T07:26:59.000Z</time>
      </trkpt>
      <trkpt lat="43.44262" lon="1.95359">
        <ele>224.39999389648</ele>
        <time>2023-06-05T07:27:05.000Z</time>
      </trkpt>
      <trkpt lat="43.44262" lon="1.95363">
        <ele>224.39999389648</ele>
        <time>2023-06-05T07:27:07.000Z</time>
      </trkpt>
      <trkpt lat="43.44263" lon="1.95378">
        <ele>224.39999389648</ele>
        <time>2023-06-05T07:27:16.000Z</time>
      </trkpt>
      <trkpt lat="43.4426" lon="1.95392">
        <ele>224.60000610352</ele>
        <time>2023-06-05T07:27:25.000Z</time>
      </trkpt>
      <trkpt lat="43.44257" lon="1.95403">
        <ele>224.39999389648</ele>
        <time>2023-06-05T07:27:33.000Z</time>
      </trkpt>
      <trkpt lat="43.44253" lon="1.95415">
        <ele>224.39999389648</ele>
        <time>2023-06-05T07:27:41.000Z</time>
      </trkpt>
      <trkpt lat="43.44249" lon="1.95424">
        <ele>224.19999694824</ele>
        <time>2023-06-05T07:27:48.000Z</time>
      </trkpt>
      <trkpt lat="43.44249" lon="1.95425">
        <ele>224.39999389648</ele>
        <time>2023-06-05T07:27:49.000Z</time>
      </trkpt>
      <trkpt lat="43.44245" lon="1.95433">
        <ele>224.60000610352</ele>
        <time>2023-06-05T07:27:56.000Z</time>
      </trkpt>
      <trkpt lat="43.44245" lon="1.95435">
        <ele>224.60000610352</ele>
        <time>2023-06-05T07:27:57.000Z</time>
      </trkpt>
      <trkpt lat="43.44241" lon="1.95443">
        <ele>224.19999694824</ele>
        <time>2023-06-05T07:28:03.000Z</time>
      </trkpt>
      <trkpt lat="43.44238" lon="1.95453">
        <ele>224.39999389648</ele>
        <time>2023-06-05T07:28:10.000Z</time>
      </trkpt>
      <trkpt lat="43.44234" lon="1.9546">
        <ele>224.39999389648</ele>
        <time>2023-06-05T07:28:16.000Z</time>
      </trkpt>
      <trkpt lat="43.4423" lon="1.95467">
        <ele>224.19999694824</ele>
        <time>2023-06-05T07:28:23.000Z</time>
      </trkpt>
      <trkpt lat="43.44223" lon="1.95475">
        <ele>224.19999694824</ele>
        <time>2023-06-05T07:28:32.000Z</time>
      </trkpt>
      <trkpt lat="43.44219" lon="1.9548">
        <ele>224.39999389648</ele>
        <time>2023-06-05T07:28:38.000Z</time>
      </trkpt>
      <trkpt lat="43.44215" lon="1.95484">
        <ele>224.60000610352</ele>
        <time>2023-06-05T07:28:43.000Z</time>
      </trkpt>
      <trkpt lat="43.44209" lon="1.95489">
        <ele>224.80000305176</ele>
        <time>2023-06-05T07:28:50.000Z</time>
      </trkpt>
      <trkpt lat="43.44206" lon="1.95492">
        <ele>224.80000305176</ele>
        <time>2023-06-05T07:28:53.000Z</time>
      </trkpt>
      <trkpt lat="43.44203" lon="1.95494">
        <ele>224.60000610352</ele>
        <time>2023-06-05T07:28:56.000Z</time>
      </trkpt>
      <trkpt lat="43.44199" lon="1.95498">
        <ele>224.19999694824</ele>
        <time>2023-06-05T07:29:01.000Z</time>
      </trkpt>
      <trkpt lat="43.44198" lon="1.95499">
        <ele>224.19999694824</ele>
        <time>2023-06-05T07:29:03.000Z</time>
      </trkpt>
      <trkpt lat="43.44193" lon="1.95504">
        <ele>224.19999694824</ele>
        <time>2023-06-05T07:29:09.000Z</time>
      </trkpt>
      <trkpt lat="43.44189" lon="1.95506">
        <ele>224</ele>
        <time>2023-06-05T07:29:13.000Z</time>
      </trkpt>
      <trkpt lat="43.44188" lon="1.95507">
        <ele>224</ele>
        <time>2023-06-05T07:29:15.000Z</time>
      </trkpt>
      <trkpt lat="43.44186" lon="1.95508">
        <ele>224</ele>
        <time>2023-06-05T07:29:17.000Z</time>
      </trkpt>
      <trkpt lat="43.44181" lon="1.95512">
        <ele>224</ele>
        <time>2023-06-05T07:29:23.000Z</time>
      </trkpt>
      <trkpt lat="43.44181" lon="1.95513">
        <ele>223.80000305176</ele>
        <time>2023-06-05T07:29:24.000Z</time>
      </trkpt>
      <trkpt lat="43.44177" lon="1.95516">
        <ele>224</ele>
        <time>2023-06-05T07:29:28.000Z</time>
      </trkpt>
      <trkpt lat="43.44175" lon="1.95518">
        <ele>223.80000305176</ele>
        <time>2023-06-05T07:29:31.000Z</time>
      </trkpt>
      <trkpt lat="43.44172" lon="1.9552">
        <ele>223.80000305176</ele>
        <time>2023-06-05T07:29:34.000Z</time>
      </trkpt>
      <trkpt lat="43.44169" lon="1.95523">
        <ele>223.80000305176</ele>
        <time>2023-06-05T07:29:37.000Z</time>
      </trkpt>
      <trkpt lat="43.44166" lon="1.95525">
        <ele>223.80000305176</ele>
        <time>2023-06-05T07:29:41.000Z</time>
      </trkpt>
      <trkpt lat="43.44161" lon="1.95529">
        <ele>223.80000305176</ele>
        <time>2023-06-05T07:29:47.000Z</time>
      </trkpt>
      <trkpt lat="43.44159" lon="1.95531">
        <ele>223.80000305176</ele>
        <time>2023-06-05T07:29:50.000Z</time>
      </trkpt>
      <trkpt lat="43.44154" lon="1.95537">
        <ele>223.60000610352</ele>
        <time>2023-06-05T07:29:56.000Z</time>
      </trkpt>
      <trkpt lat="43.44149" lon="1.95541">
        <ele>223.60000610352</ele>
        <time>2023-06-05T07:30:01.000Z</time>
      </trkpt>
      <trkpt lat="43.44144" lon="1.95546">
        <ele>223.60000610352</ele>
        <time>2023-06-05T07:30:07.000Z</time>
      </trkpt>
      <trkpt lat="43.44138" lon="1.95553">
        <ele>223.60000610352</ele>
        <time>2023-06-05T07:30:14.000Z</time>
      </trkpt>
      <trkpt lat="43.44134" lon="1.95559">
        <ele>223.60000610352</ele>
        <time>2023-06-05T07:30:19.000Z</time>
      </trkpt>
      <trkpt lat="43.44133" lon="1.9556">
        <ele>223.60000610352</ele>
        <time>2023-06-05T07:30:20.000Z</time>
      </trkpt>
      <trkpt lat="43.44128" lon="1.95566">
        <ele>223.60000610352</ele>
        <time>2023-06-05T07:30:25.000Z</time>
      </trkpt>
      <trkpt lat="43.44127" lon="1.95568">
        <ele>223.39999389648</ele>
        <time>2023-06-05T07:30:27.000Z</time>
      </trkpt>
      <trkpt lat="43.44126" lon="1.95569">
        <ele>223.39999389648</ele>
        <time>2023-06-05T07:30:28.000Z</time>
      </trkpt>
      <trkpt lat="43.44122" lon="1.95573">
        <ele>223.39999389648</ele>
        <time>2023-06-05T07:30:33.000Z</time>
      </trkpt>
      <trkpt lat="43.44121" lon="1.95574">
        <ele>223.39999389648</ele>
        <time>2023-06-05T07:30:34.000Z</time>
      </trkpt>
      <trkpt lat="43.44115" lon="1.95583">
        <ele>223.39999389648</ele>
        <time>2023-06-05T07:30:41.000Z</time>
      </trkpt>
      <trkpt lat="43.44113" lon="1.95586">
        <ele>223.60000610352</ele>
        <time>2023-06-05T07:30:44.000Z</time>
      </trkpt>
      <trkpt lat="43.44111" lon="1.9559">
        <ele>223.60000610352</ele>
        <time>2023-06-05T07:30:48.000Z</time>
      </trkpt>
      <trkpt lat="43.44109" lon="1.95592">
        <ele>223.39999389648</ele>
        <time>2023-06-05T07:30:50.000Z</time>
      </trkpt>
      <trkpt lat="43.44106" lon="1.95597">
        <ele>223.39999389648</ele>
        <time>2023-06-05T07:30:55.000Z</time>
      </trkpt>
      <trkpt lat="43.44104" lon="1.956">
        <ele>223.39999389648</ele>
        <time>2023-06-05T07:30:58.000Z</time>
      </trkpt>
      <trkpt lat="43.44103" lon="1.95602">
        <ele>223.39999389648</ele>
        <time>2023-06-05T07:31:00.000Z</time>
      </trkpt>
      <trkpt lat="43.44099" lon="1.95608">
        <ele>223.39999389648</ele>
        <time>2023-06-05T07:31:06.000Z</time>
      </trkpt>
      <trkpt lat="43.44096" lon="1.95612">
        <ele>223.19999694824</ele>
        <time>2023-06-05T07:31:10.000Z</time>
      </trkpt>
      <trkpt lat="43.44095" lon="1.95615">
        <ele>223.19999694824</ele>
        <time>2023-06-05T07:31:12.000Z</time>
      </trkpt>
      <trkpt lat="43.4409" lon="1.9562">
        <ele>223.60000610352</ele>
        <time>2023-06-05T07:31:17.000Z</time>
      </trkpt>
      <trkpt lat="43.44088" lon="1.95623">
        <ele>223.80000305176</ele>
        <time>2023-06-05T07:31:20.000Z</time>
      </trkpt>
      <trkpt lat="43.44087" lon="1.95624">
        <ele>223.80000305176</ele>
        <time>2023-06-05T07:31:21.000Z</time>
      </trkpt>
      <trkpt lat="43.44085" lon="1.95628">
        <ele>223.80000305176</ele>
        <time>2023-06-05T07:31:24.000Z</time>
      </trkpt>
      <trkpt lat="43.44082" lon="1.95631">
        <ele>223.80000305176</ele>
        <time>2023-06-05T07:31:27.000Z</time>
      </trkpt>
      <trkpt lat="43.44078" lon="1.95636">
        <ele>223.80000305176</ele>
        <time>2023-06-05T07:31:32.000Z</time>
      </trkpt>
      <trkpt lat="43.44072" lon="1.95645">
        <ele>223.80000305176</ele>
        <time>2023-06-05T07:31:40.000Z</time>
      </trkpt>
      <trkpt lat="43.44071" lon="1.95646">
        <ele>223.80000305176</ele>
        <time>2023-06-05T07:31:41.000Z</time>
      </trkpt>
      <trkpt lat="43.44066" lon="1.95651">
        <ele>224</ele>
        <time>2023-06-05T07:31:46.000Z</time>
      </trkpt>
      <trkpt lat="43.44064" lon="1.95652">
        <ele>224</ele>
        <time>2023-06-05T07:31:48.000Z</time>
      </trkpt>
      <trkpt lat="43.44063" lon="1.95655">
        <ele>224</ele>
        <time>2023-06-05T07:31:50.000Z</time>
      </trkpt>
      <trkpt lat="43.44061" lon="1.95657">
        <ele>224</ele>
        <time>2023-06-05T07:31:52.000Z</time>
      </trkpt>
      <trkpt lat="43.44059" lon="1.9566">
        <ele>224</ele>
        <time>2023-06-05T07:31:55.000Z</time>
      </trkpt>
      <trkpt lat="43.44054" lon="1.95666">
        <ele>224.19999694824</ele>
        <time>2023-06-05T07:32:02.000Z</time>
      </trkpt>
      <trkpt lat="43.44052" lon="1.95669">
        <ele>224.19999694824</ele>
        <time>2023-06-05T07:32:06.000Z</time>
      </trkpt>
      <trkpt lat="43.44051" lon="1.9567">
        <ele>224.19999694824</ele>
        <time>2023-06-05T07:32:08.000Z</time>
      </trkpt>
      <trkpt lat="43.44049" lon="1.95673">
        <ele>224.19999694824</ele>
        <time>2023-06-05T07:32:11.000Z</time>
      </trkpt>
      <trkpt lat="43.44047" lon="1.95676">
        <ele>224.19999694824</ele>
        <time>2023-06-05T07:32:13.000Z</time>
      </trkpt>
      <trkpt lat="43.44047" lon="1.95677">
        <ele>224.19999694824</ele>
        <time>2023-06-05T07:32:14.000Z</time>
      </trkpt>
      <trkpt lat="43.44043" lon="1.95686">
        <ele>224.19999694824</ele>
        <time>2023-06-05T07:32:20.000Z</time>
      </trkpt>
      <trkpt lat="43.44042" lon="1.95687">
        <ele>224.19999694824</ele>
        <time>2023-06-05T07:32:21.000Z</time>
      </trkpt>
      <trkpt lat="43.44034" lon="1.95697">
        <ele>224.39999389648</ele>
        <time>2023-06-05T07:32:30.000Z</time>
      </trkpt>
      <trkpt lat="43.4403" lon="1.95702">
        <ele>224.19999694824</ele>
        <time>2023-06-05T07:32:35.000Z</time>
      </trkpt>
      <trkpt lat="43.44029" lon="1.95703">
        <ele>224.19999694824</ele>
        <time>2023-06-05T07:32:36.000Z</time>
      </trkpt>
      <trkpt lat="43.44022" lon="1.95714">
        <ele>224.19999694824</ele>
        <time>2023-06-05T07:32:44.000Z</time>
      </trkpt>
      <trkpt lat="43.44018" lon="1.95721">
        <ele>224</ele>
        <time>2023-06-05T07:32:49.000Z</time>
      </trkpt>
      <trkpt lat="43.44015" lon="1.95725">
        <ele>224</ele>
        <time>2023-06-05T07:32:53.000Z</time>
      </trkpt>
      <trkpt lat="43.44013" lon="1.95726">
        <ele>224</ele>
        <time>2023-06-05T07:32:56.000Z</time>
      </trkpt>
      <trkpt lat="43.44011" lon="1.95728">
        <ele>224</ele>
        <time>2023-06-05T07:33:00.000Z</time>
      </trkpt>
      <trkpt lat="43.44009" lon="1.9573">
        <ele>223.80000305176</ele>
        <time>2023-06-05T07:33:02.000Z</time>
      </trkpt>
      <trkpt lat="43.44005" lon="1.95734">
        <ele>223.80000305176</ele>
        <time>2023-06-05T07:33:07.000Z</time>
      </trkpt>
      <trkpt lat="43.43999" lon="1.95741">
        <ele>223.80000305176</ele>
        <time>2023-06-05T07:33:13.000Z</time>
      </trkpt>
      <trkpt lat="43.43998" lon="1.95743">
        <ele>223.80000305176</ele>
        <time>2023-06-05T07:33:15.000Z</time>
      </trkpt>
      <trkpt lat="43.43994" lon="1.95747">
        <ele>223.80000305176</ele>
        <time>2023-06-05T07:33:20.000Z</time>
      </trkpt>
      <trkpt lat="43.43993" lon="1.95748">
        <ele>223.80000305176</ele>
        <time>2023-06-05T07:33:21.000Z</time>
      </trkpt>
      <trkpt lat="43.43987" lon="1.95754">
        <ele>223.80000305176</ele>
        <time>2023-06-05T07:33:28.000Z</time>
      </trkpt>
      <trkpt lat="43.43979" lon="1.95759">
        <ele>223.80000305176</ele>
        <time>2023-06-05T07:33:36.000Z</time>
      </trkpt>
      <trkpt lat="43.43976" lon="1.95761">
        <ele>223.80000305176</ele>
        <time>2023-06-05T07:33:39.000Z</time>
      </trkpt>
      <trkpt lat="43.43974" lon="1.95764">
        <ele>224</ele>
        <time>2023-06-05T07:33:42.000Z</time>
      </trkpt>
      <trkpt lat="43.43966" lon="1.95769">
        <ele>223.80000305176</ele>
        <time>2023-06-05T07:33:50.000Z</time>
      </trkpt>
      <trkpt lat="43.43959" lon="1.95772">
        <ele>224</ele>
        <time>2023-06-05T07:33:58.000Z</time>
      </trkpt>
      <trkpt lat="43.43958" lon="1.95773">
        <ele>224</ele>
        <time>2023-06-05T07:33:59.000Z</time>
      </trkpt>
      <trkpt lat="43.43955" lon="1.95775">
        <ele>224.19999694824</ele>
        <time>2023-06-05T07:34:02.000Z</time>
      </trkpt>
      <trkpt lat="43.43951" lon="1.95776">
        <ele>224</ele>
        <time>2023-06-05T07:34:05.000Z</time>
      </trkpt>
      <trkpt lat="43.4395" lon="1.95776">
        <ele>224</ele>
        <time>2023-06-05T07:34:06.000Z</time>
      </trkpt>
      <trkpt lat="43.43946" lon="1.95775">
        <ele>224.19999694824</ele>
        <time>2023-06-05T07:34:10.000Z</time>
      </trkpt>
      <trkpt lat="43.43942" lon="1.95773">
        <ele>224</ele>
        <time>2023-06-05T07:34:13.000Z</time>
      </trkpt>
      <trkpt lat="43.43936" lon="1.95769">
        <ele>224</ele>
        <time>2023-06-05T07:34:19.000Z</time>
      </trkpt>
      <trkpt lat="43.43933" lon="1.95767">
        <ele>224</ele>
        <time>2023-06-05T07:34:22.000Z</time>
      </trkpt>
      <trkpt lat="43.4393" lon="1.95762">
        <ele>224</ele>
        <time>2023-06-05T07:34:26.000Z</time>
      </trkpt>
      <trkpt lat="43.43929" lon="1.95756">
        <ele>224</ele>
        <time>2023-06-05T07:34:31.000Z</time>
      </trkpt>
      <trkpt lat="43.43928" lon="1.95753">
        <ele>224</ele>
        <time>2023-06-05T07:34:33.000Z</time>
      </trkpt>
      <trkpt lat="43.43929" lon="1.95744">
        <ele>224</ele>
        <time>2023-06-05T07:34:40.000Z</time>
      </trkpt>
      <trkpt lat="43.43932" lon="1.95737">
        <ele>224</ele>
        <time>2023-06-05T07:34:46.000Z</time>
      </trkpt>
      <trkpt lat="43.43933" lon="1.95731">
        <ele>223.80000305176</ele>
        <time>2023-06-05T07:34:51.000Z</time>
      </trkpt>
      <trkpt lat="43.43933" lon="1.9573">
        <ele>223.80000305176</ele>
        <time>2023-06-05T07:34:52.000Z</time>
      </trkpt>
      <trkpt lat="43.43935" lon="1.95725">
        <ele>223.80000305176</ele>
        <time>2023-06-05T07:34:56.000Z</time>
      </trkpt>
      <trkpt lat="43.43936" lon="1.95723">
        <ele>223.80000305176</ele>
        <time>2023-06-05T07:34:58.000Z</time>
      </trkpt>
      <trkpt lat="43.43937" lon="1.9572">
        <ele>223.80000305176</ele>
        <time>2023-06-05T07:35:01.000Z</time>
      </trkpt>
      <trkpt lat="43.43939" lon="1.95716">
        <ele>223.60000610352</ele>
        <time>2023-06-05T07:35:05.000Z</time>
      </trkpt>
      <trkpt lat="43.43942" lon="1.95712">
        <ele>223.60000610352</ele>
        <time>2023-06-05T07:35:09.000Z</time>
      </trkpt>
      <trkpt lat="43.43942" lon="1.95712">
        <ele>223.60000610352</ele>
        <time>2023-06-05T07:35:12.000Z</time>
      </trkpt>
      <trkpt lat="43.43945" lon="1.95706">
        <ele>223.39999389648</ele>
        <time>2023-06-05T07:35:17.000Z</time>
      </trkpt>
      <trkpt lat="43.43948" lon="1.95697">
        <ele>223.39999389648</ele>
        <time>2023-06-05T07:35:24.000Z</time>
      </trkpt>
      <trkpt lat="43.43949" lon="1.95694">
        <ele>223.39999389648</ele>
        <time>2023-06-05T07:35:26.000Z</time>
      </trkpt>
      <trkpt lat="43.4395" lon="1.95688">
        <ele>223.39999389648</ele>
        <time>2023-06-05T07:35:30.000Z</time>
      </trkpt>
      <trkpt lat="43.43952" lon="1.9568">
        <ele>223.39999389648</ele>
        <time>2023-06-05T07:35:36.000Z</time>
      </trkpt>
      <trkpt lat="43.43952" lon="1.95679">
        <ele>223.39999389648</ele>
        <time>2023-06-05T07:35:37.000Z</time>
      </trkpt>
      <trkpt lat="43.43954" lon="1.9567">
        <ele>223.39999389648</ele>
        <time>2023-06-05T07:35:44.000Z</time>
      </trkpt>
      <trkpt lat="43.43957" lon="1.95661">
        <ele>223.19999694824</ele>
        <time>2023-06-05T07:35:51.000Z</time>
      </trkpt>
      <trkpt lat="43.4396" lon="1.95652">
        <ele>223.19999694824</ele>
        <time>2023-06-05T07:35:58.000Z</time>
      </trkpt>
      <trkpt lat="43.4396" lon="1.95651">
        <ele>223.19999694824</ele>
        <time>2023-06-05T07:35:59.000Z</time>
      </trkpt>
      <trkpt lat="43.43961" lon="1.95647">
        <ele>223.19999694824</ele>
        <time>2023-06-05T07:36:02.000Z</time>
      </trkpt>
      <trkpt lat="43.43962" lon="1.95645">
        <ele>223.19999694824</ele>
        <time>2023-06-05T07:36:03.000Z</time>
      </trkpt>
      <trkpt lat="43.43964" lon="1.95635">
        <ele>223.19999694824</ele>
        <time>2023-06-05T07:36:10.000Z</time>
      </trkpt>
      <trkpt lat="43.43967" lon="1.95626">
        <ele>223.19999694824</ele>
        <time>2023-06-05T07:36:17.000Z</time>
      </trkpt>
      <trkpt lat="43.43968" lon="1.95619">
        <ele>223.39999389648</ele>
        <time>2023-06-05T07:36:22.000Z</time>
      </trkpt>
      <trkpt lat="43.4397" lon="1.9561">
        <ele>223.39999389648</ele>
        <time>2023-06-05T07:36:28.000Z</time>
      </trkpt>
      <trkpt lat="43.4397" lon="1.95608">
        <ele>223.39999389648</ele>
        <time>2023-06-05T07:36:29.000Z</time>
      </trkpt>
      <trkpt lat="43.4397" lon="1.95602">
        <ele>223.19999694824</ele>
        <time>2023-06-05T07:36:33.000Z</time>
      </trkpt>
      <trkpt lat="43.4397" lon="1.95599">
        <ele>223.19999694824</ele>
        <time>2023-06-05T07:36:35.000Z</time>
      </trkpt>
      <trkpt lat="43.43969" lon="1.95584">
        <ele>223.19999694824</ele>
        <time>2023-06-05T07:36:44.000Z</time>
      </trkpt>
      <trkpt lat="43.43968" lon="1.9558">
        <ele>223.39999389648</ele>
        <time>2023-06-05T07:36:47.000Z</time>
      </trkpt>
      <trkpt lat="43.43968" lon="1.95573">
        <ele>223.39999389648</ele>
        <time>2023-06-05T07:36:51.000Z</time>
      </trkpt>
      <trkpt lat="43.43967" lon="1.95567">
        <ele>223.39999389648</ele>
        <time>2023-06-05T07:36:55.000Z</time>
      </trkpt>
      <trkpt lat="43.43967" lon="1.95563">
        <ele>223.19999694824</ele>
        <time>2023-06-05T07:36:58.000Z</time>
      </trkpt>
      <trkpt lat="43.43967" lon="1.95559">
        <ele>223.19999694824</ele>
        <time>2023-06-05T07:37:01.000Z</time>
      </trkpt>
      <trkpt lat="43.43966" lon="1.95553">
        <ele>223.19999694824</ele>
        <time>2023-06-05T07:37:05.000Z</time>
      </trkpt>
      <trkpt lat="43.43966" lon="1.95552">
        <ele>223.19999694824</ele>
        <time>2023-06-05T07:37:06.000Z</time>
      </trkpt>
      <trkpt lat="43.43965" lon="1.95551">
        <ele>223.39999389648</ele>
        <time>2023-06-05T07:37:09.000Z</time>
      </trkpt>
      <trkpt lat="43.43965" lon="1.9555">
        <ele>223.39999389648</ele>
        <time>2023-06-05T07:37:10.000Z</time>
      </trkpt>
      <trkpt lat="43.43963" lon="1.95542">
        <ele>223.19999694824</ele>
        <time>2023-06-05T07:37:16.000Z</time>
      </trkpt>
      <trkpt lat="43.43961" lon="1.9554">
        <ele>223.19999694824</ele>
        <time>2023-06-05T07:37:22.000Z</time>
      </trkpt>
      <trkpt lat="43.4396" lon="1.95534">
        <ele>223.19999694824</ele>
        <time>2023-06-05T07:37:25.000Z</time>
      </trkpt>
      <trkpt lat="43.43958" lon="1.95532">
        <ele>223.19999694824</ele>
        <time>2023-06-05T07:37:27.000Z</time>
      </trkpt>
      <trkpt lat="43.43955" lon="1.95528">
        <ele>223.19999694824</ele>
        <time>2023-06-05T07:37:31.000Z</time>
      </trkpt>
      <trkpt lat="43.43953" lon="1.95526">
        <ele>223.19999694824</ele>
        <time>2023-06-05T07:37:33.000Z</time>
      </trkpt>
      <trkpt lat="43.43951" lon="1.95525">
        <ele>223.39999389648</ele>
        <time>2023-06-05T07:37:38.000Z</time>
      </trkpt>
      <trkpt lat="43.4395" lon="1.95524">
        <ele>223.39999389648</ele>
        <time>2023-06-05T07:37:39.000Z</time>
      </trkpt>
      <trkpt lat="43.43944" lon="1.95517">
        <ele>223.39999389648</ele>
        <time>2023-06-05T07:37:47.000Z</time>
      </trkpt>
      <trkpt lat="43.43939" lon="1.95509">
        <ele>223.19999694824</ele>
        <time>2023-06-05T07:37:55.000Z</time>
      </trkpt>
      <trkpt lat="43.43933" lon="1.95502">
        <ele>223.19999694824</ele>
        <time>2023-06-05T07:38:02.000Z</time>
      </trkpt>
      <trkpt lat="43.43932" lon="1.95501">
        <ele>223.19999694824</ele>
        <time>2023-06-05T07:38:03.000Z</time>
      </trkpt>
      <trkpt lat="43.43928" lon="1.95495">
        <ele>223.19999694824</ele>
        <time>2023-06-05T07:38:10.000Z</time>
      </trkpt>
      <trkpt lat="43.43928" lon="1.95494">
        <ele>223.39999389648</ele>
        <time>2023-06-05T07:38:11.000Z</time>
      </trkpt>
      <trkpt lat="43.43926" lon="1.95488">
        <ele>223.39999389648</ele>
        <time>2023-06-05T07:38:15.000Z</time>
      </trkpt>
      <trkpt lat="43.43925" lon="1.95486">
        <ele>223.19999694824</ele>
        <time>2023-06-05T07:38:17.000Z</time>
      </trkpt>
      <trkpt lat="43.43921" lon="1.95478">
        <ele>223.19999694824</ele>
        <time>2023-06-05T07:38:23.000Z</time>
      </trkpt>
      <trkpt lat="43.43921" lon="1.95476">
        <ele>223.19999694824</ele>
        <time>2023-06-05T07:38:25.000Z</time>
      </trkpt>
      <trkpt lat="43.43919" lon="1.95467">
        <ele>223</ele>
        <time>2023-06-05T07:38:31.000Z</time>
      </trkpt>
      <trkpt lat="43.43917" lon="1.95458">
        <ele>223</ele>
        <time>2023-06-05T07:38:37.000Z</time>
      </trkpt>
      <trkpt lat="43.43917" lon="1.95456">
        <ele>223</ele>
        <time>2023-06-05T07:38:38.000Z</time>
      </trkpt>
      <trkpt lat="43.43916" lon="1.95445">
        <ele>223</ele>
        <time>2023-06-05T07:38:45.000Z</time>
      </trkpt>
      <trkpt lat="43.43916" lon="1.95444">
        <ele>223.19999694824</ele>
        <time>2023-06-05T07:38:46.000Z</time>
      </trkpt>
      <trkpt lat="43.43916" lon="1.9544">
        <ele>223.19999694824</ele>
        <time>2023-06-05T07:38:49.000Z</time>
      </trkpt>
      <trkpt lat="43.43915" lon="1.95435">
        <ele>223.19999694824</ele>
        <time>2023-06-05T07:38:52.000Z</time>
      </trkpt>
      <trkpt lat="43.43916" lon="1.95428">
        <ele>222.80000305176</ele>
        <time>2023-06-05T07:38:58.000Z</time>
      </trkpt>
      <trkpt lat="43.43918" lon="1.95423">
        <ele>222.80000305176</ele>
        <time>2023-06-05T07:39:02.000Z</time>
      </trkpt>
      <trkpt lat="43.43918" lon="1.95421">
        <ele>222.80000305176</ele>
        <time>2023-06-05T07:39:03.000Z</time>
      </trkpt>
      <trkpt lat="43.43919" lon="1.95417">
        <ele>222.80000305176</ele>
        <time>2023-06-05T07:39:06.000Z</time>
      </trkpt>
      <trkpt lat="43.4392" lon="1.95413">
        <ele>222.80000305176</ele>
        <time>2023-06-05T07:39:09.000Z</time>
      </trkpt>
      <trkpt lat="43.43921" lon="1.95404">
        <ele>222.80000305176</ele>
        <time>2023-06-05T07:39:14.000Z</time>
      </trkpt>
      <trkpt lat="43.43922" lon="1.95401">
        <ele>222.80000305176</ele>
        <time>2023-06-05T07:39:16.000Z</time>
      </trkpt>
      <trkpt lat="43.43923" lon="1.95401">
        <ele>222.80000305176</ele>
        <time>2023-06-05T07:39:17.000Z</time>
      </trkpt>
      <trkpt lat="43.43925" lon="1.95397">
        <ele>222.80000305176</ele>
        <time>2023-06-05T07:39:20.000Z</time>
      </trkpt>
      <trkpt lat="43.43925" lon="1.95396">
        <ele>222.80000305176</ele>
        <time>2023-06-05T07:39:21.000Z</time>
      </trkpt>
      <trkpt lat="43.43927" lon="1.95393">
        <ele>222.80000305176</ele>
        <time>2023-06-05T07:39:24.000Z</time>
      </trkpt>
      <trkpt lat="43.43928" lon="1.95389">
        <ele>222.80000305176</ele>
        <time>2023-06-05T07:39:26.000Z</time>
      </trkpt>
      <trkpt lat="43.43928" lon="1.95386">
        <ele>222.80000305176</ele>
        <time>2023-06-05T07:39:28.000Z</time>
      </trkpt>
      <trkpt lat="43.43927" lon="1.95381">
        <ele>222.80000305176</ele>
        <time>2023-06-05T07:39:31.000Z</time>
      </trkpt>
      <trkpt lat="43.43925" lon="1.95378">
        <ele>222.80000305176</ele>
        <time>2023-06-05T07:39:33.000Z</time>
      </trkpt>
      <trkpt lat="43.43925" lon="1.95375">
        <ele>222.80000305176</ele>
        <time>2023-06-05T07:39:35.000Z</time>
      </trkpt>
      <trkpt lat="43.43923" lon="1.9537">
        <ele>222.80000305176</ele>
        <time>2023-06-05T07:39:38.000Z</time>
      </trkpt>
      <trkpt lat="43.43923" lon="1.95369">
        <ele>222.80000305176</ele>
        <time>2023-06-05T07:39:39.000Z</time>
      </trkpt>
      <trkpt lat="43.43918" lon="1.9536">
        <ele>222.80000305176</ele>
        <time>2023-06-05T07:39:46.000Z</time>
      </trkpt>
      <trkpt lat="43.43913" lon="1.95355">
        <ele>222.80000305176</ele>
        <time>2023-06-05T07:39:51.000Z</time>
      </trkpt>
      <trkpt lat="43.43911" lon="1.95353">
        <ele>222.80000305176</ele>
        <time>2023-06-05T07:39:53.000Z</time>
      </trkpt>
      <trkpt lat="43.43904" lon="1.95349">
        <ele>222.80000305176</ele>
        <time>2023-06-05T07:39:59.000Z</time>
      </trkpt>
      <trkpt lat="43.43898" lon="1.95346">
        <ele>222.80000305176</ele>
        <time>2023-06-05T07:40:06.000Z</time>
      </trkpt>
      <trkpt lat="43.43897" lon="1.95346">
        <ele>222.80000305176</ele>
        <time>2023-06-05T07:40:07.000Z</time>
      </trkpt>
      <trkpt lat="43.4389" lon="1.95345">
        <ele>222.60000610352</ele>
        <time>2023-06-05T07:40:14.000Z</time>
      </trkpt>
      <trkpt lat="43.43886" lon="1.95346">
        <ele>222.60000610352</ele>
        <time>2023-06-05T07:40:20.000Z</time>
      </trkpt>
      <trkpt lat="43.43879" lon="1.95349">
        <ele>222.60000610352</ele>
        <time>2023-06-05T07:40:29.000Z</time>
      </trkpt>
      <trkpt lat="43.43878" lon="1.9535">
        <ele>222.80000305176</ele>
        <time>2023-06-05T07:40:34.000Z</time>
      </trkpt>
      <trkpt lat="43.43873" lon="1.95354">
        <ele>222.60000610352</ele>
        <time>2023-06-05T07:40:42.000Z</time>
      </trkpt>
      <trkpt lat="43.43867" lon="1.95357">
        <ele>222.80000305176</ele>
        <time>2023-06-05T07:40:48.000Z</time>
      </trkpt>
      <trkpt lat="43.43864" lon="1.95359">
        <ele>223</ele>
        <time>2023-06-05T07:40:54.000Z</time>
      </trkpt>
      <trkpt lat="43.4386" lon="1.95362">
        <ele>222.80000305176</ele>
        <time>2023-06-05T07:40:57.000Z</time>
      </trkpt>
      <trkpt lat="43.43858" lon="1.95363">
        <ele>222.60000610352</ele>
        <time>2023-06-05T07:40:59.000Z</time>
      </trkpt>
      <trkpt lat="43.43856" lon="1.95365">
        <ele>222.60000610352</ele>
        <time>2023-06-05T07:41:02.000Z</time>
      </trkpt>
      <trkpt lat="43.43855" lon="1.95366">
        <ele>222.60000610352</ele>
        <time>2023-06-05T07:41:03.000Z</time>
      </trkpt>
      <trkpt lat="43.43853" lon="1.95369">
        <ele>222.60000610352</ele>
        <time>2023-06-05T07:41:06.000Z</time>
      </trkpt>
      <trkpt lat="43.43851" lon="1.9537">
        <ele>222.60000610352</ele>
        <time>2023-06-05T07:41:08.000Z</time>
      </trkpt>
      <trkpt lat="43.43849" lon="1.95372">
        <ele>222.60000610352</ele>
        <time>2023-06-05T07:41:10.000Z</time>
      </trkpt>
      <trkpt lat="43.43847" lon="1.95374">
        <ele>222.60000610352</ele>
        <time>2023-06-05T07:41:13.000Z</time>
      </trkpt>
      <trkpt lat="43.43841" lon="1.95378">
        <ele>222.39999389648</ele>
        <time>2023-06-05T07:41:20.000Z</time>
      </trkpt>
      <trkpt lat="43.4384" lon="1.95379">
        <ele>222.60000610352</ele>
        <time>2023-06-05T07:41:23.000Z</time>
      </trkpt>
      <trkpt lat="43.43838" lon="1.95381">
        <ele>222.60000610352</ele>
        <time>2023-06-05T07:41:25.000Z</time>
      </trkpt>
      <trkpt lat="43.43835" lon="1.95382">
        <ele>222.39999389648</ele>
        <time>2023-06-05T07:41:30.000Z</time>
      </trkpt>
      <trkpt lat="43.4383" lon="1.95388">
        <ele>222.39999389648</ele>
        <time>2023-06-05T07:41:36.000Z</time>
      </trkpt>
      <trkpt lat="43.43826" lon="1.9539">
        <ele>222.39999389648</ele>
        <time>2023-06-05T07:41:41.000Z</time>
      </trkpt>
      <trkpt lat="43.43826" lon="1.95389">
        <ele>222.39999389648</ele>
        <time>2023-06-05T07:41:44.000Z</time>
      </trkpt>
      <trkpt lat="43.43825" lon="1.95389">
        <ele>222.60000610352</ele>
        <time>2023-06-05T07:41:50.000Z</time>
      </trkpt>
      <trkpt lat="43.43824" lon="1.95391">
        <ele>222.60000610352</ele>
        <time>2023-06-05T07:41:57.000Z</time>
      </trkpt>
      <trkpt lat="43.43823" lon="1.95392">
        <ele>222.19999694824</ele>
        <time>2023-06-05T07:42:01.000Z</time>
      </trkpt>
      <trkpt lat="43.43822" lon="1.95392">
        <ele>222.19999694824</ele>
        <time>2023-06-05T07:42:06.000Z</time>
      </trkpt>
      <trkpt lat="43.43817" lon="1.95393">
        <ele>222.60000610352</ele>
        <time>2023-06-05T07:42:14.000Z</time>
      </trkpt>
      <trkpt lat="43.43816" lon="1.95394">
        <ele>222.60000610352</ele>
        <time>2023-06-05T07:42:23.000Z</time>
      </trkpt>
      <trkpt lat="43.43814" lon="1.95395">
        <ele>222.60000610352</ele>
        <time>2023-06-05T07:42:36.000Z</time>
      </trkpt>
      <trkpt lat="43.4381" lon="1.95397">
        <ele>222.39999389648</ele>
        <time>2023-06-05T07:42:50.000Z</time>
      </trkpt>
      <trkpt lat="43.4381" lon="1.95398">
        <ele>222.60000610352</ele>
        <time>2023-06-05T07:42:55.000Z</time>
      </trkpt>
      <trkpt lat="43.43811" lon="1.95398">
        <ele>222.80000305176</ele>
        <time>2023-06-05T07:43:03.000Z</time>
      </trkpt>
      <trkpt lat="43.43813" lon="1.95396">
        <ele>222.80000305176</ele>
        <time>2023-06-05T07:43:12.000Z</time>
      </trkpt>
      <trkpt lat="43.43814" lon="1.95393">
        <ele>222.80000305176</ele>
        <time>2023-06-05T07:43:19.000Z</time>
      </trkpt>
      <trkpt lat="43.43814" lon="1.95394">
        <ele>222.39999389648</ele>
        <time>2023-06-05T07:43:27.000Z</time>
      </trkpt>
      <trkpt lat="43.43814" lon="1.95394">
        <ele>222.60000610352</ele>
        <time>2023-06-05T07:43:35.000Z</time>
      </trkpt>
      <trkpt lat="43.43814" lon="1.95394">
        <ele>223</ele>
        <time>2023-06-05T07:43:42.000Z</time>
      </trkpt>
      <trkpt lat="43.43814" lon="1.95393">
        <ele>223</ele>
        <time>2023-06-05T07:43:51.000Z</time>
      </trkpt>
      <trkpt lat="43.43814" lon="1.95391">
        <ele>222.60000610352</ele>
        <time>2023-06-05T07:43:59.000Z</time>
      </trkpt>
      <trkpt lat="43.43814" lon="1.95393">
        <ele>222.80000305176</ele>
        <time>2023-06-05T07:44:07.000Z</time>
      </trkpt>
      <trkpt lat="43.43813" lon="1.95392">
        <ele>222.39999389648</ele>
        <time>2023-06-05T07:44:16.000Z</time>
      </trkpt>
      <trkpt lat="43.43813" lon="1.95391">
        <ele>222.60000610352</ele>
        <time>2023-06-05T07:44:22.000Z</time>
      </trkpt>
      <trkpt lat="43.43812" lon="1.9539">
        <ele>222.80000305176</ele>
        <time>2023-06-05T07:44:28.000Z</time>
      </trkpt>
      <trkpt lat="43.43811" lon="1.9539">
        <ele>222.60000610352</ele>
        <time>2023-06-05T07:44:36.000Z</time>
      </trkpt>
      <trkpt lat="43.43813" lon="1.95386">
        <ele>222.60000610352</ele>
        <time>2023-06-05T07:44:45.000Z</time>
      </trkpt>
      <trkpt lat="43.43813" lon="1.95385">
        <ele>222.80000305176</ele>
        <time>2023-06-05T07:44:52.000Z</time>
      </trkpt>
      <trkpt lat="43.43813" lon="1.95385">
        <ele>222.80000305176</ele>
        <time>2023-06-05T07:45:01.000Z</time>
      </trkpt>
      <trkpt lat="43.43818" lon="1.95389">
        <ele>222.60000610352</ele>
        <time>2023-06-05T07:45:08.000Z</time>
      </trkpt>
      <trkpt lat="43.43818" lon="1.9539">
        <ele>222.80000305176</ele>
        <time>2023-06-05T07:45:15.000Z</time>
      </trkpt>
      <trkpt lat="43.43818" lon="1.95391">
        <ele>222.60000610352</ele>
        <time>2023-06-05T07:45:22.000Z</time>
      </trkpt>
      <trkpt lat="43.43817" lon="1.95392">
        <ele>222.80000305176</ele>
        <time>2023-06-05T07:45:31.000Z</time>
      </trkpt>
      <trkpt lat="43.43817" lon="1.95393">
        <ele>222.80000305176</ele>
        <time>2023-06-05T07:45:40.000Z</time>
      </trkpt>
      <trkpt lat="43.43816" lon="1.95391">
        <ele>222.39999389648</ele>
        <time>2023-06-05T07:45:49.000Z</time>
      </trkpt>
      <trkpt lat="43.43816" lon="1.95391">
        <ele>222.39999389648</ele>
        <time>2023-06-05T07:45:55.000Z</time>
      </trkpt>
      <trkpt lat="43.43813" lon="1.95396">
        <ele>222.80000305176</ele>
        <time>2023-06-05T07:46:01.000Z</time>
      </trkpt>
      <trkpt lat="43.43809" lon="1.954">
        <ele>222.60000610352</ele>
        <time>2023-06-05T07:46:07.000Z</time>
      </trkpt>
      <trkpt lat="43.43805" lon="1.95403">
        <ele>222.60000610352</ele>
        <time>2023-06-05T07:46:12.000Z</time>
      </trkpt>
      <trkpt lat="43.43805" lon="1.95404">
        <ele>222.60000610352</ele>
        <time>2023-06-05T07:46:14.000Z</time>
      </trkpt>
      <trkpt lat="43.43806" lon="1.95404">
        <ele>222.80000305176</ele>
        <time>2023-06-05T07:46:24.000Z</time>
      </trkpt>
      <trkpt lat="43.43801" lon="1.9541">
        <ele>222.60000610352</ele>
        <time>2023-06-05T07:46:31.000Z</time>
      </trkpt>
      <trkpt lat="43.43792" lon="1.95419">
        <ele>222.80000305176</ele>
        <time>2023-06-05T07:46:42.000Z</time>
      </trkpt>
      <trkpt lat="43.43786" lon="1.95423">
        <ele>222.60000610352</ele>
        <time>2023-06-05T07:46:49.000Z</time>
      </trkpt>
      <trkpt lat="43.43778" lon="1.9543">
        <ele>222.60000610352</ele>
        <time>2023-06-05T07:46:58.000Z</time>
      </trkpt>
      <trkpt lat="43.4377" lon="1.95438">
        <ele>222.60000610352</ele>
        <time>2023-06-05T07:47:07.000Z</time>
      </trkpt>
      <trkpt lat="43.43763" lon="1.95445">
        <ele>222.60000610352</ele>
        <time>2023-06-05T07:47:15.000Z</time>
      </trkpt>
      <trkpt lat="43.43754" lon="1.95453">
        <ele>222.60000610352</ele>
        <time>2023-06-05T07:47:24.000Z</time>
      </trkpt>
      <trkpt lat="43.43748" lon="1.95458">
        <ele>222.60000610352</ele>
        <time>2023-06-05T07:47:31.000Z</time>
      </trkpt>
      <trkpt lat="43.43742" lon="1.95465">
        <ele>222.80000305176</ele>
        <time>2023-06-05T07:47:38.000Z</time>
      </trkpt>
      <trkpt lat="43.43736" lon="1.95471">
        <ele>222.80000305176</ele>
        <time>2023-06-05T07:47:45.000Z</time>
      </trkpt>
      <trkpt lat="43.43731" lon="1.95476">
        <ele>223</ele>
        <time>2023-06-05T07:47:51.000Z</time>
      </trkpt>
      <trkpt lat="43.4373" lon="1.95478">
        <ele>223</ele>
        <time>2023-06-05T07:47:53.000Z</time>
      </trkpt>
      <trkpt lat="43.43724" lon="1.95483">
        <ele>223</ele>
        <time>2023-06-05T07:48:00.000Z</time>
      </trkpt>
      <trkpt lat="43.43723" lon="1.95484">
        <ele>223</ele>
        <time>2023-06-05T07:48:02.000Z</time>
      </trkpt>
      <trkpt lat="43.43718" lon="1.95487">
        <ele>222.80000305176</ele>
        <time>2023-06-05T07:48:07.000Z</time>
      </trkpt>
      <trkpt lat="43.43716" lon="1.95489">
        <ele>222.80000305176</ele>
        <time>2023-06-05T07:48:09.000Z</time>
      </trkpt>
      <trkpt lat="43.4371" lon="1.95492">
        <ele>222.80000305176</ele>
        <time>2023-06-05T07:48:14.000Z</time>
      </trkpt>
      <trkpt lat="43.43701" lon="1.95495">
        <ele>222.60000610352</ele>
        <time>2023-06-05T07:48:21.000Z</time>
      </trkpt>
      <trkpt lat="43.43697" lon="1.95496">
        <ele>222.60000610352</ele>
        <time>2023-06-05T07:48:25.000Z</time>
      </trkpt>
      <trkpt lat="43.43694" lon="1.95496">
        <ele>222.60000610352</ele>
        <time>2023-06-05T07:48:28.000Z</time>
      </trkpt>
      <trkpt lat="43.4369" lon="1.95497">
        <ele>222.60000610352</ele>
        <time>2023-06-05T07:48:33.000Z</time>
      </trkpt>
      <trkpt lat="43.43685" lon="1.95498">
        <ele>222.80000305176</ele>
        <time>2023-06-05T07:48:38.000Z</time>
      </trkpt>
      <trkpt lat="43.43682" lon="1.95498">
        <ele>222.80000305176</ele>
        <time>2023-06-05T07:48:40.000Z</time>
      </trkpt>
      <trkpt lat="43.43676" lon="1.95499">
        <ele>222.80000305176</ele>
        <time>2023-06-05T07:48:45.000Z</time>
      </trkpt>
      <trkpt lat="43.4367" lon="1.95499">
        <ele>222.80000305176</ele>
        <time>2023-06-05T07:48:51.000Z</time>
      </trkpt>
      <trkpt lat="43.43669" lon="1.955">
        <ele>222.80000305176</ele>
        <time>2023-06-05T07:48:52.000Z</time>
      </trkpt>
      <trkpt lat="43.43664" lon="1.955">
        <ele>222.80000305176</ele>
        <time>2023-06-05T07:48:56.000Z</time>
      </trkpt>
      <trkpt lat="43.43662" lon="1.95501">
        <ele>223</ele>
        <time>2023-06-05T07:48:58.000Z</time>
      </trkpt>
      <trkpt lat="43.43658" lon="1.95502">
        <ele>222.80000305176</ele>
        <time>2023-06-05T07:49:02.000Z</time>
      </trkpt>
      <trkpt lat="43.43652" lon="1.95503">
        <ele>222.80000305176</ele>
        <time>2023-06-05T07:49:07.000Z</time>
      </trkpt>
      <trkpt lat="43.43644" lon="1.95504">
        <ele>223</ele>
        <time>2023-06-05T07:49:15.000Z</time>
      </trkpt>
      <trkpt lat="43.43638" lon="1.95506">
        <ele>223</ele>
        <time>2023-06-05T07:49:20.000Z</time>
      </trkpt>
      <trkpt lat="43.43635" lon="1.95507">
        <ele>223</ele>
        <time>2023-06-05T07:49:22.000Z</time>
      </trkpt>
      <trkpt lat="43.43634" lon="1.95507">
        <ele>223</ele>
        <time>2023-06-05T07:49:23.000Z</time>
      </trkpt>
      <trkpt lat="43.43629" lon="1.95509">
        <ele>223</ele>
        <time>2023-06-05T07:49:27.000Z</time>
      </trkpt>
      <trkpt lat="43.43628" lon="1.9551">
        <ele>223</ele>
        <time>2023-06-05T07:49:28.000Z</time>
      </trkpt>
      <trkpt lat="43.43617" lon="1.95513">
        <ele>223</ele>
        <time>2023-06-05T07:49:37.000Z</time>
      </trkpt>
      <trkpt lat="43.43611" lon="1.95516">
        <ele>223</ele>
        <time>2023-06-05T07:49:42.000Z</time>
      </trkpt>
      <trkpt lat="43.43608" lon="1.95517">
        <ele>223</ele>
        <time>2023-06-05T07:49:45.000Z</time>
      </trkpt>
      <trkpt lat="43.43601" lon="1.95519">
        <ele>223</ele>
        <time>2023-06-05T07:49:51.000Z</time>
      </trkpt>
      <trkpt lat="43.43599" lon="1.95519">
        <ele>223.19999694824</ele>
        <time>2023-06-05T07:49:53.000Z</time>
      </trkpt>
      <trkpt lat="43.43596" lon="1.9552">
        <ele>223.19999694824</ele>
        <time>2023-06-05T07:49:56.000Z</time>
      </trkpt>
      <trkpt lat="43.43592" lon="1.95521">
        <ele>223.19999694824</ele>
        <time>2023-06-05T07:49:59.000Z</time>
      </trkpt>
      <trkpt lat="43.43583" lon="1.95524">
        <ele>223.19999694824</ele>
        <time>2023-06-05T07:50:07.000Z</time>
      </trkpt>
      <trkpt lat="43.43582" lon="1.95523">
        <ele>223.19999694824</ele>
        <time>2023-06-05T07:50:08.000Z</time>
      </trkpt>
      <trkpt lat="43.43578" lon="1.95525">
        <ele>223.39999389648</ele>
        <time>2023-06-05T07:50:12.000Z</time>
      </trkpt>
      <trkpt lat="43.43575" lon="1.95526">
        <ele>223.60000610352</ele>
        <time>2023-06-05T07:50:18.000Z</time>
      </trkpt>
      <trkpt lat="43.43573" lon="1.95527">
        <ele>224</ele>
        <time>2023-06-05T07:50:25.000Z</time>
      </trkpt>
      <trkpt lat="43.4357" lon="1.95528">
        <ele>223.39999389648</ele>
        <time>2023-06-05T07:50:32.000Z</time>
      </trkpt>
      <trkpt lat="43.43563" lon="1.95532">
        <ele>223.19999694824</ele>
        <time>2023-06-05T07:50:39.000Z</time>
      </trkpt>
      <trkpt lat="43.43564" lon="1.95531">
        <ele>223.39999389648</ele>
        <time>2023-06-05T07:50:45.000Z</time>
      </trkpt>
      <trkpt lat="43.43558" lon="1.95535">
        <ele>223.60000610352</ele>
        <time>2023-06-05T07:50:55.000Z</time>
      </trkpt>
      <trkpt lat="43.43552" lon="1.95538">
        <ele>223.39999389648</ele>
        <time>2023-06-05T07:51:02.000Z</time>
      </trkpt>
      <trkpt lat="43.43551" lon="1.95538">
        <ele>223.39999389648</ele>
        <time>2023-06-05T07:51:03.000Z</time>
      </trkpt>
      <trkpt lat="43.43546" lon="1.9554">
        <ele>223.19999694824</ele>
        <time>2023-06-05T07:51:08.000Z</time>
      </trkpt>
      <trkpt lat="43.4354" lon="1.95543">
        <ele>223.19999694824</ele>
        <time>2023-06-05T07:51:15.000Z</time>
      </trkpt>
      <trkpt lat="43.43539" lon="1.95545">
        <ele>223.19999694824</ele>
        <time>2023-06-05T07:51:16.000Z</time>
      </trkpt>
      <trkpt lat="43.43536" lon="1.95547">
        <ele>223.19999694824</ele>
        <time>2023-06-05T07:51:22.000Z</time>
      </trkpt>
      <trkpt lat="43.4353" lon="1.95553">
        <ele>223.19999694824</ele>
        <time>2023-06-05T07:51:29.000Z</time>
      </trkpt>
      <trkpt lat="43.43526" lon="1.95557">
        <ele>223.19999694824</ele>
        <time>2023-06-05T07:51:33.000Z</time>
      </trkpt>
      <trkpt lat="43.43522" lon="1.9556">
        <ele>223.19999694824</ele>
        <time>2023-06-05T07:51:37.000Z</time>
      </trkpt>
      <trkpt lat="43.43513" lon="1.95566">
        <ele>223.39999389648</ele>
        <time>2023-06-05T07:51:46.000Z</time>
      </trkpt>
      <trkpt lat="43.43511" lon="1.95567">
        <ele>223.39999389648</ele>
        <time>2023-06-05T07:51:48.000Z</time>
      </trkpt>
      <trkpt lat="43.43506" lon="1.95569">
        <ele>223.39999389648</ele>
        <time>2023-06-05T07:51:52.000Z</time>
      </trkpt>
      <trkpt lat="43.43499" lon="1.95571">
        <ele>223.39999389648</ele>
        <time>2023-06-05T07:51:58.000Z</time>
      </trkpt>
      <trkpt lat="43.43495" lon="1.95572">
        <ele>223.39999389648</ele>
        <time>2023-06-05T07:52:01.000Z</time>
      </trkpt>
      <trkpt lat="43.43493" lon="1.95572">
        <ele>223.39999389648</ele>
        <time>2023-06-05T07:52:03.000Z</time>
      </trkpt>
      <trkpt lat="43.43489" lon="1.95572">
        <ele>223.39999389648</ele>
        <time>2023-06-05T07:52:07.000Z</time>
      </trkpt>
      <trkpt lat="43.43487" lon="1.95573">
        <ele>223.39999389648</ele>
        <time>2023-06-05T07:52:08.000Z</time>
      </trkpt>
      <trkpt lat="43.43479" lon="1.95571">
        <ele>223.19999694824</ele>
        <time>2023-06-05T07:52:16.000Z</time>
      </trkpt>
      <trkpt lat="43.43473" lon="1.95567">
        <ele>223</ele>
        <time>2023-06-05T07:52:23.000Z</time>
      </trkpt>
      <trkpt lat="43.43466" lon="1.95563">
        <ele>223.19999694824</ele>
        <time>2023-06-05T07:52:30.000Z</time>
      </trkpt>
      <trkpt lat="43.43456" lon="1.95557">
        <ele>223.19999694824</ele>
        <time>2023-06-05T07:52:39.000Z</time>
      </trkpt>
      <trkpt lat="43.43446" lon="1.95551">
        <ele>223</ele>
        <time>2023-06-05T07:52:48.000Z</time>
      </trkpt>
      <trkpt lat="43.43434" lon="1.95544">
        <ele>223</ele>
        <time>2023-06-05T07:52:59.000Z</time>
      </trkpt>
      <trkpt lat="43.43425" lon="1.95538">
        <ele>223</ele>
        <time>2023-06-05T07:53:07.000Z</time>
      </trkpt>
      <trkpt lat="43.43418" lon="1.95534">
        <ele>223</ele>
        <time>2023-06-05T07:53:14.000Z</time>
      </trkpt>
      <trkpt lat="43.43414" lon="1.95533">
        <ele>223</ele>
        <time>2023-06-05T07:53:18.000Z</time>
      </trkpt>
      <trkpt lat="43.43411" lon="1.95532">
        <ele>223</ele>
        <time>2023-06-05T07:53:21.000Z</time>
      </trkpt>
      <trkpt lat="43.43402" lon="1.95528">
        <ele>223</ele>
        <time>2023-06-05T07:53:29.000Z</time>
      </trkpt>
      <trkpt lat="43.43391" lon="1.95525">
        <ele>223.19999694824</ele>
        <time>2023-06-05T07:53:38.000Z</time>
      </trkpt>
      <trkpt lat="43.43382" lon="1.95523">
        <ele>223.19999694824</ele>
        <time>2023-06-05T07:53:46.000Z</time>
      </trkpt>
      <trkpt lat="43.43373" lon="1.95521">
        <ele>223.19999694824</ele>
        <time>2023-06-05T07:53:54.000Z</time>
      </trkpt>
      <trkpt lat="43.43363" lon="1.95519">
        <ele>223</ele>
        <time>2023-06-05T07:54:03.000Z</time>
      </trkpt>
      <trkpt lat="43.43352" lon="1.95518">
        <ele>223</ele>
        <time>2023-06-05T07:54:14.000Z</time>
      </trkpt>
      <trkpt lat="43.43343" lon="1.95517">
        <ele>223</ele>
        <time>2023-06-05T07:54:22.000Z</time>
      </trkpt>
      <trkpt lat="43.43335" lon="1.95517">
        <ele>223.19999694824</ele>
        <time>2023-06-05T07:54:30.000Z</time>
      </trkpt>
      <trkpt lat="43.43332" lon="1.95517">
        <ele>223.39999389648</ele>
        <time>2023-06-05T07:54:34.000Z</time>
      </trkpt>
      <trkpt lat="43.43329" lon="1.95517">
        <ele>223.39999389648</ele>
        <time>2023-06-05T07:54:37.000Z</time>
      </trkpt>
      <trkpt lat="43.43322" lon="1.95518">
        <ele>223</ele>
        <time>2023-06-05T07:54:44.000Z</time>
      </trkpt>
      <trkpt lat="43.43313" lon="1.95518">
        <ele>222.80000305176</ele>
        <time>2023-06-05T07:54:52.000Z</time>
      </trkpt>
      <trkpt lat="43.43305" lon="1.95519">
        <ele>223.19999694824</ele>
        <time>2023-06-05T07:54:59.000Z</time>
      </trkpt>
      <trkpt lat="43.43295" lon="1.9552">
        <ele>223</ele>
        <time>2023-06-05T07:55:08.000Z</time>
      </trkpt>
      <trkpt lat="43.43285" lon="1.9552">
        <ele>223.19999694824</ele>
        <time>2023-06-05T07:55:16.000Z</time>
      </trkpt>
      <trkpt lat="43.43276" lon="1.95521">
        <ele>223.19999694824</ele>
        <time>2023-06-05T07:55:24.000Z</time>
      </trkpt>
      <trkpt lat="43.43263" lon="1.9552">
        <ele>223.39999389648</ele>
        <time>2023-06-05T07:55:35.000Z</time>
      </trkpt>
      <trkpt lat="43.43255" lon="1.95518">
        <ele>223.19999694824</ele>
        <time>2023-06-05T07:55:43.000Z</time>
      </trkpt>
      <trkpt lat="43.43253" lon="1.95518">
        <ele>223.39999389648</ele>
        <time>2023-06-05T07:55:45.000Z</time>
      </trkpt>
      <trkpt lat="43.43249" lon="1.95516">
        <ele>223.39999389648</ele>
        <time>2023-06-05T07:55:49.000Z</time>
      </trkpt>
      <trkpt lat="43.43248" lon="1.95516">
        <ele>223.39999389648</ele>
        <time>2023-06-05T07:55:52.000Z</time>
      </trkpt>
      <trkpt lat="43.43244" lon="1.95515">
        <ele>223.39999389648</ele>
        <time>2023-06-05T07:55:55.000Z</time>
      </trkpt>
      <trkpt lat="43.43243" lon="1.95515">
        <ele>223.60000610352</ele>
        <time>2023-06-05T07:55:56.000Z</time>
      </trkpt>
      <trkpt lat="43.43233" lon="1.95512">
        <ele>223.19999694824</ele>
        <time>2023-06-05T07:56:05.000Z</time>
      </trkpt>
      <trkpt lat="43.43225" lon="1.9551">
        <ele>223.19999694824</ele>
        <time>2023-06-05T07:56:12.000Z</time>
      </trkpt>
      <trkpt lat="43.43216" lon="1.95508">
        <ele>223</ele>
        <time>2023-06-05T07:56:21.000Z</time>
      </trkpt>
      <trkpt lat="43.43212" lon="1.95507">
        <ele>222.80000305176</ele>
        <time>2023-06-05T07:56:26.000Z</time>
      </trkpt>
      <trkpt lat="43.4321" lon="1.95508">
        <ele>222.80000305176</ele>
        <time>2023-06-05T07:56:28.000Z</time>
      </trkpt>
      <trkpt lat="43.43209" lon="1.95507">
        <ele>222.80000305176</ele>
        <time>2023-06-05T07:56:34.000Z</time>
      </trkpt>
      <trkpt lat="43.43204" lon="1.95509">
        <ele>222.60000610352</ele>
        <time>2023-06-05T07:56:40.000Z</time>
      </trkpt>
      <trkpt lat="43.43197" lon="1.95514">
        <ele>222.60000610352</ele>
        <time>2023-06-05T07:56:48.000Z</time>
      </trkpt>
      <trkpt lat="43.43189" lon="1.95517">
        <ele>222.39999389648</ele>
        <time>2023-06-05T07:56:56.000Z</time>
      </trkpt>
      <trkpt lat="43.43184" lon="1.9552">
        <ele>222.39999389648</ele>
        <time>2023-06-05T07:57:02.000Z</time>
      </trkpt>
      <trkpt lat="43.43176" lon="1.95524">
        <ele>222.60000610352</ele>
        <time>2023-06-05T07:57:10.000Z</time>
      </trkpt>
      <trkpt lat="43.4317" lon="1.95527">
        <ele>222.60000610352</ele>
        <time>2023-06-05T07:57:17.000Z</time>
      </trkpt>
      <trkpt lat="43.43161" lon="1.95531">
        <ele>222.60000610352</ele>
        <time>2023-06-05T07:57:26.000Z</time>
      </trkpt>
      <trkpt lat="43.43152" lon="1.95536">
        <ele>222.60000610352</ele>
        <time>2023-06-05T07:57:34.000Z</time>
      </trkpt>
      <trkpt lat="43.43147" lon="1.95538">
        <ele>222.39999389648</ele>
        <time>2023-06-05T07:57:39.000Z</time>
      </trkpt>
      <trkpt lat="43.43146" lon="1.95538">
        <ele>222.39999389648</ele>
        <time>2023-06-05T07:57:40.000Z</time>
      </trkpt>
      <trkpt lat="43.43143" lon="1.9554">
        <ele>222.60000610352</ele>
        <time>2023-06-05T07:57:44.000Z</time>
      </trkpt>
      <trkpt lat="43.4314" lon="1.95541">
        <ele>222.60000610352</ele>
        <time>2023-06-05T07:57:47.000Z</time>
      </trkpt>
      <trkpt lat="43.43139" lon="1.95542">
        <ele>222.60000610352</ele>
        <time>2023-06-05T07:57:48.000Z</time>
      </trkpt>
      <trkpt lat="43.43133" lon="1.95546">
        <ele>222.39999389648</ele>
        <time>2023-06-05T07:57:55.000Z</time>
      </trkpt>
      <trkpt lat="43.43126" lon="1.95548">
        <ele>222.39999389648</ele>
        <time>2023-06-05T07:58:02.000Z</time>
      </trkpt>
      <trkpt lat="43.43125" lon="1.95549">
        <ele>222.39999389648</ele>
        <time>2023-06-05T07:58:03.000Z</time>
      </trkpt>
      <trkpt lat="43.4312" lon="1.95551">
        <ele>222.39999389648</ele>
        <time>2023-06-05T07:58:09.000Z</time>
      </trkpt>
      <trkpt lat="43.43111" lon="1.95556">
        <ele>222.60000610352</ele>
        <time>2023-06-05T07:58:18.000Z</time>
      </trkpt>
      <trkpt lat="43.43108" lon="1.95558">
        <ele>222.60000610352</ele>
        <time>2023-06-05T07:58:21.000Z</time>
      </trkpt>
      <trkpt lat="43.43105" lon="1.95559">
        <ele>222.60000610352</ele>
        <time>2023-06-05T07:58:24.000Z</time>
      </trkpt>
      <trkpt lat="43.43099" lon="1.95563">
        <ele>222.80000305176</ele>
        <time>2023-06-05T07:58:30.000Z</time>
      </trkpt>
      <trkpt lat="43.43096" lon="1.95565">
        <ele>222.80000305176</ele>
        <time>2023-06-05T07:58:33.000Z</time>
      </trkpt>
      <trkpt lat="43.43095" lon="1.95566">
        <ele>222.60000610352</ele>
        <time>2023-06-05T07:58:35.000Z</time>
      </trkpt>
      <trkpt lat="43.43094" lon="1.95566">
        <ele>222.60000610352</ele>
        <time>2023-06-05T07:58:36.000Z</time>
      </trkpt>
      <trkpt lat="43.43087" lon="1.95568">
        <ele>222.80000305176</ele>
        <time>2023-06-05T07:58:44.000Z</time>
      </trkpt>
      <trkpt lat="43.43085" lon="1.95569">
        <ele>223</ele>
        <time>2023-06-05T07:58:46.000Z</time>
      </trkpt>
      <trkpt lat="43.43079" lon="1.95571">
        <ele>223</ele>
        <time>2023-06-05T07:58:51.000Z</time>
      </trkpt>
      <trkpt lat="43.43072" lon="1.95573">
        <ele>223.19999694824</ele>
        <time>2023-06-05T07:58:58.000Z</time>
      </trkpt>
      <trkpt lat="43.43071" lon="1.95573">
        <ele>223.39999389648</ele>
        <time>2023-06-05T07:58:59.000Z</time>
      </trkpt>
      <trkpt lat="43.43069" lon="1.95573">
        <ele>223.80000305176</ele>
        <time>2023-06-05T07:59:07.000Z</time>
      </trkpt>
      <trkpt lat="43.43062" lon="1.95574">
        <ele>223.80000305176</ele>
        <time>2023-06-05T07:59:14.000Z</time>
      </trkpt>
      <trkpt lat="43.43057" lon="1.95572">
        <ele>223.80000305176</ele>
        <time>2023-06-05T07:59:19.000Z</time>
      </trkpt>
      <trkpt lat="43.43054" lon="1.95571">
        <ele>223.80000305176</ele>
        <time>2023-06-05T07:59:21.000Z</time>
      </trkpt>
      <trkpt lat="43.4305" lon="1.95568">
        <ele>223.80000305176</ele>
        <time>2023-06-05T07:59:25.000Z</time>
      </trkpt>
      <trkpt lat="43.43043" lon="1.95564">
        <ele>223.60000610352</ele>
        <time>2023-06-05T07:59:31.000Z</time>
      </trkpt>
      <trkpt lat="43.43041" lon="1.95563">
        <ele>223.60000610352</ele>
        <time>2023-06-05T07:59:33.000Z</time>
      </trkpt>
      <trkpt lat="43.43035" lon="1.95559">
        <ele>223.60000610352</ele>
        <time>2023-06-05T07:59:40.000Z</time>
      </trkpt>
      <trkpt lat="43.43034" lon="1.95558">
        <ele>223.60000610352</ele>
        <time>2023-06-05T07:59:41.000Z</time>
      </trkpt>
      <trkpt lat="43.43029" lon="1.95555">
        <ele>223.80000305176</ele>
        <time>2023-06-05T07:59:46.000Z</time>
      </trkpt>
      <trkpt lat="43.43023" lon="1.9555">
        <ele>223.60000610352</ele>
        <time>2023-06-05T07:59:52.000Z</time>
      </trkpt>
      <trkpt lat="43.43019" lon="1.95546">
        <ele>223.60000610352</ele>
        <time>2023-06-05T07:59:56.000Z</time>
      </trkpt>
      <trkpt lat="43.43017" lon="1.95544">
        <ele>223.60000610352</ele>
        <time>2023-06-05T07:59:58.000Z</time>
      </trkpt>
      <trkpt lat="43.43014" lon="1.95542">
        <ele>223.60000610352</ele>
        <time>2023-06-05T08:00:01.000Z</time>
      </trkpt>
      <trkpt lat="43.43011" lon="1.9554">
        <ele>223.60000610352</ele>
        <time>2023-06-05T08:00:04.000Z</time>
      </trkpt>
      <trkpt lat="43.43004" lon="1.95533">
        <ele>223.60000610352</ele>
        <time>2023-06-05T08:00:12.000Z</time>
      </trkpt>
      <trkpt lat="43.43004" lon="1.95532">
        <ele>223.60000610352</ele>
        <time>2023-06-05T08:00:13.000Z</time>
      </trkpt>
      <trkpt lat="43.43003" lon="1.95528">
        <ele>223.60000610352</ele>
        <time>2023-06-05T08:00:16.000Z</time>
      </trkpt>
      <trkpt lat="43.43002" lon="1.95524">
        <ele>223.80000305176</ele>
        <time>2023-06-05T08:00:19.000Z</time>
      </trkpt>
      <trkpt lat="43.43002" lon="1.95521">
        <ele>224.19999694824</ele>
        <time>2023-06-05T08:00:22.000Z</time>
      </trkpt>
      <trkpt lat="43.43002" lon="1.95519">
        <ele>224.39999389648</ele>
        <time>2023-06-05T08:00:26.000Z</time>
      </trkpt>
      <trkpt lat="43.43002" lon="1.95515">
        <ele>224.19999694824</ele>
        <time>2023-06-05T08:00:32.000Z</time>
      </trkpt>
      <trkpt lat="43.43001" lon="1.95504">
        <ele>224</ele>
        <time>2023-06-05T08:00:40.000Z</time>
      </trkpt>
      <trkpt lat="43.42999" lon="1.95501">
        <ele>224.39999389648</ele>
        <time>2023-06-05T08:00:45.000Z</time>
      </trkpt>
      <trkpt lat="43.42998" lon="1.95499">
        <ele>224.60000610352</ele>
        <time>2023-06-05T08:00:47.000Z</time>
      </trkpt>
      <trkpt lat="43.42999" lon="1.95491">
        <ele>224.39999389648</ele>
        <time>2023-06-05T08:00:53.000Z</time>
      </trkpt>
      <trkpt lat="43.43" lon="1.95485">
        <ele>224.60000610352</ele>
        <time>2023-06-05T08:00:57.000Z</time>
      </trkpt>
      <trkpt lat="43.42999" lon="1.95479">
        <ele>224.60000610352</ele>
        <time>2023-06-05T08:01:00.000Z</time>
      </trkpt>
      <trkpt lat="43.43001" lon="1.95473">
        <ele>224.60000610352</ele>
        <time>2023-06-05T08:01:05.000Z</time>
      </trkpt>
      <trkpt lat="43.43" lon="1.95471">
        <ele>224.80000305176</ele>
        <time>2023-06-05T08:01:06.000Z</time>
      </trkpt>
      <trkpt lat="43.43001" lon="1.95463">
        <ele>224.60000610352</ele>
        <time>2023-06-05T08:01:13.000Z</time>
      </trkpt>
      <trkpt lat="43.43002" lon="1.95451">
        <ele>224.80000305176</ele>
        <time>2023-06-05T08:01:21.000Z</time>
      </trkpt>
      <trkpt lat="43.43002" lon="1.95449">
        <ele>224.80000305176</ele>
        <time>2023-06-05T08:01:23.000Z</time>
      </trkpt>
      <trkpt lat="43.43003" lon="1.95444">
        <ele>224.80000305176</ele>
        <time>2023-06-05T08:01:26.000Z</time>
      </trkpt>
      <trkpt lat="43.43002" lon="1.95441">
        <ele>225</ele>
        <time>2023-06-05T08:01:31.000Z</time>
      </trkpt>
      <trkpt lat="43.43002" lon="1.95435">
        <ele>224.60000610352</ele>
        <time>2023-06-05T08:01:37.000Z</time>
      </trkpt>
      <trkpt lat="43.43004" lon="1.95438">
        <ele>224.60000610352</ele>
        <time>2023-06-05T08:01:42.000Z</time>
      </trkpt>
      <trkpt lat="43.43007" lon="1.95445">
        <ele>224.80000305176</ele>
        <time>2023-06-05T08:01:48.000Z</time>
      </trkpt>
      <trkpt lat="43.43" lon="1.95418">
        <ele>224.80000305176</ele>
        <time>2023-06-05T08:02:35.000Z</time>
      </trkpt>
      <trkpt lat="43.43" lon="1.95418">
        <ele>224.80000305176</ele>
        <time>2023-06-05T08:02:37.000Z</time>
      </trkpt>
      <trkpt lat="43.42995" lon="1.95413">
        <ele>226.39999389648</ele>
        <time>2023-06-05T08:30:36.000Z</time>
      </trkpt>
      <trkpt lat="43.42994" lon="1.95411">
        <ele>226.60000610352</ele>
        <time>2023-06-05T08:30:38.000Z</time>
      </trkpt>
      <trkpt lat="43.42991" lon="1.95401">
        <ele>226.60000610352</ele>
        <time>2023-06-05T08:30:46.000Z</time>
      </trkpt>
      <trkpt lat="43.4299" lon="1.95398">
        <ele>226.19999694824</ele>
        <time>2023-06-05T08:30:49.000Z</time>
      </trkpt>
      <trkpt lat="43.42988" lon="1.95394">
        <ele>226.39999389648</ele>
        <time>2023-06-05T08:30:53.000Z</time>
      </trkpt>
      <trkpt lat="43.42988" lon="1.95392">
        <ele>226.39999389648</ele>
        <time>2023-06-05T08:30:54.000Z</time>
      </trkpt>
      <trkpt lat="43.42988" lon="1.95388">
        <ele>226.19999694824</ele>
        <time>2023-06-05T08:30:57.000Z</time>
      </trkpt>
      <trkpt lat="43.42987" lon="1.95381">
        <ele>226.39999389648</ele>
        <time>2023-06-05T08:31:03.000Z</time>
      </trkpt>
      <trkpt lat="43.42983" lon="1.95373">
        <ele>226.39999389648</ele>
        <time>2023-06-05T08:31:10.000Z</time>
      </trkpt>
      <trkpt lat="43.42977" lon="1.95362">
        <ele>226.80000305176</ele>
        <time>2023-06-05T08:31:19.000Z</time>
      </trkpt>
      <trkpt lat="43.42973" lon="1.95351">
        <ele>226.80000305176</ele>
        <time>2023-06-05T08:31:28.000Z</time>
      </trkpt>
      <trkpt lat="43.42971" lon="1.9535">
        <ele>226.80000305176</ele>
        <time>2023-06-05T08:31:30.000Z</time>
      </trkpt>
      <trkpt lat="43.42968" lon="1.95349">
        <ele>226.80000305176</ele>
        <time>2023-06-05T08:31:34.000Z</time>
      </trkpt>
      <trkpt lat="43.42968" lon="1.95349">
        <ele>226.80000305176</ele>
        <time>2023-06-05T08:31:35.000Z</time>
      </trkpt>
      <trkpt lat="43.42968" lon="1.95349">
        <ele>226.60000610352</ele>
        <time>2023-06-05T08:31:43.000Z</time>
      </trkpt>
      <trkpt lat="43.42965" lon="1.95346">
        <ele>226.60000610352</ele>
        <time>2023-06-05T08:31:56.000Z</time>
      </trkpt>
      <trkpt lat="43.42961" lon="1.95339">
        <ele>226.39999389648</ele>
        <time>2023-06-05T08:32:04.000Z</time>
      </trkpt>
      <trkpt lat="43.42957" lon="1.95333">
        <ele>226.60000610352</ele>
        <time>2023-06-05T08:32:10.000Z</time>
      </trkpt>
      <trkpt lat="43.42957" lon="1.95332">
        <ele>226.60000610352</ele>
        <time>2023-06-05T08:32:11.000Z</time>
      </trkpt>
      <trkpt lat="43.42952" lon="1.95325">
        <ele>226.60000610352</ele>
        <time>2023-06-05T08:32:21.000Z</time>
      </trkpt>
      <trkpt lat="43.42952" lon="1.95326">
        <ele>226.60000610352</ele>
        <time>2023-06-05T08:32:26.000Z</time>
      </trkpt>
      <trkpt lat="43.42949" lon="1.95319">
        <ele>226.60000610352</ele>
        <time>2023-06-05T08:32:33.000Z</time>
      </trkpt>
      <trkpt lat="43.42944" lon="1.9531">
        <ele>226.60000610352</ele>
        <time>2023-06-05T08:32:42.000Z</time>
      </trkpt>
      <trkpt lat="43.42937" lon="1.953">
        <ele>226.39999389648</ele>
        <time>2023-06-05T08:32:52.000Z</time>
      </trkpt>
      <trkpt lat="43.42936" lon="1.95298">
        <ele>226.39999389648</ele>
        <time>2023-06-05T08:32:54.000Z</time>
      </trkpt>
      <trkpt lat="43.42933" lon="1.95294">
        <ele>226.39999389648</ele>
        <time>2023-06-05T08:32:58.000Z</time>
      </trkpt>
      <trkpt lat="43.42931" lon="1.9529">
        <ele>226.39999389648</ele>
        <time>2023-06-05T08:33:02.000Z</time>
      </trkpt>
      <trkpt lat="43.42929" lon="1.95287">
        <ele>226.60000610352</ele>
        <time>2023-06-05T08:33:05.000Z</time>
      </trkpt>
      <trkpt lat="43.42922" lon="1.95278">
        <ele>226.60000610352</ele>
        <time>2023-06-05T08:33:14.000Z</time>
      </trkpt>
      <trkpt lat="43.42919" lon="1.95273">
        <ele>226.60000610352</ele>
        <time>2023-06-05T08:33:22.000Z</time>
      </trkpt>
      <trkpt lat="43.42917" lon="1.9527">
        <ele>226.60000610352</ele>
        <time>2023-06-05T08:33:24.000Z</time>
      </trkpt>
      <trkpt lat="43.42915" lon="1.95266">
        <ele>226.60000610352</ele>
        <time>2023-06-05T08:33:27.000Z</time>
      </trkpt>
      <trkpt lat="43.4291" lon="1.95257">
        <ele>226.60000610352</ele>
        <time>2023-06-05T08:33:35.000Z</time>
      </trkpt>
      <trkpt lat="43.42903" lon="1.95246">
        <ele>226.60000610352</ele>
        <time>2023-06-05T08:33:45.000Z</time>
      </trkpt>
      <trkpt lat="43.42899" lon="1.95237">
        <ele>226.60000610352</ele>
        <time>2023-06-05T08:33:54.000Z</time>
      </trkpt>
      <trkpt lat="43.42893" lon="1.95228">
        <ele>226.60000610352</ele>
        <time>2023-06-05T08:34:03.000Z</time>
      </trkpt>
      <trkpt lat="43.42889" lon="1.9522">
        <ele>226.60000610352</ele>
        <time>2023-06-05T08:34:11.000Z</time>
      </trkpt>
      <trkpt lat="43.42883" lon="1.9521">
        <ele>226.39999389648</ele>
        <time>2023-06-05T08:34:20.000Z</time>
      </trkpt>
      <trkpt lat="43.42875" lon="1.95193">
        <ele>226.19999694824</ele>
        <time>2023-06-05T08:34:32.000Z</time>
      </trkpt>
      <trkpt lat="43.42871" lon="1.95182">
        <ele>226</ele>
        <time>2023-06-05T08:34:40.000Z</time>
      </trkpt>
      <trkpt lat="43.4287" lon="1.95177">
        <ele>226.19999694824</ele>
        <time>2023-06-05T08:34:43.000Z</time>
      </trkpt>
      <trkpt lat="43.42868" lon="1.9517">
        <ele>226.19999694824</ele>
        <time>2023-06-05T08:34:47.000Z</time>
      </trkpt>
      <trkpt lat="43.42866" lon="1.95158">
        <ele>226.19999694824</ele>
        <time>2023-06-05T08:34:54.000Z</time>
      </trkpt>
      <trkpt lat="43.42864" lon="1.95146">
        <ele>226.19999694824</ele>
        <time>2023-06-05T08:35:02.000Z</time>
      </trkpt>
      <trkpt lat="43.42863" lon="1.95137">
        <ele>226.39999389648</ele>
        <time>2023-06-05T08:35:08.000Z</time>
      </trkpt>
      <trkpt lat="43.42861" lon="1.95126">
        <ele>226.60000610352</ele>
        <time>2023-06-05T08:35:16.000Z</time>
      </trkpt>
      <trkpt lat="43.42859" lon="1.95117">
        <ele>226.39999389648</ele>
        <time>2023-06-05T08:35:22.000Z</time>
      </trkpt>
      <trkpt lat="43.42856" lon="1.95103">
        <ele>226.39999389648</ele>
        <time>2023-06-05T08:35:30.000Z</time>
      </trkpt>
      <trkpt lat="43.42853" lon="1.95091">
        <ele>226</ele>
        <time>2023-06-05T08:35:37.000Z</time>
      </trkpt>
      <trkpt lat="43.42851" lon="1.95076">
        <ele>226</ele>
        <time>2023-06-05T08:35:48.000Z</time>
      </trkpt>
      <trkpt lat="43.42849" lon="1.95067">
        <ele>225.80000305176</ele>
        <time>2023-06-05T08:35:55.000Z</time>
      </trkpt>
      <trkpt lat="43.42847" lon="1.95056">
        <ele>226</ele>
        <time>2023-06-05T08:36:03.000Z</time>
      </trkpt>
      <trkpt lat="43.42843" lon="1.95038">
        <ele>226</ele>
        <time>2023-06-05T08:36:16.000Z</time>
      </trkpt>
      <trkpt lat="43.42841" lon="1.95026">
        <ele>226</ele>
        <time>2023-06-05T08:36:24.000Z</time>
      </trkpt>
      <trkpt lat="43.42839" lon="1.95016">
        <ele>226.39999389648</ele>
        <time>2023-06-05T08:36:32.000Z</time>
      </trkpt>
      <trkpt lat="43.42835" lon="1.94999">
        <ele>226</ele>
        <time>2023-06-05T08:36:44.000Z</time>
      </trkpt>
      <trkpt lat="43.42833" lon="1.94988">
        <ele>225.80000305176</ele>
        <time>2023-06-05T08:36:53.000Z</time>
      </trkpt>
      <trkpt lat="43.42832" lon="1.94987">
        <ele>226</ele>
        <time>2023-06-05T08:36:54.000Z</time>
      </trkpt>
      <trkpt lat="43.4283" lon="1.94974">
        <ele>226.19999694824</ele>
        <time>2023-06-05T08:37:03.000Z</time>
      </trkpt>
      <trkpt lat="43.42827" lon="1.94959">
        <ele>226.39999389648</ele>
        <time>2023-06-05T08:37:13.000Z</time>
      </trkpt>
      <trkpt lat="43.42824" lon="1.94945">
        <ele>226.19999694824</ele>
        <time>2023-06-05T08:37:23.000Z</time>
      </trkpt>
      <trkpt lat="43.42822" lon="1.94927">
        <ele>226.19999694824</ele>
        <time>2023-06-05T08:37:35.000Z</time>
      </trkpt>
      <trkpt lat="43.42821" lon="1.94916">
        <ele>226.19999694824</ele>
        <time>2023-06-05T08:37:43.000Z</time>
      </trkpt>
      <trkpt lat="43.42821" lon="1.94899">
        <ele>226</ele>
        <time>2023-06-05T08:37:55.000Z</time>
      </trkpt>
      <trkpt lat="43.42821" lon="1.94884">
        <ele>226</ele>
        <time>2023-06-05T08:38:05.000Z</time>
      </trkpt>
      <trkpt lat="43.42821" lon="1.94877">
        <ele>226</ele>
        <time>2023-06-05T08:38:10.000Z</time>
      </trkpt>
      <trkpt lat="43.42821" lon="1.9487">
        <ele>225.80000305176</ele>
        <time>2023-06-05T08:38:14.000Z</time>
      </trkpt>
      <trkpt lat="43.42821" lon="1.94852">
        <ele>226</ele>
        <time>2023-06-05T08:38:26.000Z</time>
      </trkpt>
      <trkpt lat="43.42822" lon="1.94836">
        <ele>226</ele>
        <time>2023-06-05T08:38:37.000Z</time>
      </trkpt>
      <trkpt lat="43.42824" lon="1.94825">
        <ele>225.80000305176</ele>
        <time>2023-06-05T08:38:45.000Z</time>
      </trkpt>
      <trkpt lat="43.42828" lon="1.94814">
        <ele>226</ele>
        <time>2023-06-05T08:38:54.000Z</time>
      </trkpt>
      <trkpt lat="43.4283" lon="1.94807">
        <ele>226</ele>
        <time>2023-06-05T08:39:01.000Z</time>
      </trkpt>
      <trkpt lat="43.42835" lon="1.94794">
        <ele>226</ele>
        <time>2023-06-05T08:39:11.000Z</time>
      </trkpt>
      <trkpt lat="43.42842" lon="1.94782">
        <ele>226</ele>
        <time>2023-06-05T08:39:22.000Z</time>
      </trkpt>
      <trkpt lat="43.42843" lon="1.94779">
        <ele>226</ele>
        <time>2023-06-05T08:39:28.000Z</time>
      </trkpt>
      <trkpt lat="43.42846" lon="1.94775">
        <ele>225.60000610352</ele>
        <time>2023-06-05T08:39:34.000Z</time>
      </trkpt>
      <trkpt lat="43.42852" lon="1.94768">
        <ele>225.39999389648</ele>
        <time>2023-06-05T08:39:42.000Z</time>
      </trkpt>
      <trkpt lat="43.42855" lon="1.94764">
        <ele>225.39999389648</ele>
        <time>2023-06-05T08:39:46.000Z</time>
      </trkpt>
      <trkpt lat="43.42859" lon="1.94761">
        <ele>225.19999694824</ele>
        <time>2023-06-05T08:39:50.000Z</time>
      </trkpt>
      <trkpt lat="43.42868" lon="1.94754">
        <ele>225.39999389648</ele>
        <time>2023-06-05T08:40:01.000Z</time>
      </trkpt>
      <trkpt lat="43.42877" lon="1.94749">
        <ele>225.39999389648</ele>
        <time>2023-06-05T08:40:11.000Z</time>
      </trkpt>
      <trkpt lat="43.42879" lon="1.94748">
        <ele>225.60000610352</ele>
        <time>2023-06-05T08:40:19.000Z</time>
      </trkpt>
      <trkpt lat="43.42884" lon="1.94745">
        <ele>225.60000610352</ele>
        <time>2023-06-05T08:40:27.000Z</time>
      </trkpt>
      <trkpt lat="43.42895" lon="1.94739">
        <ele>225.60000610352</ele>
        <time>2023-06-05T08:40:36.000Z</time>
      </trkpt>
      <trkpt lat="43.42906" lon="1.94734">
        <ele>225.19999694824</ele>
        <time>2023-06-05T08:40:45.000Z</time>
      </trkpt>
      <trkpt lat="43.42914" lon="1.94729">
        <ele>225</ele>
        <time>2023-06-05T08:40:53.000Z</time>
      </trkpt>
      <trkpt lat="43.42923" lon="1.94723">
        <ele>225</ele>
        <time>2023-06-05T08:41:02.000Z</time>
      </trkpt>
      <trkpt lat="43.42935" lon="1.94714">
        <ele>225.19999694824</ele>
        <time>2023-06-05T08:41:14.000Z</time>
      </trkpt>
      <trkpt lat="43.42945" lon="1.94706">
        <ele>225</ele>
        <time>2023-06-05T08:41:25.000Z</time>
      </trkpt>
      <trkpt lat="43.42953" lon="1.947">
        <ele>225.19999694824</ele>
        <time>2023-06-05T08:41:33.000Z</time>
      </trkpt>
      <trkpt lat="43.4296" lon="1.94694">
        <ele>224.80000305176</ele>
        <time>2023-06-05T08:41:43.000Z</time>
      </trkpt>
      <trkpt lat="43.42961" lon="1.94693">
        <ele>224.80000305176</ele>
        <time>2023-06-05T08:41:44.000Z</time>
      </trkpt>
      <trkpt lat="43.42966" lon="1.94689">
        <ele>224.80000305176</ele>
        <time>2023-06-05T08:41:50.000Z</time>
      </trkpt>
      <trkpt lat="43.42974" lon="1.94679">
        <ele>224.80000305176</ele>
        <time>2023-06-05T08:42:01.000Z</time>
      </trkpt>
      <trkpt lat="43.4298" lon="1.94667">
        <ele>224.80000305176</ele>
        <time>2023-06-05T08:42:12.000Z</time>
      </trkpt>
      <trkpt lat="43.42985" lon="1.94652">
        <ele>224.80000305176</ele>
        <time>2023-06-05T08:42:24.000Z</time>
      </trkpt>
      <trkpt lat="43.4299" lon="1.94641">
        <ele>224.80000305176</ele>
        <time>2023-06-05T08:42:33.000Z</time>
      </trkpt>
      <trkpt lat="43.42998" lon="1.94627">
        <ele>224.60000610352</ele>
        <time>2023-06-05T08:42:45.000Z</time>
      </trkpt>
      <trkpt lat="43.43003" lon="1.94616">
        <ele>224.60000610352</ele>
        <time>2023-06-05T08:42:54.000Z</time>
      </trkpt>
      <trkpt lat="43.43009" lon="1.94605">
        <ele>224.39999389648</ele>
        <time>2023-06-05T08:43:04.000Z</time>
      </trkpt>
      <trkpt lat="43.4301" lon="1.94603">
        <ele>224.60000610352</ele>
        <time>2023-06-05T08:43:08.000Z</time>
      </trkpt>
      <trkpt lat="43.43011" lon="1.94601">
        <ele>224.80000305176</ele>
        <time>2023-06-05T08:43:10.000Z</time>
      </trkpt>
      <trkpt lat="43.43016" lon="1.94593">
        <ele>224.80000305176</ele>
        <time>2023-06-05T08:43:18.000Z</time>
      </trkpt>
      <trkpt lat="43.43018" lon="1.94589">
        <ele>224.80000305176</ele>
        <time>2023-06-05T08:43:21.000Z</time>
      </trkpt>
      <trkpt lat="43.4302" lon="1.94585">
        <ele>225</ele>
        <time>2023-06-05T08:43:26.000Z</time>
      </trkpt>
      <trkpt lat="43.43024" lon="1.94578">
        <ele>224.80000305176</ele>
        <time>2023-06-05T08:43:33.000Z</time>
      </trkpt>
      <trkpt lat="43.43025" lon="1.94576">
        <ele>224.80000305176</ele>
        <time>2023-06-05T08:43:34.000Z</time>
      </trkpt>
      <trkpt lat="43.43025" lon="1.94574">
        <ele>225</ele>
        <time>2023-06-05T08:43:36.000Z</time>
      </trkpt>
      <trkpt lat="43.43028" lon="1.94568">
        <ele>225.19999694824</ele>
        <time>2023-06-05T08:43:42.000Z</time>
      </trkpt>
      <trkpt lat="43.4303" lon="1.94563">
        <ele>225.39999389648</ele>
        <time>2023-06-05T08:43:48.000Z</time>
      </trkpt>
      <trkpt lat="43.43033" lon="1.94554">
        <ele>225.39999389648</ele>
        <time>2023-06-05T08:43:56.000Z</time>
      </trkpt>
      <trkpt lat="43.43034" lon="1.94551">
        <ele>225.39999389648</ele>
        <time>2023-06-05T08:43:58.000Z</time>
      </trkpt>
      <trkpt lat="43.43035" lon="1.94547">
        <ele>225.60000610352</ele>
        <time>2023-06-05T08:44:02.000Z</time>
      </trkpt>
      <trkpt lat="43.43035" lon="1.94546">
        <ele>225.80000305176</ele>
        <time>2023-06-05T08:44:03.000Z</time>
      </trkpt>
      <trkpt lat="43.43035" lon="1.94544">
        <ele>225.80000305176</ele>
        <time>2023-06-05T08:44:04.000Z</time>
      </trkpt>
      <trkpt lat="43.43036" lon="1.94541">
        <ele>225.80000305176</ele>
        <time>2023-06-05T08:44:07.000Z</time>
      </trkpt>
      <trkpt lat="43.43037" lon="1.94537">
        <ele>225.80000305176</ele>
        <time>2023-06-05T08:44:11.000Z</time>
      </trkpt>
      <trkpt lat="43.43039" lon="1.94519">
        <ele>225.80000305176</ele>
        <time>2023-06-05T08:44:23.000Z</time>
      </trkpt>
      <trkpt lat="43.43043" lon="1.94507">
        <ele>225.39999389648</ele>
        <time>2023-06-05T08:44:31.000Z</time>
      </trkpt>
      <trkpt lat="43.43046" lon="1.94492">
        <ele>225.19999694824</ele>
        <time>2023-06-05T08:44:41.000Z</time>
      </trkpt>
      <trkpt lat="43.43048" lon="1.94477">
        <ele>225.19999694824</ele>
        <time>2023-06-05T08:44:51.000Z</time>
      </trkpt>
      <trkpt lat="43.43051" lon="1.94461">
        <ele>225.19999694824</ele>
        <time>2023-06-05T08:45:01.000Z</time>
      </trkpt>
      <trkpt lat="43.43054" lon="1.94449">
        <ele>225.39999389648</ele>
        <time>2023-06-05T08:45:10.000Z</time>
      </trkpt>
      <trkpt lat="43.43053" lon="1.94445">
        <ele>225.19999694824</ele>
        <time>2023-06-05T08:45:17.000Z</time>
      </trkpt>
      <trkpt lat="43.43054" lon="1.94434">
        <ele>225.19999694824</ele>
        <time>2023-06-05T08:45:25.000Z</time>
      </trkpt>
      <trkpt lat="43.43054" lon="1.94429">
        <ele>225.19999694824</ele>
        <time>2023-06-05T08:45:33.000Z</time>
      </trkpt>
      <trkpt lat="43.43054" lon="1.94421">
        <ele>225.19999694824</ele>
        <time>2023-06-05T08:45:38.000Z</time>
      </trkpt>
      <trkpt lat="43.43055" lon="1.94414">
        <ele>225.19999694824</ele>
        <time>2023-06-05T08:45:43.000Z</time>
      </trkpt>
      <trkpt lat="43.43055" lon="1.94414">
        <ele>225</ele>
        <time>2023-06-05T08:45:45.000Z</time>
      </trkpt>
      <trkpt lat="43.43054" lon="1.94415">
        <ele>225.19999694824</ele>
        <time>2023-06-05T08:46:00.000Z</time>
      </trkpt>
      <trkpt lat="43.43054" lon="1.94405">
        <ele>225</ele>
        <time>2023-06-05T08:46:15.000Z</time>
      </trkpt>
      <trkpt lat="43.43053" lon="1.94395">
        <ele>225</ele>
        <time>2023-06-05T08:46:22.000Z</time>
      </trkpt>
      <trkpt lat="43.43055" lon="1.94384">
        <ele>224.80000305176</ele>
        <time>2023-06-05T08:46:29.000Z</time>
      </trkpt>
      <trkpt lat="43.43057" lon="1.94369">
        <ele>224.80000305176</ele>
        <time>2023-06-05T08:46:38.000Z</time>
      </trkpt>
      <trkpt lat="43.43061" lon="1.94349">
        <ele>224.80000305176</ele>
        <time>2023-06-05T08:46:49.000Z</time>
      </trkpt>
      <trkpt lat="43.43061" lon="1.94348">
        <ele>224.80000305176</ele>
        <time>2023-06-05T08:46:50.000Z</time>
      </trkpt>
      <trkpt lat="43.43062" lon="1.94342">
        <ele>224.80000305176</ele>
        <time>2023-06-05T08:46:53.000Z</time>
      </trkpt>
      <trkpt lat="43.43063" lon="1.9434">
        <ele>224.80000305176</ele>
        <time>2023-06-05T08:46:55.000Z</time>
      </trkpt>
      <trkpt lat="43.43063" lon="1.94337">
        <ele>224.80000305176</ele>
        <time>2023-06-05T08:46:57.000Z</time>
      </trkpt>
      <trkpt lat="43.43064" lon="1.94332">
        <ele>224.80000305176</ele>
        <time>2023-06-05T08:47:00.000Z</time>
      </trkpt>
      <trkpt lat="43.43064" lon="1.94331">
        <ele>224.80000305176</ele>
        <time>2023-06-05T08:47:01.000Z</time>
      </trkpt>
      <trkpt lat="43.43065" lon="1.94325">
        <ele>224.60000610352</ele>
        <time>2023-06-05T08:47:04.000Z</time>
      </trkpt>
      <trkpt lat="43.43065" lon="1.9432">
        <ele>224.80000305176</ele>
        <time>2023-06-05T08:47:07.000Z</time>
      </trkpt>
      <trkpt lat="43.43068" lon="1.94307">
        <ele>224.60000610352</ele>
        <time>2023-06-05T08:47:15.000Z</time>
      </trkpt>
      <trkpt lat="43.43069" lon="1.94297">
        <ele>224.60000610352</ele>
        <time>2023-06-05T08:47:20.000Z</time>
      </trkpt>
      <trkpt lat="43.43072" lon="1.9428">
        <ele>224.60000610352</ele>
        <time>2023-06-05T08:47:29.000Z</time>
      </trkpt>
      <trkpt lat="43.43074" lon="1.94263">
        <ele>224.60000610352</ele>
        <time>2023-06-05T08:47:38.000Z</time>
      </trkpt>
      <trkpt lat="43.43075" lon="1.94246">
        <ele>224.60000610352</ele>
        <time>2023-06-05T08:47:47.000Z</time>
      </trkpt>
      <trkpt lat="43.43075" lon="1.94227">
        <ele>224.60000610352</ele>
        <time>2023-06-05T08:47:56.000Z</time>
      </trkpt>
      <trkpt lat="43.43074" lon="1.94211">
        <ele>224.60000610352</ele>
        <time>2023-06-05T08:48:06.000Z</time>
      </trkpt>
      <trkpt lat="43.43073" lon="1.94198">
        <ele>224.39999389648</ele>
        <time>2023-06-05T08:48:15.000Z</time>
      </trkpt>
      <trkpt lat="43.43073" lon="1.94184">
        <ele>224.60000610352</ele>
        <time>2023-06-05T08:48:24.000Z</time>
      </trkpt>
      <trkpt lat="43.43072" lon="1.94169">
        <ele>224.60000610352</ele>
        <time>2023-06-05T08:48:33.000Z</time>
      </trkpt>
      <trkpt lat="43.43072" lon="1.94165">
        <ele>224.39999389648</ele>
        <time>2023-06-05T08:48:35.000Z</time>
      </trkpt>
      <trkpt lat="43.43071" lon="1.94163">
        <ele>224.39999389648</ele>
        <time>2023-06-05T08:48:37.000Z</time>
      </trkpt>
      <trkpt lat="43.43071" lon="1.94158">
        <ele>224.39999389648</ele>
        <time>2023-06-05T08:48:40.000Z</time>
      </trkpt>
      <trkpt lat="43.4307" lon="1.94144">
        <ele>224.39999389648</ele>
        <time>2023-06-05T08:48:49.000Z</time>
      </trkpt>
      <trkpt lat="43.4307" lon="1.9413">
        <ele>224.39999389648</ele>
        <time>2023-06-05T08:48:58.000Z</time>
      </trkpt>
      <trkpt lat="43.4307" lon="1.94122">
        <ele>224.39999389648</ele>
        <time>2023-06-05T08:49:05.000Z</time>
      </trkpt>
      <trkpt lat="43.43069" lon="1.94114">
        <ele>224.80000305176</ele>
        <time>2023-06-05T08:49:13.000Z</time>
      </trkpt>
      <trkpt lat="43.43068" lon="1.94099">
        <ele>224.39999389648</ele>
        <time>2023-06-05T08:49:23.000Z</time>
      </trkpt>
      <trkpt lat="43.43065" lon="1.94085">
        <ele>224.60000610352</ele>
        <time>2023-06-05T08:49:33.000Z</time>
      </trkpt>
      <trkpt lat="43.43064" lon="1.94083">
        <ele>224.60000610352</ele>
        <time>2023-06-05T08:49:39.000Z</time>
      </trkpt>
      <trkpt lat="43.43061" lon="1.94077">
        <ele>224.80000305176</ele>
        <time>2023-06-05T08:49:45.000Z</time>
      </trkpt>
      <trkpt lat="43.43052" lon="1.94066">
        <ele>224.39999389648</ele>
        <time>2023-06-05T08:49:56.000Z</time>
      </trkpt>
      <trkpt lat="43.43044" lon="1.9406">
        <ele>224.60000610352</ele>
        <time>2023-06-05T08:50:05.000Z</time>
      </trkpt>
      <trkpt lat="43.43039" lon="1.94057">
        <ele>224.60000610352</ele>
        <time>2023-06-05T08:50:14.000Z</time>
      </trkpt>
      <trkpt lat="43.43032" lon="1.94055">
        <ele>224.19999694824</ele>
        <time>2023-06-05T08:50:21.000Z</time>
      </trkpt>
      <trkpt lat="43.43029" lon="1.94053">
        <ele>224.19999694824</ele>
        <time>2023-06-05T08:50:25.000Z</time>
      </trkpt>
      <trkpt lat="43.43027" lon="1.94052">
        <ele>224.19999694824</ele>
        <time>2023-06-05T08:50:27.000Z</time>
      </trkpt>
      <trkpt lat="43.43022" lon="1.94048">
        <ele>224.39999389648</ele>
        <time>2023-06-05T08:50:33.000Z</time>
      </trkpt>
      <trkpt lat="43.43015" lon="1.94042">
        <ele>224.39999389648</ele>
        <time>2023-06-05T08:50:41.000Z</time>
      </trkpt>
      <trkpt lat="43.43009" lon="1.94032">
        <ele>224.19999694824</ele>
        <time>2023-06-05T08:50:50.000Z</time>
      </trkpt>
      <trkpt lat="43.43008" lon="1.94028">
        <ele>224.19999694824</ele>
        <time>2023-06-05T08:50:53.000Z</time>
      </trkpt>
      <trkpt lat="43.43008" lon="1.94024">
        <ele>224</ele>
        <time>2023-06-05T08:50:57.000Z</time>
      </trkpt>
      <trkpt lat="43.43007" lon="1.9402">
        <ele>224</ele>
        <time>2023-06-05T08:51:00.000Z</time>
      </trkpt>
      <trkpt lat="43.43005" lon="1.94017">
        <ele>224</ele>
        <time>2023-06-05T08:51:02.000Z</time>
      </trkpt>
      <trkpt lat="43.43003" lon="1.94006">
        <ele>224</ele>
        <time>2023-06-05T08:51:10.000Z</time>
      </trkpt>
      <trkpt lat="43.43" lon="1.93994">
        <ele>224</ele>
        <time>2023-06-05T08:51:19.000Z</time>
      </trkpt>
      <trkpt lat="43.42998" lon="1.93981">
        <ele>224</ele>
        <time>2023-06-05T08:51:29.000Z</time>
      </trkpt>
      <trkpt lat="43.42996" lon="1.93966">
        <ele>224</ele>
        <time>2023-06-05T08:51:39.000Z</time>
      </trkpt>
      <trkpt lat="43.42994" lon="1.9395">
        <ele>223.80000305176</ele>
        <time>2023-06-05T08:51:50.000Z</time>
      </trkpt>
      <trkpt lat="43.42992" lon="1.93935">
        <ele>223.80000305176</ele>
        <time>2023-06-05T08:52:00.000Z</time>
      </trkpt>
      <trkpt lat="43.42989" lon="1.93919">
        <ele>224.19999694824</ele>
        <time>2023-06-05T08:52:11.000Z</time>
      </trkpt>
      <trkpt lat="43.42985" lon="1.93903">
        <ele>224</ele>
        <time>2023-06-05T08:52:22.000Z</time>
      </trkpt>
      <trkpt lat="43.42982" lon="1.93891">
        <ele>224</ele>
        <time>2023-06-05T08:52:30.000Z</time>
      </trkpt>
      <trkpt lat="43.42981" lon="1.9388">
        <ele>224.19999694824</ele>
        <time>2023-06-05T08:52:38.000Z</time>
      </trkpt>
      <trkpt lat="43.42977" lon="1.93864">
        <ele>223.80000305176</ele>
        <time>2023-06-05T08:52:49.000Z</time>
      </trkpt>
      <trkpt lat="43.42974" lon="1.93852">
        <ele>223.80000305176</ele>
        <time>2023-06-05T08:52:58.000Z</time>
      </trkpt>
      <trkpt lat="43.42973" lon="1.93846">
        <ele>223.80000305176</ele>
        <time>2023-06-05T08:53:02.000Z</time>
      </trkpt>
      <trkpt lat="43.42971" lon="1.93842">
        <ele>223.80000305176</ele>
        <time>2023-06-05T08:53:05.000Z</time>
      </trkpt>
      <trkpt lat="43.4297" lon="1.93832">
        <ele>224</ele>
        <time>2023-06-05T08:53:12.000Z</time>
      </trkpt>
      <trkpt lat="43.42966" lon="1.93822">
        <ele>224.19999694824</ele>
        <time>2023-06-05T08:53:21.000Z</time>
      </trkpt>
      <trkpt lat="43.42962" lon="1.9381">
        <ele>224.19999694824</ele>
        <time>2023-06-05T08:53:29.000Z</time>
      </trkpt>
      <trkpt lat="43.42959" lon="1.93799">
        <ele>224.39999389648</ele>
        <time>2023-06-05T08:53:36.000Z</time>
      </trkpt>
      <trkpt lat="43.42958" lon="1.93798">
        <ele>224.39999389648</ele>
        <time>2023-06-05T08:53:37.000Z</time>
      </trkpt>
      <trkpt lat="43.42955" lon="1.93787">
        <ele>224.19999694824</ele>
        <time>2023-06-05T08:53:45.000Z</time>
      </trkpt>
      <trkpt lat="43.42952" lon="1.93776">
        <ele>223.80000305176</ele>
        <time>2023-06-05T08:53:53.000Z</time>
      </trkpt>
      <trkpt lat="43.42947" lon="1.93762">
        <ele>224</ele>
        <time>2023-06-05T08:54:03.000Z</time>
      </trkpt>
      <trkpt lat="43.42945" lon="1.9375">
        <ele>224</ele>
        <time>2023-06-05T08:54:11.000Z</time>
      </trkpt>
      <trkpt lat="43.4294" lon="1.93739">
        <ele>224</ele>
        <time>2023-06-05T08:54:20.000Z</time>
      </trkpt>
      <trkpt lat="43.42935" lon="1.93729">
        <ele>224.19999694824</ele>
        <time>2023-06-05T08:54:29.000Z</time>
      </trkpt>
      <trkpt lat="43.42929" lon="1.93718">
        <ele>223.80000305176</ele>
        <time>2023-06-05T08:54:38.000Z</time>
      </trkpt>
      <trkpt lat="43.42923" lon="1.93706">
        <ele>224</ele>
        <time>2023-06-05T08:54:48.000Z</time>
      </trkpt>
      <trkpt lat="43.42919" lon="1.93696">
        <ele>224.19999694824</ele>
        <time>2023-06-05T08:54:56.000Z</time>
      </trkpt>
      <trkpt lat="43.42913" lon="1.93685">
        <ele>224.19999694824</ele>
        <time>2023-06-05T08:55:06.000Z</time>
      </trkpt>
      <trkpt lat="43.42909" lon="1.93676">
        <ele>224.19999694824</ele>
        <time>2023-06-05T08:55:14.000Z</time>
      </trkpt>
      <trkpt lat="43.42905" lon="1.93669">
        <ele>224</ele>
        <time>2023-06-05T08:55:22.000Z</time>
      </trkpt>
      <trkpt lat="43.42899" lon="1.93658">
        <ele>224</ele>
        <time>2023-06-05T08:55:30.000Z</time>
      </trkpt>
      <trkpt lat="43.42891" lon="1.93645">
        <ele>223.80000305176</ele>
        <time>2023-06-05T08:55:40.000Z</time>
      </trkpt>
      <trkpt lat="43.42891" lon="1.93644">
        <ele>223.80000305176</ele>
        <time>2023-06-05T08:55:41.000Z</time>
      </trkpt>
      <trkpt lat="43.42885" lon="1.93634">
        <ele>223.80000305176</ele>
        <time>2023-06-05T08:55:50.000Z</time>
      </trkpt>
      <trkpt lat="43.42884" lon="1.93631">
        <ele>223.80000305176</ele>
        <time>2023-06-05T08:55:53.000Z</time>
      </trkpt>
      <trkpt lat="43.42881" lon="1.93627">
        <ele>223.80000305176</ele>
        <time>2023-06-05T08:55:57.000Z</time>
      </trkpt>
      <trkpt lat="43.42877" lon="1.93617">
        <ele>223.60000610352</ele>
        <time>2023-06-05T08:56:05.000Z</time>
      </trkpt>
      <trkpt lat="43.42876" lon="1.93615">
        <ele>223.60000610352</ele>
        <time>2023-06-05T08:56:06.000Z</time>
      </trkpt>
      <trkpt lat="43.42871" lon="1.93601">
        <ele>223.19999694824</ele>
        <time>2023-06-05T08:56:16.000Z</time>
      </trkpt>
      <trkpt lat="43.42869" lon="1.93597">
        <ele>223</ele>
        <time>2023-06-05T08:56:19.000Z</time>
      </trkpt>
      <trkpt lat="43.42869" lon="1.93593">
        <ele>223</ele>
        <time>2023-06-05T08:56:22.000Z</time>
      </trkpt>
      <trkpt lat="43.42867" lon="1.93586">
        <ele>223.39999389648</ele>
        <time>2023-06-05T08:56:26.000Z</time>
      </trkpt>
      <trkpt lat="43.42866" lon="1.93572">
        <ele>223.19999694824</ele>
        <time>2023-06-05T08:56:35.000Z</time>
      </trkpt>
      <trkpt lat="43.42867" lon="1.93558">
        <ele>223.60000610352</ele>
        <time>2023-06-05T08:56:45.000Z</time>
      </trkpt>
      <trkpt lat="43.4287" lon="1.93547">
        <ele>223.60000610352</ele>
        <time>2023-06-05T08:56:54.000Z</time>
      </trkpt>
      <trkpt lat="43.42872" lon="1.93541">
        <ele>223.39999389648</ele>
        <time>2023-06-05T08:56:59.000Z</time>
      </trkpt>
      <trkpt lat="43.42874" lon="1.93535">
        <ele>223.39999389648</ele>
        <time>2023-06-05T08:57:04.000Z</time>
      </trkpt>
      <trkpt lat="43.42877" lon="1.93521">
        <ele>223.39999389648</ele>
        <time>2023-06-05T08:57:14.000Z</time>
      </trkpt>
      <trkpt lat="43.42877" lon="1.93521">
        <ele>223.39999389648</ele>
        <time>2023-06-05T08:57:22.000Z</time>
      </trkpt>
      <trkpt lat="43.42879" lon="1.93511">
        <ele>223.19999694824</ele>
        <time>2023-06-05T08:57:32.000Z</time>
      </trkpt>
      <trkpt lat="43.42881" lon="1.93502">
        <ele>223</ele>
        <time>2023-06-05T08:57:38.000Z</time>
      </trkpt>
      <trkpt lat="43.42885" lon="1.93489">
        <ele>223.19999694824</ele>
        <time>2023-06-05T08:57:47.000Z</time>
      </trkpt>
      <trkpt lat="43.42889" lon="1.93476">
        <ele>223.19999694824</ele>
        <time>2023-06-05T08:57:55.000Z</time>
      </trkpt>
      <trkpt lat="43.42892" lon="1.93457">
        <ele>223.19999694824</ele>
        <time>2023-06-05T08:58:06.000Z</time>
      </trkpt>
      <trkpt lat="43.42893" lon="1.93446">
        <ele>223.19999694824</ele>
        <time>2023-06-05T08:58:13.000Z</time>
      </trkpt>
      <trkpt lat="43.42894" lon="1.93431">
        <ele>223</ele>
        <time>2023-06-05T08:58:22.000Z</time>
      </trkpt>
      <trkpt lat="43.42893" lon="1.93417">
        <ele>223</ele>
        <time>2023-06-05T08:58:30.000Z</time>
      </trkpt>
      <trkpt lat="43.4289" lon="1.93396">
        <ele>223</ele>
        <time>2023-06-05T08:58:43.000Z</time>
      </trkpt>
      <trkpt lat="43.42888" lon="1.93381">
        <ele>223</ele>
        <time>2023-06-05T08:58:53.000Z</time>
      </trkpt>
      <trkpt lat="43.42887" lon="1.93366">
        <ele>222.80000305176</ele>
        <time>2023-06-05T08:59:03.000Z</time>
      </trkpt>
      <trkpt lat="43.42885" lon="1.93352">
        <ele>223</ele>
        <time>2023-06-05T08:59:13.000Z</time>
      </trkpt>
      <trkpt lat="43.42882" lon="1.9334">
        <ele>223</ele>
        <time>2023-06-05T08:59:23.000Z</time>
      </trkpt>
      <trkpt lat="43.4288" lon="1.93336">
        <ele>223</ele>
        <time>2023-06-05T08:59:27.000Z</time>
      </trkpt>
      <trkpt lat="43.42879" lon="1.93332">
        <ele>223</ele>
        <time>2023-06-05T08:59:30.000Z</time>
      </trkpt>
      <trkpt lat="43.42875" lon="1.93323">
        <ele>223</ele>
        <time>2023-06-05T08:59:38.000Z</time>
      </trkpt>
      <trkpt lat="43.42872" lon="1.93313">
        <ele>222.80000305176</ele>
        <time>2023-06-05T08:59:46.000Z</time>
      </trkpt>
      <trkpt lat="43.42871" lon="1.93311">
        <ele>222.80000305176</ele>
        <time>2023-06-05T08:59:47.000Z</time>
      </trkpt>
      <trkpt lat="43.42866" lon="1.93298">
        <ele>223</ele>
        <time>2023-06-05T08:59:57.000Z</time>
      </trkpt>
      <trkpt lat="43.42863" lon="1.9329">
        <ele>223.19999694824</ele>
        <time>2023-06-05T09:00:03.000Z</time>
      </trkpt>
      <trkpt lat="43.42861" lon="1.93281">
        <ele>223.19999694824</ele>
        <time>2023-06-05T09:00:09.000Z</time>
      </trkpt>
      <trkpt lat="43.4286" lon="1.93274">
        <ele>223.39999389648</ele>
        <time>2023-06-05T09:00:14.000Z</time>
      </trkpt>
      <trkpt lat="43.4286" lon="1.93271">
        <ele>223.19999694824</ele>
        <time>2023-06-05T09:00:16.000Z</time>
      </trkpt>
      <trkpt lat="43.42862" lon="1.93259">
        <ele>223.19999694824</ele>
        <time>2023-06-05T09:00:24.000Z</time>
      </trkpt>
      <trkpt lat="43.42867" lon="1.93245">
        <ele>223.19999694824</ele>
        <time>2023-06-05T09:00:34.000Z</time>
      </trkpt>
      <trkpt lat="43.4287" lon="1.93231">
        <ele>222.80000305176</ele>
        <time>2023-06-05T09:00:43.000Z</time>
      </trkpt>
      <trkpt lat="43.42873" lon="1.93221">
        <ele>222.60000610352</ele>
        <time>2023-06-05T09:00:50.000Z</time>
      </trkpt>
      <trkpt lat="43.42875" lon="1.93213">
        <ele>222.60000610352</ele>
        <time>2023-06-05T09:00:56.000Z</time>
      </trkpt>
      <trkpt lat="43.42875" lon="1.93212">
        <ele>222.60000610352</ele>
        <time>2023-06-05T09:00:58.000Z</time>
      </trkpt>
      <trkpt lat="43.42876" lon="1.93202">
        <ele>222.60000610352</ele>
        <time>2023-06-05T09:01:04.000Z</time>
      </trkpt>
      <trkpt lat="43.42877" lon="1.93196">
        <ele>222.39999389648</ele>
        <time>2023-06-05T09:01:08.000Z</time>
      </trkpt>
      <trkpt lat="43.42876" lon="1.93193">
        <ele>222.39999389648</ele>
        <time>2023-06-05T09:01:10.000Z</time>
      </trkpt>
      <trkpt lat="43.42877" lon="1.93181">
        <ele>222.60000610352</ele>
        <time>2023-06-05T09:01:17.000Z</time>
      </trkpt>
      <trkpt lat="43.42877" lon="1.93174">
        <ele>222.19999694824</ele>
        <time>2023-06-05T09:01:23.000Z</time>
      </trkpt>
      <trkpt lat="43.42877" lon="1.93172">
        <ele>222.19999694824</ele>
        <time>2023-06-05T09:01:24.000Z</time>
      </trkpt>
      <trkpt lat="43.42876" lon="1.93162">
        <ele>222.60000610352</ele>
        <time>2023-06-05T09:01:30.000Z</time>
      </trkpt>
      <trkpt lat="43.42877" lon="1.93153">
        <ele>222.60000610352</ele>
        <time>2023-06-05T09:01:36.000Z</time>
      </trkpt>
      <trkpt lat="43.42878" lon="1.9314">
        <ele>222.19999694824</ele>
        <time>2023-06-05T09:01:44.000Z</time>
      </trkpt>
      <trkpt lat="43.4288" lon="1.93129">
        <ele>222.39999389648</ele>
        <time>2023-06-05T09:01:52.000Z</time>
      </trkpt>
      <trkpt lat="43.42883" lon="1.93118">
        <ele>222.39999389648</ele>
        <time>2023-06-05T09:01:59.000Z</time>
      </trkpt>
      <trkpt lat="43.42888" lon="1.93108">
        <ele>222.39999389648</ele>
        <time>2023-06-05T09:02:07.000Z</time>
      </trkpt>
      <trkpt lat="43.42893" lon="1.93099">
        <ele>222.39999389648</ele>
        <time>2023-06-05T09:02:14.000Z</time>
      </trkpt>
      <trkpt lat="43.42895" lon="1.93094">
        <ele>222.39999389648</ele>
        <time>2023-06-05T09:02:18.000Z</time>
      </trkpt>
      <trkpt lat="43.42895" lon="1.93096">
        <ele>222.19999694824</ele>
        <time>2023-06-05T09:02:21.000Z</time>
      </trkpt>
      <trkpt lat="43.42898" lon="1.9309">
        <ele>222.39999389648</ele>
        <time>2023-06-05T09:02:29.000Z</time>
      </trkpt>
      <trkpt lat="43.42904" lon="1.93079">
        <ele>222</ele>
        <time>2023-06-05T09:02:38.000Z</time>
      </trkpt>
      <trkpt lat="43.42911" lon="1.93067">
        <ele>222</ele>
        <time>2023-06-05T09:02:46.000Z</time>
      </trkpt>
      <trkpt lat="43.42917" lon="1.93055">
        <ele>221.80000305176</ele>
        <time>2023-06-05T09:02:54.000Z</time>
      </trkpt>
      <trkpt lat="43.42923" lon="1.93043">
        <ele>222</ele>
        <time>2023-06-05T09:03:03.000Z</time>
      </trkpt>
      <trkpt lat="43.42927" lon="1.93036">
        <ele>222.19999694824</ele>
        <time>2023-06-05T09:03:09.000Z</time>
      </trkpt>
      <trkpt lat="43.42932" lon="1.93028">
        <ele>222.19999694824</ele>
        <time>2023-06-05T09:03:16.000Z</time>
      </trkpt>
      <trkpt lat="43.42939" lon="1.93015">
        <ele>222</ele>
        <time>2023-06-05T09:03:26.000Z</time>
      </trkpt>
      <trkpt lat="43.42943" lon="1.93009">
        <ele>222</ele>
        <time>2023-06-05T09:03:31.000Z</time>
      </trkpt>
      <trkpt lat="43.42946" lon="1.93005">
        <ele>222</ele>
        <time>2023-06-05T09:03:34.000Z</time>
      </trkpt>
      <trkpt lat="43.42949" lon="1.92999">
        <ele>222</ele>
        <time>2023-06-05T09:03:40.000Z</time>
      </trkpt>
      <trkpt lat="43.42954" lon="1.9299">
        <ele>222</ele>
        <time>2023-06-05T09:03:47.000Z</time>
      </trkpt>
      <trkpt lat="43.4296" lon="1.9298">
        <ele>221.80000305176</ele>
        <time>2023-06-05T09:03:55.000Z</time>
      </trkpt>
      <trkpt lat="43.42965" lon="1.92972">
        <ele>221.80000305176</ele>
        <time>2023-06-05T09:04:02.000Z</time>
      </trkpt>
      <trkpt lat="43.42966" lon="1.9297">
        <ele>221.80000305176</ele>
        <time>2023-06-05T09:04:04.000Z</time>
      </trkpt>
      <trkpt lat="43.42974" lon="1.92957">
        <ele>222</ele>
        <time>2023-06-05T09:04:15.000Z</time>
      </trkpt>
      <trkpt lat="43.42976" lon="1.92953">
        <ele>222</ele>
        <time>2023-06-05T09:04:18.000Z</time>
      </trkpt>
      <trkpt lat="43.42978" lon="1.92949">
        <ele>222</ele>
        <time>2023-06-05T09:04:21.000Z</time>
      </trkpt>
      <trkpt lat="43.42979" lon="1.92948">
        <ele>222</ele>
        <time>2023-06-05T09:04:22.000Z</time>
      </trkpt>
      <trkpt lat="43.42984" lon="1.92937">
        <ele>222.39999389648</ele>
        <time>2023-06-05T09:04:30.000Z</time>
      </trkpt>
      <trkpt lat="43.42991" lon="1.92927">
        <ele>222.60000610352</ele>
        <time>2023-06-05T09:04:39.000Z</time>
      </trkpt>
      <trkpt lat="43.42996" lon="1.92918">
        <ele>222.80000305176</ele>
        <time>2023-06-05T09:04:46.000Z</time>
      </trkpt>
      <trkpt lat="43.43" lon="1.9291">
        <ele>222.80000305176</ele>
        <time>2023-06-05T09:04:52.000Z</time>
      </trkpt>
      <trkpt lat="43.43009" lon="1.92898">
        <ele>222.80000305176</ele>
        <time>2023-06-05T09:05:02.000Z</time>
      </trkpt>
      <trkpt lat="43.43009" lon="1.92897">
        <ele>222.80000305176</ele>
        <time>2023-06-05T09:05:03.000Z</time>
      </trkpt>
      <trkpt lat="43.43015" lon="1.92887">
        <ele>223</ele>
        <time>2023-06-05T09:05:11.000Z</time>
      </trkpt>
      <trkpt lat="43.43015" lon="1.92886">
        <ele>223</ele>
        <time>2023-06-05T09:05:12.000Z</time>
      </trkpt>
      <trkpt lat="43.43019" lon="1.92881">
        <ele>223</ele>
        <time>2023-06-05T09:05:17.000Z</time>
      </trkpt>
      <trkpt lat="43.4302" lon="1.9288">
        <ele>223.19999694824</ele>
        <time>2023-06-05T09:05:22.000Z</time>
      </trkpt>
      <trkpt lat="43.43021" lon="1.92879">
        <ele>223.19999694824</ele>
        <time>2023-06-05T09:05:23.000Z</time>
      </trkpt>
      <trkpt lat="43.43028" lon="1.92869">
        <ele>223</ele>
        <time>2023-06-05T09:05:31.000Z</time>
      </trkpt>
      <trkpt lat="43.43034" lon="1.92859">
        <ele>223.19999694824</ele>
        <time>2023-06-05T09:05:39.000Z</time>
      </trkpt>
      <trkpt lat="43.43039" lon="1.92849">
        <ele>223.19999694824</ele>
        <time>2023-06-05T09:05:47.000Z</time>
      </trkpt>
      <trkpt lat="43.43042" lon="1.92841">
        <ele>223.19999694824</ele>
        <time>2023-06-05T09:05:53.000Z</time>
      </trkpt>
      <trkpt lat="43.43043" lon="1.9284">
        <ele>223.19999694824</ele>
        <time>2023-06-05T09:05:54.000Z</time>
      </trkpt>
      <trkpt lat="43.43047" lon="1.92829">
        <ele>223.39999389648</ele>
        <time>2023-06-05T09:06:03.000Z</time>
      </trkpt>
      <trkpt lat="43.43048" lon="1.92823">
        <ele>223.60000610352</ele>
        <time>2023-06-05T09:06:07.000Z</time>
      </trkpt>
      <trkpt lat="43.43048" lon="1.92821">
        <ele>223.80000305176</ele>
        <time>2023-06-05T09:06:09.000Z</time>
      </trkpt>
      <trkpt lat="43.43049" lon="1.92815">
        <ele>223.80000305176</ele>
        <time>2023-06-05T09:06:13.000Z</time>
      </trkpt>
      <trkpt lat="43.4305" lon="1.92806">
        <ele>224</ele>
        <time>2023-06-05T09:06:19.000Z</time>
      </trkpt>
      <trkpt lat="43.43051" lon="1.92803">
        <ele>224</ele>
        <time>2023-06-05T09:06:22.000Z</time>
      </trkpt>
      <trkpt lat="43.43052" lon="1.92795">
        <ele>224</ele>
        <time>2023-06-05T09:06:28.000Z</time>
      </trkpt>
      <trkpt lat="43.43052" lon="1.9279">
        <ele>224</ele>
        <time>2023-06-05T09:06:33.000Z</time>
      </trkpt>
      <trkpt lat="43.43052" lon="1.92788">
        <ele>224</ele>
        <time>2023-06-05T09:06:34.000Z</time>
      </trkpt>
      <trkpt lat="43.43052" lon="1.92781">
        <ele>224</ele>
        <time>2023-06-05T09:06:40.000Z</time>
      </trkpt>
      <trkpt lat="43.43051" lon="1.92774">
        <ele>223.80000305176</ele>
        <time>2023-06-05T09:06:45.000Z</time>
      </trkpt>
      <trkpt lat="43.43051" lon="1.92773">
        <ele>223.60000610352</ele>
        <time>2023-06-05T09:06:46.000Z</time>
      </trkpt>
      <trkpt lat="43.4305" lon="1.92767">
        <ele>223.60000610352</ele>
        <time>2023-06-05T09:06:50.000Z</time>
      </trkpt>
      <trkpt lat="43.43048" lon="1.92759">
        <ele>223.19999694824</ele>
        <time>2023-06-05T09:06:59.000Z</time>
      </trkpt>
      <trkpt lat="43.43047" lon="1.92748">
        <ele>223.19999694824</ele>
        <time>2023-06-05T09:07:09.000Z</time>
      </trkpt>
      <trkpt lat="43.43046" lon="1.92737">
        <ele>223</ele>
        <time>2023-06-05T09:07:16.000Z</time>
      </trkpt>
      <trkpt lat="43.43044" lon="1.92724">
        <ele>223</ele>
        <time>2023-06-05T09:07:24.000Z</time>
      </trkpt>
      <trkpt lat="43.43044" lon="1.92723">
        <ele>222.80000305176</ele>
        <time>2023-06-05T09:07:25.000Z</time>
      </trkpt>
      <trkpt lat="43.43045" lon="1.92717">
        <ele>222.80000305176</ele>
        <time>2023-06-05T09:07:29.000Z</time>
      </trkpt>
      <trkpt lat="43.43044" lon="1.92713">
        <ele>222.80000305176</ele>
        <time>2023-06-05T09:07:31.000Z</time>
      </trkpt>
      <trkpt lat="43.43044" lon="1.92697">
        <ele>222.60000610352</ele>
        <time>2023-06-05T09:07:40.000Z</time>
      </trkpt>
      <trkpt lat="43.43044" lon="1.92696">
        <ele>222.60000610352</ele>
        <time>2023-06-05T09:07:41.000Z</time>
      </trkpt>
      <trkpt lat="43.43043" lon="1.92689">
        <ele>222.39999389648</ele>
        <time>2023-06-05T09:07:45.000Z</time>
      </trkpt>
      <trkpt lat="43.43044" lon="1.92687">
        <ele>222.39999389648</ele>
        <time>2023-06-05T09:07:46.000Z</time>
      </trkpt>
      <trkpt lat="43.43046" lon="1.92678">
        <ele>222.60000610352</ele>
        <time>2023-06-05T09:07:53.000Z</time>
      </trkpt>
      <trkpt lat="43.43047" lon="1.92673">
        <ele>222.39999389648</ele>
        <time>2023-06-05T09:07:57.000Z</time>
      </trkpt>
      <trkpt lat="43.43048" lon="1.92668">
        <ele>222.39999389648</ele>
        <time>2023-06-05T09:08:00.000Z</time>
      </trkpt>
      <trkpt lat="43.43049" lon="1.92661">
        <ele>222.19999694824</ele>
        <time>2023-06-05T09:08:05.000Z</time>
      </trkpt>
      <trkpt lat="43.43049" lon="1.92661">
        <ele>222.19999694824</ele>
        <time>2023-06-05T09:08:07.000Z</time>
      </trkpt>
      <trkpt lat="43.43049" lon="1.92661">
        <ele>222.19999694824</ele>
        <time>2023-06-05T09:08:08.000Z</time>
      </trkpt>
      <trkpt lat="43.4305" lon="1.92655">
        <ele>222.19999694824</ele>
        <time>2023-06-05T09:08:14.000Z</time>
      </trkpt>
      <trkpt lat="43.43048" lon="1.92644">
        <ele>222</ele>
        <time>2023-06-05T09:08:22.000Z</time>
      </trkpt>
      <trkpt lat="43.43042" lon="1.92633">
        <ele>222</ele>
        <time>2023-06-05T09:08:32.000Z</time>
      </trkpt>
      <trkpt lat="43.43035" lon="1.92628">
        <ele>222</ele>
        <time>2023-06-05T09:08:39.000Z</time>
      </trkpt>
      <trkpt lat="43.43033" lon="1.92627">
        <ele>222</ele>
        <time>2023-06-05T09:08:46.000Z</time>
      </trkpt>
      <trkpt lat="43.4303" lon="1.92628">
        <ele>222</ele>
        <time>2023-06-05T09:08:52.000Z</time>
      </trkpt>
      <trkpt lat="43.43024" lon="1.92631">
        <ele>222</ele>
        <time>2023-06-05T09:08:59.000Z</time>
      </trkpt>
      <trkpt lat="43.43019" lon="1.92634">
        <ele>222</ele>
        <time>2023-06-05T09:09:06.000Z</time>
      </trkpt>
      <trkpt lat="43.43017" lon="1.92636">
        <ele>221.80000305176</ele>
        <time>2023-06-05T09:09:08.000Z</time>
      </trkpt>
      <trkpt lat="43.43013" lon="1.92638">
        <ele>221.80000305176</ele>
        <time>2023-06-05T09:09:12.000Z</time>
      </trkpt>
      <trkpt lat="43.43011" lon="1.9264">
        <ele>221.80000305176</ele>
        <time>2023-06-05T09:09:15.000Z</time>
      </trkpt>
      <trkpt lat="43.43008" lon="1.92641">
        <ele>221.80000305176</ele>
        <time>2023-06-05T09:09:18.000Z</time>
      </trkpt>
      <trkpt lat="43.43002" lon="1.92646">
        <ele>221.80000305176</ele>
        <time>2023-06-05T09:09:24.000Z</time>
      </trkpt>
      <trkpt lat="43.42995" lon="1.92652">
        <ele>221.80000305176</ele>
        <time>2023-06-05T09:09:31.000Z</time>
      </trkpt>
      <trkpt lat="43.42987" lon="1.92658">
        <ele>222</ele>
        <time>2023-06-05T09:09:39.000Z</time>
      </trkpt>
      <trkpt lat="43.42985" lon="1.9266">
        <ele>222</ele>
        <time>2023-06-05T09:09:42.000Z</time>
      </trkpt>
      <trkpt lat="43.42982" lon="1.92662">
        <ele>222.19999694824</ele>
        <time>2023-06-05T09:09:45.000Z</time>
      </trkpt>
      <trkpt lat="43.42978" lon="1.92665">
        <ele>222.19999694824</ele>
        <time>2023-06-05T09:09:48.000Z</time>
      </trkpt>
      <trkpt lat="43.42975" lon="1.92668">
        <ele>222.19999694824</ele>
        <time>2023-06-05T09:09:51.000Z</time>
      </trkpt>
      <trkpt lat="43.42967" lon="1.92677">
        <ele>222.19999694824</ele>
        <time>2023-06-05T09:09:59.000Z</time>
      </trkpt>
      <trkpt lat="43.42959" lon="1.92687">
        <ele>222.19999694824</ele>
        <time>2023-06-05T09:10:08.000Z</time>
      </trkpt>
      <trkpt lat="43.42951" lon="1.92698">
        <ele>222</ele>
        <time>2023-06-05T09:10:18.000Z</time>
      </trkpt>
      <trkpt lat="43.42946" lon="1.92704">
        <ele>222</ele>
        <time>2023-06-05T09:10:26.000Z</time>
      </trkpt>
      <trkpt lat="43.42945" lon="1.92706">
        <ele>222</ele>
        <time>2023-06-05T09:10:28.000Z</time>
      </trkpt>
      <trkpt lat="43.42944" lon="1.92707">
        <ele>222.19999694824</ele>
        <time>2023-06-05T09:10:30.000Z</time>
      </trkpt>
      <trkpt lat="43.42942" lon="1.92709">
        <ele>222.39999389648</ele>
        <time>2023-06-05T09:10:32.000Z</time>
      </trkpt>
      <trkpt lat="43.42939" lon="1.92713">
        <ele>222.39999389648</ele>
        <time>2023-06-05T09:10:38.000Z</time>
      </trkpt>
      <trkpt lat="43.42934" lon="1.9272">
        <ele>222</ele>
        <time>2023-06-05T09:10:45.000Z</time>
      </trkpt>
      <trkpt lat="43.42927" lon="1.92728">
        <ele>222.19999694824</ele>
        <time>2023-06-05T09:10:53.000Z</time>
      </trkpt>
      <trkpt lat="43.42921" lon="1.92736">
        <ele>222.19999694824</ele>
        <time>2023-06-05T09:11:00.000Z</time>
      </trkpt>
      <trkpt lat="43.42913" lon="1.92745">
        <ele>222.19999694824</ele>
        <time>2023-06-05T09:11:09.000Z</time>
      </trkpt>
      <trkpt lat="43.4291" lon="1.92748">
        <ele>222.19999694824</ele>
        <time>2023-06-05T09:11:13.000Z</time>
      </trkpt>
      <trkpt lat="43.42908" lon="1.9275">
        <ele>222.19999694824</ele>
        <time>2023-06-05T09:11:15.000Z</time>
      </trkpt>
      <trkpt lat="43.42901" lon="1.92752">
        <ele>222.39999389648</ele>
        <time>2023-06-05T09:11:22.000Z</time>
      </trkpt>
      <trkpt lat="43.42889" lon="1.92753">
        <ele>222.39999389648</ele>
        <time>2023-06-05T09:11:32.000Z</time>
      </trkpt>
      <trkpt lat="43.42881" lon="1.92749">
        <ele>222.19999694824</ele>
        <time>2023-06-05T09:11:39.000Z</time>
      </trkpt>
      <trkpt lat="43.42879" lon="1.92748">
        <ele>222.19999694824</ele>
        <time>2023-06-05T09:11:46.000Z</time>
      </trkpt>
      <trkpt lat="43.42877" lon="1.92747">
        <ele>222.60000610352</ele>
        <time>2023-06-05T09:11:53.000Z</time>
      </trkpt>
      <trkpt lat="43.42876" lon="1.92749">
        <ele>222.60000610352</ele>
        <time>2023-06-05T09:11:59.000Z</time>
      </trkpt>
      <trkpt lat="43.42875" lon="1.92747">
        <ele>222.60000610352</ele>
        <time>2023-06-05T09:12:09.000Z</time>
      </trkpt>
      <trkpt lat="43.42876" lon="1.92746">
        <ele>222.60000610352</ele>
        <time>2023-06-05T09:12:23.000Z</time>
      </trkpt>
      <trkpt lat="43.42875" lon="1.92746">
        <ele>222.60000610352</ele>
        <time>2023-06-05T09:12:27.000Z</time>
      </trkpt>
      <trkpt lat="43.42871" lon="1.92741">
        <ele>222.39999389648</ele>
        <time>2023-06-05T09:12:33.000Z</time>
      </trkpt>
      <trkpt lat="43.42868" lon="1.92736">
        <ele>222.60000610352</ele>
        <time>2023-06-05T09:12:38.000Z</time>
      </trkpt>
      <trkpt lat="43.42863" lon="1.92726">
        <ele>222.39999389648</ele>
        <time>2023-06-05T09:12:46.000Z</time>
      </trkpt>
      <trkpt lat="43.42859" lon="1.92713">
        <ele>222.39999389648</ele>
        <time>2023-06-05T09:12:55.000Z</time>
      </trkpt>
      <trkpt lat="43.42858" lon="1.92711">
        <ele>222.39999389648</ele>
        <time>2023-06-05T09:12:56.000Z</time>
      </trkpt>
      <trkpt lat="43.42857" lon="1.92705">
        <ele>222.39999389648</ele>
        <time>2023-06-05T09:13:00.000Z</time>
      </trkpt>
      <trkpt lat="43.42857" lon="1.92704">
        <ele>222.39999389648</ele>
        <time>2023-06-05T09:13:01.000Z</time>
      </trkpt>
      <trkpt lat="43.42857" lon="1.92697">
        <ele>222.39999389648</ele>
        <time>2023-06-05T09:13:06.000Z</time>
      </trkpt>
      <trkpt lat="43.42856" lon="1.92693">
        <ele>222.39999389648</ele>
        <time>2023-06-05T09:13:09.000Z</time>
      </trkpt>
      <trkpt lat="43.42856" lon="1.9268">
        <ele>222.60000610352</ele>
        <time>2023-06-05T09:13:17.000Z</time>
      </trkpt>
      <trkpt lat="43.42856" lon="1.92674">
        <ele>222.60000610352</ele>
        <time>2023-06-05T09:13:22.000Z</time>
      </trkpt>
      <trkpt lat="43.42856" lon="1.92672">
        <ele>222.60000610352</ele>
        <time>2023-06-05T09:13:24.000Z</time>
      </trkpt>
      <trkpt lat="43.42856" lon="1.92664">
        <ele>222.80000305176</ele>
        <time>2023-06-05T09:13:30.000Z</time>
      </trkpt>
      <trkpt lat="43.42856" lon="1.9266">
        <ele>223</ele>
        <time>2023-06-05T09:13:33.000Z</time>
      </trkpt>
      <trkpt lat="43.42857" lon="1.92653">
        <ele>222.60000610352</ele>
        <time>2023-06-05T09:13:38.000Z</time>
      </trkpt>
      <trkpt lat="43.42859" lon="1.92643">
        <ele>222.39999389648</ele>
        <time>2023-06-05T09:13:45.000Z</time>
      </trkpt>
      <trkpt lat="43.42859" lon="1.92641">
        <ele>222.39999389648</ele>
        <time>2023-06-05T09:13:46.000Z</time>
      </trkpt>
      <trkpt lat="43.4286" lon="1.92636">
        <ele>222.60000610352</ele>
        <time>2023-06-05T09:13:50.000Z</time>
      </trkpt>
      <trkpt lat="43.42862" lon="1.92626">
        <ele>222.39999389648</ele>
        <time>2023-06-05T09:13:57.000Z</time>
      </trkpt>
      <trkpt lat="43.42866" lon="1.92614">
        <ele>222.39999389648</ele>
        <time>2023-06-05T09:14:05.000Z</time>
      </trkpt>
      <trkpt lat="43.42868" lon="1.92609">
        <ele>222.19999694824</ele>
        <time>2023-06-05T09:14:09.000Z</time>
      </trkpt>
      <trkpt lat="43.42868" lon="1.92608">
        <ele>222.19999694824</ele>
        <time>2023-06-05T09:14:10.000Z</time>
      </trkpt>
      <trkpt lat="43.42871" lon="1.92599">
        <ele>222.19999694824</ele>
        <time>2023-06-05T09:14:16.000Z</time>
      </trkpt>
      <trkpt lat="43.42871" lon="1.92596">
        <ele>222</ele>
        <time>2023-06-05T09:14:18.000Z</time>
      </trkpt>
      <trkpt lat="43.42875" lon="1.92583">
        <ele>221.80000305176</ele>
        <time>2023-06-05T09:14:29.000Z</time>
      </trkpt>
      <trkpt lat="43.42877" lon="1.92578">
        <ele>222.19999694824</ele>
        <time>2023-06-05T09:14:34.000Z</time>
      </trkpt>
      <trkpt lat="43.42878" lon="1.92575">
        <ele>222.39999389648</ele>
        <time>2023-06-05T09:14:36.000Z</time>
      </trkpt>
      <trkpt lat="43.4288" lon="1.92566">
        <ele>222</ele>
        <time>2023-06-05T09:14:42.000Z</time>
      </trkpt>
      <trkpt lat="43.42881" lon="1.92563">
        <ele>222</ele>
        <time>2023-06-05T09:14:44.000Z</time>
      </trkpt>
      <trkpt lat="43.42884" lon="1.92553">
        <ele>222</ele>
        <time>2023-06-05T09:14:50.000Z</time>
      </trkpt>
      <trkpt lat="43.42885" lon="1.92548">
        <ele>222</ele>
        <time>2023-06-05T09:14:54.000Z</time>
      </trkpt>
      <trkpt lat="43.42886" lon="1.92545">
        <ele>222</ele>
        <time>2023-06-05T09:14:56.000Z</time>
      </trkpt>
      <trkpt lat="43.42886" lon="1.92543">
        <ele>222</ele>
        <time>2023-06-05T09:14:57.000Z</time>
      </trkpt>
      <trkpt lat="43.42886" lon="1.92542">
        <ele>222</ele>
        <time>2023-06-05T09:15:01.000Z</time>
      </trkpt>
      <trkpt lat="43.42888" lon="1.92534">
        <ele>222</ele>
        <time>2023-06-05T09:15:07.000Z</time>
      </trkpt>
      <trkpt lat="43.42889" lon="1.92528">
        <ele>222</ele>
        <time>2023-06-05T09:15:13.000Z</time>
      </trkpt>
      <trkpt lat="43.42893" lon="1.92516">
        <ele>222</ele>
        <time>2023-06-05T09:15:22.000Z</time>
      </trkpt>
      <trkpt lat="43.42895" lon="1.92505">
        <ele>222</ele>
        <time>2023-06-05T09:15:30.000Z</time>
      </trkpt>
      <trkpt lat="43.42899" lon="1.92494">
        <ele>222</ele>
        <time>2023-06-05T09:15:38.000Z</time>
      </trkpt>
      <trkpt lat="43.429" lon="1.92492">
        <ele>222</ele>
        <time>2023-06-05T09:15:39.000Z</time>
      </trkpt>
      <trkpt lat="43.42903" lon="1.92482">
        <ele>222</ele>
        <time>2023-06-05T09:15:47.000Z</time>
      </trkpt>
      <trkpt lat="43.42905" lon="1.92474">
        <ele>222</ele>
        <time>2023-06-05T09:15:53.000Z</time>
      </trkpt>
      <trkpt lat="43.42908" lon="1.92464">
        <ele>222</ele>
        <time>2023-06-05T09:16:00.000Z</time>
      </trkpt>
      <trkpt lat="43.42911" lon="1.92455">
        <ele>222</ele>
        <time>2023-06-05T09:16:07.000Z</time>
      </trkpt>
      <trkpt lat="43.42914" lon="1.92446">
        <ele>221.80000305176</ele>
        <time>2023-06-05T09:16:14.000Z</time>
      </trkpt>
      <trkpt lat="43.42917" lon="1.92437">
        <ele>221.60000610352</ele>
        <time>2023-06-05T09:16:22.000Z</time>
      </trkpt>
      <trkpt lat="43.4292" lon="1.92429">
        <ele>221.60000610352</ele>
        <time>2023-06-05T09:16:29.000Z</time>
      </trkpt>
      <trkpt lat="43.42923" lon="1.92421">
        <ele>221.39999389648</ele>
        <time>2023-06-05T09:16:36.000Z</time>
      </trkpt>
      <trkpt lat="43.42923" lon="1.92419">
        <ele>221.39999389648</ele>
        <time>2023-06-05T09:16:37.000Z</time>
      </trkpt>
      <trkpt lat="43.42924" lon="1.92412">
        <ele>221.39999389648</ele>
        <time>2023-06-05T09:16:42.000Z</time>
      </trkpt>
      <trkpt lat="43.42924" lon="1.92408">
        <ele>221.39999389648</ele>
        <time>2023-06-05T09:16:44.000Z</time>
      </trkpt>
      <trkpt lat="43.42925" lon="1.92403">
        <ele>221.60000610352</ele>
        <time>2023-06-05T09:16:48.000Z</time>
      </trkpt>
      <trkpt lat="43.42926" lon="1.924">
        <ele>221.60000610352</ele>
        <time>2023-06-05T09:16:50.000Z</time>
      </trkpt>
      <trkpt lat="43.42927" lon="1.92397">
        <ele>221.60000610352</ele>
        <time>2023-06-05T09:16:52.000Z</time>
      </trkpt>
      <trkpt lat="43.42927" lon="1.92392">
        <ele>221.60000610352</ele>
        <time>2023-06-05T09:16:56.000Z</time>
      </trkpt>
      <trkpt lat="43.42929" lon="1.92383">
        <ele>221.80000305176</ele>
        <time>2023-06-05T09:17:01.000Z</time>
      </trkpt>
      <trkpt lat="43.42933" lon="1.9237">
        <ele>221.80000305176</ele>
        <time>2023-06-05T09:17:09.000Z</time>
      </trkpt>
      <trkpt lat="43.42936" lon="1.92361">
        <ele>222</ele>
        <time>2023-06-05T09:17:15.000Z</time>
      </trkpt>
      <trkpt lat="43.42939" lon="1.92357">
        <ele>222</ele>
        <time>2023-06-05T09:17:19.000Z</time>
      </trkpt>
      <trkpt lat="43.42938" lon="1.92354">
        <ele>222</ele>
        <time>2023-06-05T09:17:20.000Z</time>
      </trkpt>
      <trkpt lat="43.42939" lon="1.92349">
        <ele>222</ele>
        <time>2023-06-05T09:17:23.000Z</time>
      </trkpt>
      <trkpt lat="43.4294" lon="1.92348">
        <ele>222</ele>
        <time>2023-06-05T09:17:24.000Z</time>
      </trkpt>
      <trkpt lat="43.42944" lon="1.92342">
        <ele>222</ele>
        <time>2023-06-05T09:17:30.000Z</time>
      </trkpt>
      <trkpt lat="43.42949" lon="1.92331">
        <ele>221.80000305176</ele>
        <time>2023-06-05T09:17:38.000Z</time>
      </trkpt>
      <trkpt lat="43.42955" lon="1.92317">
        <ele>221.80000305176</ele>
        <time>2023-06-05T09:17:47.000Z</time>
      </trkpt>
      <trkpt lat="43.42958" lon="1.92306">
        <ele>221.39999389648</ele>
        <time>2023-06-05T09:17:56.000Z</time>
      </trkpt>
      <trkpt lat="43.42961" lon="1.92294">
        <ele>221.60000610352</ele>
        <time>2023-06-05T09:18:04.000Z</time>
      </trkpt>
      <trkpt lat="43.42965" lon="1.92284">
        <ele>221.60000610352</ele>
        <time>2023-06-05T09:18:11.000Z</time>
      </trkpt>
      <trkpt lat="43.42965" lon="1.92281">
        <ele>221.60000610352</ele>
        <time>2023-06-05T09:18:13.000Z</time>
      </trkpt>
      <trkpt lat="43.42967" lon="1.92277">
        <ele>221.60000610352</ele>
        <time>2023-06-05T09:18:17.000Z</time>
      </trkpt>
      <trkpt lat="43.42971" lon="1.9227">
        <ele>221.60000610352</ele>
        <time>2023-06-05T09:18:23.000Z</time>
      </trkpt>
      <trkpt lat="43.42977" lon="1.9226">
        <ele>221.60000610352</ele>
        <time>2023-06-05T09:18:32.000Z</time>
      </trkpt>
      <trkpt lat="43.42977" lon="1.92259">
        <ele>221.80000305176</ele>
        <time>2023-06-05T09:18:33.000Z</time>
      </trkpt>
      <trkpt lat="43.42983" lon="1.9225">
        <ele>221.80000305176</ele>
        <time>2023-06-05T09:18:40.000Z</time>
      </trkpt>
      <trkpt lat="43.42986" lon="1.92243">
        <ele>222</ele>
        <time>2023-06-05T09:18:45.000Z</time>
      </trkpt>
      <trkpt lat="43.42993" lon="1.92234">
        <ele>221.80000305176</ele>
        <time>2023-06-05T09:18:53.000Z</time>
      </trkpt>
      <trkpt lat="43.42994" lon="1.92233">
        <ele>221.80000305176</ele>
        <time>2023-06-05T09:18:54.000Z</time>
      </trkpt>
      <trkpt lat="43.43" lon="1.92227">
        <ele>221.80000305176</ele>
        <time>2023-06-05T09:19:00.000Z</time>
      </trkpt>
      <trkpt lat="43.43006" lon="1.92221">
        <ele>222</ele>
        <time>2023-06-05T09:19:08.000Z</time>
      </trkpt>
      <trkpt lat="43.43009" lon="1.92217">
        <ele>222.19999694824</ele>
        <time>2023-06-05T09:19:17.000Z</time>
      </trkpt>
      <trkpt lat="43.43017" lon="1.92207">
        <ele>222</ele>
        <time>2023-06-05T09:19:26.000Z</time>
      </trkpt>
      <trkpt lat="43.43022" lon="1.92201">
        <ele>221.80000305176</ele>
        <time>2023-06-05T09:19:32.000Z</time>
      </trkpt>
      <trkpt lat="43.43023" lon="1.922">
        <ele>221.80000305176</ele>
        <time>2023-06-05T09:19:33.000Z</time>
      </trkpt>
      <trkpt lat="43.43029" lon="1.92194">
        <ele>221.60000610352</ele>
        <time>2023-06-05T09:19:39.000Z</time>
      </trkpt>
      <trkpt lat="43.4303" lon="1.92191">
        <ele>221.39999389648</ele>
        <time>2023-06-05T09:19:41.000Z</time>
      </trkpt>
      <trkpt lat="43.43035" lon="1.92185">
        <ele>221.39999389648</ele>
        <time>2023-06-05T09:19:47.000Z</time>
      </trkpt>
      <trkpt lat="43.43041" lon="1.92173">
        <ele>221.39999389648</ele>
        <time>2023-06-05T09:19:56.000Z</time>
      </trkpt>
      <trkpt lat="43.43044" lon="1.92169">
        <ele>221.39999389648</ele>
        <time>2023-06-05T09:20:00.000Z</time>
      </trkpt>
      <trkpt lat="43.43046" lon="1.92166">
        <ele>221.60000610352</ele>
        <time>2023-06-05T09:20:02.000Z</time>
      </trkpt>
      <trkpt lat="43.43048" lon="1.92162">
        <ele>221.80000305176</ele>
        <time>2023-06-05T09:20:05.000Z</time>
      </trkpt>
      <trkpt lat="43.43051" lon="1.92158">
        <ele>221.80000305176</ele>
        <time>2023-06-05T09:20:08.000Z</time>
      </trkpt>
      <trkpt lat="43.43051" lon="1.92157">
        <ele>221.80000305176</ele>
        <time>2023-06-05T09:20:09.000Z</time>
      </trkpt>
      <trkpt lat="43.43056" lon="1.92151">
        <ele>221.80000305176</ele>
        <time>2023-06-05T09:20:15.000Z</time>
      </trkpt>
      <trkpt lat="43.43063" lon="1.92143">
        <ele>221.60000610352</ele>
        <time>2023-06-05T09:20:23.000Z</time>
      </trkpt>
      <trkpt lat="43.43069" lon="1.92137">
        <ele>221.80000305176</ele>
        <time>2023-06-05T09:20:30.000Z</time>
      </trkpt>
      <trkpt lat="43.43076" lon="1.92128">
        <ele>221.80000305176</ele>
        <time>2023-06-05T09:20:38.000Z</time>
      </trkpt>
      <trkpt lat="43.43082" lon="1.92119">
        <ele>221.60000610352</ele>
        <time>2023-06-05T09:20:46.000Z</time>
      </trkpt>
      <trkpt lat="43.43086" lon="1.92109">
        <ele>221.60000610352</ele>
        <time>2023-06-05T09:20:53.000Z</time>
      </trkpt>
      <trkpt lat="43.43089" lon="1.92097">
        <ele>221.19999694824</ele>
        <time>2023-06-05T09:21:00.000Z</time>
      </trkpt>
      <trkpt lat="43.4309" lon="1.92094">
        <ele>221.19999694824</ele>
        <time>2023-06-05T09:21:02.000Z</time>
      </trkpt>
      <trkpt lat="43.43093" lon="1.9208">
        <ele>221.19999694824</ele>
        <time>2023-06-05T09:21:11.000Z</time>
      </trkpt>
      <trkpt lat="43.43093" lon="1.92077">
        <ele>221.39999389648</ele>
        <time>2023-06-05T09:21:16.000Z</time>
      </trkpt>
      <trkpt lat="43.43094" lon="1.9207">
        <ele>221.19999694824</ele>
        <time>2023-06-05T09:21:21.000Z</time>
      </trkpt>
      <trkpt lat="43.43095" lon="1.92069">
        <ele>221.39999389648</ele>
        <time>2023-06-05T09:21:22.000Z</time>
      </trkpt>
      <trkpt lat="43.43096" lon="1.92062">
        <ele>221.19999694824</ele>
        <time>2023-06-05T09:21:27.000Z</time>
      </trkpt>
      <trkpt lat="43.43097" lon="1.92058">
        <ele>221.39999389648</ele>
        <time>2023-06-05T09:21:29.000Z</time>
      </trkpt>
      <trkpt lat="43.43099" lon="1.92052">
        <ele>221.39999389648</ele>
        <time>2023-06-05T09:21:34.000Z</time>
      </trkpt>
      <trkpt lat="43.431" lon="1.92051">
        <ele>221.39999389648</ele>
        <time>2023-06-05T09:21:35.000Z</time>
      </trkpt>
      <trkpt lat="43.43103" lon="1.92044">
        <ele>221.60000610352</ele>
        <time>2023-06-05T09:21:41.000Z</time>
      </trkpt>
      <trkpt lat="43.43105" lon="1.92037">
        <ele>221.80000305176</ele>
        <time>2023-06-05T09:21:46.000Z</time>
      </trkpt>
      <trkpt lat="43.43109" lon="1.92031">
        <ele>221.39999389648</ele>
        <time>2023-06-05T09:21:52.000Z</time>
      </trkpt>
      <trkpt lat="43.43111" lon="1.92025">
        <ele>221.60000610352</ele>
        <time>2023-06-05T09:21:57.000Z</time>
      </trkpt>
      <trkpt lat="43.43112" lon="1.92021">
        <ele>221.60000610352</ele>
        <time>2023-06-05T09:21:59.000Z</time>
      </trkpt>
      <trkpt lat="43.43117" lon="1.92013">
        <ele>221.39999389648</ele>
        <time>2023-06-05T09:22:07.000Z</time>
      </trkpt>
      <trkpt lat="43.43121" lon="1.92005">
        <ele>221.60000610352</ele>
        <time>2023-06-05T09:22:15.000Z</time>
      </trkpt>
      <trkpt lat="43.43125" lon="1.91997">
        <ele>221.60000610352</ele>
        <time>2023-06-05T09:22:22.000Z</time>
      </trkpt>
      <trkpt lat="43.43129" lon="1.91989">
        <ele>221.39999389648</ele>
        <time>2023-06-05T09:22:30.000Z</time>
      </trkpt>
      <trkpt lat="43.4313" lon="1.91987">
        <ele>221.39999389648</ele>
        <time>2023-06-05T09:22:32.000Z</time>
      </trkpt>
      <trkpt lat="43.43137" lon="1.91976">
        <ele>221.60000610352</ele>
        <time>2023-06-05T09:22:41.000Z</time>
      </trkpt>
      <trkpt lat="43.43145" lon="1.91965">
        <ele>221.60000610352</ele>
        <time>2023-06-05T09:22:50.000Z</time>
      </trkpt>
      <trkpt lat="43.43151" lon="1.91954">
        <ele>222.19999694824</ele>
        <time>2023-06-05T09:22:59.000Z</time>
      </trkpt>
      <trkpt lat="43.43152" lon="1.91952">
        <ele>222.19999694824</ele>
        <time>2023-06-05T09:23:00.000Z</time>
      </trkpt>
      <trkpt lat="43.43152" lon="1.9195">
        <ele>222.19999694824</ele>
        <time>2023-06-05T09:23:01.000Z</time>
      </trkpt>
      <trkpt lat="43.43152" lon="1.91947">
        <ele>222.39999389648</ele>
        <time>2023-06-05T09:23:03.000Z</time>
      </trkpt>
      <trkpt lat="43.43155" lon="1.91943">
        <ele>222.60000610352</ele>
        <time>2023-06-05T09:23:06.000Z</time>
      </trkpt>
      <trkpt lat="43.4316" lon="1.91938">
        <ele>222.60000610352</ele>
        <time>2023-06-05T09:23:11.000Z</time>
      </trkpt>
      <trkpt lat="43.43162" lon="1.91936">
        <ele>222.19999694824</ele>
        <time>2023-06-05T09:23:14.000Z</time>
      </trkpt>
      <trkpt lat="43.43162" lon="1.91935">
        <ele>222.19999694824</ele>
        <time>2023-06-05T09:23:15.000Z</time>
      </trkpt>
      <trkpt lat="43.43163" lon="1.91933">
        <ele>222</ele>
        <time>2023-06-05T09:23:19.000Z</time>
      </trkpt>
      <trkpt lat="43.43166" lon="1.91925">
        <ele>221.80000305176</ele>
        <time>2023-06-05T09:23:25.000Z</time>
      </trkpt>
      <trkpt lat="43.4317" lon="1.91915">
        <ele>221.39999389648</ele>
        <time>2023-06-05T09:23:33.000Z</time>
      </trkpt>
      <trkpt lat="43.4317" lon="1.91915">
        <ele>221.39999389648</ele>
        <time>2023-06-05T09:23:34.000Z</time>
      </trkpt>
      <trkpt lat="43.43171" lon="1.91913">
        <ele>221.60000610352</ele>
        <time>2023-06-05T09:23:45.000Z</time>
      </trkpt>
      <trkpt lat="43.43176" lon="1.91914">
        <ele>221.39999389648</ele>
        <time>2023-06-05T09:23:55.000Z</time>
      </trkpt>
      <trkpt lat="43.43178" lon="1.91908">
        <ele>221.19999694824</ele>
        <time>2023-06-05T09:24:01.000Z</time>
      </trkpt>
      <trkpt lat="43.43182" lon="1.91899">
        <ele>221.39999389648</ele>
        <time>2023-06-05T09:24:07.000Z</time>
      </trkpt>
      <trkpt lat="43.43185" lon="1.91894">
        <ele>221.19999694824</ele>
        <time>2023-06-05T09:24:11.000Z</time>
      </trkpt>
      <trkpt lat="43.43186" lon="1.9189">
        <ele>221.19999694824</ele>
        <time>2023-06-05T09:24:14.000Z</time>
      </trkpt>
      <trkpt lat="43.4319" lon="1.91883">
        <ele>221.19999694824</ele>
        <time>2023-06-05T09:24:19.000Z</time>
      </trkpt>
      <trkpt lat="43.4319" lon="1.91881">
        <ele>221.39999389648</ele>
        <time>2023-06-05T09:24:20.000Z</time>
      </trkpt>
      <trkpt lat="43.43194" lon="1.91874">
        <ele>221.39999389648</ele>
        <time>2023-06-05T09:24:25.000Z</time>
      </trkpt>
      <trkpt lat="43.43201" lon="1.91862">
        <ele>221.39999389648</ele>
        <time>2023-06-05T09:24:35.000Z</time>
      </trkpt>
      <trkpt lat="43.43204" lon="1.91856">
        <ele>221.19999694824</ele>
        <time>2023-06-05T09:24:40.000Z</time>
      </trkpt>
      <trkpt lat="43.43204" lon="1.91856">
        <ele>221.39999389648</ele>
        <time>2023-06-05T09:24:42.000Z</time>
      </trkpt>
      <trkpt lat="43.43206" lon="1.91854">
        <ele>221</ele>
        <time>2023-06-05T09:24:53.000Z</time>
      </trkpt>
      <trkpt lat="43.43211" lon="1.91846">
        <ele>221.19999694824</ele>
        <time>2023-06-05T09:25:00.000Z</time>
      </trkpt>
      <trkpt lat="43.43217" lon="1.91837">
        <ele>221.19999694824</ele>
        <time>2023-06-05T09:25:07.000Z</time>
      </trkpt>
      <trkpt lat="43.43225" lon="1.91827">
        <ele>221.19999694824</ele>
        <time>2023-06-05T09:25:15.000Z</time>
      </trkpt>
      <trkpt lat="43.4323" lon="1.91816">
        <ele>221</ele>
        <time>2023-06-05T09:25:23.000Z</time>
      </trkpt>
      <trkpt lat="43.43235" lon="1.91801">
        <ele>221</ele>
        <time>2023-06-05T09:25:32.000Z</time>
      </trkpt>
      <trkpt lat="43.43237" lon="1.91781">
        <ele>221</ele>
        <time>2023-06-05T09:25:44.000Z</time>
      </trkpt>
      <trkpt lat="43.43232" lon="1.91766">
        <ele>221</ele>
        <time>2023-06-05T09:25:54.000Z</time>
      </trkpt>
      <trkpt lat="43.43225" lon="1.91759">
        <ele>220.80000305176</ele>
        <time>2023-06-05T09:26:02.000Z</time>
      </trkpt>
      <trkpt lat="43.43216" lon="1.91753">
        <ele>220.80000305176</ele>
        <time>2023-06-05T09:26:11.000Z</time>
      </trkpt>
      <trkpt lat="43.4321" lon="1.91749">
        <ele>221</ele>
        <time>2023-06-05T09:26:17.000Z</time>
      </trkpt>
      <trkpt lat="43.43204" lon="1.91739">
        <ele>221</ele>
        <time>2023-06-05T09:26:26.000Z</time>
      </trkpt>
      <trkpt lat="43.43202" lon="1.91728">
        <ele>221</ele>
        <time>2023-06-05T09:26:34.000Z</time>
      </trkpt>
      <trkpt lat="43.43202" lon="1.91727">
        <ele>221</ele>
        <time>2023-06-05T09:26:35.000Z</time>
      </trkpt>
      <trkpt lat="43.43202" lon="1.91721">
        <ele>221</ele>
        <time>2023-06-05T09:26:40.000Z</time>
      </trkpt>
      <trkpt lat="43.43203" lon="1.91712">
        <ele>221</ele>
        <time>2023-06-05T09:26:47.000Z</time>
      </trkpt>
      <trkpt lat="43.43204" lon="1.91702">
        <ele>221</ele>
        <time>2023-06-05T09:26:53.000Z</time>
      </trkpt>
      <trkpt lat="43.43206" lon="1.91692">
        <ele>220.80000305176</ele>
        <time>2023-06-05T09:27:01.000Z</time>
      </trkpt>
      <trkpt lat="43.43207" lon="1.91689">
        <ele>220.60000610352</ele>
        <time>2023-06-05T09:27:03.000Z</time>
      </trkpt>
      <trkpt lat="43.43208" lon="1.91682">
        <ele>220.60000610352</ele>
        <time>2023-06-05T09:27:08.000Z</time>
      </trkpt>
      <trkpt lat="43.43209" lon="1.91676">
        <ele>220.60000610352</ele>
        <time>2023-06-05T09:27:14.000Z</time>
      </trkpt>
      <trkpt lat="43.4321" lon="1.91675">
        <ele>220.60000610352</ele>
        <time>2023-06-05T09:27:15.000Z</time>
      </trkpt>
      <trkpt lat="43.43211" lon="1.91663">
        <ele>220.39999389648</ele>
        <time>2023-06-05T09:27:23.000Z</time>
      </trkpt>
      <trkpt lat="43.43213" lon="1.91657">
        <ele>220.19999694824</ele>
        <time>2023-06-05T09:27:27.000Z</time>
      </trkpt>
      <trkpt lat="43.43213" lon="1.91657">
        <ele>220.19999694824</ele>
        <time>2023-06-05T09:27:28.000Z</time>
      </trkpt>
      <trkpt lat="43.43213" lon="1.91654">
        <ele>220.19999694824</ele>
        <time>2023-06-05T09:27:30.000Z</time>
      </trkpt>
      <trkpt lat="43.43215" lon="1.91646">
        <ele>220.19999694824</ele>
        <time>2023-06-05T09:27:36.000Z</time>
      </trkpt>
      <trkpt lat="43.43216" lon="1.91643">
        <ele>220.19999694824</ele>
        <time>2023-06-05T09:27:38.000Z</time>
      </trkpt>
      <trkpt lat="43.43219" lon="1.91634">
        <ele>220.39999389648</ele>
        <time>2023-06-05T09:27:45.000Z</time>
      </trkpt>
      <trkpt lat="43.43221" lon="1.91622">
        <ele>220.19999694824</ele>
        <time>2023-06-05T09:27:52.000Z</time>
      </trkpt>
      <trkpt lat="43.43223" lon="1.91615">
        <ele>220.19999694824</ele>
        <time>2023-06-05T09:27:57.000Z</time>
      </trkpt>
      <trkpt lat="43.43224" lon="1.91611">
        <ele>220.19999694824</ele>
        <time>2023-06-05T09:28:00.000Z</time>
      </trkpt>
      <trkpt lat="43.43227" lon="1.91597">
        <ele>220.39999389648</ele>
        <time>2023-06-05T09:28:09.000Z</time>
      </trkpt>
      <trkpt lat="43.43228" lon="1.91587">
        <ele>220.60000610352</ele>
        <time>2023-06-05T09:28:16.000Z</time>
      </trkpt>
      <trkpt lat="43.43228" lon="1.91573">
        <ele>220.60000610352</ele>
        <time>2023-06-05T09:28:25.000Z</time>
      </trkpt>
      <trkpt lat="43.43225" lon="1.9156">
        <ele>221</ele>
        <time>2023-06-05T09:28:34.000Z</time>
      </trkpt>
      <trkpt lat="43.43224" lon="1.91556">
        <ele>221</ele>
        <time>2023-06-05T09:28:40.000Z</time>
      </trkpt>
      <trkpt lat="43.43221" lon="1.91549">
        <ele>220.80000305176</ele>
        <time>2023-06-05T09:28:46.000Z</time>
      </trkpt>
      <trkpt lat="43.43218" lon="1.91542">
        <ele>220.60000610352</ele>
        <time>2023-06-05T09:28:52.000Z</time>
      </trkpt>
      <trkpt lat="43.43215" lon="1.91538">
        <ele>220.39999389648</ele>
        <time>2023-06-05T09:28:56.000Z</time>
      </trkpt>
      <trkpt lat="43.43213" lon="1.91533">
        <ele>220.39999389648</ele>
        <time>2023-06-05T09:29:00.000Z</time>
      </trkpt>
      <trkpt lat="43.43209" lon="1.91524">
        <ele>220.39999389648</ele>
        <time>2023-06-05T09:29:08.000Z</time>
      </trkpt>
      <trkpt lat="43.43208" lon="1.91523">
        <ele>220.39999389648</ele>
        <time>2023-06-05T09:29:10.000Z</time>
      </trkpt>
      <trkpt lat="43.43206" lon="1.91517">
        <ele>220.60000610352</ele>
        <time>2023-06-05T09:29:15.000Z</time>
      </trkpt>
      <trkpt lat="43.43206" lon="1.91516">
        <ele>220.60000610352</ele>
        <time>2023-06-05T09:29:16.000Z</time>
      </trkpt>
      <trkpt lat="43.43204" lon="1.91506">
        <ele>220.60000610352</ele>
        <time>2023-06-05T09:29:23.000Z</time>
      </trkpt>
      <trkpt lat="43.43206" lon="1.91492">
        <ele>220.80000305176</ele>
        <time>2023-06-05T09:29:33.000Z</time>
      </trkpt>
      <trkpt lat="43.43207" lon="1.91489">
        <ele>220.60000610352</ele>
        <time>2023-06-05T09:29:35.000Z</time>
      </trkpt>
      <trkpt lat="43.4321" lon="1.91481">
        <ele>220.60000610352</ele>
        <time>2023-06-05T09:29:41.000Z</time>
      </trkpt>
      <trkpt lat="43.43215" lon="1.91468">
        <ele>220.19999694824</ele>
        <time>2023-06-05T09:29:52.000Z</time>
      </trkpt>
      <trkpt lat="43.43218" lon="1.91458">
        <ele>220.19999694824</ele>
        <time>2023-06-05T09:30:00.000Z</time>
      </trkpt>
      <trkpt lat="43.43219" lon="1.91439">
        <ele>220.19999694824</ele>
        <time>2023-06-05T09:30:12.000Z</time>
      </trkpt>
      <trkpt lat="43.43219" lon="1.91438">
        <ele>220.19999694824</ele>
        <time>2023-06-05T09:30:13.000Z</time>
      </trkpt>
      <trkpt lat="43.43219" lon="1.91431">
        <ele>220.19999694824</ele>
        <time>2023-06-05T09:30:18.000Z</time>
      </trkpt>
      <trkpt lat="43.43217" lon="1.91417">
        <ele>220.60000610352</ele>
        <time>2023-06-05T09:30:29.000Z</time>
      </trkpt>
      <trkpt lat="43.43216" lon="1.91416">
        <ele>220.39999389648</ele>
        <time>2023-06-05T09:30:30.000Z</time>
      </trkpt>
      <trkpt lat="43.43216" lon="1.91413">
        <ele>220.39999389648</ele>
        <time>2023-06-05T09:30:33.000Z</time>
      </trkpt>
      <trkpt lat="43.43215" lon="1.91411">
        <ele>220.60000610352</ele>
        <time>2023-06-05T09:30:35.000Z</time>
      </trkpt>
      <trkpt lat="43.43209" lon="1.91398">
        <ele>220.60000610352</ele>
        <time>2023-06-05T09:30:48.000Z</time>
      </trkpt>
      <trkpt lat="43.4321" lon="1.91399">
        <ele>221.19999694824</ele>
        <time>2023-06-05T09:30:56.000Z</time>
      </trkpt>
      <trkpt lat="43.4321" lon="1.91396">
        <ele>221.19999694824</ele>
        <time>2023-06-05T09:30:59.000Z</time>
      </trkpt>
      <trkpt lat="43.43202" lon="1.91382">
        <ele>220.60000610352</ele>
        <time>2023-06-05T09:31:11.000Z</time>
      </trkpt>
      <trkpt lat="43.43196" lon="1.91375">
        <ele>220.39999389648</ele>
        <time>2023-06-05T09:31:18.000Z</time>
      </trkpt>
      <trkpt lat="43.43192" lon="1.91369">
        <ele>220.60000610352</ele>
        <time>2023-06-05T09:31:24.000Z</time>
      </trkpt>
      <trkpt lat="43.4319" lon="1.91366">
        <ele>220.60000610352</ele>
        <time>2023-06-05T09:31:28.000Z</time>
      </trkpt>
      <trkpt lat="43.43187" lon="1.91364">
        <ele>220.60000610352</ele>
        <time>2023-06-05T09:31:31.000Z</time>
      </trkpt>
      <trkpt lat="43.43186" lon="1.91363">
        <ele>220.39999389648</ele>
        <time>2023-06-05T09:31:34.000Z</time>
      </trkpt>
      <trkpt lat="43.43185" lon="1.91362">
        <ele>220.39999389648</ele>
        <time>2023-06-05T09:31:35.000Z</time>
      </trkpt>
      <trkpt lat="43.43182" lon="1.9136">
        <ele>220.19999694824</ele>
        <time>2023-06-05T09:31:40.000Z</time>
      </trkpt>
      <trkpt lat="43.43181" lon="1.9136">
        <ele>220</ele>
        <time>2023-06-05T09:31:43.000Z</time>
      </trkpt>
      <trkpt lat="43.43181" lon="1.91362">
        <ele>219.80000305176</ele>
        <time>2023-06-05T09:31:52.000Z</time>
      </trkpt>
      <trkpt lat="43.43177" lon="1.91368">
        <ele>219.80000305176</ele>
        <time>2023-06-05T09:32:02.000Z</time>
      </trkpt>
      <trkpt lat="43.43174" lon="1.91366">
        <ele>220</ele>
        <time>2023-06-05T09:32:12.000Z</time>
      </trkpt>
      <trkpt lat="43.43164" lon="1.91359">
        <ele>219.80000305176</ele>
        <time>2023-06-05T09:32:23.000Z</time>
      </trkpt>
      <trkpt lat="43.43155" lon="1.91357">
        <ele>219.60000610352</ele>
        <time>2023-06-05T09:32:31.000Z</time>
      </trkpt>
      <trkpt lat="43.43147" lon="1.91355">
        <ele>219.80000305176</ele>
        <time>2023-06-05T09:32:39.000Z</time>
      </trkpt>
      <trkpt lat="43.43146" lon="1.91355">
        <ele>220</ele>
        <time>2023-06-05T09:32:41.000Z</time>
      </trkpt>
      <trkpt lat="43.43141" lon="1.91355">
        <ele>220.19999694824</ele>
        <time>2023-06-05T09:32:47.000Z</time>
      </trkpt>
      <trkpt lat="43.43131" lon="1.91356">
        <ele>220.39999389648</ele>
        <time>2023-06-05T09:32:58.000Z</time>
      </trkpt>
      <trkpt lat="43.43123" lon="1.91358">
        <ele>220.39999389648</ele>
        <time>2023-06-05T09:33:06.000Z</time>
      </trkpt>
      <trkpt lat="43.43116" lon="1.91361">
        <ele>220.39999389648</ele>
        <time>2023-06-05T09:33:14.000Z</time>
      </trkpt>
      <trkpt lat="43.43106" lon="1.91366">
        <ele>220.39999389648</ele>
        <time>2023-06-05T09:33:24.000Z</time>
      </trkpt>
      <trkpt lat="43.43098" lon="1.91372">
        <ele>220.39999389648</ele>
        <time>2023-06-05T09:33:33.000Z</time>
      </trkpt>
      <trkpt lat="43.43089" lon="1.91384">
        <ele>220.19999694824</ele>
        <time>2023-06-05T09:33:45.000Z</time>
      </trkpt>
      <trkpt lat="43.43082" lon="1.91393">
        <ele>220.39999389648</ele>
        <time>2023-06-05T09:33:54.000Z</time>
      </trkpt>
      <trkpt lat="43.43079" lon="1.91397">
        <ele>220.60000610352</ele>
        <time>2023-06-05T09:34:01.000Z</time>
      </trkpt>
      <trkpt lat="43.43079" lon="1.91398">
        <ele>220.60000610352</ele>
        <time>2023-06-05T09:34:12.000Z</time>
      </trkpt>
      <trkpt lat="43.43076" lon="1.91401">
        <ele>220.39999389648</ele>
        <time>2023-06-05T09:34:17.000Z</time>
      </trkpt>
      <trkpt lat="43.43068" lon="1.91408">
        <ele>220.60000610352</ele>
        <time>2023-06-05T09:34:26.000Z</time>
      </trkpt>
      <trkpt lat="43.43061" lon="1.91412">
        <ele>220.80000305176</ele>
        <time>2023-06-05T09:34:34.000Z</time>
      </trkpt>
      <trkpt lat="43.43057" lon="1.91414">
        <ele>220.80000305176</ele>
        <time>2023-06-05T09:34:39.000Z</time>
      </trkpt>
      <trkpt lat="43.43054" lon="1.91416">
        <ele>220.60000610352</ele>
        <time>2023-06-05T09:34:42.000Z</time>
      </trkpt>
      <trkpt lat="43.43048" lon="1.91419">
        <ele>221</ele>
        <time>2023-06-05T09:34:48.000Z</time>
      </trkpt>
      <trkpt lat="43.43046" lon="1.91419">
        <ele>221</ele>
        <time>2023-06-05T09:34:50.000Z</time>
      </trkpt>
      <trkpt lat="43.43033" lon="1.91419">
        <ele>221.19999694824</ele>
        <time>2023-06-05T09:35:01.000Z</time>
      </trkpt>
      <trkpt lat="43.4303" lon="1.91417">
        <ele>221</ele>
        <time>2023-06-05T09:35:04.000Z</time>
      </trkpt>
      <trkpt lat="43.43026" lon="1.91411">
        <ele>221</ele>
        <time>2023-06-05T09:35:09.000Z</time>
      </trkpt>
      <trkpt lat="43.43022" lon="1.91401">
        <ele>220.80000305176</ele>
        <time>2023-06-05T09:35:17.000Z</time>
      </trkpt>
      <trkpt lat="43.43021" lon="1.91391">
        <ele>220.80000305176</ele>
        <time>2023-06-05T09:35:25.000Z</time>
      </trkpt>
      <trkpt lat="43.4302" lon="1.91378">
        <ele>220.60000610352</ele>
        <time>2023-06-05T09:35:35.000Z</time>
      </trkpt>
      <trkpt lat="43.4302" lon="1.91371">
        <ele>220.39999389648</ele>
        <time>2023-06-05T09:35:41.000Z</time>
      </trkpt>
      <trkpt lat="43.43019" lon="1.91362">
        <ele>220.19999694824</ele>
        <time>2023-06-05T09:35:48.000Z</time>
      </trkpt>
      <trkpt lat="43.43019" lon="1.91362">
        <ele>220.19999694824</ele>
        <time>2023-06-05T09:35:50.000Z</time>
      </trkpt>
      <trkpt lat="43.43018" lon="1.91359">
        <ele>220.39999389648</ele>
        <time>2023-06-05T09:36:00.000Z</time>
      </trkpt>
      <trkpt lat="43.43017" lon="1.91348">
        <ele>220.19999694824</ele>
        <time>2023-06-05T09:36:08.000Z</time>
      </trkpt>
      <trkpt lat="43.43017" lon="1.91339">
        <ele>220</ele>
        <time>2023-06-05T09:36:15.000Z</time>
      </trkpt>
      <trkpt lat="43.43017" lon="1.91332">
        <ele>220</ele>
        <time>2023-06-05T09:36:21.000Z</time>
      </trkpt>
      <trkpt lat="43.43017" lon="1.9132">
        <ele>220</ele>
        <time>2023-06-05T09:36:29.000Z</time>
      </trkpt>
      <trkpt lat="43.43018" lon="1.91318">
        <ele>219.80000305176</ele>
        <time>2023-06-05T09:36:31.000Z</time>
      </trkpt>
      <trkpt lat="43.43016" lon="1.91305">
        <ele>219.60000610352</ele>
        <time>2023-06-05T09:36:41.000Z</time>
      </trkpt>
      <trkpt lat="43.4301" lon="1.91294">
        <ele>219.80000305176</ele>
        <time>2023-06-05T09:36:51.000Z</time>
      </trkpt>
      <trkpt lat="43.43008" lon="1.91292">
        <ele>220</ele>
        <time>2023-06-05T09:36:56.000Z</time>
      </trkpt>
      <trkpt lat="43.43001" lon="1.91285">
        <ele>220</ele>
        <time>2023-06-05T09:37:04.000Z</time>
      </trkpt>
      <trkpt lat="43.42992" lon="1.91278">
        <ele>220</ele>
        <time>2023-06-05T09:37:14.000Z</time>
      </trkpt>
      <trkpt lat="43.42984" lon="1.91271">
        <ele>220</ele>
        <time>2023-06-05T09:37:23.000Z</time>
      </trkpt>
      <trkpt lat="43.42975" lon="1.91264">
        <ele>220</ele>
        <time>2023-06-05T09:37:32.000Z</time>
      </trkpt>
      <trkpt lat="43.42975" lon="1.91264">
        <ele>220</ele>
        <time>2023-06-05T09:37:38.000Z</time>
      </trkpt>
      <trkpt lat="43.4297" lon="1.91262">
        <ele>220.39999389648</ele>
        <time>2023-06-05T09:37:46.000Z</time>
      </trkpt>
      <trkpt lat="43.42965" lon="1.91258">
        <ele>220.19999694824</ele>
        <time>2023-06-05T09:37:52.000Z</time>
      </trkpt>
      <trkpt lat="43.42963" lon="1.91257">
        <ele>220.19999694824</ele>
        <time>2023-06-05T09:37:55.000Z</time>
      </trkpt>
      <trkpt lat="43.4296" lon="1.91254">
        <ele>220.19999694824</ele>
        <time>2023-06-05T09:37:58.000Z</time>
      </trkpt>
      <trkpt lat="43.42959" lon="1.91253">
        <ele>220.19999694824</ele>
        <time>2023-06-05T09:37:59.000Z</time>
      </trkpt>
      <trkpt lat="43.42957" lon="1.91252">
        <ele>220.39999389648</ele>
        <time>2023-06-05T09:38:05.000Z</time>
      </trkpt>
      <trkpt lat="43.4295" lon="1.91245">
        <ele>220</ele>
        <time>2023-06-05T09:38:13.000Z</time>
      </trkpt>
      <trkpt lat="43.42942" lon="1.91237">
        <ele>220</ele>
        <time>2023-06-05T09:38:22.000Z</time>
      </trkpt>
      <trkpt lat="43.42935" lon="1.91229">
        <ele>219.80000305176</ele>
        <time>2023-06-05T09:38:30.000Z</time>
      </trkpt>
      <trkpt lat="43.42928" lon="1.9122">
        <ele>220</ele>
        <time>2023-06-05T09:38:39.000Z</time>
      </trkpt>
      <trkpt lat="43.42923" lon="1.91213">
        <ele>220.39999389648</ele>
        <time>2023-06-05T09:38:46.000Z</time>
      </trkpt>
      <trkpt lat="43.42922" lon="1.91212">
        <ele>220.39999389648</ele>
        <time>2023-06-05T09:38:47.000Z</time>
      </trkpt>
      <trkpt lat="43.42918" lon="1.91208">
        <ele>220.39999389648</ele>
        <time>2023-06-05T09:38:54.000Z</time>
      </trkpt>
      <trkpt lat="43.42918" lon="1.91209">
        <ele>220.19999694824</ele>
        <time>2023-06-05T09:39:03.000Z</time>
      </trkpt>
      <trkpt lat="43.42916" lon="1.91208">
        <ele>220.39999389648</ele>
        <time>2023-06-05T09:39:11.000Z</time>
      </trkpt>
      <trkpt lat="43.42908" lon="1.91197">
        <ele>220.19999694824</ele>
        <time>2023-06-05T09:39:22.000Z</time>
      </trkpt>
      <trkpt lat="43.42904" lon="1.91189">
        <ele>220.19999694824</ele>
        <time>2023-06-05T09:39:28.000Z</time>
      </trkpt>
      <trkpt lat="43.429" lon="1.91176">
        <ele>220.19999694824</ele>
        <time>2023-06-05T09:39:37.000Z</time>
      </trkpt>
      <trkpt lat="43.42897" lon="1.91164">
        <ele>220.19999694824</ele>
        <time>2023-06-05T09:39:45.000Z</time>
      </trkpt>
      <trkpt lat="43.42892" lon="1.91151">
        <ele>220.19999694824</ele>
        <time>2023-06-05T09:39:54.000Z</time>
      </trkpt>
      <trkpt lat="43.42888" lon="1.9114">
        <ele>220.39999389648</ele>
        <time>2023-06-05T09:40:02.000Z</time>
      </trkpt>
      <trkpt lat="43.42883" lon="1.91129">
        <ele>220.39999389648</ele>
        <time>2023-06-05T09:40:11.000Z</time>
      </trkpt>
      <trkpt lat="43.42879" lon="1.91117">
        <ele>220.60000610352</ele>
        <time>2023-06-05T09:40:20.000Z</time>
      </trkpt>
      <trkpt lat="43.42875" lon="1.91106">
        <ele>220.39999389648</ele>
        <time>2023-06-05T09:40:28.000Z</time>
      </trkpt>
      <trkpt lat="43.42871" lon="1.91095">
        <ele>220.39999389648</ele>
        <time>2023-06-05T09:40:37.000Z</time>
      </trkpt>
      <trkpt lat="43.42866" lon="1.91081">
        <ele>220.39999389648</ele>
        <time>2023-06-05T09:40:47.000Z</time>
      </trkpt>
      <trkpt lat="43.42862" lon="1.91069">
        <ele>220.60000610352</ele>
        <time>2023-06-05T09:40:56.000Z</time>
      </trkpt>
      <trkpt lat="43.42858" lon="1.9106">
        <ele>221</ele>
        <time>2023-06-05T09:41:04.000Z</time>
      </trkpt>
      <trkpt lat="43.42857" lon="1.91059">
        <ele>221</ele>
        <time>2023-06-05T09:41:05.000Z</time>
      </trkpt>
      <trkpt lat="43.42854" lon="1.91051">
        <ele>221</ele>
        <time>2023-06-05T09:41:12.000Z</time>
      </trkpt>
      <trkpt lat="43.42852" lon="1.91043">
        <ele>221</ele>
        <time>2023-06-05T09:41:19.000Z</time>
      </trkpt>
      <trkpt lat="43.42848" lon="1.91029">
        <ele>220.80000305176</ele>
        <time>2023-06-05T09:41:30.000Z</time>
      </trkpt>
      <trkpt lat="43.42843" lon="1.91022">
        <ele>220.60000610352</ele>
        <time>2023-06-05T09:41:37.000Z</time>
      </trkpt>
      <trkpt lat="43.42838" lon="1.91016">
        <ele>220.19999694824</ele>
        <time>2023-06-05T09:41:43.000Z</time>
      </trkpt>
      <trkpt lat="43.42831" lon="1.9101">
        <ele>220</ele>
        <time>2023-06-05T09:41:50.000Z</time>
      </trkpt>
      <trkpt lat="43.42823" lon="1.91002">
        <ele>220</ele>
        <time>2023-06-05T09:41:59.000Z</time>
      </trkpt>
      <trkpt lat="43.42817" lon="1.90991">
        <ele>220</ele>
        <time>2023-06-05T09:42:08.000Z</time>
      </trkpt>
      <trkpt lat="43.42818" lon="1.9098">
        <ele>220</ele>
        <time>2023-06-05T09:42:16.000Z</time>
      </trkpt>
      <trkpt lat="43.42818" lon="1.90979">
        <ele>220</ele>
        <time>2023-06-05T09:42:17.000Z</time>
      </trkpt>
      <trkpt lat="43.42815" lon="1.90973">
        <ele>219.80000305176</ele>
        <time>2023-06-05T09:42:22.000Z</time>
      </trkpt>
      <trkpt lat="43.42811" lon="1.90968">
        <ele>220</ele>
        <time>2023-06-05T09:42:28.000Z</time>
      </trkpt>
      <trkpt lat="43.42808" lon="1.90965">
        <ele>220.19999694824</ele>
        <time>2023-06-05T09:42:32.000Z</time>
      </trkpt>
      <trkpt lat="43.42805" lon="1.90964">
        <ele>220.60000610352</ele>
        <time>2023-06-05T09:42:37.000Z</time>
      </trkpt>
      <trkpt lat="43.42806" lon="1.90964">
        <ele>220.60000610352</ele>
        <time>2023-06-05T09:42:43.000Z</time>
      </trkpt>
      <trkpt lat="43.42802" lon="1.90962">
        <ele>220.80000305176</ele>
        <time>2023-06-05T09:42:53.000Z</time>
      </trkpt>
      <trkpt lat="43.42802" lon="1.90962">
        <ele>220.80000305176</ele>
        <time>2023-06-05T09:43:00.000Z</time>
      </trkpt>
      <trkpt lat="43.42801" lon="1.90959">
        <ele>220.60000610352</ele>
        <time>2023-06-05T09:43:12.000Z</time>
      </trkpt>
      <trkpt lat="43.42796" lon="1.90953">
        <ele>220.60000610352</ele>
        <time>2023-06-05T09:43:21.000Z</time>
      </trkpt>
      <trkpt lat="43.42794" lon="1.90944">
        <ele>220.60000610352</ele>
        <time>2023-06-05T09:43:27.000Z</time>
      </trkpt>
      <trkpt lat="43.42793" lon="1.90936">
        <ele>220.60000610352</ele>
        <time>2023-06-05T09:43:33.000Z</time>
      </trkpt>
      <trkpt lat="43.4279" lon="1.90926">
        <ele>220.60000610352</ele>
        <time>2023-06-05T09:43:40.000Z</time>
      </trkpt>
      <trkpt lat="43.42786" lon="1.90917">
        <ele>220.60000610352</ele>
        <time>2023-06-05T09:43:48.000Z</time>
      </trkpt>
      <trkpt lat="43.42783" lon="1.9091">
        <ele>220.60000610352</ele>
        <time>2023-06-05T09:43:54.000Z</time>
      </trkpt>
      <trkpt lat="43.42782" lon="1.90909">
        <ele>220.60000610352</ele>
        <time>2023-06-05T09:43:55.000Z</time>
      </trkpt>
      <trkpt lat="43.4278" lon="1.90905">
        <ele>220.60000610352</ele>
        <time>2023-06-05T09:44:00.000Z</time>
      </trkpt>
      <trkpt lat="43.42774" lon="1.90898">
        <ele>220.60000610352</ele>
        <time>2023-06-05T09:44:08.000Z</time>
      </trkpt>
      <trkpt lat="43.42767" lon="1.90894">
        <ele>220.60000610352</ele>
        <time>2023-06-05T09:44:15.000Z</time>
      </trkpt>
      <trkpt lat="43.4276" lon="1.9089">
        <ele>221</ele>
        <time>2023-06-05T09:44:23.000Z</time>
      </trkpt>
      <trkpt lat="43.42759" lon="1.9089">
        <ele>221.19999694824</ele>
        <time>2023-06-05T09:44:24.000Z</time>
      </trkpt>
      <trkpt lat="43.42754" lon="1.90889">
        <ele>220.80000305176</ele>
        <time>2023-06-05T09:44:29.000Z</time>
      </trkpt>
      <trkpt lat="43.42744" lon="1.90888">
        <ele>220.60000610352</ele>
        <time>2023-06-05T09:44:39.000Z</time>
      </trkpt>
      <trkpt lat="43.42735" lon="1.90887">
        <ele>220.39999389648</ele>
        <time>2023-06-05T09:44:48.000Z</time>
      </trkpt>
      <trkpt lat="43.42726" lon="1.90887">
        <ele>220.39999389648</ele>
        <time>2023-06-05T09:44:56.000Z</time>
      </trkpt>
      <trkpt lat="43.42716" lon="1.90885">
        <ele>220.39999389648</ele>
        <time>2023-06-05T09:45:06.000Z</time>
      </trkpt>
      <trkpt lat="43.42709" lon="1.90884">
        <ele>220.60000610352</ele>
        <time>2023-06-05T09:45:12.000Z</time>
      </trkpt>
      <trkpt lat="43.42709" lon="1.90884">
        <ele>220.80000305176</ele>
        <time>2023-06-05T09:45:17.000Z</time>
      </trkpt>
      <trkpt lat="43.42709" lon="1.90884">
        <ele>220.80000305176</ele>
        <time>2023-06-05T09:45:26.000Z</time>
      </trkpt>
      <trkpt lat="43.42704" lon="1.90885">
        <ele>220.19999694824</ele>
        <time>2023-06-05T09:45:33.000Z</time>
      </trkpt>
      <trkpt lat="43.42694" lon="1.90884">
        <ele>220.60000610352</ele>
        <time>2023-06-05T09:45:42.000Z</time>
      </trkpt>
      <trkpt lat="43.42683" lon="1.90883">
        <ele>220.60000610352</ele>
        <time>2023-06-05T09:45:52.000Z</time>
      </trkpt>
      <trkpt lat="43.42674" lon="1.90884">
        <ele>220.39999389648</ele>
        <time>2023-06-05T09:46:00.000Z</time>
      </trkpt>
      <trkpt lat="43.42672" lon="1.90884">
        <ele>220.19999694824</ele>
        <time>2023-06-05T09:46:02.000Z</time>
      </trkpt>
      <trkpt lat="43.42667" lon="1.90884">
        <ele>220.39999389648</ele>
        <time>2023-06-05T09:46:07.000Z</time>
      </trkpt>
      <trkpt lat="43.42659" lon="1.90885">
        <ele>220.60000610352</ele>
        <time>2023-06-05T09:46:14.000Z</time>
      </trkpt>
      <trkpt lat="43.42657" lon="1.90885">
        <ele>220.60000610352</ele>
        <time>2023-06-05T09:46:16.000Z</time>
      </trkpt>
      <trkpt lat="43.4265" lon="1.90884">
        <ele>220.19999694824</ele>
        <time>2023-06-05T09:46:23.000Z</time>
      </trkpt>
      <trkpt lat="43.42643" lon="1.90883">
        <ele>220.39999389648</ele>
        <time>2023-06-05T09:46:30.000Z</time>
      </trkpt>
      <trkpt lat="43.42634" lon="1.90879">
        <ele>220.19999694824</ele>
        <time>2023-06-05T09:46:38.000Z</time>
      </trkpt>
      <trkpt lat="43.42625" lon="1.90874">
        <ele>220.19999694824</ele>
        <time>2023-06-05T09:46:46.000Z</time>
      </trkpt>
      <trkpt lat="43.4262" lon="1.90868">
        <ele>220</ele>
        <time>2023-06-05T09:46:52.000Z</time>
      </trkpt>
      <trkpt lat="43.42612" lon="1.90856">
        <ele>220.19999694824</ele>
        <time>2023-06-05T09:47:03.000Z</time>
      </trkpt>
      <trkpt lat="43.42608" lon="1.90848">
        <ele>220.19999694824</ele>
        <time>2023-06-05T09:47:10.000Z</time>
      </trkpt>
      <trkpt lat="43.42605" lon="1.90837">
        <ele>220.39999389648</ele>
        <time>2023-06-05T09:47:19.000Z</time>
      </trkpt>
      <trkpt lat="43.42604" lon="1.90825">
        <ele>220.19999694824</ele>
        <time>2023-06-05T09:47:28.000Z</time>
      </trkpt>
      <trkpt lat="43.42603" lon="1.90815">
        <ele>220.60000610352</ele>
        <time>2023-06-05T09:47:35.000Z</time>
      </trkpt>
      <trkpt lat="43.42603" lon="1.90805">
        <ele>220.60000610352</ele>
        <time>2023-06-05T09:47:42.000Z</time>
      </trkpt>
      <trkpt lat="43.42603" lon="1.90792">
        <ele>220.39999389648</ele>
        <time>2023-06-05T09:47:51.000Z</time>
      </trkpt>
      <trkpt lat="43.42604" lon="1.90783">
        <ele>220.60000610352</ele>
        <time>2023-06-05T09:47:57.000Z</time>
      </trkpt>
      <trkpt lat="43.42606" lon="1.9077">
        <ele>220.39999389648</ele>
        <time>2023-06-05T09:48:06.000Z</time>
      </trkpt>
      <trkpt lat="43.42607" lon="1.90761">
        <ele>220.80000305176</ele>
        <time>2023-06-05T09:48:13.000Z</time>
      </trkpt>
      <trkpt lat="43.42608" lon="1.90757">
        <ele>220.80000305176</ele>
        <time>2023-06-05T09:48:16.000Z</time>
      </trkpt>
      <trkpt lat="43.42608" lon="1.90751">
        <ele>221</ele>
        <time>2023-06-05T09:48:20.000Z</time>
      </trkpt>
      <trkpt lat="43.42608" lon="1.90749">
        <ele>221</ele>
        <time>2023-06-05T09:48:22.000Z</time>
      </trkpt>
      <trkpt lat="43.42608" lon="1.90746">
        <ele>220.80000305176</ele>
        <time>2023-06-05T09:48:24.000Z</time>
      </trkpt>
      <trkpt lat="43.42607" lon="1.90742">
        <ele>221</ele>
        <time>2023-06-05T09:48:27.000Z</time>
      </trkpt>
      <trkpt lat="43.42606" lon="1.90733">
        <ele>220.39999389648</ele>
        <time>2023-06-05T09:48:34.000Z</time>
      </trkpt>
      <trkpt lat="43.42602" lon="1.90717">
        <ele>220.19999694824</ele>
        <time>2023-06-05T09:48:44.000Z</time>
      </trkpt>
      <trkpt lat="43.426" lon="1.90704">
        <ele>220.19999694824</ele>
        <time>2023-06-05T09:48:52.000Z</time>
      </trkpt>
      <trkpt lat="43.42597" lon="1.90692">
        <ele>220.39999389648</ele>
        <time>2023-06-05T09:49:00.000Z</time>
      </trkpt>
      <trkpt lat="43.42594" lon="1.90681">
        <ele>220.39999389648</ele>
        <time>2023-06-05T09:49:08.000Z</time>
      </trkpt>
      <trkpt lat="43.4259" lon="1.9067">
        <ele>220.60000610352</ele>
        <time>2023-06-05T09:49:16.000Z</time>
      </trkpt>
      <trkpt lat="43.42587" lon="1.90662">
        <ele>220.80000305176</ele>
        <time>2023-06-05T09:49:23.000Z</time>
      </trkpt>
      <trkpt lat="43.42584" lon="1.90655">
        <ele>221</ele>
        <time>2023-06-05T09:49:30.000Z</time>
      </trkpt>
      <trkpt lat="43.42582" lon="1.9065">
        <ele>221</ele>
        <time>2023-06-05T09:49:35.000Z</time>
      </trkpt>
      <trkpt lat="43.42581" lon="1.90648">
        <ele>221</ele>
        <time>2023-06-05T09:49:37.000Z</time>
      </trkpt>
      <trkpt lat="43.42575" lon="1.90637">
        <ele>220.80000305176</ele>
        <time>2023-06-05T09:49:46.000Z</time>
      </trkpt>
      <trkpt lat="43.42569" lon="1.90627">
        <ele>220.39999389648</ele>
        <time>2023-06-05T09:49:54.000Z</time>
      </trkpt>
      <trkpt lat="43.42562" lon="1.90613">
        <ele>220.39999389648</ele>
        <time>2023-06-05T09:50:04.000Z</time>
      </trkpt>
      <trkpt lat="43.42558" lon="1.90598">
        <ele>220.39999389648</ele>
        <time>2023-06-05T09:50:13.000Z</time>
      </trkpt>
      <trkpt lat="43.42557" lon="1.90594">
        <ele>220.39999389648</ele>
        <time>2023-06-05T09:50:16.000Z</time>
      </trkpt>
      <trkpt lat="43.42557" lon="1.9059">
        <ele>220.60000610352</ele>
        <time>2023-06-05T09:50:20.000Z</time>
      </trkpt>
      <trkpt lat="43.42554" lon="1.90578">
        <ele>220.80000305176</ele>
        <time>2023-06-05T09:50:28.000Z</time>
      </trkpt>
      <trkpt lat="43.42552" lon="1.9057">
        <ele>221</ele>
        <time>2023-06-05T09:50:35.000Z</time>
      </trkpt>
      <trkpt lat="43.42547" lon="1.90563">
        <ele>220.39999389648</ele>
        <time>2023-06-05T09:50:42.000Z</time>
      </trkpt>
      <trkpt lat="43.42542" lon="1.90555">
        <ele>220.39999389648</ele>
        <time>2023-06-05T09:50:49.000Z</time>
      </trkpt>
      <trkpt lat="43.42535" lon="1.90547">
        <ele>220.19999694824</ele>
        <time>2023-06-05T09:50:57.000Z</time>
      </trkpt>
      <trkpt lat="43.42531" lon="1.90541">
        <ele>220.19999694824</ele>
        <time>2023-06-05T09:51:03.000Z</time>
      </trkpt>
      <trkpt lat="43.42525" lon="1.90533">
        <ele>220</ele>
        <time>2023-06-05T09:51:11.000Z</time>
      </trkpt>
      <trkpt lat="43.42518" lon="1.90524">
        <ele>220</ele>
        <time>2023-06-05T09:51:18.000Z</time>
      </trkpt>
      <trkpt lat="43.42512" lon="1.90517">
        <ele>220</ele>
        <time>2023-06-05T09:51:25.000Z</time>
      </trkpt>
      <trkpt lat="43.42505" lon="1.90509">
        <ele>220</ele>
        <time>2023-06-05T09:51:32.000Z</time>
      </trkpt>
      <trkpt lat="43.42497" lon="1.90497">
        <ele>220</ele>
        <time>2023-06-05T09:51:42.000Z</time>
      </trkpt>
      <trkpt lat="43.42489" lon="1.90485">
        <ele>220</ele>
        <time>2023-06-05T09:51:51.000Z</time>
      </trkpt>
      <trkpt lat="43.42483" lon="1.90474">
        <ele>220</ele>
        <time>2023-06-05T09:52:00.000Z</time>
      </trkpt>
      <trkpt lat="43.42478" lon="1.90463">
        <ele>220</ele>
        <time>2023-06-05T09:52:08.000Z</time>
      </trkpt>
      <trkpt lat="43.42475" lon="1.90453">
        <ele>220.39999389648</ele>
        <time>2023-06-05T09:52:16.000Z</time>
      </trkpt>
      <trkpt lat="43.42473" lon="1.90448">
        <ele>220.39999389648</ele>
        <time>2023-06-05T09:52:20.000Z</time>
      </trkpt>
      <trkpt lat="43.42472" lon="1.90445">
        <ele>220.60000610352</ele>
        <time>2023-06-05T09:52:23.000Z</time>
      </trkpt>
      <trkpt lat="43.42472" lon="1.90443">
        <ele>220.39999389648</ele>
        <time>2023-06-05T09:52:24.000Z</time>
      </trkpt>
      <trkpt lat="43.42469" lon="1.90435">
        <ele>220</ele>
        <time>2023-06-05T09:52:30.000Z</time>
      </trkpt>
      <trkpt lat="43.42467" lon="1.90427">
        <ele>220</ele>
        <time>2023-06-05T09:52:36.000Z</time>
      </trkpt>
      <trkpt lat="43.42466" lon="1.90426">
        <ele>220</ele>
        <time>2023-06-05T09:52:37.000Z</time>
      </trkpt>
      <trkpt lat="43.42464" lon="1.90418">
        <ele>220.39999389648</ele>
        <time>2023-06-05T09:52:42.000Z</time>
      </trkpt>
      <trkpt lat="43.42463" lon="1.90406">
        <ele>220.19999694824</ele>
        <time>2023-06-05T09:52:50.000Z</time>
      </trkpt>
      <trkpt lat="43.42462" lon="1.90397">
        <ele>220.39999389648</ele>
        <time>2023-06-05T09:52:57.000Z</time>
      </trkpt>
      <trkpt lat="43.42462" lon="1.90395">
        <ele>220.39999389648</ele>
        <time>2023-06-05T09:52:58.000Z</time>
      </trkpt>
      <trkpt lat="43.42462" lon="1.90383">
        <ele>220.39999389648</ele>
        <time>2023-06-05T09:53:06.000Z</time>
      </trkpt>
      <trkpt lat="43.42463" lon="1.90381">
        <ele>220.60000610352</ele>
        <time>2023-06-05T09:53:08.000Z</time>
      </trkpt>
      <trkpt lat="43.42463" lon="1.90376">
        <ele>220.39999389648</ele>
        <time>2023-06-05T09:53:12.000Z</time>
      </trkpt>
      <trkpt lat="43.42465" lon="1.90367">
        <ele>220.39999389648</ele>
        <time>2023-06-05T09:53:18.000Z</time>
      </trkpt>
      <trkpt lat="43.42466" lon="1.90366">
        <ele>220.60000610352</ele>
        <time>2023-06-05T09:53:19.000Z</time>
      </trkpt>
      <trkpt lat="43.42468" lon="1.90357">
        <ele>220.39999389648</ele>
        <time>2023-06-05T09:53:25.000Z</time>
      </trkpt>
      <trkpt lat="43.42472" lon="1.90348">
        <ele>220.39999389648</ele>
        <time>2023-06-05T09:53:32.000Z</time>
      </trkpt>
      <trkpt lat="43.42474" lon="1.90346">
        <ele>220.39999389648</ele>
        <time>2023-06-05T09:53:34.000Z</time>
      </trkpt>
      <trkpt lat="43.42477" lon="1.90343">
        <ele>220.39999389648</ele>
        <time>2023-06-05T09:53:38.000Z</time>
      </trkpt>
      <trkpt lat="43.42477" lon="1.90342">
        <ele>220.39999389648</ele>
        <time>2023-06-05T09:53:39.000Z</time>
      </trkpt>
      <trkpt lat="43.42482" lon="1.90335">
        <ele>220</ele>
        <time>2023-06-05T09:53:45.000Z</time>
      </trkpt>
      <trkpt lat="43.42489" lon="1.90328">
        <ele>220.19999694824</ele>
        <time>2023-06-05T09:53:54.000Z</time>
      </trkpt>
      <trkpt lat="43.42489" lon="1.90327">
        <ele>220</ele>
        <time>2023-06-05T09:53:55.000Z</time>
      </trkpt>
      <trkpt lat="43.42493" lon="1.90322">
        <ele>220.19999694824</ele>
        <time>2023-06-05T09:54:00.000Z</time>
      </trkpt>
      <trkpt lat="43.42499" lon="1.90315">
        <ele>220.39999389648</ele>
        <time>2023-06-05T09:54:08.000Z</time>
      </trkpt>
      <trkpt lat="43.42501" lon="1.90311">
        <ele>220.39999389648</ele>
        <time>2023-06-05T09:54:12.000Z</time>
      </trkpt>
      <trkpt lat="43.42504" lon="1.90308">
        <ele>220.19999694824</ele>
        <time>2023-06-05T09:54:15.000Z</time>
      </trkpt>
      <trkpt lat="43.42506" lon="1.90306">
        <ele>220.19999694824</ele>
        <time>2023-06-05T09:54:18.000Z</time>
      </trkpt>
      <trkpt lat="43.42509" lon="1.90303">
        <ele>220</ele>
        <time>2023-06-05T09:54:21.000Z</time>
      </trkpt>
      <trkpt lat="43.42509" lon="1.90302">
        <ele>220</ele>
        <time>2023-06-05T09:54:22.000Z</time>
      </trkpt>
      <trkpt lat="43.42512" lon="1.90299">
        <ele>220.39999389648</ele>
        <time>2023-06-05T09:54:26.000Z</time>
      </trkpt>
      <trkpt lat="43.42514" lon="1.90296">
        <ele>220.39999389648</ele>
        <time>2023-06-05T09:54:28.000Z</time>
      </trkpt>
      <trkpt lat="43.42515" lon="1.90295">
        <ele>220.19999694824</ele>
        <time>2023-06-05T09:54:29.000Z</time>
      </trkpt>
      <trkpt lat="43.42518" lon="1.90292">
        <ele>220.19999694824</ele>
        <time>2023-06-05T09:54:33.000Z</time>
      </trkpt>
      <trkpt lat="43.4252" lon="1.90289">
        <ele>220</ele>
        <time>2023-06-05T09:54:37.000Z</time>
      </trkpt>
      <trkpt lat="43.42524" lon="1.90287">
        <ele>220</ele>
        <time>2023-06-05T09:54:41.000Z</time>
      </trkpt>
      <trkpt lat="43.42529" lon="1.90281">
        <ele>220.19999694824</ele>
        <time>2023-06-05T09:54:47.000Z</time>
      </trkpt>
      <trkpt lat="43.42534" lon="1.90277">
        <ele>220.19999694824</ele>
        <time>2023-06-05T09:54:53.000Z</time>
      </trkpt>
      <trkpt lat="43.42535" lon="1.90275">
        <ele>220.19999694824</ele>
        <time>2023-06-05T09:54:55.000Z</time>
      </trkpt>
      <trkpt lat="43.42538" lon="1.90274">
        <ele>219.80000305176</ele>
        <time>2023-06-05T09:54:59.000Z</time>
      </trkpt>
      <trkpt lat="43.42539" lon="1.90273">
        <ele>219.80000305176</ele>
        <time>2023-06-05T09:55:00.000Z</time>
      </trkpt>
      <trkpt lat="43.42542" lon="1.90272">
        <ele>219.80000305176</ele>
        <time>2023-06-05T09:55:03.000Z</time>
      </trkpt>
      <trkpt lat="43.42542" lon="1.90271">
        <ele>220</ele>
        <time>2023-06-05T09:55:07.000Z</time>
      </trkpt>
      <trkpt lat="43.42544" lon="1.90266">
        <ele>220</ele>
        <time>2023-06-05T09:55:14.000Z</time>
      </trkpt>
      <trkpt lat="43.42551" lon="1.90256">
        <ele>219.80000305176</ele>
        <time>2023-06-05T09:55:23.000Z</time>
      </trkpt>
      <trkpt lat="43.42554" lon="1.90248">
        <ele>220</ele>
        <time>2023-06-05T09:55:29.000Z</time>
      </trkpt>
      <trkpt lat="43.42555" lon="1.90247">
        <ele>220</ele>
        <time>2023-06-05T09:55:30.000Z</time>
      </trkpt>
      <trkpt lat="43.42561" lon="1.90245">
        <ele>220</ele>
        <time>2023-06-05T09:55:35.000Z</time>
      </trkpt>
      <trkpt lat="43.42563" lon="1.90244">
        <ele>220</ele>
        <time>2023-06-05T09:55:41.000Z</time>
      </trkpt>
      <trkpt lat="43.42566" lon="1.90237">
        <ele>220</ele>
        <time>2023-06-05T09:55:46.000Z</time>
      </trkpt>
      <trkpt lat="43.42571" lon="1.90228">
        <ele>219.80000305176</ele>
        <time>2023-06-05T09:55:52.000Z</time>
      </trkpt>
      <trkpt lat="43.4258" lon="1.90217">
        <ele>220</ele>
        <time>2023-06-05T09:56:01.000Z</time>
      </trkpt>
      <trkpt lat="43.42587" lon="1.9021">
        <ele>219.80000305176</ele>
        <time>2023-06-05T09:56:08.000Z</time>
      </trkpt>
      <trkpt lat="43.42592" lon="1.90205">
        <ele>219.80000305176</ele>
        <time>2023-06-05T09:56:14.000Z</time>
      </trkpt>
      <trkpt lat="43.42592" lon="1.90204">
        <ele>219.80000305176</ele>
        <time>2023-06-05T09:56:16.000Z</time>
      </trkpt>
      <trkpt lat="43.42598" lon="1.90199">
        <ele>219.80000305176</ele>
        <time>2023-06-05T09:56:23.000Z</time>
      </trkpt>
      <trkpt lat="43.42601" lon="1.90196">
        <ele>219.60000610352</ele>
        <time>2023-06-05T09:56:29.000Z</time>
      </trkpt>
      <trkpt lat="43.42606" lon="1.9019">
        <ele>219.60000610352</ele>
        <time>2023-06-05T09:56:36.000Z</time>
      </trkpt>
      <trkpt lat="43.42613" lon="1.90181">
        <ele>219.39999389648</ele>
        <time>2023-06-05T09:56:44.000Z</time>
      </trkpt>
      <trkpt lat="43.42615" lon="1.90179">
        <ele>219.60000610352</ele>
        <time>2023-06-05T09:56:46.000Z</time>
      </trkpt>
      <trkpt lat="43.42618" lon="1.90176">
        <ele>220</ele>
        <time>2023-06-05T09:56:50.000Z</time>
      </trkpt>
      <trkpt lat="43.42623" lon="1.90166">
        <ele>219.60000610352</ele>
        <time>2023-06-05T09:56:58.000Z</time>
      </trkpt>
      <trkpt lat="43.42625" lon="1.90161">
        <ele>219.60000610352</ele>
        <time>2023-06-05T09:57:03.000Z</time>
      </trkpt>
      <trkpt lat="43.42626" lon="1.9016">
        <ele>219.60000610352</ele>
        <time>2023-06-05T09:57:04.000Z</time>
      </trkpt>
      <trkpt lat="43.42631" lon="1.90146">
        <ele>219.39999389648</ele>
        <time>2023-06-05T09:57:13.000Z</time>
      </trkpt>
      <trkpt lat="43.42634" lon="1.90139">
        <ele>219.60000610352</ele>
        <time>2023-06-05T09:57:20.000Z</time>
      </trkpt>
      <trkpt lat="43.42639" lon="1.9013">
        <ele>219.39999389648</ele>
        <time>2023-06-05T09:57:28.000Z</time>
      </trkpt>
      <trkpt lat="43.42643" lon="1.90121">
        <ele>219.39999389648</ele>
        <time>2023-06-05T09:57:35.000Z</time>
      </trkpt>
      <trkpt lat="43.42645" lon="1.90116">
        <ele>219.39999389648</ele>
        <time>2023-06-05T09:57:39.000Z</time>
      </trkpt>
      <trkpt lat="43.42646" lon="1.90114">
        <ele>219.39999389648</ele>
        <time>2023-06-05T09:57:42.000Z</time>
      </trkpt>
      <trkpt lat="43.42647" lon="1.90113">
        <ele>219.39999389648</ele>
        <time>2023-06-05T09:57:43.000Z</time>
      </trkpt>
      <trkpt lat="43.42649" lon="1.90108">
        <ele>219.39999389648</ele>
        <time>2023-06-05T09:57:47.000Z</time>
      </trkpt>
      <trkpt lat="43.42651" lon="1.90103">
        <ele>219.39999389648</ele>
        <time>2023-06-05T09:57:51.000Z</time>
      </trkpt>
      <trkpt lat="43.42653" lon="1.901">
        <ele>219.39999389648</ele>
        <time>2023-06-05T09:57:54.000Z</time>
      </trkpt>
      <trkpt lat="43.4266" lon="1.90091">
        <ele>219.60000610352</ele>
        <time>2023-06-05T09:58:04.000Z</time>
      </trkpt>
      <trkpt lat="43.42665" lon="1.90083">
        <ele>219.80000305176</ele>
        <time>2023-06-05T09:58:11.000Z</time>
      </trkpt>
      <trkpt lat="43.42669" lon="1.90073">
        <ele>220</ele>
        <time>2023-06-05T09:58:19.000Z</time>
      </trkpt>
      <trkpt lat="43.4267" lon="1.90071">
        <ele>220.19999694824</ele>
        <time>2023-06-05T09:58:21.000Z</time>
      </trkpt>
      <trkpt lat="43.42672" lon="1.90066">
        <ele>220.19999694824</ele>
        <time>2023-06-05T09:58:25.000Z</time>
      </trkpt>
      <trkpt lat="43.42672" lon="1.90065">
        <ele>220.19999694824</ele>
        <time>2023-06-05T09:58:26.000Z</time>
      </trkpt>
      <trkpt lat="43.4267" lon="1.90056">
        <ele>220.19999694824</ele>
        <time>2023-06-05T09:58:33.000Z</time>
      </trkpt>
      <trkpt lat="43.42666" lon="1.90044">
        <ele>220</ele>
        <time>2023-06-05T09:58:43.000Z</time>
      </trkpt>
      <trkpt lat="43.42661" lon="1.90035">
        <ele>219.80000305176</ele>
        <time>2023-06-05T09:58:51.000Z</time>
      </trkpt>
      <trkpt lat="43.42658" lon="1.90027">
        <ele>219.80000305176</ele>
        <time>2023-06-05T09:58:58.000Z</time>
      </trkpt>
      <trkpt lat="43.42657" lon="1.90026">
        <ele>219.60000610352</ele>
        <time>2023-06-05T09:59:00.000Z</time>
      </trkpt>
      <trkpt lat="43.42656" lon="1.90024">
        <ele>219.60000610352</ele>
        <time>2023-06-05T09:59:02.000Z</time>
      </trkpt>
      <trkpt lat="43.42653" lon="1.90016">
        <ele>219.60000610352</ele>
        <time>2023-06-05T09:59:09.000Z</time>
      </trkpt>
      <trkpt lat="43.42651" lon="1.90005">
        <ele>219.39999389648</ele>
        <time>2023-06-05T09:59:17.000Z</time>
      </trkpt>
      <trkpt lat="43.42651" lon="1.89995">
        <ele>219.39999389648</ele>
        <time>2023-06-05T09:59:24.000Z</time>
      </trkpt>
      <trkpt lat="43.42651" lon="1.89992">
        <ele>219.19999694824</ele>
        <time>2023-06-05T09:59:27.000Z</time>
      </trkpt>
      <trkpt lat="43.42652" lon="1.89989">
        <ele>219</ele>
        <time>2023-06-05T09:59:30.000Z</time>
      </trkpt>
      <trkpt lat="43.42652" lon="1.89988">
        <ele>219.19999694824</ele>
        <time>2023-06-05T09:59:31.000Z</time>
      </trkpt>
      <trkpt lat="43.42653" lon="1.89982">
        <ele>219.80000305176</ele>
        <time>2023-06-05T09:59:36.000Z</time>
      </trkpt>
      <trkpt lat="43.42654" lon="1.89981">
        <ele>219.80000305176</ele>
        <time>2023-06-05T09:59:37.000Z</time>
      </trkpt>
      <trkpt lat="43.42656" lon="1.89973">
        <ele>219.80000305176</ele>
        <time>2023-06-05T09:59:43.000Z</time>
      </trkpt>
      <trkpt lat="43.42657" lon="1.89963">
        <ele>219.39999389648</ele>
        <time>2023-06-05T09:59:50.000Z</time>
      </trkpt>
      <trkpt lat="43.42658" lon="1.89954">
        <ele>219.39999389648</ele>
        <time>2023-06-05T09:59:57.000Z</time>
      </trkpt>
      <trkpt lat="43.42659" lon="1.89945">
        <ele>219.60000610352</ele>
        <time>2023-06-05T10:00:04.000Z</time>
      </trkpt>
      <trkpt lat="43.4266" lon="1.89944">
        <ele>219.39999389648</ele>
        <time>2023-06-05T10:00:05.000Z</time>
      </trkpt>
      <trkpt lat="43.42662" lon="1.89934">
        <ele>219.19999694824</ele>
        <time>2023-06-05T10:00:13.000Z</time>
      </trkpt>
      <trkpt lat="43.42665" lon="1.89925">
        <ele>219.39999389648</ele>
        <time>2023-06-05T10:00:20.000Z</time>
      </trkpt>
      <trkpt lat="43.42667" lon="1.89917">
        <ele>219.39999389648</ele>
        <time>2023-06-05T10:00:26.000Z</time>
      </trkpt>
      <trkpt lat="43.42667" lon="1.89915">
        <ele>219.39999389648</ele>
        <time>2023-06-05T10:00:27.000Z</time>
      </trkpt>
      <trkpt lat="43.42669" lon="1.89907">
        <ele>219.39999389648</ele>
        <time>2023-06-05T10:00:33.000Z</time>
      </trkpt>
      <trkpt lat="43.4267" lon="1.89898">
        <ele>219.39999389648</ele>
        <time>2023-06-05T10:00:39.000Z</time>
      </trkpt>
      <trkpt lat="43.42671" lon="1.89896">
        <ele>219.39999389648</ele>
        <time>2023-06-05T10:00:41.000Z</time>
      </trkpt>
      <trkpt lat="43.42671" lon="1.89894">
        <ele>219.60000610352</ele>
        <time>2023-06-05T10:00:43.000Z</time>
      </trkpt>
      <trkpt lat="43.4267" lon="1.89885">
        <ele>220</ele>
        <time>2023-06-05T10:00:51.000Z</time>
      </trkpt>
      <trkpt lat="43.42669" lon="1.89883">
        <ele>220.19999694824</ele>
        <time>2023-06-05T10:00:53.000Z</time>
      </trkpt>
      <trkpt lat="43.42669" lon="1.89881">
        <ele>220.19999694824</ele>
        <time>2023-06-05T10:00:54.000Z</time>
      </trkpt>
      <trkpt lat="43.42669" lon="1.8988">
        <ele>220.60000610352</ele>
        <time>2023-06-05T10:00:58.000Z</time>
      </trkpt>
      <trkpt lat="43.42669" lon="1.89876">
        <ele>221</ele>
        <time>2023-06-05T10:01:05.000Z</time>
      </trkpt>
      <trkpt lat="43.42666" lon="1.89864">
        <ele>221</ele>
        <time>2023-06-05T10:01:13.000Z</time>
      </trkpt>
      <trkpt lat="43.42665" lon="1.89849">
        <ele>220.19999694824</ele>
        <time>2023-06-05T10:01:22.000Z</time>
      </trkpt>
      <trkpt lat="43.42664" lon="1.89836">
        <ele>219.39999389648</ele>
        <time>2023-06-05T10:01:29.000Z</time>
      </trkpt>
      <trkpt lat="43.42663" lon="1.89825">
        <ele>219.39999389648</ele>
        <time>2023-06-05T10:01:36.000Z</time>
      </trkpt>
      <trkpt lat="43.42663" lon="1.89812">
        <ele>219.39999389648</ele>
        <time>2023-06-05T10:01:44.000Z</time>
      </trkpt>
      <trkpt lat="43.42664" lon="1.89802">
        <ele>219.19999694824</ele>
        <time>2023-06-05T10:01:51.000Z</time>
      </trkpt>
      <trkpt lat="43.42664" lon="1.89799">
        <ele>219.39999389648</ele>
        <time>2023-06-05T10:01:53.000Z</time>
      </trkpt>
      <trkpt lat="43.42664" lon="1.89796">
        <ele>219.60000610352</ele>
        <time>2023-06-05T10:01:59.000Z</time>
      </trkpt>
      <trkpt lat="43.42668" lon="1.89781">
        <ele>219</ele>
        <time>2023-06-05T10:02:10.000Z</time>
      </trkpt>
      <trkpt lat="43.42671" lon="1.89769">
        <ele>218.80000305176</ele>
        <time>2023-06-05T10:02:18.000Z</time>
      </trkpt>
      <trkpt lat="43.42674" lon="1.89756">
        <ele>218.80000305176</ele>
        <time>2023-06-05T10:02:26.000Z</time>
      </trkpt>
      <trkpt lat="43.42677" lon="1.89744">
        <ele>218.60000610352</ele>
        <time>2023-06-05T10:02:34.000Z</time>
      </trkpt>
      <trkpt lat="43.42681" lon="1.89729">
        <ele>218.60000610352</ele>
        <time>2023-06-05T10:02:44.000Z</time>
      </trkpt>
      <trkpt lat="43.42685" lon="1.89719">
        <ele>218.60000610352</ele>
        <time>2023-06-05T10:02:52.000Z</time>
      </trkpt>
      <trkpt lat="43.42688" lon="1.8971">
        <ele>218.80000305176</ele>
        <time>2023-06-05T10:03:00.000Z</time>
      </trkpt>
      <trkpt lat="43.42691" lon="1.89706">
        <ele>219</ele>
        <time>2023-06-05T10:03:04.000Z</time>
      </trkpt>
      <trkpt lat="43.42691" lon="1.89703">
        <ele>219</ele>
        <time>2023-06-05T10:03:07.000Z</time>
      </trkpt>
      <trkpt lat="43.42691" lon="1.89703">
        <ele>219</ele>
        <time>2023-06-05T10:03:08.000Z</time>
      </trkpt>
      <trkpt lat="43.4269" lon="1.89702">
        <ele>219.19999694824</ele>
        <time>2023-06-05T10:03:16.000Z</time>
      </trkpt>
      <trkpt lat="43.42692" lon="1.89702">
        <ele>219.19999694824</ele>
        <time>2023-06-05T10:03:27.000Z</time>
      </trkpt>
      <trkpt lat="43.42693" lon="1.89698">
        <ele>219.19999694824</ele>
        <time>2023-06-05T10:03:34.000Z</time>
      </trkpt>
      <trkpt lat="43.42693" lon="1.89699">
        <ele>219</ele>
        <time>2023-06-05T10:03:41.000Z</time>
      </trkpt>
      <trkpt lat="43.42694" lon="1.89699">
        <ele>219</ele>
        <time>2023-06-05T10:03:44.000Z</time>
      </trkpt>
      <trkpt lat="43.42702" lon="1.897">
        <ele>218.80000305176</ele>
        <time>2023-06-05T10:04:34.000Z</time>
      </trkpt>
      <trkpt lat="43.42702" lon="1.897">
        <ele>218.80000305176</ele>
        <time>2023-06-05T10:04:36.000Z</time>
      </trkpt>
      <trkpt lat="43.42708" lon="1.89697">
        <ele>228.60000610352</ele>
        <time>2023-06-05T11:50:30.000Z</time>
      </trkpt>
      <trkpt lat="43.42708" lon="1.89697">
        <ele>228.60000610352</ele>
        <time>2023-06-05T11:50:32.000Z</time>
      </trkpt>
      <trkpt lat="43.42708" lon="1.89697">
        <ele>228.39999389648</ele>
        <time>2023-06-05T11:50:40.000Z</time>
      </trkpt>
      <trkpt lat="43.42703" lon="1.89696">
        <ele>228.39999389648</ele>
        <time>2023-06-05T11:50:49.000Z</time>
      </trkpt>
      <trkpt lat="43.42702" lon="1.89693">
        <ele>228.60000610352</ele>
        <time>2023-06-05T11:50:56.000Z</time>
      </trkpt>
      <trkpt lat="43.42701" lon="1.89692">
        <ele>228.80000305176</ele>
        <time>2023-06-05T11:51:04.000Z</time>
      </trkpt>
      <trkpt lat="43.42703" lon="1.89682">
        <ele>228.80000305176</ele>
        <time>2023-06-05T11:51:11.000Z</time>
      </trkpt>
      <trkpt lat="43.42704" lon="1.89677">
        <ele>228.80000305176</ele>
        <time>2023-06-05T11:51:15.000Z</time>
      </trkpt>
      <trkpt lat="43.42704" lon="1.89677">
        <ele>228.80000305176</ele>
        <time>2023-06-05T11:51:17.000Z</time>
      </trkpt>
      <trkpt lat="43.42704" lon="1.89674">
        <ele>229.19999694824</ele>
        <time>2023-06-05T11:51:23.000Z</time>
      </trkpt>
      <trkpt lat="43.42703" lon="1.89667">
        <ele>228.39999389648</ele>
        <time>2023-06-05T11:51:29.000Z</time>
      </trkpt>
      <trkpt lat="43.42706" lon="1.8965">
        <ele>228.80000305176</ele>
        <time>2023-06-05T11:51:40.000Z</time>
      </trkpt>
      <trkpt lat="43.42707" lon="1.89647">
        <ele>228.60000610352</ele>
        <time>2023-06-05T11:51:45.000Z</time>
      </trkpt>
      <trkpt lat="43.42708" lon="1.89644">
        <ele>228.60000610352</ele>
        <time>2023-06-05T11:51:50.000Z</time>
      </trkpt>
      <trkpt lat="43.42709" lon="1.89636">
        <ele>228.60000610352</ele>
        <time>2023-06-05T11:51:58.000Z</time>
      </trkpt>
      <trkpt lat="43.42711" lon="1.89629">
        <ele>229</ele>
        <time>2023-06-05T11:52:05.000Z</time>
      </trkpt>
      <trkpt lat="43.42713" lon="1.89615">
        <ele>228.80000305176</ele>
        <time>2023-06-05T11:52:14.000Z</time>
      </trkpt>
      <trkpt lat="43.42715" lon="1.89602">
        <ele>229.19999694824</ele>
        <time>2023-06-05T11:52:22.000Z</time>
      </trkpt>
      <trkpt lat="43.42715" lon="1.89601">
        <ele>229</ele>
        <time>2023-06-05T11:52:23.000Z</time>
      </trkpt>
      <trkpt lat="43.42716" lon="1.89596">
        <ele>228.80000305176</ele>
        <time>2023-06-05T11:52:28.000Z</time>
      </trkpt>
      <trkpt lat="43.42718" lon="1.89592">
        <ele>229</ele>
        <time>2023-06-05T11:52:35.000Z</time>
      </trkpt>
      <trkpt lat="43.42721" lon="1.89576">
        <ele>229</ele>
        <time>2023-06-05T11:52:45.000Z</time>
      </trkpt>
      <trkpt lat="43.42723" lon="1.89567">
        <ele>229.19999694824</ele>
        <time>2023-06-05T11:52:51.000Z</time>
      </trkpt>
      <trkpt lat="43.42727" lon="1.89549">
        <ele>229</ele>
        <time>2023-06-05T11:53:01.000Z</time>
      </trkpt>
      <trkpt lat="43.4273" lon="1.89534">
        <ele>229</ele>
        <time>2023-06-05T11:53:10.000Z</time>
      </trkpt>
      <trkpt lat="43.42734" lon="1.89516">
        <ele>229</ele>
        <time>2023-06-05T11:53:21.000Z</time>
      </trkpt>
      <trkpt lat="43.42736" lon="1.89503">
        <ele>229</ele>
        <time>2023-06-05T11:53:28.000Z</time>
      </trkpt>
      <trkpt lat="43.42739" lon="1.89485">
        <ele>229.19999694824</ele>
        <time>2023-06-05T11:53:38.000Z</time>
      </trkpt>
      <trkpt lat="43.42742" lon="1.89467">
        <ele>229.19999694824</ele>
        <time>2023-06-05T11:53:48.000Z</time>
      </trkpt>
      <trkpt lat="43.42744" lon="1.89461">
        <ele>229.19999694824</ele>
        <time>2023-06-05T11:53:51.000Z</time>
      </trkpt>
      <trkpt lat="43.42745" lon="1.89458">
        <ele>229</ele>
        <time>2023-06-05T11:53:53.000Z</time>
      </trkpt>
      <trkpt lat="43.42747" lon="1.89452">
        <ele>228.80000305176</ele>
        <time>2023-06-05T11:53:57.000Z</time>
      </trkpt>
      <trkpt lat="43.42746" lon="1.89452">
        <ele>228.60000610352</ele>
        <time>2023-06-05T11:53:59.000Z</time>
      </trkpt>
      <trkpt lat="43.42747" lon="1.89451">
        <ele>229.60000610352</ele>
        <time>2023-06-05T11:54:12.000Z</time>
      </trkpt>
      <trkpt lat="43.42747" lon="1.89441">
        <ele>228.80000305176</ele>
        <time>2023-06-05T11:54:19.000Z</time>
      </trkpt>
      <trkpt lat="43.42742" lon="1.89433">
        <ele>228.60000610352</ele>
        <time>2023-06-05T11:54:26.000Z</time>
      </trkpt>
      <trkpt lat="43.42736" lon="1.89427">
        <ele>228.60000610352</ele>
        <time>2023-06-05T11:54:33.000Z</time>
      </trkpt>
      <trkpt lat="43.42735" lon="1.89426">
        <ele>229</ele>
        <time>2023-06-05T11:54:40.000Z</time>
      </trkpt>
      <trkpt lat="43.42735" lon="1.89427">
        <ele>228.60000610352</ele>
        <time>2023-06-05T11:54:48.000Z</time>
      </trkpt>
      <trkpt lat="43.42737" lon="1.89426">
        <ele>229</ele>
        <time>2023-06-05T11:54:59.000Z</time>
      </trkpt>
      <trkpt lat="43.42739" lon="1.89423">
        <ele>228.80000305176</ele>
        <time>2023-06-05T11:55:06.000Z</time>
      </trkpt>
      <trkpt lat="43.4274" lon="1.89421">
        <ele>229.19999694824</ele>
        <time>2023-06-05T11:55:15.000Z</time>
      </trkpt>
      <trkpt lat="43.42738" lon="1.89418">
        <ele>229</ele>
        <time>2023-06-05T11:55:24.000Z</time>
      </trkpt>
      <trkpt lat="43.42734" lon="1.89414">
        <ele>228.80000305176</ele>
        <time>2023-06-05T11:55:29.000Z</time>
      </trkpt>
      <trkpt lat="43.42731" lon="1.89408">
        <ele>228.80000305176</ele>
        <time>2023-06-05T11:55:34.000Z</time>
      </trkpt>
      <trkpt lat="43.42728" lon="1.89398">
        <ele>228.60000610352</ele>
        <time>2023-06-05T11:55:42.000Z</time>
      </trkpt>
      <trkpt lat="43.42725" lon="1.89391">
        <ele>228.60000610352</ele>
        <time>2023-06-05T11:55:47.000Z</time>
      </trkpt>
      <trkpt lat="43.42723" lon="1.89385">
        <ele>228.80000305176</ele>
        <time>2023-06-05T11:55:51.000Z</time>
      </trkpt>
      <trkpt lat="43.42719" lon="1.89375">
        <ele>229</ele>
        <time>2023-06-05T11:55:59.000Z</time>
      </trkpt>
      <trkpt lat="43.42714" lon="1.89366">
        <ele>228.80000305176</ele>
        <time>2023-06-05T11:56:06.000Z</time>
      </trkpt>
      <trkpt lat="43.42709" lon="1.89358">
        <ele>228.80000305176</ele>
        <time>2023-06-05T11:56:13.000Z</time>
      </trkpt>
      <trkpt lat="43.42705" lon="1.89349">
        <ele>229</ele>
        <time>2023-06-05T11:56:20.000Z</time>
      </trkpt>
      <trkpt lat="43.42702" lon="1.89344">
        <ele>228.80000305176</ele>
        <time>2023-06-05T11:56:25.000Z</time>
      </trkpt>
      <trkpt lat="43.427" lon="1.89341">
        <ele>228.80000305176</ele>
        <time>2023-06-05T11:56:27.000Z</time>
      </trkpt>
      <trkpt lat="43.42697" lon="1.89335">
        <ele>228.80000305176</ele>
        <time>2023-06-05T11:56:32.000Z</time>
      </trkpt>
      <trkpt lat="43.42696" lon="1.89333">
        <ele>228.80000305176</ele>
        <time>2023-06-05T11:56:34.000Z</time>
      </trkpt>
      <trkpt lat="43.42691" lon="1.89322">
        <ele>228.80000305176</ele>
        <time>2023-06-05T11:56:42.000Z</time>
      </trkpt>
      <trkpt lat="43.42685" lon="1.8931">
        <ele>229</ele>
        <time>2023-06-05T11:56:51.000Z</time>
      </trkpt>
      <trkpt lat="43.42683" lon="1.89303">
        <ele>229.19999694824</ele>
        <time>2023-06-05T11:56:57.000Z</time>
      </trkpt>
      <trkpt lat="43.42683" lon="1.89304">
        <ele>229.19999694824</ele>
        <time>2023-06-05T11:56:58.000Z</time>
      </trkpt>
      <trkpt lat="43.42682" lon="1.89299">
        <ele>229.39999389648</ele>
        <time>2023-06-05T11:57:05.000Z</time>
      </trkpt>
      <trkpt lat="43.42677" lon="1.89287">
        <ele>229.19999694824</ele>
        <time>2023-06-05T11:57:15.000Z</time>
      </trkpt>
      <trkpt lat="43.42672" lon="1.89275">
        <ele>229.39999389648</ele>
        <time>2023-06-05T11:57:24.000Z</time>
      </trkpt>
      <trkpt lat="43.4267" lon="1.89264">
        <ele>229.39999389648</ele>
        <time>2023-06-05T11:57:31.000Z</time>
      </trkpt>
      <trkpt lat="43.4267" lon="1.89263">
        <ele>229.39999389648</ele>
        <time>2023-06-05T11:57:32.000Z</time>
      </trkpt>
      <trkpt lat="43.42669" lon="1.89256">
        <ele>229.60000610352</ele>
        <time>2023-06-05T11:57:37.000Z</time>
      </trkpt>
      <trkpt lat="43.42669" lon="1.89252">
        <ele>229.80000305176</ele>
        <time>2023-06-05T11:57:43.000Z</time>
      </trkpt>
      <trkpt lat="43.4267" lon="1.89244">
        <ele>229.60000610352</ele>
        <time>2023-06-05T11:57:48.000Z</time>
      </trkpt>
      <trkpt lat="43.4267" lon="1.89241">
        <ele>229.60000610352</ele>
        <time>2023-06-05T11:57:50.000Z</time>
      </trkpt>
      <trkpt lat="43.4267" lon="1.89237">
        <ele>229.60000610352</ele>
        <time>2023-06-05T11:57:53.000Z</time>
      </trkpt>
      <trkpt lat="43.42671" lon="1.89231">
        <ele>229.60000610352</ele>
        <time>2023-06-05T11:57:57.000Z</time>
      </trkpt>
      <trkpt lat="43.42673" lon="1.89224">
        <ele>229.39999389648</ele>
        <time>2023-06-05T11:58:02.000Z</time>
      </trkpt>
      <trkpt lat="43.42674" lon="1.8922">
        <ele>229.39999389648</ele>
        <time>2023-06-05T11:58:05.000Z</time>
      </trkpt>
      <trkpt lat="43.42674" lon="1.89217">
        <ele>229.39999389648</ele>
        <time>2023-06-05T11:58:07.000Z</time>
      </trkpt>
      <trkpt lat="43.42675" lon="1.89215">
        <ele>229.39999389648</ele>
        <time>2023-06-05T11:58:09.000Z</time>
      </trkpt>
      <trkpt lat="43.42676" lon="1.89211">
        <ele>229.19999694824</ele>
        <time>2023-06-05T11:58:12.000Z</time>
      </trkpt>
      <trkpt lat="43.42676" lon="1.8921">
        <ele>229.19999694824</ele>
        <time>2023-06-05T11:58:13.000Z</time>
      </trkpt>
      <trkpt lat="43.42678" lon="1.89203">
        <ele>229.19999694824</ele>
        <time>2023-06-05T11:58:18.000Z</time>
      </trkpt>
      <trkpt lat="43.42678" lon="1.89201">
        <ele>229</ele>
        <time>2023-06-05T11:58:19.000Z</time>
      </trkpt>
      <trkpt lat="43.4268" lon="1.8919">
        <ele>229</ele>
        <time>2023-06-05T11:58:27.000Z</time>
      </trkpt>
      <trkpt lat="43.42682" lon="1.89183">
        <ele>229</ele>
        <time>2023-06-05T11:58:35.000Z</time>
      </trkpt>
      <trkpt lat="43.42683" lon="1.89176">
        <ele>229</ele>
        <time>2023-06-05T11:58:42.000Z</time>
      </trkpt>
      <trkpt lat="43.42685" lon="1.89171">
        <ele>229</ele>
        <time>2023-06-05T11:58:47.000Z</time>
      </trkpt>
      <trkpt lat="43.42684" lon="1.89167">
        <ele>229</ele>
        <time>2023-06-05T11:58:53.000Z</time>
      </trkpt>
      <trkpt lat="43.42685" lon="1.89159">
        <ele>229.19999694824</ele>
        <time>2023-06-05T11:59:00.000Z</time>
      </trkpt>
      <trkpt lat="43.42685" lon="1.89152">
        <ele>229</ele>
        <time>2023-06-05T11:59:05.000Z</time>
      </trkpt>
      <trkpt lat="43.42685" lon="1.8915">
        <ele>229</ele>
        <time>2023-06-05T11:59:06.000Z</time>
      </trkpt>
      <trkpt lat="43.42686" lon="1.89141">
        <ele>229</ele>
        <time>2023-06-05T11:59:12.000Z</time>
      </trkpt>
      <trkpt lat="43.42683" lon="1.89131">
        <ele>229.19999694824</ele>
        <time>2023-06-05T11:59:19.000Z</time>
      </trkpt>
      <trkpt lat="43.42679" lon="1.89125">
        <ele>229.19999694824</ele>
        <time>2023-06-05T11:59:25.000Z</time>
      </trkpt>
      <trkpt lat="43.42674" lon="1.89122">
        <ele>229.19999694824</ele>
        <time>2023-06-05T11:59:32.000Z</time>
      </trkpt>
      <trkpt lat="43.42671" lon="1.89121">
        <ele>229</ele>
        <time>2023-06-05T11:59:38.000Z</time>
      </trkpt>
      <trkpt lat="43.42664" lon="1.8912">
        <ele>229.60000610352</ele>
        <time>2023-06-05T11:59:44.000Z</time>
      </trkpt>
      <trkpt lat="43.42653" lon="1.89118">
        <ele>229.19999694824</ele>
        <time>2023-06-05T11:59:54.000Z</time>
      </trkpt>
      <trkpt lat="43.42645" lon="1.8912">
        <ele>229.19999694824</ele>
        <time>2023-06-05T12:00:01.000Z</time>
      </trkpt>
      <trkpt lat="43.42641" lon="1.8912">
        <ele>229.19999694824</ele>
        <time>2023-06-05T12:00:05.000Z</time>
      </trkpt>
      <trkpt lat="43.42639" lon="1.8912">
        <ele>229.19999694824</ele>
        <time>2023-06-05T12:00:07.000Z</time>
      </trkpt>
      <trkpt lat="43.42637" lon="1.8912">
        <ele>229.19999694824</ele>
        <time>2023-06-05T12:00:09.000Z</time>
      </trkpt>
      <trkpt lat="43.42634" lon="1.89119">
        <ele>229.19999694824</ele>
        <time>2023-06-05T12:00:11.000Z</time>
      </trkpt>
      <trkpt lat="43.42631" lon="1.89118">
        <ele>229.39999389648</ele>
        <time>2023-06-05T12:00:14.000Z</time>
      </trkpt>
      <trkpt lat="43.42626" lon="1.89118">
        <ele>229.39999389648</ele>
        <time>2023-06-05T12:00:19.000Z</time>
      </trkpt>
      <trkpt lat="43.42624" lon="1.89117">
        <ele>229.39999389648</ele>
        <time>2023-06-05T12:00:21.000Z</time>
      </trkpt>
      <trkpt lat="43.42622" lon="1.89116">
        <ele>229.39999389648</ele>
        <time>2023-06-05T12:00:23.000Z</time>
      </trkpt>
      <trkpt lat="43.42621" lon="1.89116">
        <ele>229.39999389648</ele>
        <time>2023-06-05T12:00:26.000Z</time>
      </trkpt>
      <trkpt lat="43.42616" lon="1.89113">
        <ele>229.39999389648</ele>
        <time>2023-06-05T12:00:32.000Z</time>
      </trkpt>
      <trkpt lat="43.42614" lon="1.89112">
        <ele>229.39999389648</ele>
        <time>2023-06-05T12:00:33.000Z</time>
      </trkpt>
      <trkpt lat="43.42609" lon="1.89108">
        <ele>229.39999389648</ele>
        <time>2023-06-05T12:00:39.000Z</time>
      </trkpt>
      <trkpt lat="43.42608" lon="1.89107">
        <ele>229.39999389648</ele>
        <time>2023-06-05T12:00:40.000Z</time>
      </trkpt>
      <trkpt lat="43.42604" lon="1.89099">
        <ele>229.39999389648</ele>
        <time>2023-06-05T12:00:46.000Z</time>
      </trkpt>
      <trkpt lat="43.42601" lon="1.89089">
        <ele>229.39999389648</ele>
        <time>2023-06-05T12:00:54.000Z</time>
      </trkpt>
      <trkpt lat="43.42599" lon="1.89082">
        <ele>229.39999389648</ele>
        <time>2023-06-05T12:01:02.000Z</time>
      </trkpt>
      <trkpt lat="43.42597" lon="1.89074">
        <ele>229.39999389648</ele>
        <time>2023-06-05T12:01:09.000Z</time>
      </trkpt>
      <trkpt lat="43.42596" lon="1.89067">
        <ele>229.39999389648</ele>
        <time>2023-06-05T12:01:15.000Z</time>
      </trkpt>
      <trkpt lat="43.42593" lon="1.8906">
        <ele>229.39999389648</ele>
        <time>2023-06-05T12:01:21.000Z</time>
      </trkpt>
      <trkpt lat="43.42593" lon="1.89058">
        <ele>229.39999389648</ele>
        <time>2023-06-05T12:01:22.000Z</time>
      </trkpt>
      <trkpt lat="43.42586" lon="1.89047">
        <ele>229.39999389648</ele>
        <time>2023-06-05T12:01:31.000Z</time>
      </trkpt>
      <trkpt lat="43.42584" lon="1.89045">
        <ele>229.60000610352</ele>
        <time>2023-06-05T12:01:33.000Z</time>
      </trkpt>
      <trkpt lat="43.42583" lon="1.89043">
        <ele>229.60000610352</ele>
        <time>2023-06-05T12:01:36.000Z</time>
      </trkpt>
      <trkpt lat="43.42576" lon="1.89033">
        <ele>229.60000610352</ele>
        <time>2023-06-05T12:01:45.000Z</time>
      </trkpt>
      <trkpt lat="43.42573" lon="1.8903">
        <ele>229.60000610352</ele>
        <time>2023-06-05T12:01:49.000Z</time>
      </trkpt>
      <trkpt lat="43.42571" lon="1.89028">
        <ele>229.60000610352</ele>
        <time>2023-06-05T12:01:51.000Z</time>
      </trkpt>
      <trkpt lat="43.42564" lon="1.89019">
        <ele>229.39999389648</ele>
        <time>2023-06-05T12:01:59.000Z</time>
      </trkpt>
      <trkpt lat="43.42556" lon="1.89009">
        <ele>229.39999389648</ele>
        <time>2023-06-05T12:02:07.000Z</time>
      </trkpt>
      <trkpt lat="43.42551" lon="1.89001">
        <ele>229.60000610352</ele>
        <time>2023-06-05T12:02:15.000Z</time>
      </trkpt>
      <trkpt lat="43.4255" lon="1.89">
        <ele>229.60000610352</ele>
        <time>2023-06-05T12:02:16.000Z</time>
      </trkpt>
      <trkpt lat="43.42544" lon="1.88992">
        <ele>229.60000610352</ele>
        <time>2023-06-05T12:02:22.000Z</time>
      </trkpt>
      <trkpt lat="43.42539" lon="1.88985">
        <ele>229.60000610352</ele>
        <time>2023-06-05T12:02:28.000Z</time>
      </trkpt>
      <trkpt lat="43.42539" lon="1.88984">
        <ele>229.60000610352</ele>
        <time>2023-06-05T12:02:29.000Z</time>
      </trkpt>
      <trkpt lat="43.42534" lon="1.88974">
        <ele>229.60000610352</ele>
        <time>2023-06-05T12:02:37.000Z</time>
      </trkpt>
      <trkpt lat="43.42532" lon="1.88971">
        <ele>229.39999389648</ele>
        <time>2023-06-05T12:02:40.000Z</time>
      </trkpt>
      <trkpt lat="43.42531" lon="1.88967">
        <ele>229.39999389648</ele>
        <time>2023-06-05T12:02:43.000Z</time>
      </trkpt>
      <trkpt lat="43.4253" lon="1.88965">
        <ele>229.39999389648</ele>
        <time>2023-06-05T12:02:44.000Z</time>
      </trkpt>
      <trkpt lat="43.42529" lon="1.88955">
        <ele>229.39999389648</ele>
        <time>2023-06-05T12:02:51.000Z</time>
      </trkpt>
      <trkpt lat="43.42526" lon="1.88949">
        <ele>229.39999389648</ele>
        <time>2023-06-05T12:02:57.000Z</time>
      </trkpt>
      <trkpt lat="43.42523" lon="1.88941">
        <ele>229.60000610352</ele>
        <time>2023-06-05T12:03:04.000Z</time>
      </trkpt>
      <trkpt lat="43.42521" lon="1.88938">
        <ele>229.60000610352</ele>
        <time>2023-06-05T12:03:06.000Z</time>
      </trkpt>
      <trkpt lat="43.42517" lon="1.88935">
        <ele>229.60000610352</ele>
        <time>2023-06-05T12:03:10.000Z</time>
      </trkpt>
      <trkpt lat="43.42515" lon="1.88933">
        <ele>229.60000610352</ele>
        <time>2023-06-05T12:03:12.000Z</time>
      </trkpt>
      <trkpt lat="43.42513" lon="1.88932">
        <ele>229.60000610352</ele>
        <time>2023-06-05T12:03:14.000Z</time>
      </trkpt>
      <trkpt lat="43.42511" lon="1.88931">
        <ele>229.80000305176</ele>
        <time>2023-06-05T12:03:16.000Z</time>
      </trkpt>
      <trkpt lat="43.42509" lon="1.8893">
        <ele>229.80000305176</ele>
        <time>2023-06-05T12:03:18.000Z</time>
      </trkpt>
      <trkpt lat="43.42502" lon="1.88929">
        <ele>229.80000305176</ele>
        <time>2023-06-05T12:03:24.000Z</time>
      </trkpt>
      <trkpt lat="43.42494" lon="1.88927">
        <ele>229.80000305176</ele>
        <time>2023-06-05T12:03:31.000Z</time>
      </trkpt>
      <trkpt lat="43.4249" lon="1.88927">
        <ele>229.80000305176</ele>
        <time>2023-06-05T12:03:35.000Z</time>
      </trkpt>
      <trkpt lat="43.42487" lon="1.88927">
        <ele>229.80000305176</ele>
        <time>2023-06-05T12:03:38.000Z</time>
      </trkpt>
      <trkpt lat="43.42485" lon="1.88927">
        <ele>229.80000305176</ele>
        <time>2023-06-05T12:03:40.000Z</time>
      </trkpt>
      <trkpt lat="43.42479" lon="1.88926">
        <ele>229.80000305176</ele>
        <time>2023-06-05T12:03:46.000Z</time>
      </trkpt>
      <trkpt lat="43.42472" lon="1.88924">
        <ele>229.60000610352</ele>
        <time>2023-06-05T12:03:53.000Z</time>
      </trkpt>
      <trkpt lat="43.42471" lon="1.88923">
        <ele>229.60000610352</ele>
        <time>2023-06-05T12:03:54.000Z</time>
      </trkpt>
      <trkpt lat="43.42464" lon="1.88922">
        <ele>229.60000610352</ele>
        <time>2023-06-05T12:04:00.000Z</time>
      </trkpt>
      <trkpt lat="43.42458" lon="1.88922">
        <ele>229.80000305176</ele>
        <time>2023-06-05T12:04:07.000Z</time>
      </trkpt>
      <trkpt lat="43.42454" lon="1.88922">
        <ele>229.60000610352</ele>
        <time>2023-06-05T12:04:13.000Z</time>
      </trkpt>
      <trkpt lat="43.42453" lon="1.88921">
        <ele>229.60000610352</ele>
        <time>2023-06-05T12:04:24.000Z</time>
      </trkpt>
      <trkpt lat="43.42446" lon="1.88918">
        <ele>229.60000610352</ele>
        <time>2023-06-05T12:04:31.000Z</time>
      </trkpt>
      <trkpt lat="43.42443" lon="1.88915">
        <ele>229.60000610352</ele>
        <time>2023-06-05T12:04:35.000Z</time>
      </trkpt>
      <trkpt lat="43.42441" lon="1.88914">
        <ele>229.60000610352</ele>
        <time>2023-06-05T12:04:38.000Z</time>
      </trkpt>
      <trkpt lat="43.4244" lon="1.88913">
        <ele>229.60000610352</ele>
        <time>2023-06-05T12:04:39.000Z</time>
      </trkpt>
      <trkpt lat="43.42435" lon="1.88912">
        <ele>229.60000610352</ele>
        <time>2023-06-05T12:04:43.000Z</time>
      </trkpt>
      <trkpt lat="43.42434" lon="1.88911">
        <ele>229.60000610352</ele>
        <time>2023-06-05T12:04:44.000Z</time>
      </trkpt>
      <trkpt lat="43.42426" lon="1.88904">
        <ele>229.39999389648</ele>
        <time>2023-06-05T12:04:52.000Z</time>
      </trkpt>
      <trkpt lat="43.42419" lon="1.88899">
        <ele>229.39999389648</ele>
        <time>2023-06-05T12:04:59.000Z</time>
      </trkpt>
      <trkpt lat="43.42412" lon="1.88892">
        <ele>229.39999389648</ele>
        <time>2023-06-05T12:05:07.000Z</time>
      </trkpt>
      <trkpt lat="43.42411" lon="1.88891">
        <ele>229.60000610352</ele>
        <time>2023-06-05T12:05:08.000Z</time>
      </trkpt>
      <trkpt lat="43.42402" lon="1.88884">
        <ele>229.80000305176</ele>
        <time>2023-06-05T12:05:17.000Z</time>
      </trkpt>
      <trkpt lat="43.42401" lon="1.88884">
        <ele>230.19999694824</ele>
        <time>2023-06-05T12:05:23.000Z</time>
      </trkpt>
      <trkpt lat="43.42396" lon="1.8888">
        <ele>230.19999694824</ele>
        <time>2023-06-05T12:05:31.000Z</time>
      </trkpt>
      <trkpt lat="43.42392" lon="1.88874">
        <ele>230.39999389648</ele>
        <time>2023-06-05T12:05:37.000Z</time>
      </trkpt>
      <trkpt lat="43.42391" lon="1.88873">
        <ele>230.39999389648</ele>
        <time>2023-06-05T12:05:38.000Z</time>
      </trkpt>
      <trkpt lat="43.42384" lon="1.88866">
        <ele>230.19999694824</ele>
        <time>2023-06-05T12:05:46.000Z</time>
      </trkpt>
      <trkpt lat="43.42379" lon="1.88859">
        <ele>230.19999694824</ele>
        <time>2023-06-05T12:05:53.000Z</time>
      </trkpt>
      <trkpt lat="43.42375" lon="1.8885">
        <ele>230.19999694824</ele>
        <time>2023-06-05T12:06:00.000Z</time>
      </trkpt>
      <trkpt lat="43.42372" lon="1.88842">
        <ele>230.39999389648</ele>
        <time>2023-06-05T12:06:06.000Z</time>
      </trkpt>
      <trkpt lat="43.42371" lon="1.88839">
        <ele>230.39999389648</ele>
        <time>2023-06-05T12:06:08.000Z</time>
      </trkpt>
      <trkpt lat="43.42372" lon="1.88831">
        <ele>230.39999389648</ele>
        <time>2023-06-05T12:06:14.000Z</time>
      </trkpt>
      <trkpt lat="43.42373" lon="1.88826">
        <ele>230.19999694824</ele>
        <time>2023-06-05T12:06:18.000Z</time>
      </trkpt>
      <trkpt lat="43.42373" lon="1.88825">
        <ele>230.19999694824</ele>
        <time>2023-06-05T12:06:19.000Z</time>
      </trkpt>
      <trkpt lat="43.42374" lon="1.88823">
        <ele>230.19999694824</ele>
        <time>2023-06-05T12:06:20.000Z</time>
      </trkpt>
      <trkpt lat="43.42375" lon="1.88816">
        <ele>230.19999694824</ele>
        <time>2023-06-05T12:06:25.000Z</time>
      </trkpt>
      <trkpt lat="43.42376" lon="1.88805">
        <ele>230.19999694824</ele>
        <time>2023-06-05T12:06:31.000Z</time>
      </trkpt>
      <trkpt lat="43.42377" lon="1.888">
        <ele>230</ele>
        <time>2023-06-05T12:06:34.000Z</time>
      </trkpt>
      <trkpt lat="43.42378" lon="1.88792">
        <ele>229.60000610352</ele>
        <time>2023-06-05T12:06:39.000Z</time>
      </trkpt>
      <trkpt lat="43.4238" lon="1.88787">
        <ele>229.39999389648</ele>
        <time>2023-06-05T12:06:43.000Z</time>
      </trkpt>
      <trkpt lat="43.4238" lon="1.88782">
        <ele>229.39999389648</ele>
        <time>2023-06-05T12:06:46.000Z</time>
      </trkpt>
      <trkpt lat="43.42382" lon="1.88774">
        <ele>229.19999694824</ele>
        <time>2023-06-05T12:06:51.000Z</time>
      </trkpt>
      <trkpt lat="43.42384" lon="1.8877">
        <ele>229.19999694824</ele>
        <time>2023-06-05T12:06:54.000Z</time>
      </trkpt>
      <trkpt lat="43.42387" lon="1.88759">
        <ele>229.19999694824</ele>
        <time>2023-06-05T12:07:02.000Z</time>
      </trkpt>
      <trkpt lat="43.42388" lon="1.88757">
        <ele>229.19999694824</ele>
        <time>2023-06-05T12:07:03.000Z</time>
      </trkpt>
      <trkpt lat="43.4239" lon="1.88751">
        <ele>229.19999694824</ele>
        <time>2023-06-05T12:07:09.000Z</time>
      </trkpt>
      <trkpt lat="43.42391" lon="1.88749">
        <ele>229.39999389648</ele>
        <time>2023-06-05T12:07:10.000Z</time>
      </trkpt>
      <trkpt lat="43.42393" lon="1.8874">
        <ele>229.19999694824</ele>
        <time>2023-06-05T12:07:16.000Z</time>
      </trkpt>
      <trkpt lat="43.42393" lon="1.88737">
        <ele>229.39999389648</ele>
        <time>2023-06-05T12:07:18.000Z</time>
      </trkpt>
      <trkpt lat="43.42393" lon="1.88736">
        <ele>229.39999389648</ele>
        <time>2023-06-05T12:07:19.000Z</time>
      </trkpt>
      <trkpt lat="43.42393" lon="1.88733">
        <ele>229.39999389648</ele>
        <time>2023-06-05T12:07:21.000Z</time>
      </trkpt>
      <trkpt lat="43.42395" lon="1.88726">
        <ele>229.39999389648</ele>
        <time>2023-06-05T12:07:26.000Z</time>
      </trkpt>
      <trkpt lat="43.42396" lon="1.8872">
        <ele>229.39999389648</ele>
        <time>2023-06-05T12:07:30.000Z</time>
      </trkpt>
      <trkpt lat="43.42396" lon="1.88717">
        <ele>229.39999389648</ele>
        <time>2023-06-05T12:07:32.000Z</time>
      </trkpt>
      <trkpt lat="43.42396" lon="1.88716">
        <ele>229.39999389648</ele>
        <time>2023-06-05T12:07:33.000Z</time>
      </trkpt>
      <trkpt lat="43.42396" lon="1.88707">
        <ele>229.39999389648</ele>
        <time>2023-06-05T12:07:38.000Z</time>
      </trkpt>
      <trkpt lat="43.42397" lon="1.88704">
        <ele>229.39999389648</ele>
        <time>2023-06-05T12:07:40.000Z</time>
      </trkpt>
      <trkpt lat="43.42396" lon="1.88699">
        <ele>229.60000610352</ele>
        <time>2023-06-05T12:07:43.000Z</time>
      </trkpt>
      <trkpt lat="43.42396" lon="1.88693">
        <ele>229.60000610352</ele>
        <time>2023-06-05T12:07:47.000Z</time>
      </trkpt>
      <trkpt lat="43.42397" lon="1.88692">
        <ele>229.60000610352</ele>
        <time>2023-06-05T12:07:48.000Z</time>
      </trkpt>
      <trkpt lat="43.42396" lon="1.88684">
        <ele>229.60000610352</ele>
        <time>2023-06-05T12:07:53.000Z</time>
      </trkpt>
      <trkpt lat="43.42396" lon="1.88682">
        <ele>229.80000305176</ele>
        <time>2023-06-05T12:07:54.000Z</time>
      </trkpt>
      <trkpt lat="43.42394" lon="1.88673">
        <ele>229.80000305176</ele>
        <time>2023-06-05T12:08:00.000Z</time>
      </trkpt>
      <trkpt lat="43.42391" lon="1.88661">
        <ele>230</ele>
        <time>2023-06-05T12:08:08.000Z</time>
      </trkpt>
      <trkpt lat="43.42384" lon="1.88647">
        <ele>229.80000305176</ele>
        <time>2023-06-05T12:08:19.000Z</time>
      </trkpt>
      <trkpt lat="43.42379" lon="1.88638">
        <ele>230</ele>
        <time>2023-06-05T12:08:28.000Z</time>
      </trkpt>
      <trkpt lat="43.42376" lon="1.88632">
        <ele>230</ele>
        <time>2023-06-05T12:08:33.000Z</time>
      </trkpt>
      <trkpt lat="43.42374" lon="1.88629">
        <ele>230</ele>
        <time>2023-06-05T12:08:35.000Z</time>
      </trkpt>
      <trkpt lat="43.42371" lon="1.88618">
        <ele>229.80000305176</ele>
        <time>2023-06-05T12:08:43.000Z</time>
      </trkpt>
      <trkpt lat="43.42368" lon="1.88608">
        <ele>230</ele>
        <time>2023-06-05T12:08:49.000Z</time>
      </trkpt>
      <trkpt lat="43.42368" lon="1.88605">
        <ele>230.19999694824</ele>
        <time>2023-06-05T12:08:51.000Z</time>
      </trkpt>
      <trkpt lat="43.42367" lon="1.88602">
        <ele>230.19999694824</ele>
        <time>2023-06-05T12:08:53.000Z</time>
      </trkpt>
      <trkpt lat="43.42367" lon="1.88593">
        <ele>230</ele>
        <time>2023-06-05T12:08:59.000Z</time>
      </trkpt>
      <trkpt lat="43.42368" lon="1.88581">
        <ele>230</ele>
        <time>2023-06-05T12:09:08.000Z</time>
      </trkpt>
      <trkpt lat="43.42368" lon="1.88578">
        <ele>230</ele>
        <time>2023-06-05T12:09:10.000Z</time>
      </trkpt>
      <trkpt lat="43.42369" lon="1.88574">
        <ele>230</ele>
        <time>2023-06-05T12:09:13.000Z</time>
      </trkpt>
      <trkpt lat="43.4237" lon="1.88572">
        <ele>230</ele>
        <time>2023-06-05T12:09:15.000Z</time>
      </trkpt>
      <trkpt lat="43.4237" lon="1.88564">
        <ele>229.80000305176</ele>
        <time>2023-06-05T12:09:21.000Z</time>
      </trkpt>
      <trkpt lat="43.4237" lon="1.88562">
        <ele>229.80000305176</ele>
        <time>2023-06-05T12:09:22.000Z</time>
      </trkpt>
      <trkpt lat="43.42372" lon="1.88555">
        <ele>230</ele>
        <time>2023-06-05T12:09:28.000Z</time>
      </trkpt>
      <trkpt lat="43.42372" lon="1.88554">
        <ele>230</ele>
        <time>2023-06-05T12:09:29.000Z</time>
      </trkpt>
      <trkpt lat="43.42373" lon="1.8855">
        <ele>230</ele>
        <time>2023-06-05T12:09:32.000Z</time>
      </trkpt>
      <trkpt lat="43.42374" lon="1.88543">
        <ele>230.19999694824</ele>
        <time>2023-06-05T12:09:37.000Z</time>
      </trkpt>
      <trkpt lat="43.42374" lon="1.88542">
        <ele>230.19999694824</ele>
        <time>2023-06-05T12:09:38.000Z</time>
      </trkpt>
      <trkpt lat="43.42375" lon="1.88537">
        <ele>230.19999694824</ele>
        <time>2023-06-05T12:09:42.000Z</time>
      </trkpt>
      <trkpt lat="43.42377" lon="1.88533">
        <ele>230</ele>
        <time>2023-06-05T12:09:46.000Z</time>
      </trkpt>
      <trkpt lat="43.42376" lon="1.88533">
        <ele>230</ele>
        <time>2023-06-05T12:09:48.000Z</time>
      </trkpt>
      <trkpt lat="43.42377" lon="1.88535">
        <ele>230</ele>
        <time>2023-06-05T12:09:59.000Z</time>
      </trkpt>
      <trkpt lat="43.42376" lon="1.88533">
        <ele>230</ele>
        <time>2023-06-05T12:10:10.000Z</time>
      </trkpt>
      <trkpt lat="43.42378" lon="1.88521">
        <ele>230</ele>
        <time>2023-06-05T12:10:21.000Z</time>
      </trkpt>
      <trkpt lat="43.42381" lon="1.88512">
        <ele>229.80000305176</ele>
        <time>2023-06-05T12:10:27.000Z</time>
      </trkpt>
      <trkpt lat="43.42381" lon="1.8851">
        <ele>229.80000305176</ele>
        <time>2023-06-05T12:10:28.000Z</time>
      </trkpt>
      <trkpt lat="43.42384" lon="1.88505">
        <ele>230</ele>
        <time>2023-06-05T12:10:32.000Z</time>
      </trkpt>
      <trkpt lat="43.42385" lon="1.88504">
        <ele>230</ele>
        <time>2023-06-05T12:10:34.000Z</time>
      </trkpt>
      <trkpt lat="43.42388" lon="1.88498">
        <ele>230</ele>
        <time>2023-06-05T12:10:40.000Z</time>
      </trkpt>
      <trkpt lat="43.42389" lon="1.88495">
        <ele>230.19999694824</ele>
        <time>2023-06-05T12:10:43.000Z</time>
      </trkpt>
      <trkpt lat="43.42391" lon="1.88491">
        <ele>230.19999694824</ele>
        <time>2023-06-05T12:10:47.000Z</time>
      </trkpt>
      <trkpt lat="43.42392" lon="1.88488">
        <ele>230.19999694824</ele>
        <time>2023-06-05T12:10:49.000Z</time>
      </trkpt>
      <trkpt lat="43.42393" lon="1.88482">
        <ele>230.39999389648</ele>
        <time>2023-06-05T12:10:54.000Z</time>
      </trkpt>
      <trkpt lat="43.42393" lon="1.88481">
        <ele>230.39999389648</ele>
        <time>2023-06-05T12:10:55.000Z</time>
      </trkpt>
      <trkpt lat="43.42392" lon="1.88472">
        <ele>230.39999389648</ele>
        <time>2023-06-05T12:11:01.000Z</time>
      </trkpt>
      <trkpt lat="43.42392" lon="1.88472">
        <ele>230.39999389648</ele>
        <time>2023-06-05T12:11:02.000Z</time>
      </trkpt>
      <trkpt lat="43.4239" lon="1.88468">
        <ele>230.60000610352</ele>
        <time>2023-06-05T12:11:05.000Z</time>
      </trkpt>
      <trkpt lat="43.4239" lon="1.88468">
        <ele>230.39999389648</ele>
        <time>2023-06-05T12:11:09.000Z</time>
      </trkpt>
      <trkpt lat="43.42388" lon="1.88465">
        <ele>230.60000610352</ele>
        <time>2023-06-05T12:11:16.000Z</time>
      </trkpt>
      <trkpt lat="43.42387" lon="1.88464">
        <ele>230.80000305176</ele>
        <time>2023-06-05T12:11:19.000Z</time>
      </trkpt>
      <trkpt lat="43.42383" lon="1.88461">
        <ele>230.80000305176</ele>
        <time>2023-06-05T12:11:24.000Z</time>
      </trkpt>
      <trkpt lat="43.42377" lon="1.88459">
        <ele>230.80000305176</ele>
        <time>2023-06-05T12:11:32.000Z</time>
      </trkpt>
      <trkpt lat="43.42368" lon="1.88454">
        <ele>230.80000305176</ele>
        <time>2023-06-05T12:11:40.000Z</time>
      </trkpt>
      <trkpt lat="43.42358" lon="1.88446">
        <ele>230.80000305176</ele>
        <time>2023-06-05T12:11:50.000Z</time>
      </trkpt>
      <trkpt lat="43.42351" lon="1.88438">
        <ele>230.60000610352</ele>
        <time>2023-06-05T12:11:58.000Z</time>
      </trkpt>
      <trkpt lat="43.42345" lon="1.88429">
        <ele>230.39999389648</ele>
        <time>2023-06-05T12:12:06.000Z</time>
      </trkpt>
      <trkpt lat="43.4234" lon="1.88421">
        <ele>230.19999694824</ele>
        <time>2023-06-05T12:12:13.000Z</time>
      </trkpt>
      <trkpt lat="43.42337" lon="1.88414">
        <ele>230.19999694824</ele>
        <time>2023-06-05T12:12:20.000Z</time>
      </trkpt>
      <trkpt lat="43.42335" lon="1.88411">
        <ele>230.39999389648</ele>
        <time>2023-06-05T12:12:27.000Z</time>
      </trkpt>
      <trkpt lat="43.42329" lon="1.88403">
        <ele>230.60000610352</ele>
        <time>2023-06-05T12:12:36.000Z</time>
      </trkpt>
      <trkpt lat="43.42322" lon="1.88394">
        <ele>230.60000610352</ele>
        <time>2023-06-05T12:12:44.000Z</time>
      </trkpt>
      <trkpt lat="43.42316" lon="1.88385">
        <ele>230.39999389648</ele>
        <time>2023-06-05T12:12:52.000Z</time>
      </trkpt>
      <trkpt lat="43.42311" lon="1.88378">
        <ele>230.19999694824</ele>
        <time>2023-06-05T12:12:59.000Z</time>
      </trkpt>
      <trkpt lat="43.42306" lon="1.88369">
        <ele>230.19999694824</ele>
        <time>2023-06-05T12:13:08.000Z</time>
      </trkpt>
      <trkpt lat="43.42304" lon="1.88368">
        <ele>230.80000305176</ele>
        <time>2023-06-05T12:13:14.000Z</time>
      </trkpt>
      <trkpt lat="43.42301" lon="1.88364">
        <ele>230.39999389648</ele>
        <time>2023-06-05T12:13:20.000Z</time>
      </trkpt>
      <trkpt lat="43.42301" lon="1.88363">
        <ele>230.39999389648</ele>
        <time>2023-06-05T12:13:27.000Z</time>
      </trkpt>
      <trkpt lat="43.423" lon="1.88362">
        <ele>230.60000610352</ele>
        <time>2023-06-05T12:13:34.000Z</time>
      </trkpt>
      <trkpt lat="43.42299" lon="1.88362">
        <ele>230.60000610352</ele>
        <time>2023-06-05T12:13:45.000Z</time>
      </trkpt>
      <trkpt lat="43.42299" lon="1.8836">
        <ele>230.39999389648</ele>
        <time>2023-06-05T12:13:51.000Z</time>
      </trkpt>
      <trkpt lat="43.42301" lon="1.88358">
        <ele>230.60000610352</ele>
        <time>2023-06-05T12:13:58.000Z</time>
      </trkpt>
      <trkpt lat="43.42302" lon="1.88359">
        <ele>230.60000610352</ele>
        <time>2023-06-05T12:14:05.000Z</time>
      </trkpt>
      <trkpt lat="43.42302" lon="1.88356">
        <ele>230.60000610352</ele>
        <time>2023-06-05T12:14:14.000Z</time>
      </trkpt>
      <trkpt lat="43.42299" lon="1.88355">
        <ele>230.60000610352</ele>
        <time>2023-06-05T12:14:20.000Z</time>
      </trkpt>
      <trkpt lat="43.42294" lon="1.88351">
        <ele>230.60000610352</ele>
        <time>2023-06-05T12:14:26.000Z</time>
      </trkpt>
      <trkpt lat="43.4229" lon="1.88349">
        <ele>230.60000610352</ele>
        <time>2023-06-05T12:14:31.000Z</time>
      </trkpt>
      <trkpt lat="43.42282" lon="1.88344">
        <ele>230.80000305176</ele>
        <time>2023-06-05T12:14:40.000Z</time>
      </trkpt>
      <trkpt lat="43.42275" lon="1.88341">
        <ele>230.60000610352</ele>
        <time>2023-06-05T12:14:46.000Z</time>
      </trkpt>
      <trkpt lat="43.42272" lon="1.88339">
        <ele>230.80000305176</ele>
        <time>2023-06-05T12:14:52.000Z</time>
      </trkpt>
      <trkpt lat="43.42267" lon="1.88336">
        <ele>231.19999694824</ele>
        <time>2023-06-05T12:14:58.000Z</time>
      </trkpt>
      <trkpt lat="43.42258" lon="1.8833">
        <ele>231.19999694824</ele>
        <time>2023-06-05T12:15:07.000Z</time>
      </trkpt>
      <trkpt lat="43.42252" lon="1.88326">
        <ele>231.39999389648</ele>
        <time>2023-06-05T12:15:15.000Z</time>
      </trkpt>
      <trkpt lat="43.42246" lon="1.88323">
        <ele>231.80000305176</ele>
        <time>2023-06-05T12:15:21.000Z</time>
      </trkpt>
      <trkpt lat="43.42246" lon="1.88322">
        <ele>231.80000305176</ele>
        <time>2023-06-05T12:15:22.000Z</time>
      </trkpt>
      <trkpt lat="43.42239" lon="1.88317">
        <ele>232.19999694824</ele>
        <time>2023-06-05T12:15:30.000Z</time>
      </trkpt>
      <trkpt lat="43.42233" lon="1.88314">
        <ele>232.39999389648</ele>
        <time>2023-06-05T12:15:37.000Z</time>
      </trkpt>
      <trkpt lat="43.42226" lon="1.88309">
        <ele>232.60000610352</ele>
        <time>2023-06-05T12:15:46.000Z</time>
      </trkpt>
      <trkpt lat="43.42223" lon="1.88306">
        <ele>232.80000305176</ele>
        <time>2023-06-05T12:15:49.000Z</time>
      </trkpt>
      <trkpt lat="43.42219" lon="1.88302">
        <ele>233.19999694824</ele>
        <time>2023-06-05T12:15:55.000Z</time>
      </trkpt>
      <trkpt lat="43.42214" lon="1.88295">
        <ele>233.39999389648</ele>
        <time>2023-06-05T12:16:02.000Z</time>
      </trkpt>
      <trkpt lat="43.42207" lon="1.88286">
        <ele>233.60000610352</ele>
        <time>2023-06-05T12:16:11.000Z</time>
      </trkpt>
      <trkpt lat="43.42201" lon="1.88279">
        <ele>233.60000610352</ele>
        <time>2023-06-05T12:16:19.000Z</time>
      </trkpt>
      <trkpt lat="43.42193" lon="1.88271">
        <ele>233.60000610352</ele>
        <time>2023-06-05T12:16:29.000Z</time>
      </trkpt>
      <trkpt lat="43.42186" lon="1.88263">
        <ele>233.80000305176</ele>
        <time>2023-06-05T12:16:38.000Z</time>
      </trkpt>
      <trkpt lat="43.42185" lon="1.8826">
        <ele>234</ele>
        <time>2023-06-05T12:16:40.000Z</time>
      </trkpt>
      <trkpt lat="43.4218" lon="1.88251">
        <ele>234</ele>
        <time>2023-06-05T12:16:48.000Z</time>
      </trkpt>
      <trkpt lat="43.42177" lon="1.88237">
        <ele>233.80000305176</ele>
        <time>2023-06-05T12:16:59.000Z</time>
      </trkpt>
      <trkpt lat="43.42173" lon="1.88226">
        <ele>233.39999389648</ele>
        <time>2023-06-05T12:17:08.000Z</time>
      </trkpt>
      <trkpt lat="43.4217" lon="1.88213">
        <ele>233</ele>
        <time>2023-06-05T12:17:18.000Z</time>
      </trkpt>
      <trkpt lat="43.42169" lon="1.8821">
        <ele>232.80000305176</ele>
        <time>2023-06-05T12:17:21.000Z</time>
      </trkpt>
      <trkpt lat="43.42168" lon="1.88204">
        <ele>232.60000610352</ele>
        <time>2023-06-05T12:17:25.000Z</time>
      </trkpt>
      <trkpt lat="43.42167" lon="1.88201">
        <ele>232.60000610352</ele>
        <time>2023-06-05T12:17:28.000Z</time>
      </trkpt>
      <trkpt lat="43.42167" lon="1.88195">
        <ele>232.39999389648</ele>
        <time>2023-06-05T12:17:32.000Z</time>
      </trkpt>
      <trkpt lat="43.42166" lon="1.88187">
        <ele>232</ele>
        <time>2023-06-05T12:17:38.000Z</time>
      </trkpt>
      <trkpt lat="43.42166" lon="1.88186">
        <ele>232</ele>
        <time>2023-06-05T12:17:39.000Z</time>
      </trkpt>
      <trkpt lat="43.42166" lon="1.88175">
        <ele>231.80000305176</ele>
        <time>2023-06-05T12:17:47.000Z</time>
      </trkpt>
      <trkpt lat="43.42166" lon="1.88166">
        <ele>231.60000610352</ele>
        <time>2023-06-05T12:17:54.000Z</time>
      </trkpt>
      <trkpt lat="43.42167" lon="1.88159">
        <ele>231.80000305176</ele>
        <time>2023-06-05T12:17:59.000Z</time>
      </trkpt>
      <trkpt lat="43.42168" lon="1.88156">
        <ele>231.80000305176</ele>
        <time>2023-06-05T12:18:01.000Z</time>
      </trkpt>
      <trkpt lat="43.42168" lon="1.88153">
        <ele>231.60000610352</ele>
        <time>2023-06-05T12:18:04.000Z</time>
      </trkpt>
      <trkpt lat="43.42168" lon="1.88147">
        <ele>231.60000610352</ele>
        <time>2023-06-05T12:18:08.000Z</time>
      </trkpt>
      <trkpt lat="43.42166" lon="1.88134">
        <ele>231.19999694824</ele>
        <time>2023-06-05T12:18:16.000Z</time>
      </trkpt>
      <trkpt lat="43.42166" lon="1.88132">
        <ele>231.19999694824</ele>
        <time>2023-06-05T12:18:17.000Z</time>
      </trkpt>
      <trkpt lat="43.42165" lon="1.88127">
        <ele>231.39999389648</ele>
        <time>2023-06-05T12:18:21.000Z</time>
      </trkpt>
      <trkpt lat="43.42165" lon="1.88127">
        <ele>231.39999389648</ele>
        <time>2023-06-05T12:18:22.000Z</time>
      </trkpt>
      <trkpt lat="43.42165" lon="1.88127">
        <ele>231.80000305176</ele>
        <time>2023-06-05T12:18:28.000Z</time>
      </trkpt>
      <trkpt lat="43.42162" lon="1.88127">
        <ele>231.60000610352</ele>
        <time>2023-06-05T12:18:36.000Z</time>
      </trkpt>
      <trkpt lat="43.42162" lon="1.88127">
        <ele>231.60000610352</ele>
        <time>2023-06-05T12:18:46.000Z</time>
      </trkpt>
      <trkpt lat="43.42162" lon="1.88127">
        <ele>231.60000610352</ele>
        <time>2023-06-05T12:18:54.000Z</time>
      </trkpt>
      <trkpt lat="43.4216" lon="1.88125">
        <ele>231.60000610352</ele>
        <time>2023-06-05T12:19:07.000Z</time>
      </trkpt>
      <trkpt lat="43.4216" lon="1.88123">
        <ele>231.39999389648</ele>
        <time>2023-06-05T12:19:15.000Z</time>
      </trkpt>
      <trkpt lat="43.42159" lon="1.88115">
        <ele>231.80000305176</ele>
        <time>2023-06-05T12:19:21.000Z</time>
      </trkpt>
      <trkpt lat="43.42158" lon="1.88103">
        <ele>232</ele>
        <time>2023-06-05T12:19:29.000Z</time>
      </trkpt>
      <trkpt lat="43.42159" lon="1.88102">
        <ele>232.39999389648</ele>
        <time>2023-06-05T12:19:35.000Z</time>
      </trkpt>
      <trkpt lat="43.42159" lon="1.88102">
        <ele>232.80000305176</ele>
        <time>2023-06-05T12:19:46.000Z</time>
      </trkpt>
      <trkpt lat="43.4216" lon="1.88099">
        <ele>232.80000305176</ele>
        <time>2023-06-05T12:19:52.000Z</time>
      </trkpt>
      <trkpt lat="43.4216" lon="1.88093">
        <ele>232.80000305176</ele>
        <time>2023-06-05T12:19:56.000Z</time>
      </trkpt>
      <trkpt lat="43.42162" lon="1.88086">
        <ele>233</ele>
        <time>2023-06-05T12:20:01.000Z</time>
      </trkpt>
      <trkpt lat="43.42166" lon="1.88076">
        <ele>233.60000610352</ele>
        <time>2023-06-05T12:20:10.000Z</time>
      </trkpt>
      <trkpt lat="43.42166" lon="1.88075">
        <ele>233.80000305176</ele>
        <time>2023-06-05T12:20:11.000Z</time>
      </trkpt>
      <trkpt lat="43.42169" lon="1.8807">
        <ele>234</ele>
        <time>2023-06-05T12:20:15.000Z</time>
      </trkpt>
      <trkpt lat="43.42174" lon="1.88061">
        <ele>234.39999389648</ele>
        <time>2023-06-05T12:20:25.000Z</time>
      </trkpt>
      <trkpt lat="43.42175" lon="1.88059">
        <ele>235</ele>
        <time>2023-06-05T12:20:29.000Z</time>
      </trkpt>
      <trkpt lat="43.42177" lon="1.88056">
        <ele>235</ele>
        <time>2023-06-05T12:20:32.000Z</time>
      </trkpt>
      <trkpt lat="43.42182" lon="1.88047">
        <ele>235.80000305176</ele>
        <time>2023-06-05T12:20:41.000Z</time>
      </trkpt>
      <trkpt lat="43.42185" lon="1.88041">
        <ele>236</ele>
        <time>2023-06-05T12:20:46.000Z</time>
      </trkpt>
      <trkpt lat="43.42186" lon="1.88039">
        <ele>236</ele>
        <time>2023-06-05T12:20:48.000Z</time>
      </trkpt>
      <trkpt lat="43.42192" lon="1.88028">
        <ele>236.60000610352</ele>
        <time>2023-06-05T12:20:57.000Z</time>
      </trkpt>
      <trkpt lat="43.42195" lon="1.88023">
        <ele>237.19999694824</ele>
        <time>2023-06-05T12:21:02.000Z</time>
      </trkpt>
      <trkpt lat="43.42195" lon="1.88022">
        <ele>237.39999389648</ele>
        <time>2023-06-05T12:21:04.000Z</time>
      </trkpt>
      <trkpt lat="43.42195" lon="1.88022">
        <ele>237.80000305176</ele>
        <time>2023-06-05T12:21:09.000Z</time>
      </trkpt>
      <trkpt lat="43.42199" lon="1.88015">
        <ele>237.80000305176</ele>
        <time>2023-06-05T12:21:16.000Z</time>
      </trkpt>
      <trkpt lat="43.42206" lon="1.88001">
        <ele>238</ele>
        <time>2023-06-05T12:21:28.000Z</time>
      </trkpt>
      <trkpt lat="43.42208" lon="1.87998">
        <ele>238.19999694824</ele>
        <time>2023-06-05T12:21:31.000Z</time>
      </trkpt>
      <trkpt lat="43.42213" lon="1.87989">
        <ele>238.39999389648</ele>
        <time>2023-06-05T12:21:38.000Z</time>
      </trkpt>
      <trkpt lat="43.42216" lon="1.87985">
        <ele>238.39999389648</ele>
        <time>2023-06-05T12:21:45.000Z</time>
      </trkpt>
      <trkpt lat="43.42215" lon="1.87985">
        <ele>238.19999694824</ele>
        <time>2023-06-05T12:21:55.000Z</time>
      </trkpt>
      <trkpt lat="43.42218" lon="1.8798">
        <ele>238.19999694824</ele>
        <time>2023-06-05T12:22:09.000Z</time>
      </trkpt>
      <trkpt lat="43.42225" lon="1.87967">
        <ele>239.19999694824</ele>
        <time>2023-06-05T12:22:19.000Z</time>
      </trkpt>
      <trkpt lat="43.42226" lon="1.87966">
        <ele>239.19999694824</ele>
        <time>2023-06-05T12:22:20.000Z</time>
      </trkpt>
      <trkpt lat="43.42232" lon="1.87955">
        <ele>239.39999389648</ele>
        <time>2023-06-05T12:22:28.000Z</time>
      </trkpt>
      <trkpt lat="43.42238" lon="1.87943">
        <ele>239.60000610352</ele>
        <time>2023-06-05T12:22:36.000Z</time>
      </trkpt>
      <trkpt lat="43.4224" lon="1.87941">
        <ele>239.60000610352</ele>
        <time>2023-06-05T12:22:39.000Z</time>
      </trkpt>
      <trkpt lat="43.42241" lon="1.87938">
        <ele>239.60000610352</ele>
        <time>2023-06-05T12:22:41.000Z</time>
      </trkpt>
      <trkpt lat="43.42247" lon="1.87928">
        <ele>240.19999694824</ele>
        <time>2023-06-05T12:22:49.000Z</time>
      </trkpt>
      <trkpt lat="43.42248" lon="1.87927">
        <ele>240.39999389648</ele>
        <time>2023-06-05T12:22:50.000Z</time>
      </trkpt>
      <trkpt lat="43.42252" lon="1.87919">
        <ele>240.19999694824</ele>
        <time>2023-06-05T12:22:57.000Z</time>
      </trkpt>
      <trkpt lat="43.42256" lon="1.87911">
        <ele>240.60000610352</ele>
        <time>2023-06-05T12:23:05.000Z</time>
      </trkpt>
      <trkpt lat="43.42261" lon="1.879">
        <ele>241.19999694824</ele>
        <time>2023-06-05T12:23:15.000Z</time>
      </trkpt>
      <trkpt lat="43.42262" lon="1.87899">
        <ele>241.19999694824</ele>
        <time>2023-06-05T12:23:16.000Z</time>
      </trkpt>
      <trkpt lat="43.42268" lon="1.87888">
        <ele>241.19999694824</ele>
        <time>2023-06-05T12:23:25.000Z</time>
      </trkpt>
      <trkpt lat="43.42273" lon="1.87876">
        <ele>241.19999694824</ele>
        <time>2023-06-05T12:23:35.000Z</time>
      </trkpt>
      <trkpt lat="43.4228" lon="1.87866">
        <ele>241.19999694824</ele>
        <time>2023-06-05T12:23:45.000Z</time>
      </trkpt>
      <trkpt lat="43.42284" lon="1.87859">
        <ele>241</ele>
        <time>2023-06-05T12:23:53.000Z</time>
      </trkpt>
      <trkpt lat="43.42288" lon="1.87853">
        <ele>240.80000305176</ele>
        <time>2023-06-05T12:23:59.000Z</time>
      </trkpt>
      <trkpt lat="43.42295" lon="1.8784">
        <ele>241.39999389648</ele>
        <time>2023-06-05T12:24:11.000Z</time>
      </trkpt>
      <trkpt lat="43.42298" lon="1.87836">
        <ele>241.60000610352</ele>
        <time>2023-06-05T12:24:18.000Z</time>
      </trkpt>
      <trkpt lat="43.42299" lon="1.87834">
        <ele>241.39999389648</ele>
        <time>2023-06-05T12:24:19.000Z</time>
      </trkpt>
      <trkpt lat="43.42302" lon="1.8783">
        <ele>241.60000610352</ele>
        <time>2023-06-05T12:24:23.000Z</time>
      </trkpt>
      <trkpt lat="43.42303" lon="1.87829">
        <ele>241.60000610352</ele>
        <time>2023-06-05T12:24:24.000Z</time>
      </trkpt>
      <trkpt lat="43.4231" lon="1.87817">
        <ele>242.19999694824</ele>
        <time>2023-06-05T12:24:35.000Z</time>
      </trkpt>
      <trkpt lat="43.42317" lon="1.87808">
        <ele>242.80000305176</ele>
        <time>2023-06-05T12:24:44.000Z</time>
      </trkpt>
      <trkpt lat="43.42323" lon="1.878">
        <ele>242.60000610352</ele>
        <time>2023-06-05T12:24:52.000Z</time>
      </trkpt>
      <trkpt lat="43.4233" lon="1.87788">
        <ele>243.19999694824</ele>
        <time>2023-06-05T12:25:02.000Z</time>
      </trkpt>
      <trkpt lat="43.4233" lon="1.87787">
        <ele>243.19999694824</ele>
        <time>2023-06-05T12:25:03.000Z</time>
      </trkpt>
      <trkpt lat="43.42332" lon="1.87784">
        <ele>243.19999694824</ele>
        <time>2023-06-05T12:25:06.000Z</time>
      </trkpt>
      <trkpt lat="43.42333" lon="1.87782">
        <ele>243.19999694824</ele>
        <time>2023-06-05T12:25:08.000Z</time>
      </trkpt>
      <trkpt lat="43.42337" lon="1.87775">
        <ele>243.39999389648</ele>
        <time>2023-06-05T12:25:14.000Z</time>
      </trkpt>
      <trkpt lat="43.42338" lon="1.87772">
        <ele>243.39999389648</ele>
        <time>2023-06-05T12:25:16.000Z</time>
      </trkpt>
      <trkpt lat="43.4234" lon="1.87769">
        <ele>243.60000610352</ele>
        <time>2023-06-05T12:25:19.000Z</time>
      </trkpt>
      <trkpt lat="43.4234" lon="1.87768">
        <ele>243.80000305176</ele>
        <time>2023-06-05T12:25:24.000Z</time>
      </trkpt>
      <trkpt lat="43.42342" lon="1.87762">
        <ele>243.60000610352</ele>
        <time>2023-06-05T12:25:36.000Z</time>
      </trkpt>
      <trkpt lat="43.42347" lon="1.87752">
        <ele>243.80000305176</ele>
        <time>2023-06-05T12:25:46.000Z</time>
      </trkpt>
      <trkpt lat="43.42353" lon="1.87742">
        <ele>244.19999694824</ele>
        <time>2023-06-05T12:25:56.000Z</time>
      </trkpt>
      <trkpt lat="43.42354" lon="1.8774">
        <ele>244.39999389648</ele>
        <time>2023-06-05T12:25:58.000Z</time>
      </trkpt>
      <trkpt lat="43.42357" lon="1.87734">
        <ele>244.60000610352</ele>
        <time>2023-06-05T12:26:04.000Z</time>
      </trkpt>
      <trkpt lat="43.42362" lon="1.87725">
        <ele>245.39999389648</ele>
        <time>2023-06-05T12:26:12.000Z</time>
      </trkpt>
      <trkpt lat="43.42368" lon="1.87713">
        <ele>245.80000305176</ele>
        <time>2023-06-05T12:26:23.000Z</time>
      </trkpt>
      <trkpt lat="43.42373" lon="1.87703">
        <ele>246.39999389648</ele>
        <time>2023-06-05T12:26:32.000Z</time>
      </trkpt>
      <trkpt lat="43.42374" lon="1.87702">
        <ele>246.39999389648</ele>
        <time>2023-06-05T12:26:34.000Z</time>
      </trkpt>
      <trkpt lat="43.4238" lon="1.87691">
        <ele>247</ele>
        <time>2023-06-05T12:26:44.000Z</time>
      </trkpt>
      <trkpt lat="43.42383" lon="1.87686">
        <ele>247.39999389648</ele>
        <time>2023-06-05T12:26:49.000Z</time>
      </trkpt>
      <trkpt lat="43.42385" lon="1.87682">
        <ele>247.80000305176</ele>
        <time>2023-06-05T12:26:53.000Z</time>
      </trkpt>
      <trkpt lat="43.42388" lon="1.87678">
        <ele>248.60000610352</ele>
        <time>2023-06-05T12:26:58.000Z</time>
      </trkpt>
      <trkpt lat="43.4239" lon="1.87676">
        <ele>248.60000610352</ele>
        <time>2023-06-05T12:27:03.000Z</time>
      </trkpt>
      <trkpt lat="43.42394" lon="1.87674">
        <ele>248.19999694824</ele>
        <time>2023-06-05T12:27:15.000Z</time>
      </trkpt>
      <trkpt lat="43.42399" lon="1.87666">
        <ele>249</ele>
        <time>2023-06-05T12:27:23.000Z</time>
      </trkpt>
      <trkpt lat="43.42404" lon="1.87657">
        <ele>249.19999694824</ele>
        <time>2023-06-05T12:27:32.000Z</time>
      </trkpt>
      <trkpt lat="43.42406" lon="1.87651">
        <ele>249.60000610352</ele>
        <time>2023-06-05T12:27:36.000Z</time>
      </trkpt>
      <trkpt lat="43.42406" lon="1.8765">
        <ele>249.80000305176</ele>
        <time>2023-06-05T12:27:37.000Z</time>
      </trkpt>
      <trkpt lat="43.42407" lon="1.87648">
        <ele>250.19999694824</ele>
        <time>2023-06-05T12:27:39.000Z</time>
      </trkpt>
      <trkpt lat="43.42411" lon="1.87639">
        <ele>250.19999694824</ele>
        <time>2023-06-05T12:27:47.000Z</time>
      </trkpt>
      <trkpt lat="43.42414" lon="1.87628">
        <ele>250.80000305176</ele>
        <time>2023-06-05T12:27:55.000Z</time>
      </trkpt>
      <trkpt lat="43.42415" lon="1.87627">
        <ele>250.80000305176</ele>
        <time>2023-06-05T12:27:56.000Z</time>
      </trkpt>
      <trkpt lat="43.42418" lon="1.87615">
        <ele>251</ele>
        <time>2023-06-05T12:28:05.000Z</time>
      </trkpt>
      <trkpt lat="43.42421" lon="1.87601">
        <ele>251.60000610352</ele>
        <time>2023-06-05T12:28:15.000Z</time>
      </trkpt>
      <trkpt lat="43.42421" lon="1.87601">
        <ele>251.80000305176</ele>
        <time>2023-06-05T12:28:16.000Z</time>
      </trkpt>
      <trkpt lat="43.42422" lon="1.87594">
        <ele>252</ele>
        <time>2023-06-05T12:28:21.000Z</time>
      </trkpt>
      <trkpt lat="43.42422" lon="1.87593">
        <ele>252.19999694824</ele>
        <time>2023-06-05T12:28:22.000Z</time>
      </trkpt>
      <trkpt lat="43.42423" lon="1.87589">
        <ele>252.19999694824</ele>
        <time>2023-06-05T12:28:25.000Z</time>
      </trkpt>
      <trkpt lat="43.42425" lon="1.87578">
        <ele>252.80000305176</ele>
        <time>2023-06-05T12:28:33.000Z</time>
      </trkpt>
      <trkpt lat="43.42425" lon="1.87577">
        <ele>252.80000305176</ele>
        <time>2023-06-05T12:28:34.000Z</time>
      </trkpt>
      <trkpt lat="43.42427" lon="1.87566">
        <ele>253.39999389648</ele>
        <time>2023-06-05T12:28:42.000Z</time>
      </trkpt>
      <trkpt lat="43.42428" lon="1.87557">
        <ele>253.80000305176</ele>
        <time>2023-06-05T12:28:50.000Z</time>
      </trkpt>
      <trkpt lat="43.42431" lon="1.87545">
        <ele>254.19999694824</ele>
        <time>2023-06-05T12:29:00.000Z</time>
      </trkpt>
      <trkpt lat="43.42432" lon="1.87537">
        <ele>254.80000305176</ele>
        <time>2023-06-05T12:29:06.000Z</time>
      </trkpt>
      <trkpt lat="43.42432" lon="1.87536">
        <ele>255</ele>
        <time>2023-06-05T12:29:07.000Z</time>
      </trkpt>
      <trkpt lat="43.42436" lon="1.87526">
        <ele>255.80000305176</ele>
        <time>2023-06-05T12:29:16.000Z</time>
      </trkpt>
      <trkpt lat="43.42436" lon="1.87524">
        <ele>255.80000305176</ele>
        <time>2023-06-05T12:29:17.000Z</time>
      </trkpt>
      <trkpt lat="43.42438" lon="1.87517">
        <ele>256.79998779297</ele>
        <time>2023-06-05T12:29:24.000Z</time>
      </trkpt>
      <trkpt lat="43.42438" lon="1.87516">
        <ele>257</ele>
        <time>2023-06-05T12:29:25.000Z</time>
      </trkpt>
      <trkpt lat="43.4244" lon="1.87514">
        <ele>257.20001220703</ele>
        <time>2023-06-05T12:29:32.000Z</time>
      </trkpt>
      <trkpt lat="43.4244" lon="1.87513">
        <ele>257</ele>
        <time>2023-06-05T12:29:40.000Z</time>
      </trkpt>
      <trkpt lat="43.42441" lon="1.87512">
        <ele>257.20001220703</ele>
        <time>2023-06-05T12:29:55.000Z</time>
      </trkpt>
      <trkpt lat="43.42442" lon="1.87512">
        <ele>257</ele>
        <time>2023-06-05T12:30:05.000Z</time>
      </trkpt>
      <trkpt lat="43.42443" lon="1.87511">
        <ele>257</ele>
        <time>2023-06-05T12:30:18.000Z</time>
      </trkpt>
      <trkpt lat="43.42443" lon="1.87509">
        <ele>257</ele>
        <time>2023-06-05T12:30:27.000Z</time>
      </trkpt>
      <trkpt lat="43.42448" lon="1.87501">
        <ele>257.39999389648</ele>
        <time>2023-06-05T12:30:37.000Z</time>
      </trkpt>
      <trkpt lat="43.42448" lon="1.87498">
        <ele>258</ele>
        <time>2023-06-05T12:30:41.000Z</time>
      </trkpt>
      <trkpt lat="43.42452" lon="1.87492">
        <ele>258.20001220703</ele>
        <time>2023-06-05T12:30:48.000Z</time>
      </trkpt>
      <trkpt lat="43.42457" lon="1.87484">
        <ele>258.60000610352</ele>
        <time>2023-06-05T12:30:56.000Z</time>
      </trkpt>
      <trkpt lat="43.42459" lon="1.87481">
        <ele>259</ele>
        <time>2023-06-05T12:31:00.000Z</time>
      </trkpt>
      <trkpt lat="43.42461" lon="1.87477">
        <ele>259.39999389648</ele>
        <time>2023-06-05T12:31:04.000Z</time>
      </trkpt>
      <trkpt lat="43.42463" lon="1.87473">
        <ele>259.39999389648</ele>
        <time>2023-06-05T12:31:08.000Z</time>
      </trkpt>
      <trkpt lat="43.42463" lon="1.87472">
        <ele>259.60000610352</ele>
        <time>2023-06-05T12:31:10.000Z</time>
      </trkpt>
      <trkpt lat="43.42463" lon="1.87471">
        <ele>259.79998779297</ele>
        <time>2023-06-05T12:31:11.000Z</time>
      </trkpt>
      <trkpt lat="43.42464" lon="1.8747">
        <ele>260.20001220703</ele>
        <time>2023-06-05T12:31:13.000Z</time>
      </trkpt>
      <trkpt lat="43.42467" lon="1.87466">
        <ele>260.79998779297</ele>
        <time>2023-06-05T12:31:20.000Z</time>
      </trkpt>
      <trkpt lat="43.4247" lon="1.87461">
        <ele>261.20001220703</ele>
        <time>2023-06-05T12:31:27.000Z</time>
      </trkpt>
      <trkpt lat="43.42472" lon="1.87459">
        <ele>261.60000610352</ele>
        <time>2023-06-05T12:31:32.000Z</time>
      </trkpt>
      <trkpt lat="43.42476" lon="1.87453">
        <ele>261.39999389648</ele>
        <time>2023-06-05T12:31:38.000Z</time>
      </trkpt>
      <trkpt lat="43.42483" lon="1.87442">
        <ele>262.20001220703</ele>
        <time>2023-06-05T12:31:49.000Z</time>
      </trkpt>
      <trkpt lat="43.42484" lon="1.87441">
        <ele>262.20001220703</ele>
        <time>2023-06-05T12:31:50.000Z</time>
      </trkpt>
      <trkpt lat="43.42488" lon="1.87434">
        <ele>263</ele>
        <time>2023-06-05T12:31:57.000Z</time>
      </trkpt>
      <trkpt lat="43.42489" lon="1.87431">
        <ele>263.39999389648</ele>
        <time>2023-06-05T12:32:00.000Z</time>
      </trkpt>
      <trkpt lat="43.42492" lon="1.87427">
        <ele>263.60000610352</ele>
        <time>2023-06-05T12:32:05.000Z</time>
      </trkpt>
      <trkpt lat="43.42495" lon="1.87421">
        <ele>264</ele>
        <time>2023-06-05T12:32:11.000Z</time>
      </trkpt>
      <trkpt lat="43.42496" lon="1.87419">
        <ele>264</ele>
        <time>2023-06-05T12:32:12.000Z</time>
      </trkpt>
      <trkpt lat="43.42498" lon="1.87412">
        <ele>264.20001220703</ele>
        <time>2023-06-05T12:32:18.000Z</time>
      </trkpt>
      <trkpt lat="43.42498" lon="1.87411">
        <ele>264.39999389648</ele>
        <time>2023-06-05T12:32:19.000Z</time>
      </trkpt>
      <trkpt lat="43.425" lon="1.87403">
        <ele>264.60000610352</ele>
        <time>2023-06-05T12:32:26.000Z</time>
      </trkpt>
      <trkpt lat="43.425" lon="1.87398">
        <ele>264.79998779297</ele>
        <time>2023-06-05T12:32:30.000Z</time>
      </trkpt>
      <trkpt lat="43.42501" lon="1.87395">
        <ele>265</ele>
        <time>2023-06-05T12:32:33.000Z</time>
      </trkpt>
      <trkpt lat="43.42502" lon="1.87392">
        <ele>265.20001220703</ele>
        <time>2023-06-05T12:32:36.000Z</time>
      </trkpt>
      <trkpt lat="43.42502" lon="1.87391">
        <ele>265.39999389648</ele>
        <time>2023-06-05T12:32:37.000Z</time>
      </trkpt>
      <trkpt lat="43.42503" lon="1.87387">
        <ele>265.60000610352</ele>
        <time>2023-06-05T12:32:40.000Z</time>
      </trkpt>
      <trkpt lat="43.42503" lon="1.87386">
        <ele>265.79998779297</ele>
        <time>2023-06-05T12:32:46.000Z</time>
      </trkpt>
      <trkpt lat="43.42504" lon="1.87385">
        <ele>266</ele>
        <time>2023-06-05T12:32:54.000Z</time>
      </trkpt>
      <trkpt lat="43.42504" lon="1.87381">
        <ele>266.20001220703</ele>
        <time>2023-06-05T12:33:05.000Z</time>
      </trkpt>
      <trkpt lat="43.42505" lon="1.87381">
        <ele>265.79998779297</ele>
        <time>2023-06-05T12:33:14.000Z</time>
      </trkpt>
      <trkpt lat="43.42507" lon="1.87378">
        <ele>265.79998779297</ele>
        <time>2023-06-05T12:33:21.000Z</time>
      </trkpt>
      <trkpt lat="43.4251" lon="1.87377">
        <ele>265.79998779297</ele>
        <time>2023-06-05T12:33:29.000Z</time>
      </trkpt>
      <trkpt lat="43.4251" lon="1.87375">
        <ele>265.79998779297</ele>
        <time>2023-06-05T12:33:39.000Z</time>
      </trkpt>
      <trkpt lat="43.42512" lon="1.87367">
        <ele>266</ele>
        <time>2023-06-05T12:33:46.000Z</time>
      </trkpt>
      <trkpt lat="43.42512" lon="1.87364">
        <ele>266</ele>
        <time>2023-06-05T12:33:52.000Z</time>
      </trkpt>
      <trkpt lat="43.42511" lon="1.87364">
        <ele>266.39999389648</ele>
        <time>2023-06-05T12:33:54.000Z</time>
      </trkpt>
      <trkpt lat="43.42512" lon="1.87359">
        <ele>266.39999389648</ele>
        <time>2023-06-05T12:33:58.000Z</time>
      </trkpt>
      <trkpt lat="43.42514" lon="1.87346">
        <ele>266.79998779297</ele>
        <time>2023-06-05T12:34:07.000Z</time>
      </trkpt>
      <trkpt lat="43.42517" lon="1.87333">
        <ele>266.20001220703</ele>
        <time>2023-06-05T12:34:16.000Z</time>
      </trkpt>
      <trkpt lat="43.4252" lon="1.87318">
        <ele>266.39999389648</ele>
        <time>2023-06-05T12:34:26.000Z</time>
      </trkpt>
      <trkpt lat="43.42524" lon="1.87306">
        <ele>266.79998779297</ele>
        <time>2023-06-05T12:34:35.000Z</time>
      </trkpt>
      <trkpt lat="43.42529" lon="1.87295">
        <ele>267</ele>
        <time>2023-06-05T12:34:44.000Z</time>
      </trkpt>
      <trkpt lat="43.42534" lon="1.87287">
        <ele>267.39999389648</ele>
        <time>2023-06-05T12:34:52.000Z</time>
      </trkpt>
      <trkpt lat="43.42535" lon="1.87286">
        <ele>267.60000610352</ele>
        <time>2023-06-05T12:34:53.000Z</time>
      </trkpt>
      <trkpt lat="43.4254" lon="1.8728">
        <ele>268</ele>
        <time>2023-06-05T12:35:00.000Z</time>
      </trkpt>
      <trkpt lat="43.42541" lon="1.87278">
        <ele>268</ele>
        <time>2023-06-05T12:35:02.000Z</time>
      </trkpt>
      <trkpt lat="43.42543" lon="1.87275">
        <ele>268</ele>
        <time>2023-06-05T12:35:05.000Z</time>
      </trkpt>
      <trkpt lat="43.42544" lon="1.87273">
        <ele>268</ele>
        <time>2023-06-05T12:35:07.000Z</time>
      </trkpt>
      <trkpt lat="43.42545" lon="1.87269">
        <ele>268.20001220703</ele>
        <time>2023-06-05T12:35:10.000Z</time>
      </trkpt>
      <trkpt lat="43.42547" lon="1.87264">
        <ele>268.60000610352</ele>
        <time>2023-06-05T12:35:15.000Z</time>
      </trkpt>
      <trkpt lat="43.42546" lon="1.87263">
        <ele>268.60000610352</ele>
        <time>2023-06-05T12:35:16.000Z</time>
      </trkpt>
      <trkpt lat="43.42547" lon="1.87261">
        <ele>268.79998779297</ele>
        <time>2023-06-05T12:35:17.000Z</time>
      </trkpt>
      <trkpt lat="43.42549" lon="1.87255">
        <ele>269.20001220703</ele>
        <time>2023-06-05T12:35:23.000Z</time>
      </trkpt>
      <trkpt lat="43.42549" lon="1.87254">
        <ele>269.20001220703</ele>
        <time>2023-06-05T12:35:24.000Z</time>
      </trkpt>
      <trkpt lat="43.42549" lon="1.87253">
        <ele>269.20001220703</ele>
        <time>2023-06-05T12:35:25.000Z</time>
      </trkpt>
      <trkpt lat="43.4255" lon="1.8725">
        <ele>269.60000610352</ele>
        <time>2023-06-05T12:35:28.000Z</time>
      </trkpt>
      <trkpt lat="43.42552" lon="1.87244">
        <ele>270.20001220703</ele>
        <time>2023-06-05T12:35:34.000Z</time>
      </trkpt>
      <trkpt lat="43.42553" lon="1.87238">
        <ele>270.60000610352</ele>
        <time>2023-06-05T12:35:40.000Z</time>
      </trkpt>
      <trkpt lat="43.42554" lon="1.87235">
        <ele>270.79998779297</ele>
        <time>2023-06-05T12:35:42.000Z</time>
      </trkpt>
      <trkpt lat="43.42556" lon="1.87226">
        <ele>271.79998779297</ele>
        <time>2023-06-05T12:35:50.000Z</time>
      </trkpt>
      <trkpt lat="43.42556" lon="1.87226">
        <ele>271.79998779297</ele>
        <time>2023-06-05T12:35:51.000Z</time>
      </trkpt>
      <trkpt lat="43.42559" lon="1.87218">
        <ele>272.79998779297</ele>
        <time>2023-06-05T12:35:58.000Z</time>
      </trkpt>
      <trkpt lat="43.42559" lon="1.87217">
        <ele>272.79998779297</ele>
        <time>2023-06-05T12:35:59.000Z</time>
      </trkpt>
      <trkpt lat="43.42563" lon="1.87208">
        <ele>273.79998779297</ele>
        <time>2023-06-05T12:36:07.000Z</time>
      </trkpt>
      <trkpt lat="43.42563" lon="1.87208">
        <ele>273.79998779297</ele>
        <time>2023-06-05T12:36:08.000Z</time>
      </trkpt>
      <trkpt lat="43.42564" lon="1.87207">
        <ele>273.79998779297</ele>
        <time>2023-06-05T12:36:09.000Z</time>
      </trkpt>
      <trkpt lat="43.42566" lon="1.87206">
        <ele>273.79998779297</ele>
        <time>2023-06-05T12:36:12.000Z</time>
      </trkpt>
      <trkpt lat="43.42573" lon="1.87204">
        <ele>273.79998779297</ele>
        <time>2023-06-05T12:36:21.000Z</time>
      </trkpt>
      <trkpt lat="43.42581" lon="1.87206">
        <ele>274.20001220703</ele>
        <time>2023-06-05T12:36:30.000Z</time>
      </trkpt>
      <trkpt lat="43.42592" lon="1.87207">
        <ele>274.60000610352</ele>
        <time>2023-06-05T12:36:41.000Z</time>
      </trkpt>
      <trkpt lat="43.42596" lon="1.87206">
        <ele>274.79998779297</ele>
        <time>2023-06-05T12:36:45.000Z</time>
      </trkpt>
      <trkpt lat="43.42603" lon="1.87204">
        <ele>275.60000610352</ele>
        <time>2023-06-05T12:36:52.000Z</time>
      </trkpt>
      <trkpt lat="43.42605" lon="1.87203">
        <ele>275.79998779297</ele>
        <time>2023-06-05T12:36:55.000Z</time>
      </trkpt>
      <trkpt lat="43.4261" lon="1.87199">
        <ele>276</ele>
        <time>2023-06-05T12:37:01.000Z</time>
      </trkpt>
      <trkpt lat="43.42614" lon="1.87195">
        <ele>276.60000610352</ele>
        <time>2023-06-05T12:37:08.000Z</time>
      </trkpt>
      <trkpt lat="43.42616" lon="1.87192">
        <ele>277</ele>
        <time>2023-06-05T12:37:11.000Z</time>
      </trkpt>
      <trkpt lat="43.42616" lon="1.87191">
        <ele>277.20001220703</ele>
        <time>2023-06-05T12:37:15.000Z</time>
      </trkpt>
      <trkpt lat="43.42617" lon="1.87189">
        <ele>277</ele>
        <time>2023-06-05T12:37:26.000Z</time>
      </trkpt>
      <trkpt lat="43.42617" lon="1.87189">
        <ele>277.20001220703</ele>
        <time>2023-06-05T12:37:36.000Z</time>
      </trkpt>
      <trkpt lat="43.42618" lon="1.87188">
        <ele>277.20001220703</ele>
        <time>2023-06-05T12:37:50.000Z</time>
      </trkpt>
      <trkpt lat="43.42619" lon="1.87187">
        <ele>277</ele>
        <time>2023-06-05T12:37:58.000Z</time>
      </trkpt>
      <trkpt lat="43.42622" lon="1.87183">
        <ele>277.20001220703</ele>
        <time>2023-06-05T12:38:05.000Z</time>
      </trkpt>
      <trkpt lat="43.42626" lon="1.87174">
        <ele>277.79998779297</ele>
        <time>2023-06-05T12:38:13.000Z</time>
      </trkpt>
      <trkpt lat="43.42626" lon="1.87168">
        <ele>277.79998779297</ele>
        <time>2023-06-05T12:38:20.000Z</time>
      </trkpt>
      <trkpt lat="43.42628" lon="1.87164">
        <ele>277.60000610352</ele>
        <time>2023-06-05T12:38:28.000Z</time>
      </trkpt>
      <trkpt lat="43.42635" lon="1.87159">
        <ele>277.60000610352</ele>
        <time>2023-06-05T12:38:35.000Z</time>
      </trkpt>
      <trkpt lat="43.42641" lon="1.87154">
        <ele>277.60000610352</ele>
        <time>2023-06-05T12:38:42.000Z</time>
      </trkpt>
      <trkpt lat="43.42647" lon="1.87143">
        <ele>277.39999389648</ele>
        <time>2023-06-05T12:38:51.000Z</time>
      </trkpt>
      <trkpt lat="43.42652" lon="1.87132">
        <ele>277</ele>
        <time>2023-06-05T12:38:59.000Z</time>
      </trkpt>
      <trkpt lat="43.42656" lon="1.87119">
        <ele>276.20001220703</ele>
        <time>2023-06-05T12:39:08.000Z</time>
      </trkpt>
      <trkpt lat="43.4266" lon="1.87105">
        <ele>276</ele>
        <time>2023-06-05T12:39:18.000Z</time>
      </trkpt>
      <trkpt lat="43.4266" lon="1.87103">
        <ele>276</ele>
        <time>2023-06-05T12:39:19.000Z</time>
      </trkpt>
      <trkpt lat="43.4266" lon="1.87101">
        <ele>275.79998779297</ele>
        <time>2023-06-05T12:39:21.000Z</time>
      </trkpt>
      <trkpt lat="43.42661" lon="1.87097">
        <ele>275.60000610352</ele>
        <time>2023-06-05T12:39:23.000Z</time>
      </trkpt>
      <trkpt lat="43.42663" lon="1.87086">
        <ele>275</ele>
        <time>2023-06-05T12:39:30.000Z</time>
      </trkpt>
      <trkpt lat="43.42664" lon="1.87079">
        <ele>274.60000610352</ele>
        <time>2023-06-05T12:39:35.000Z</time>
      </trkpt>
      <trkpt lat="43.42666" lon="1.87065">
        <ele>274.39999389648</ele>
        <time>2023-06-05T12:39:44.000Z</time>
      </trkpt>
      <trkpt lat="43.42666" lon="1.87062">
        <ele>274.20001220703</ele>
        <time>2023-06-05T12:39:46.000Z</time>
      </trkpt>
      <trkpt lat="43.42668" lon="1.87056">
        <ele>274</ele>
        <time>2023-06-05T12:39:50.000Z</time>
      </trkpt>
      <trkpt lat="43.42668" lon="1.87055">
        <ele>274</ele>
        <time>2023-06-05T12:39:51.000Z</time>
      </trkpt>
      <trkpt lat="43.42668" lon="1.87044">
        <ele>273.60000610352</ele>
        <time>2023-06-05T12:39:58.000Z</time>
      </trkpt>
      <trkpt lat="43.4267" lon="1.87031">
        <ele>273.39999389648</ele>
        <time>2023-06-05T12:40:06.000Z</time>
      </trkpt>
      <trkpt lat="43.42669" lon="1.87017">
        <ele>273.39999389648</ele>
        <time>2023-06-05T12:40:16.000Z</time>
      </trkpt>
      <trkpt lat="43.42669" lon="1.87016">
        <ele>273.39999389648</ele>
        <time>2023-06-05T12:40:17.000Z</time>
      </trkpt>
      <trkpt lat="43.42664" lon="1.8701">
        <ele>273.20001220703</ele>
        <time>2023-06-05T12:40:25.000Z</time>
      </trkpt>
      <trkpt lat="43.42663" lon="1.8701">
        <ele>273.20001220703</ele>
        <time>2023-06-05T12:40:26.000Z</time>
      </trkpt>
      <trkpt lat="43.42662" lon="1.8701">
        <ele>273.60000610352</ele>
        <time>2023-06-05T12:40:32.000Z</time>
      </trkpt>
      <trkpt lat="43.42663" lon="1.8701">
        <ele>273</ele>
        <time>2023-06-05T12:40:38.000Z</time>
      </trkpt>
      <trkpt lat="43.42663" lon="1.8701">
        <ele>273</ele>
        <time>2023-06-05T12:40:39.000Z</time>
      </trkpt>
      <trkpt lat="43.42663" lon="1.8701">
        <ele>272.79998779297</ele>
        <time>2023-06-05T12:40:48.000Z</time>
      </trkpt>
      <trkpt lat="43.42663" lon="1.87005">
        <ele>273</ele>
        <time>2023-06-05T12:40:55.000Z</time>
      </trkpt>
      <trkpt lat="43.42658" lon="1.86998">
        <ele>273</ele>
        <time>2023-06-05T12:41:01.000Z</time>
      </trkpt>
      <trkpt lat="43.4265" lon="1.8699">
        <ele>272.60000610352</ele>
        <time>2023-06-05T12:41:10.000Z</time>
      </trkpt>
      <trkpt lat="43.42647" lon="1.86989">
        <ele>272.60000610352</ele>
        <time>2023-06-05T12:41:14.000Z</time>
      </trkpt>
      <trkpt lat="43.42647" lon="1.86991">
        <ele>272.60000610352</ele>
        <time>2023-06-05T12:41:16.000Z</time>
      </trkpt>
      <trkpt lat="43.42646" lon="1.86988">
        <ele>273</ele>
        <time>2023-06-05T12:41:24.000Z</time>
      </trkpt>
      <trkpt lat="43.4264" lon="1.86979">
        <ele>272.39999389648</ele>
        <time>2023-06-05T12:41:33.000Z</time>
      </trkpt>
      <trkpt lat="43.42631" lon="1.8697">
        <ele>272.39999389648</ele>
        <time>2023-06-05T12:41:42.000Z</time>
      </trkpt>
      <trkpt lat="43.42622" lon="1.86961">
        <ele>272.20001220703</ele>
        <time>2023-06-05T12:41:52.000Z</time>
      </trkpt>
      <trkpt lat="43.42614" lon="1.86953">
        <ele>272.39999389648</ele>
        <time>2023-06-05T12:42:00.000Z</time>
      </trkpt>
      <trkpt lat="43.42605" lon="1.86944">
        <ele>272.20001220703</ele>
        <time>2023-06-05T12:42:10.000Z</time>
      </trkpt>
      <trkpt lat="43.42596" lon="1.86936">
        <ele>272.20001220703</ele>
        <time>2023-06-05T12:42:19.000Z</time>
      </trkpt>
      <trkpt lat="43.42587" lon="1.86925">
        <ele>272.39999389648</ele>
        <time>2023-06-05T12:42:29.000Z</time>
      </trkpt>
      <trkpt lat="43.42578" lon="1.86916">
        <ele>272.39999389648</ele>
        <time>2023-06-05T12:42:39.000Z</time>
      </trkpt>
      <trkpt lat="43.42577" lon="1.86913">
        <ele>272.39999389648</ele>
        <time>2023-06-05T12:42:41.000Z</time>
      </trkpt>
      <trkpt lat="43.42577" lon="1.86909">
        <ele>272.39999389648</ele>
        <time>2023-06-05T12:42:44.000Z</time>
      </trkpt>
      <trkpt lat="43.42578" lon="1.86907">
        <ele>272.39999389648</ele>
        <time>2023-06-05T12:42:46.000Z</time>
      </trkpt>
      <trkpt lat="43.42578" lon="1.86907">
        <ele>272.60000610352</ele>
        <time>2023-06-05T12:42:53.000Z</time>
      </trkpt>
      <trkpt lat="43.42576" lon="1.8691">
        <ele>272.20001220703</ele>
        <time>2023-06-05T12:42:59.000Z</time>
      </trkpt>
      <trkpt lat="43.42576" lon="1.86911">
        <ele>272.60000610352</ele>
        <time>2023-06-05T12:43:06.000Z</time>
      </trkpt>
      <trkpt lat="43.42579" lon="1.86907">
        <ele>272.60000610352</ele>
        <time>2023-06-05T12:43:11.000Z</time>
      </trkpt>
      <trkpt lat="43.42581" lon="1.86903">
        <ele>272.39999389648</ele>
        <time>2023-06-05T12:43:18.000Z</time>
      </trkpt>
      <trkpt lat="43.42581" lon="1.869">
        <ele>272.39999389648</ele>
        <time>2023-06-05T12:43:24.000Z</time>
      </trkpt>
      <trkpt lat="43.42583" lon="1.86892">
        <ele>272.39999389648</ele>
        <time>2023-06-05T12:43:31.000Z</time>
      </trkpt>
      <trkpt lat="43.42584" lon="1.86883">
        <ele>272.60000610352</ele>
        <time>2023-06-05T12:43:38.000Z</time>
      </trkpt>
      <trkpt lat="43.42585" lon="1.86883">
        <ele>272.60000610352</ele>
        <time>2023-06-05T12:43:44.000Z</time>
      </trkpt>
      <trkpt lat="43.42587" lon="1.86887">
        <ele>272.60000610352</ele>
        <time>2023-06-05T12:43:50.000Z</time>
      </trkpt>
      <trkpt lat="43.42591" lon="1.86883">
        <ele>272.20001220703</ele>
        <time>2023-06-05T12:43:56.000Z</time>
      </trkpt>
      <trkpt lat="43.42594" lon="1.86877">
        <ele>272</ele>
        <time>2023-06-05T12:44:01.000Z</time>
      </trkpt>
      <trkpt lat="43.42595" lon="1.86874">
        <ele>272</ele>
        <time>2023-06-05T12:44:04.000Z</time>
      </trkpt>
      <trkpt lat="43.42598" lon="1.86869">
        <ele>271.79998779297</ele>
        <time>2023-06-05T12:44:09.000Z</time>
      </trkpt>
      <trkpt lat="43.42602" lon="1.86862">
        <ele>271.39999389648</ele>
        <time>2023-06-05T12:44:15.000Z</time>
      </trkpt>
      <trkpt lat="43.42606" lon="1.86856">
        <ele>271.39999389648</ele>
        <time>2023-06-05T12:44:20.000Z</time>
      </trkpt>
      <trkpt lat="43.42607" lon="1.86854">
        <ele>271.20001220703</ele>
        <time>2023-06-05T12:44:22.000Z</time>
      </trkpt>
      <trkpt lat="43.42609" lon="1.86853">
        <ele>271.20001220703</ele>
        <time>2023-06-05T12:44:23.000Z</time>
      </trkpt>
      <trkpt lat="43.4261" lon="1.8685">
        <ele>271</ele>
        <time>2023-06-05T12:44:26.000Z</time>
      </trkpt>
      <trkpt lat="43.42614" lon="1.86845">
        <ele>270.79998779297</ele>
        <time>2023-06-05T12:44:30.000Z</time>
      </trkpt>
      <trkpt lat="43.42615" lon="1.86844">
        <ele>270.79998779297</ele>
        <time>2023-06-05T12:44:31.000Z</time>
      </trkpt>
      <trkpt lat="43.42616" lon="1.86842">
        <ele>270.79998779297</ele>
        <time>2023-06-05T12:44:33.000Z</time>
      </trkpt>
      <trkpt lat="43.42618" lon="1.86839">
        <ele>270.60000610352</ele>
        <time>2023-06-05T12:44:36.000Z</time>
      </trkpt>
      <trkpt lat="43.42619" lon="1.86837">
        <ele>270.60000610352</ele>
        <time>2023-06-05T12:44:38.000Z</time>
      </trkpt>
      <trkpt lat="43.42625" lon="1.86826">
        <ele>270.39999389648</ele>
        <time>2023-06-05T12:44:46.000Z</time>
      </trkpt>
      <trkpt lat="43.42628" lon="1.86822">
        <ele>270</ele>
        <time>2023-06-05T12:44:50.000Z</time>
      </trkpt>
      <trkpt lat="43.42629" lon="1.86819">
        <ele>270</ele>
        <time>2023-06-05T12:44:52.000Z</time>
      </trkpt>
      <trkpt lat="43.42631" lon="1.86818">
        <ele>270</ele>
        <time>2023-06-05T12:44:53.000Z</time>
      </trkpt>
      <trkpt lat="43.42633" lon="1.86813">
        <ele>269.79998779297</ele>
        <time>2023-06-05T12:44:57.000Z</time>
      </trkpt>
      <trkpt lat="43.42638" lon="1.86805">
        <ele>269.39999389648</ele>
        <time>2023-06-05T12:45:04.000Z</time>
      </trkpt>
      <trkpt lat="43.42639" lon="1.86804">
        <ele>269.39999389648</ele>
        <time>2023-06-05T12:45:05.000Z</time>
      </trkpt>
      <trkpt lat="43.42643" lon="1.86798">
        <ele>268.79998779297</ele>
        <time>2023-06-05T12:45:11.000Z</time>
      </trkpt>
      <trkpt lat="43.42644" lon="1.86797">
        <ele>268.79998779297</ele>
        <time>2023-06-05T12:45:12.000Z</time>
      </trkpt>
      <trkpt lat="43.42644" lon="1.86796">
        <ele>268.60000610352</ele>
        <time>2023-06-05T12:45:13.000Z</time>
      </trkpt>
      <trkpt lat="43.42645" lon="1.86795">
        <ele>268.60000610352</ele>
        <time>2023-06-05T12:45:19.000Z</time>
      </trkpt>
      <trkpt lat="43.42646" lon="1.86791">
        <ele>268.79998779297</ele>
        <time>2023-06-05T12:45:36.000Z</time>
      </trkpt>
      <trkpt lat="43.42646" lon="1.86791">
        <ele>269</ele>
        <time>2023-06-05T12:45:45.000Z</time>
      </trkpt>
      <trkpt lat="43.4265" lon="1.86788">
        <ele>268.60000610352</ele>
        <time>2023-06-05T12:45:59.000Z</time>
      </trkpt>
      <trkpt lat="43.4265" lon="1.86787">
        <ele>268.39999389648</ele>
        <time>2023-06-05T12:46:04.000Z</time>
      </trkpt>
      <trkpt lat="43.42651" lon="1.86786">
        <ele>268.60000610352</ele>
        <time>2023-06-05T12:46:11.000Z</time>
      </trkpt>
      <trkpt lat="43.42652" lon="1.86786">
        <ele>268.39999389648</ele>
        <time>2023-06-05T12:46:19.000Z</time>
      </trkpt>
      <trkpt lat="43.42655" lon="1.86785">
        <ele>268.60000610352</ele>
        <time>2023-06-05T12:46:25.000Z</time>
      </trkpt>
      <trkpt lat="43.42656" lon="1.86787">
        <ele>268.79998779297</ele>
        <time>2023-06-05T12:46:32.000Z</time>
      </trkpt>
      <trkpt lat="43.4266" lon="1.86786">
        <ele>269</ele>
        <time>2023-06-05T12:46:38.000Z</time>
      </trkpt>
      <trkpt lat="43.42662" lon="1.86783">
        <ele>269</ele>
        <time>2023-06-05T12:46:45.000Z</time>
      </trkpt>
      <trkpt lat="43.42669" lon="1.86777">
        <ele>269</ele>
        <time>2023-06-05T12:46:52.000Z</time>
      </trkpt>
      <trkpt lat="43.42677" lon="1.86769">
        <ele>269.20001220703</ele>
        <time>2023-06-05T12:47:02.000Z</time>
      </trkpt>
      <trkpt lat="43.42679" lon="1.86769">
        <ele>269.60000610352</ele>
        <time>2023-06-05T12:47:07.000Z</time>
      </trkpt>
      <trkpt lat="43.42679" lon="1.86768">
        <ele>269.79998779297</ele>
        <time>2023-06-05T12:47:11.000Z</time>
      </trkpt>
      <trkpt lat="43.42679" lon="1.86765">
        <ele>270.20001220703</ele>
        <time>2023-06-05T12:47:14.000Z</time>
      </trkpt>
      <trkpt lat="43.42682" lon="1.86762">
        <ele>269.79998779297</ele>
        <time>2023-06-05T12:47:18.000Z</time>
      </trkpt>
      <trkpt lat="43.42683" lon="1.8676">
        <ele>270</ele>
        <time>2023-06-05T12:47:22.000Z</time>
      </trkpt>
      <trkpt lat="43.42685" lon="1.86762">
        <ele>269.60000610352</ele>
        <time>2023-06-05T12:47:32.000Z</time>
      </trkpt>
      <trkpt lat="43.42685" lon="1.86762">
        <ele>270</ele>
        <time>2023-06-05T12:47:40.000Z</time>
      </trkpt>
      <trkpt lat="43.42685" lon="1.86764">
        <ele>270</ele>
        <time>2023-06-05T12:47:48.000Z</time>
      </trkpt>
      <trkpt lat="43.42685" lon="1.86764">
        <ele>270</ele>
        <time>2023-06-05T12:47:53.000Z</time>
      </trkpt>
      <trkpt lat="43.42685" lon="1.86763">
        <ele>269.79998779297</ele>
        <time>2023-06-05T12:48:00.000Z</time>
      </trkpt>
      <trkpt lat="43.42686" lon="1.86763">
        <ele>269.60000610352</ele>
        <time>2023-06-05T12:48:11.000Z</time>
      </trkpt>
      <trkpt lat="43.42685" lon="1.86766">
        <ele>270.20001220703</ele>
        <time>2023-06-05T12:48:18.000Z</time>
      </trkpt>
      <trkpt lat="43.42685" lon="1.86766">
        <ele>268.39999389648</ele>
        <time>2023-06-05T12:48:19.000Z</time>
      </trkpt>
      <trkpt lat="43.42684" lon="1.86764">
        <ele>265.60000610352</ele>
        <time>2023-06-05T12:48:21.000Z</time>
      </trkpt>
      <trkpt lat="43.42684" lon="1.86764">
        <ele>262.39999389648</ele>
        <time>2023-06-05T12:48:22.000Z</time>
      </trkpt>
      <trkpt lat="43.42683" lon="1.86764">
        <ele>264.79998779297</ele>
        <time>2023-06-05T12:48:23.000Z</time>
      </trkpt>
      <trkpt lat="43.42683" lon="1.86764">
        <ele>266</ele>
        <time>2023-06-05T12:48:24.000Z</time>
      </trkpt>
      <trkpt lat="43.42683" lon="1.86764">
        <ele>267</ele>
        <time>2023-06-05T12:48:25.000Z</time>
      </trkpt>
      <trkpt lat="43.42683" lon="1.86764">
        <ele>268.79998779297</ele>
        <time>2023-06-05T12:48:26.000Z</time>
      </trkpt>
      <trkpt lat="43.42683" lon="1.86764">
        <ele>271.39999389648</ele>
        <time>2023-06-05T12:48:27.000Z</time>
      </trkpt>
      <trkpt lat="43.42682" lon="1.86764">
        <ele>269.79998779297</ele>
        <time>2023-06-05T12:48:28.000Z</time>
      </trkpt>
      <trkpt lat="43.42683" lon="1.86765">
        <ele>269.79998779297</ele>
        <time>2023-06-05T12:48:30.000Z</time>
      </trkpt>
      <trkpt lat="43.42684" lon="1.86766">
        <ele>270</ele>
        <time>2023-06-05T12:48:41.000Z</time>
      </trkpt>
      <trkpt lat="43.42684" lon="1.86764">
        <ele>270.20001220703</ele>
        <time>2023-06-05T12:48:52.000Z</time>
      </trkpt>
      <trkpt lat="43.42684" lon="1.86762">
        <ele>270</ele>
        <time>2023-06-05T12:48:59.000Z</time>
      </trkpt>
      <trkpt lat="43.42686" lon="1.86761">
        <ele>270.20001220703</ele>
        <time>2023-06-05T12:49:07.000Z</time>
      </trkpt>
      <trkpt lat="43.42685" lon="1.86758">
        <ele>270.20001220703</ele>
        <time>2023-06-05T12:49:12.000Z</time>
      </trkpt>
      <trkpt lat="43.42683" lon="1.86756">
        <ele>269.60000610352</ele>
        <time>2023-06-05T12:49:18.000Z</time>
      </trkpt>
      <trkpt lat="43.42683" lon="1.8676">
        <ele>269.39999389648</ele>
        <time>2023-06-05T12:49:25.000Z</time>
      </trkpt>
      <trkpt lat="43.42685" lon="1.86763">
        <ele>270</ele>
        <time>2023-06-05T12:49:34.000Z</time>
      </trkpt>
      <trkpt lat="43.42685" lon="1.86766">
        <ele>270</ele>
        <time>2023-06-05T12:49:41.000Z</time>
      </trkpt>
      <trkpt lat="43.42684" lon="1.86765">
        <ele>269.79998779297</ele>
        <time>2023-06-05T12:49:52.000Z</time>
      </trkpt>
      <trkpt lat="43.42685" lon="1.86764">
        <ele>270</ele>
        <time>2023-06-05T12:49:58.000Z</time>
      </trkpt>
      <trkpt lat="43.42685" lon="1.86766">
        <ele>269.79998779297</ele>
        <time>2023-06-05T12:50:10.000Z</time>
      </trkpt>
      <trkpt lat="43.42685" lon="1.86762">
        <ele>270</ele>
        <time>2023-06-05T12:50:15.000Z</time>
      </trkpt>
    </trkseg>
  </trk>
</gpx>